<?xml version='1.0' encoding='UTF-8'?><gpx version="1.1" creator="JPX - https://github.com/jenetics/jpx" xmlns="http://www.topografix.com/GPX/1/1"><trk><trkseg><trkpt lat="42.2668517" lon="11.8975091"><ele>227.00000000000003</ele><time>2026-04-25T07:53:06.585Z</time></trkpt><trkpt lat="42.2667664" lon="11.8974745"><ele>227.0</ele><time>2026-04-25T07:53:08.585Z</time></trkpt><trkpt lat="42.2666911" lon="11.8974976"><ele>227.0</ele><time>2026-04-25T07:53:10.585Z</time></trkpt><trkpt lat="42.2666708" lon="11.8976147"><ele>227.0</ele><time>2026-04-25T07:53:12.585Z</time></trkpt><trkpt lat="42.2666586" lon="11.8977197"><ele>227.00000000000003</ele><time>2026-04-25T07:53:35.585Z</time></trkpt><trkpt lat="42.2666773" lon="11.8978015"><ele>227.0</ele><time>2026-04-25T07:53:38.585Z</time></trkpt><trkpt lat="42.2667684" lon="11.8978265"><ele>228.8</ele><time>2026-04-25T07:53:40.585Z</time></trkpt><trkpt lat="42.2668728" lon="11.8978681"><ele>230.6</ele><time>2026-04-25T07:53:42.585Z</time></trkpt><trkpt lat="42.2669785" lon="11.8979115"><ele>232.40000000000003</ele><time>2026-04-25T07:53:44.585Z</time></trkpt><trkpt lat="42.2670358" lon="11.898008"><ele>234.20000000000002</ele><time>2026-04-25T07:53:46.585Z</time></trkpt><trkpt lat="42.2670586" lon="11.8981273"><ele>236.0</ele><time>2026-04-25T07:53:48.586Z</time></trkpt><trkpt lat="42.2671228" lon="11.8982004"><ele>236.0</ele><time>2026-04-25T07:53:51.585Z</time></trkpt><trkpt lat="42.2672452" lon="11.8981659"><ele>236.00000000000003</ele><time>2026-04-25T07:53:53.585Z</time></trkpt><trkpt lat="42.2673376" lon="11.8981323"><ele>236.00000000000003</ele><time>2026-04-25T07:53:54.585Z</time></trkpt><trkpt lat="42.2674313" lon="11.8980835"><ele>236.0</ele><time>2026-04-25T07:53:55.585Z</time></trkpt><trkpt lat="42.2675092" lon="11.8980378"><ele>236.0</ele><time>2026-04-25T07:53:56.585Z</time></trkpt><trkpt lat="42.2675837" lon="11.8980215"><ele>236.0</ele><time>2026-04-25T07:53:57.585Z</time></trkpt><trkpt lat="42.2676423" lon="11.8979891"><ele>236.00000000000003</ele><time>2026-04-25T07:53:58.585Z</time></trkpt><trkpt lat="42.2677437" lon="11.8979365"><ele>236.00000000000003</ele><time>2026-04-25T07:54:00.585Z</time></trkpt><trkpt lat="42.2678271" lon="11.8979635"><ele>236.0</ele><time>2026-04-25T07:54:03.585Z</time></trkpt><trkpt lat="42.2678928" lon="11.8981213"><ele>236.0</ele><time>2026-04-25T07:54:05.585Z</time></trkpt><trkpt lat="42.2679379" lon="11.8982109"><ele>236.00000000000003</ele><time>2026-04-25T07:54:06.585Z</time></trkpt><trkpt lat="42.2679814" lon="11.898313"><ele>236.0</ele><time>2026-04-25T07:54:07.585Z</time></trkpt><trkpt lat="42.2680234" lon="11.8984169"><ele>236.0</ele><time>2026-04-25T07:54:08.585Z</time></trkpt><trkpt lat="42.2680656" lon="11.8985173"><ele>236.0</ele><time>2026-04-25T07:54:09.585Z</time></trkpt><trkpt lat="42.268113" lon="11.89861"><ele>236.00000000000003</ele><time>2026-04-25T07:54:10.585Z</time></trkpt><trkpt lat="42.2681586" lon="11.8986982"><ele>236.0</ele><time>2026-04-25T07:54:11.585Z</time></trkpt><trkpt lat="42.2682009" lon="11.8987843"><ele>236.16666666666669</ele><time>2026-04-25T07:54:12.585Z</time></trkpt><trkpt lat="42.2682413" lon="11.8988692"><ele>236.33333333333334</ele><time>2026-04-25T07:54:13.584Z</time></trkpt><trkpt lat="42.2682821" lon="11.8989513"><ele>236.5</ele><time>2026-04-25T07:54:14.585Z</time></trkpt><trkpt lat="42.2683253" lon="11.8990346"><ele>236.66666666666669</ele><time>2026-04-25T07:54:15.585Z</time></trkpt><trkpt lat="42.2683687" lon="11.8991222"><ele>236.83333333333334</ele><time>2026-04-25T07:54:16.585Z</time></trkpt><trkpt lat="42.2684119" lon="11.8992126"><ele>237.0</ele><time>2026-04-25T07:54:17.586Z</time></trkpt><trkpt lat="42.2684548" lon="11.8993077"><ele>237.16666666666666</ele><time>2026-04-25T07:54:18.585Z</time></trkpt><trkpt lat="42.2685005" lon="11.8994028"><ele>237.33333333333331</ele><time>2026-04-25T07:54:19.584Z</time></trkpt><trkpt lat="42.2685465" lon="11.8995"><ele>237.5</ele><time>2026-04-25T07:54:20.585Z</time></trkpt><trkpt lat="42.2685943" lon="11.899599"><ele>237.66666666666666</ele><time>2026-04-25T07:54:21.585Z</time></trkpt><trkpt lat="42.268643" lon="11.8997003"><ele>237.83333333333331</ele><time>2026-04-25T07:54:22.585Z</time></trkpt><trkpt lat="42.2686915" lon="11.8998069"><ele>238.0</ele><time>2026-04-25T07:54:23.585Z</time></trkpt><trkpt lat="42.2687385" lon="11.899908"><ele>238.0</ele><time>2026-04-25T07:54:24.585Z</time></trkpt><trkpt lat="42.2687908" lon="11.9000214"><ele>238.0</ele><time>2026-04-25T07:54:25.586Z</time></trkpt><trkpt lat="42.2688472" lon="11.9001395"><ele>238.0</ele><time>2026-04-25T07:54:26.585Z</time></trkpt><trkpt lat="42.2689069" lon="11.9002622"><ele>238.0</ele><time>2026-04-25T07:54:27.585Z</time></trkpt><trkpt lat="42.2689636" lon="11.9003809"><ele>238.0</ele><time>2026-04-25T07:54:28.585Z</time></trkpt><trkpt lat="42.2690175" lon="11.9004966"><ele>238.0</ele><time>2026-04-25T07:54:29.584Z</time></trkpt><trkpt lat="42.2690735" lon="11.9006126"><ele>238.0</ele><time>2026-04-25T07:54:30.586Z</time></trkpt><trkpt lat="42.2691356" lon="11.9007344"><ele>238.0</ele><time>2026-04-25T07:54:31.585Z</time></trkpt><trkpt lat="42.2692017" lon="11.9008644"><ele>238.0</ele><time>2026-04-25T07:54:32.585Z</time></trkpt><trkpt lat="42.2692725" lon="11.9010104"><ele>238.0</ele><time>2026-04-25T07:54:33.585Z</time></trkpt><trkpt lat="42.2693458" lon="11.9011613"><ele>238.0</ele><time>2026-04-25T07:54:34.585Z</time></trkpt><trkpt lat="42.2694105" lon="11.9012948"><ele>238.0</ele><time>2026-04-25T07:54:35.585Z</time></trkpt><trkpt lat="42.2694704" lon="11.9014191"><ele>238.0</ele><time>2026-04-25T07:54:36.585Z</time></trkpt><trkpt lat="42.2695266" lon="11.9015315"><ele>237.99999999999997</ele><time>2026-04-25T07:54:37.585Z</time></trkpt><trkpt lat="42.2695778" lon="11.9016341"><ele>238.0</ele><time>2026-04-25T07:54:38.585Z</time></trkpt><trkpt lat="42.2696217" lon="11.9017301"><ele>238.0</ele><time>2026-04-25T07:54:39.585Z</time></trkpt><trkpt lat="42.2696618" lon="11.9018209"><ele>238.0</ele><time>2026-04-25T07:54:40.585Z</time></trkpt><trkpt lat="42.2696953" lon="11.9019053"><ele>237.99999999999997</ele><time>2026-04-25T07:54:41.585Z</time></trkpt><trkpt lat="42.2697225" lon="11.9019821"><ele>238.0</ele><time>2026-04-25T07:54:42.585Z</time></trkpt><trkpt lat="42.2697548" lon="11.9021203"><ele>237.66666666666666</ele><time>2026-04-25T07:54:44.585Z</time></trkpt><trkpt lat="42.2697871" lon="11.9022321"><ele>237.33333333333331</ele><time>2026-04-25T07:54:46.585Z</time></trkpt><trkpt lat="42.2698228" lon="11.9023292"><ele>237.0</ele><time>2026-04-25T07:54:49.585Z</time></trkpt><trkpt lat="42.2698823" lon="11.9024022"><ele>236.66666666666669</ele><time>2026-04-25T07:58:14.584Z</time></trkpt><trkpt lat="42.269963" lon="11.9024338"><ele>236.33333333333334</ele><time>2026-04-25T07:58:16.584Z</time></trkpt><trkpt lat="42.2700526" lon="11.9024996"><ele>236.0</ele><time>2026-04-25T07:58:18.584Z</time></trkpt><trkpt lat="42.27011" lon="11.9025653"><ele>235.16666666666669</ele><time>2026-04-25T07:58:19.584Z</time></trkpt><trkpt lat="42.2701679" lon="11.9026516"><ele>234.33333333333334</ele><time>2026-04-25T07:58:20.584Z</time></trkpt><trkpt lat="42.2702271" lon="11.9027494"><ele>233.5</ele><time>2026-04-25T07:58:21.584Z</time></trkpt><trkpt lat="42.2702861" lon="11.9028447"><ele>232.66666666666669</ele><time>2026-04-25T07:58:22.584Z</time></trkpt><trkpt lat="42.270332" lon="11.9029227"><ele>231.83333333333334</ele><time>2026-04-25T07:58:23.584Z</time></trkpt><trkpt lat="42.2703884" lon="11.9030364"><ele>231.0</ele><time>2026-04-25T07:58:25.584Z</time></trkpt><trkpt lat="42.2704304" lon="11.9031177"><ele>231.0</ele><time>2026-04-25T07:58:27.584Z</time></trkpt><trkpt lat="42.2704806" lon="11.903206"><ele>231.0</ele><time>2026-04-25T07:59:17.584Z</time></trkpt><trkpt lat="42.2705718" lon="11.9033316"><ele>231.0</ele><time>2026-04-25T07:59:19.584Z</time></trkpt><trkpt lat="42.2706172" lon="11.9034007"><ele>231.0</ele><time>2026-04-25T07:59:20.584Z</time></trkpt><trkpt lat="42.2706711" lon="11.9034834"><ele>231.0</ele><time>2026-04-25T07:59:21.584Z</time></trkpt><trkpt lat="42.2707241" lon="11.9035662"><ele>231.0</ele><time>2026-04-25T07:59:22.584Z</time></trkpt><trkpt lat="42.2707678" lon="11.9036366"><ele>230.83333333333334</ele><time>2026-04-25T07:59:23.584Z</time></trkpt><trkpt lat="42.2708049" lon="11.9037769"><ele>230.66666666666669</ele><time>2026-04-25T07:59:25.584Z</time></trkpt><trkpt lat="42.2707899" lon="11.9038608"><ele>230.5</ele><time>2026-04-25T07:59:26.584Z</time></trkpt><trkpt lat="42.2707492" lon="11.90394"><ele>230.33333333333334</ele><time>2026-04-25T07:59:27.584Z</time></trkpt><trkpt lat="42.2706866" lon="11.9040167"><ele>230.16666666666669</ele><time>2026-04-25T07:59:28.584Z</time></trkpt><trkpt lat="42.2706008" lon="11.9041015"><ele>230.0</ele><time>2026-04-25T07:59:29.584Z</time></trkpt><trkpt lat="42.2705086" lon="11.9041885"><ele>229.25</ele><time>2026-04-25T07:59:30.584Z</time></trkpt><trkpt lat="42.2704184" lon="11.9042753"><ele>228.5</ele><time>2026-04-25T07:59:31.585Z</time></trkpt><trkpt lat="42.2703192" lon="11.9043748"><ele>227.75</ele><time>2026-04-25T07:59:32.584Z</time></trkpt><trkpt lat="42.2702182" lon="11.9044737"><ele>227.0</ele><time>2026-04-25T07:59:33.584Z</time></trkpt><trkpt lat="42.27011" lon="11.9045783"><ele>227.0</ele><time>2026-04-25T07:59:34.584Z</time></trkpt><trkpt lat="42.2700005" lon="11.9046855"><ele>227.0</ele><time>2026-04-25T07:59:35.584Z</time></trkpt><trkpt lat="42.2698965" lon="11.9047871"><ele>227.0</ele><time>2026-04-25T07:59:36.584Z</time></trkpt><trkpt lat="42.2697925" lon="11.9048914"><ele>227.0</ele><time>2026-04-25T07:59:37.584Z</time></trkpt><trkpt lat="42.2696991" lon="11.9049929"><ele>228.5</ele><time>2026-04-25T07:59:38.585Z</time></trkpt><trkpt lat="42.269608" lon="11.9051115"><ele>230.0</ele><time>2026-04-25T07:59:39.584Z</time></trkpt><trkpt lat="42.2695221" lon="11.9052452"><ele>231.5</ele><time>2026-04-25T07:59:40.584Z</time></trkpt><trkpt lat="42.2694462" lon="11.9053881"><ele>233.0</ele><time>2026-04-25T07:59:41.584Z</time></trkpt><trkpt lat="42.2693808" lon="11.905549"><ele>233.0</ele><time>2026-04-25T07:59:42.584Z</time></trkpt><trkpt lat="42.2693314" lon="11.9057327"><ele>233.0</ele><time>2026-04-25T07:59:43.584Z</time></trkpt><trkpt lat="42.2692994" lon="11.9059344"><ele>233.0</ele><time>2026-04-25T07:59:44.584Z</time></trkpt><trkpt lat="42.2692769" lon="11.9061414"><ele>233.0</ele><time>2026-04-25T07:59:45.584Z</time></trkpt><trkpt lat="42.2692593" lon="11.9063512"><ele>233.0</ele><time>2026-04-25T07:59:46.584Z</time></trkpt><trkpt lat="42.2692394" lon="11.9065612"><ele>233.0</ele><time>2026-04-25T07:59:47.584Z</time></trkpt><trkpt lat="42.2692187" lon="11.9067685"><ele>231.0</ele><time>2026-04-25T07:59:48.584Z</time></trkpt><trkpt lat="42.269201" lon="11.9069758"><ele>229.0</ele><time>2026-04-25T07:59:49.584Z</time></trkpt><trkpt lat="42.2691808" lon="11.9071833"><ele>227.0</ele><time>2026-04-25T07:59:50.584Z</time></trkpt><trkpt lat="42.2691622" lon="11.9073965"><ele>227.0</ele><time>2026-04-25T07:59:51.584Z</time></trkpt><trkpt lat="42.2691456" lon="11.9076074"><ele>227.0</ele><time>2026-04-25T07:59:52.584Z</time></trkpt><trkpt lat="42.2691315" lon="11.9078006"><ele>227.0</ele><time>2026-04-25T07:59:53.584Z</time></trkpt><trkpt lat="42.2691193" lon="11.9079799"><ele>227.0</ele><time>2026-04-25T07:59:54.584Z</time></trkpt><trkpt lat="42.2691152" lon="11.9081607"><ele>227.0</ele><time>2026-04-25T07:59:55.584Z</time></trkpt><trkpt lat="42.2691217" lon="11.9083397"><ele>227.0</ele><time>2026-04-25T07:59:56.584Z</time></trkpt><trkpt lat="42.2691404" lon="11.9085146"><ele>227.0</ele><time>2026-04-25T07:59:57.584Z</time></trkpt><trkpt lat="42.2691901" lon="11.9087023"><ele>227.0</ele><time>2026-04-25T07:59:58.584Z</time></trkpt><trkpt lat="42.2692681" lon="11.9088919"><ele>226.33333333333334</ele><time>2026-04-25T07:59:59.584Z</time></trkpt><trkpt lat="42.2693702" lon="11.9090823"><ele>225.66666666666669</ele><time>2026-04-25T08:00:00.584Z</time></trkpt><trkpt lat="42.2694865" lon="11.9092648"><ele>225.0</ele><time>2026-04-25T08:00:01.584Z</time></trkpt><trkpt lat="42.2696011" lon="11.9094299"><ele>224.33333333333331</ele><time>2026-04-25T08:00:02.584Z</time></trkpt><trkpt lat="42.2697097" lon="11.9095915"><ele>223.66666666666666</ele><time>2026-04-25T08:00:03.584Z</time></trkpt><trkpt lat="42.2698113" lon="11.9097618"><ele>223.0</ele><time>2026-04-25T08:00:04.584Z</time></trkpt><trkpt lat="42.2699016" lon="11.9099456"><ele>220.33333333333331</ele><time>2026-04-25T08:00:05.584Z</time></trkpt><trkpt lat="42.269977" lon="11.9101466"><ele>217.66666666666669</ele><time>2026-04-25T08:00:06.584Z</time></trkpt><trkpt lat="42.2700439" lon="11.9103653"><ele>215.0</ele><time>2026-04-25T08:00:07.584Z</time></trkpt><trkpt lat="42.2701107" lon="11.9105929"><ele>215.0</ele><time>2026-04-25T08:00:08.584Z</time></trkpt><trkpt lat="42.2701774" lon="11.9108341"><ele>215.0</ele><time>2026-04-25T08:00:09.584Z</time></trkpt><trkpt lat="42.2702422" lon="11.9110779"><ele>215.0</ele><time>2026-04-25T08:00:10.584Z</time></trkpt><trkpt lat="42.2703043" lon="11.9113136"><ele>214.0</ele><time>2026-04-25T08:00:11.584Z</time></trkpt><trkpt lat="42.2703675" lon="11.9115458"><ele>213.0</ele><time>2026-04-25T08:00:12.585Z</time></trkpt><trkpt lat="42.2704321" lon="11.9117799"><ele>212.0</ele><time>2026-04-25T08:00:13.584Z</time></trkpt><trkpt lat="42.2704944" lon="11.9120089"><ele>212.0</ele><time>2026-04-25T08:00:14.584Z</time></trkpt><trkpt lat="42.270556" lon="11.912229"><ele>212.0</ele><time>2026-04-25T08:00:15.584Z</time></trkpt><trkpt lat="42.2706151" lon="11.9124495"><ele>212.0</ele><time>2026-04-25T08:00:16.584Z</time></trkpt><trkpt lat="42.2706756" lon="11.9126651"><ele>212.66666666666669</ele><time>2026-04-25T08:00:17.584Z</time></trkpt><trkpt lat="42.2707384" lon="11.9128887"><ele>213.33333333333331</ele><time>2026-04-25T08:00:18.584Z</time></trkpt><trkpt lat="42.2708002" lon="11.9131136"><ele>214.0</ele><time>2026-04-25T08:00:19.584Z</time></trkpt><trkpt lat="42.2708591" lon="11.9133401"><ele>215.33333333333331</ele><time>2026-04-25T08:00:20.584Z</time></trkpt><trkpt lat="42.2709203" lon="11.9135644"><ele>216.66666666666669</ele><time>2026-04-25T08:00:21.584Z</time></trkpt><trkpt lat="42.2709839" lon="11.9137915"><ele>218.0</ele><time>2026-04-25T08:00:22.584Z</time></trkpt><trkpt lat="42.271048" lon="11.9140114"><ele>218.0</ele><time>2026-04-25T08:00:23.584Z</time></trkpt><trkpt lat="42.2711049" lon="11.9142209"><ele>218.0</ele><time>2026-04-25T08:00:24.583Z</time></trkpt><trkpt lat="42.2711574" lon="11.914423"><ele>218.0</ele><time>2026-04-25T08:00:25.583Z</time></trkpt><trkpt lat="42.2712082" lon="11.9146216"><ele>218.75</ele><time>2026-04-25T08:00:26.583Z</time></trkpt><trkpt lat="42.2712469" lon="11.9148049"><ele>219.5</ele><time>2026-04-25T08:00:27.583Z</time></trkpt><trkpt lat="42.2712647" lon="11.9149897"><ele>220.25</ele><time>2026-04-25T08:00:28.584Z</time></trkpt><trkpt lat="42.2712672" lon="11.9151873"><ele>221.0</ele><time>2026-04-25T08:00:29.583Z</time></trkpt><trkpt lat="42.2712424" lon="11.9153809"><ele>222.0</ele><time>2026-04-25T08:00:30.583Z</time></trkpt><trkpt lat="42.2711905" lon="11.9155714"><ele>223.0</ele><time>2026-04-25T08:00:31.583Z</time></trkpt><trkpt lat="42.2711113" lon="11.9157622"><ele>224.0</ele><time>2026-04-25T08:00:32.583Z</time></trkpt><trkpt lat="42.2710086" lon="11.9159332"><ele>224.33333333333334</ele><time>2026-04-25T08:00:33.583Z</time></trkpt><trkpt lat="42.2708827" lon="11.9160767"><ele>224.66666666666669</ele><time>2026-04-25T08:00:34.583Z</time></trkpt><trkpt lat="42.2707348" lon="11.9162029"><ele>225.0</ele><time>2026-04-25T08:00:35.583Z</time></trkpt><trkpt lat="42.2705742" lon="11.9163137"><ele>224.0</ele><time>2026-04-25T08:00:36.583Z</time></trkpt><trkpt lat="42.2704086" lon="11.9164291"><ele>223.0</ele><time>2026-04-25T08:00:37.583Z</time></trkpt><trkpt lat="42.2702422" lon="11.9165507"><ele>222.0</ele><time>2026-04-25T08:00:38.583Z</time></trkpt><trkpt lat="42.2700741" lon="11.9166725"><ele>222.33333333333331</ele><time>2026-04-25T08:00:39.584Z</time></trkpt><trkpt lat="42.269898" lon="11.9167969"><ele>222.66666666666666</ele><time>2026-04-25T08:00:40.583Z</time></trkpt><trkpt lat="42.2697186" lon="11.9169197"><ele>223.0</ele><time>2026-04-25T08:00:41.583Z</time></trkpt><trkpt lat="42.2695375" lon="11.9170455"><ele>223.0</ele><time>2026-04-25T08:00:42.584Z</time></trkpt><trkpt lat="42.2693578" lon="11.9171698"><ele>223.0</ele><time>2026-04-25T08:00:43.583Z</time></trkpt><trkpt lat="42.269179" lon="11.9172903"><ele>223.0</ele><time>2026-04-25T08:00:44.584Z</time></trkpt><trkpt lat="42.2690047" lon="11.9174132"><ele>222.33333333333331</ele><time>2026-04-25T08:00:45.583Z</time></trkpt><trkpt lat="42.2688312" lon="11.9175339"><ele>221.66666666666669</ele><time>2026-04-25T08:00:46.584Z</time></trkpt><trkpt lat="42.2686586" lon="11.9176545"><ele>221.0</ele><time>2026-04-25T08:00:47.583Z</time></trkpt><trkpt lat="42.2684871" lon="11.9177726"><ele>222.33333333333334</ele><time>2026-04-25T08:00:48.583Z</time></trkpt><trkpt lat="42.2683226" lon="11.9178841"><ele>223.66666666666669</ele><time>2026-04-25T08:00:49.583Z</time></trkpt><trkpt lat="42.2681568" lon="11.9179966"><ele>225.0</ele><time>2026-04-25T08:00:50.583Z</time></trkpt><trkpt lat="42.2679856" lon="11.9181166"><ele>225.0</ele><time>2026-04-25T08:00:51.583Z</time></trkpt><trkpt lat="42.2678097" lon="11.9182409"><ele>225.0</ele><time>2026-04-25T08:00:52.583Z</time></trkpt><trkpt lat="42.2676395" lon="11.9183606"><ele>225.0</ele><time>2026-04-25T08:00:53.583Z</time></trkpt><trkpt lat="42.2674717" lon="11.9184774"><ele>225.0</ele><time>2026-04-25T08:00:54.583Z</time></trkpt><trkpt lat="42.2672988" lon="11.9185977"><ele>225.0</ele><time>2026-04-25T08:00:55.583Z</time></trkpt><trkpt lat="42.267129" lon="11.9187135"><ele>225.0</ele><time>2026-04-25T08:00:56.583Z</time></trkpt><trkpt lat="42.2669648" lon="11.9188306"><ele>225.66666666666669</ele><time>2026-04-25T08:00:57.583Z</time></trkpt><trkpt lat="42.2668036" lon="11.9189471"><ele>226.33333333333334</ele><time>2026-04-25T08:00:58.583Z</time></trkpt><trkpt lat="42.2666378" lon="11.9190576"><ele>227.0</ele><time>2026-04-25T08:00:59.584Z</time></trkpt><trkpt lat="42.2664691" lon="11.9191671"><ele>228.66666666666669</ele><time>2026-04-25T08:01:00.583Z</time></trkpt><trkpt lat="42.2662979" lon="11.919283"><ele>230.33333333333331</ele><time>2026-04-25T08:01:01.583Z</time></trkpt><trkpt lat="42.2661282" lon="11.9194002"><ele>232.0</ele><time>2026-04-25T08:01:02.583Z</time></trkpt><trkpt lat="42.2659629" lon="11.9195147"><ele>232.0</ele><time>2026-04-25T08:01:03.583Z</time></trkpt><trkpt lat="42.2658018" lon="11.9196263"><ele>232.0</ele><time>2026-04-25T08:01:04.583Z</time></trkpt><trkpt lat="42.2656413" lon="11.9197387"><ele>232.0</ele><time>2026-04-25T08:01:05.583Z</time></trkpt><trkpt lat="42.2654747" lon="11.9198514"><ele>232.33333333333331</ele><time>2026-04-25T08:01:06.583Z</time></trkpt><trkpt lat="42.2653042" lon="11.9199656"><ele>232.66666666666669</ele><time>2026-04-25T08:01:07.583Z</time></trkpt><trkpt lat="42.2651341" lon="11.9200815"><ele>233.0</ele><time>2026-04-25T08:01:08.584Z</time></trkpt><trkpt lat="42.2649642" lon="11.9201982"><ele>233.33333333333334</ele><time>2026-04-25T08:01:09.584Z</time></trkpt><trkpt lat="42.2647922" lon="11.9203171"><ele>233.66666666666669</ele><time>2026-04-25T08:01:10.583Z</time></trkpt><trkpt lat="42.2646202" lon="11.9204359"><ele>234.0</ele><time>2026-04-25T08:01:11.583Z</time></trkpt><trkpt lat="42.2644525" lon="11.9205557"><ele>234.66666666666669</ele><time>2026-04-25T08:01:12.583Z</time></trkpt><trkpt lat="42.2642876" lon="11.9206707"><ele>235.33333333333334</ele><time>2026-04-25T08:01:13.583Z</time></trkpt><trkpt lat="42.2641182" lon="11.9207856"><ele>236.0</ele><time>2026-04-25T08:01:14.583Z</time></trkpt><trkpt lat="42.2639479" lon="11.9209016"><ele>235.66666666666669</ele><time>2026-04-25T08:01:15.583Z</time></trkpt><trkpt lat="42.263777" lon="11.9210195"><ele>235.33333333333331</ele><time>2026-04-25T08:01:16.583Z</time></trkpt><trkpt lat="42.2636078" lon="11.9211381"><ele>235.0</ele><time>2026-04-25T08:01:17.583Z</time></trkpt><trkpt lat="42.2634442" lon="11.9212529"><ele>235.0</ele><time>2026-04-25T08:01:18.584Z</time></trkpt><trkpt lat="42.2632868" lon="11.9213601"><ele>235.0</ele><time>2026-04-25T08:01:19.583Z</time></trkpt><trkpt lat="42.2631306" lon="11.9214673"><ele>235.0</ele><time>2026-04-25T08:01:20.583Z</time></trkpt><trkpt lat="42.2629762" lon="11.9215754"><ele>235.66666666666666</ele><time>2026-04-25T08:01:21.584Z</time></trkpt><trkpt lat="42.2628234" lon="11.921684"><ele>236.33333333333331</ele><time>2026-04-25T08:01:22.583Z</time></trkpt><trkpt lat="42.2626654" lon="11.9217961"><ele>237.0</ele><time>2026-04-25T08:01:23.583Z</time></trkpt><trkpt lat="42.2625044" lon="11.9219113"><ele>237.0</ele><time>2026-04-25T08:01:24.583Z</time></trkpt><trkpt lat="42.2623412" lon="11.9220267"><ele>237.0</ele><time>2026-04-25T08:01:25.583Z</time></trkpt><trkpt lat="42.262174" lon="11.9221409"><ele>237.0</ele><time>2026-04-25T08:01:26.583Z</time></trkpt><trkpt lat="42.2619977" lon="11.9222558"><ele>237.0</ele><time>2026-04-25T08:01:27.583Z</time></trkpt><trkpt lat="42.261821" lon="11.9223722"><ele>237.0</ele><time>2026-04-25T08:01:28.583Z</time></trkpt><trkpt lat="42.2616434" lon="11.9224932"><ele>237.0</ele><time>2026-04-25T08:01:29.583Z</time></trkpt><trkpt lat="42.2614664" lon="11.9226161"><ele>238.33333333333331</ele><time>2026-04-25T08:01:30.583Z</time></trkpt><trkpt lat="42.2612893" lon="11.9227397"><ele>239.66666666666666</ele><time>2026-04-25T08:01:31.583Z</time></trkpt><trkpt lat="42.2611113" lon="11.9228615"><ele>241.0</ele><time>2026-04-25T08:01:32.583Z</time></trkpt><trkpt lat="42.2609352" lon="11.9229809"><ele>241.0</ele><time>2026-04-25T08:01:33.583Z</time></trkpt><trkpt lat="42.2607591" lon="11.9231007"><ele>241.0</ele><time>2026-04-25T08:01:34.583Z</time></trkpt><trkpt lat="42.2605841" lon="11.9232203"><ele>241.0</ele><time>2026-04-25T08:01:35.583Z</time></trkpt><trkpt lat="42.2604099" lon="11.9233426"><ele>241.66666666666666</ele><time>2026-04-25T08:01:36.583Z</time></trkpt><trkpt lat="42.2602352" lon="11.9234662"><ele>242.33333333333331</ele><time>2026-04-25T08:01:37.583Z</time></trkpt><trkpt lat="42.2600644" lon="11.9235882"><ele>243.0</ele><time>2026-04-25T08:01:38.583Z</time></trkpt><trkpt lat="42.2599008" lon="11.9237021"><ele>245.0</ele><time>2026-04-25T08:01:39.583Z</time></trkpt><trkpt lat="42.2597359" lon="11.9238038"><ele>247.0</ele><time>2026-04-25T08:01:40.583Z</time></trkpt><trkpt lat="42.2595741" lon="11.9238809"><ele>249.0</ele><time>2026-04-25T08:01:41.583Z</time></trkpt><trkpt lat="42.2594004" lon="11.9239323"><ele>249.0</ele><time>2026-04-25T08:01:42.583Z</time></trkpt><trkpt lat="42.2592178" lon="11.9239546"><ele>249.0</ele><time>2026-04-25T08:01:43.583Z</time></trkpt><trkpt lat="42.2590281" lon="11.9239537"><ele>249.0</ele><time>2026-04-25T08:01:44.584Z</time></trkpt><trkpt lat="42.2588337" lon="11.9239374"><ele>250.66666666666669</ele><time>2026-04-25T08:01:45.583Z</time></trkpt><trkpt lat="42.2586357" lon="11.9239199"><ele>252.33333333333334</ele><time>2026-04-25T08:01:46.584Z</time></trkpt><trkpt lat="42.2584365" lon="11.9239015"><ele>254.0</ele><time>2026-04-25T08:01:47.583Z</time></trkpt><trkpt lat="42.2582427" lon="11.9238839"><ele>255.66666666666669</ele><time>2026-04-25T08:01:48.583Z</time></trkpt><trkpt lat="42.2580569" lon="11.9238596"><ele>257.3333333333333</ele><time>2026-04-25T08:01:49.583Z</time></trkpt><trkpt lat="42.2578677" lon="11.9238434"><ele>259.0</ele><time>2026-04-25T08:01:50.583Z</time></trkpt><trkpt lat="42.2576795" lon="11.9238375"><ele>259.0</ele><time>2026-04-25T08:01:51.583Z</time></trkpt><trkpt lat="42.2574922" lon="11.9238571"><ele>259.0</ele><time>2026-04-25T08:01:52.583Z</time></trkpt><trkpt lat="42.2573028" lon="11.9239028"><ele>259.0</ele><time>2026-04-25T08:01:53.583Z</time></trkpt><trkpt lat="42.2571138" lon="11.9239656"><ele>259.0</ele><time>2026-04-25T08:01:54.583Z</time></trkpt><trkpt lat="42.256932" lon="11.9240319"><ele>259.0</ele><time>2026-04-25T08:01:55.583Z</time></trkpt><trkpt lat="42.2567714" lon="11.9241033"><ele>259.0</ele><time>2026-04-25T08:01:56.583Z</time></trkpt><trkpt lat="42.2566309" lon="11.9241883"><ele>260.0</ele><time>2026-04-25T08:01:57.583Z</time></trkpt><trkpt lat="42.2564996" lon="11.924294"><ele>261.0</ele><time>2026-04-25T08:01:58.583Z</time></trkpt><trkpt lat="42.2563888" lon="11.9244182"><ele>262.0</ele><time>2026-04-25T08:01:59.583Z</time></trkpt><trkpt lat="42.2562964" lon="11.9245741"><ele>263.0</ele><time>2026-04-25T08:02:00.583Z</time></trkpt><trkpt lat="42.2562219" lon="11.9247576"><ele>263.0</ele><time>2026-04-25T08:02:01.584Z</time></trkpt><trkpt lat="42.2561536" lon="11.9249628"><ele>263.0</ele><time>2026-04-25T08:02:02.584Z</time></trkpt><trkpt lat="42.2560875" lon="11.9251849"><ele>263.0</ele><time>2026-04-25T08:02:03.583Z</time></trkpt><trkpt lat="42.2560177" lon="11.9254168"><ele>264.0</ele><time>2026-04-25T08:02:04.583Z</time></trkpt><trkpt lat="42.2559484" lon="11.925661"><ele>265.0</ele><time>2026-04-25T08:02:05.583Z</time></trkpt><trkpt lat="42.2558788" lon="11.9259089"><ele>266.0</ele><time>2026-04-25T08:02:06.583Z</time></trkpt><trkpt lat="42.2558099" lon="11.9261519"><ele>267.33333333333337</ele><time>2026-04-25T08:02:07.583Z</time></trkpt><trkpt lat="42.2557404" lon="11.9263912"><ele>268.6666666666667</ele><time>2026-04-25T08:02:08.583Z</time></trkpt><trkpt lat="42.2556722" lon="11.9266291"><ele>270.0</ele><time>2026-04-25T08:02:09.583Z</time></trkpt><trkpt lat="42.2556033" lon="11.9268718"><ele>274.0</ele><time>2026-04-25T08:02:10.584Z</time></trkpt><trkpt lat="42.2555338" lon="11.9271146"><ele>278.0</ele><time>2026-04-25T08:02:11.583Z</time></trkpt><trkpt lat="42.2554606" lon="11.9273579"><ele>282.0</ele><time>2026-04-25T08:02:12.583Z</time></trkpt><trkpt lat="42.2553862" lon="11.9276023"><ele>282.0</ele><time>2026-04-25T08:02:13.583Z</time></trkpt><trkpt lat="42.2553106" lon="11.9278471"><ele>282.0</ele><time>2026-04-25T08:02:14.583Z</time></trkpt><trkpt lat="42.2552359" lon="11.9280903"><ele>282.0</ele><time>2026-04-25T08:02:15.583Z</time></trkpt><trkpt lat="42.2551608" lon="11.9283282"><ele>280.6666666666667</ele><time>2026-04-25T08:02:16.583Z</time></trkpt><trkpt lat="42.2550797" lon="11.9285762"><ele>279.33333333333337</ele><time>2026-04-25T08:02:17.583Z</time></trkpt><trkpt lat="42.2550005" lon="11.9288266"><ele>278.0</ele><time>2026-04-25T08:02:18.583Z</time></trkpt><trkpt lat="42.2549286" lon="11.9290679"><ele>276.33333333333337</ele><time>2026-04-25T08:02:19.583Z</time></trkpt><trkpt lat="42.2548599" lon="11.9293116"><ele>274.6666666666667</ele><time>2026-04-25T08:02:20.583Z</time></trkpt><trkpt lat="42.2547928" lon="11.9295637"><ele>273.0</ele><time>2026-04-25T08:02:21.583Z</time></trkpt><trkpt lat="42.2547298" lon="11.9298105"><ele>273.0</ele><time>2026-04-25T08:02:22.583Z</time></trkpt><trkpt lat="42.2546695" lon="11.9300482"><ele>273.0</ele><time>2026-04-25T08:02:23.583Z</time></trkpt><trkpt lat="42.2546111" lon="11.9302785"><ele>273.0</ele><time>2026-04-25T08:02:24.583Z</time></trkpt><trkpt lat="42.2545534" lon="11.9305102"><ele>270.6666666666667</ele><time>2026-04-25T08:02:25.583Z</time></trkpt><trkpt lat="42.2544917" lon="11.9307456"><ele>268.33333333333337</ele><time>2026-04-25T08:02:26.583Z</time></trkpt><trkpt lat="42.2544304" lon="11.9309904"><ele>266.0</ele><time>2026-04-25T08:02:27.583Z</time></trkpt><trkpt lat="42.2543669" lon="11.9312419"><ele>264.0</ele><time>2026-04-25T08:02:28.583Z</time></trkpt><trkpt lat="42.2543033" lon="11.9314972"><ele>262.0</ele><time>2026-04-25T08:02:29.583Z</time></trkpt><trkpt lat="42.2542396" lon="11.9317501"><ele>260.0</ele><time>2026-04-25T08:02:30.583Z</time></trkpt><trkpt lat="42.2541776" lon="11.9319954"><ele>259.0</ele><time>2026-04-25T08:02:31.583Z</time></trkpt><trkpt lat="42.2541154" lon="11.9322324"><ele>258.0</ele><time>2026-04-25T08:02:32.583Z</time></trkpt><trkpt lat="42.2540522" lon="11.9324724"><ele>257.0</ele><time>2026-04-25T08:02:33.583Z</time></trkpt><trkpt lat="42.2539911" lon="11.9327084"><ele>259.0</ele><time>2026-04-25T08:02:34.583Z</time></trkpt><trkpt lat="42.2539311" lon="11.9329457"><ele>261.0</ele><time>2026-04-25T08:02:35.583Z</time></trkpt><trkpt lat="42.2538682" lon="11.933185"><ele>263.0</ele><time>2026-04-25T08:02:36.583Z</time></trkpt><trkpt lat="42.2538072" lon="11.933419"><ele>265.0</ele><time>2026-04-25T08:02:37.583Z</time></trkpt><trkpt lat="42.253746" lon="11.9336493"><ele>267.0</ele><time>2026-04-25T08:02:38.583Z</time></trkpt><trkpt lat="42.2536854" lon="11.933882"><ele>269.0</ele><time>2026-04-25T08:02:39.583Z</time></trkpt><trkpt lat="42.2536297" lon="11.9341096"><ele>270.6666666666667</ele><time>2026-04-25T08:02:40.584Z</time></trkpt><trkpt lat="42.253592" lon="11.934327"><ele>272.3333333333333</ele><time>2026-04-25T08:02:41.583Z</time></trkpt><trkpt lat="42.2535757" lon="11.9345483"><ele>274.0</ele><time>2026-04-25T08:02:42.582Z</time></trkpt><trkpt lat="42.2535884" lon="11.934771"><ele>274.0</ele><time>2026-04-25T08:02:43.583Z</time></trkpt><trkpt lat="42.2536308" lon="11.9349904"><ele>274.0</ele><time>2026-04-25T08:02:44.583Z</time></trkpt><trkpt lat="42.2536891" lon="11.9352111"><ele>274.0</ele><time>2026-04-25T08:02:45.583Z</time></trkpt><trkpt lat="42.2537481" lon="11.9354338"><ele>274.66666666666663</ele><time>2026-04-25T08:02:46.584Z</time></trkpt><trkpt lat="42.253797" lon="11.9356505"><ele>275.3333333333333</ele><time>2026-04-25T08:02:47.583Z</time></trkpt><trkpt lat="42.253829" lon="11.9358642"><ele>276.0</ele><time>2026-04-25T08:02:48.583Z</time></trkpt><trkpt lat="42.2538405" lon="11.9360742"><ele>278.25</ele><time>2026-04-25T08:02:49.583Z</time></trkpt><trkpt lat="42.2538296" lon="11.9362713"><ele>280.5</ele><time>2026-04-25T08:02:50.583Z</time></trkpt><trkpt lat="42.2537917" lon="11.9364616"><ele>282.75</ele><time>2026-04-25T08:02:51.583Z</time></trkpt><trkpt lat="42.2537341" lon="11.9366589"><ele>285.0</ele><time>2026-04-25T08:02:52.583Z</time></trkpt><trkpt lat="42.2536573" lon="11.9368635"><ele>286.3333333333333</ele><time>2026-04-25T08:02:53.583Z</time></trkpt><trkpt lat="42.2535905" lon="11.9370797"><ele>287.66666666666663</ele><time>2026-04-25T08:02:54.583Z</time></trkpt><trkpt lat="42.2535326" lon="11.9373015"><ele>289.0</ele><time>2026-04-25T08:02:55.583Z</time></trkpt><trkpt lat="42.2534904" lon="11.9375318"><ele>290.3333333333333</ele><time>2026-04-25T08:02:56.583Z</time></trkpt><trkpt lat="42.2534634" lon="11.9377751"><ele>291.6666666666667</ele><time>2026-04-25T08:02:57.583Z</time></trkpt><trkpt lat="42.253446" lon="11.9380262"><ele>293.0</ele><time>2026-04-25T08:02:58.583Z</time></trkpt><trkpt lat="42.253435" lon="11.9382848"><ele>294.33333333333337</ele><time>2026-04-25T08:02:59.583Z</time></trkpt><trkpt lat="42.2534306" lon="11.9385459"><ele>295.6666666666667</ele><time>2026-04-25T08:03:00.583Z</time></trkpt><trkpt lat="42.2534357" lon="11.9388065"><ele>297.0</ele><time>2026-04-25T08:03:01.584Z</time></trkpt><trkpt lat="42.2534556" lon="11.9390708"><ele>299.0</ele><time>2026-04-25T08:03:02.583Z</time></trkpt><trkpt lat="42.2534859" lon="11.9393353"><ele>301.0</ele><time>2026-04-25T08:03:03.583Z</time></trkpt><trkpt lat="42.2535157" lon="11.9395936"><ele>303.0</ele><time>2026-04-25T08:03:04.583Z</time></trkpt><trkpt lat="42.253545" lon="11.9398406"><ele>302.6666666666667</ele><time>2026-04-25T08:03:05.583Z</time></trkpt><trkpt lat="42.2535713" lon="11.9400868"><ele>302.33333333333337</ele><time>2026-04-25T08:03:06.583Z</time></trkpt><trkpt lat="42.2535851" lon="11.9403268"><ele>302.0</ele><time>2026-04-25T08:03:07.583Z</time></trkpt><trkpt lat="42.2535847" lon="11.9405654"><ele>302.0</ele><time>2026-04-25T08:03:08.583Z</time></trkpt><trkpt lat="42.2535696" lon="11.9408132"><ele>302.0</ele><time>2026-04-25T08:03:09.583Z</time></trkpt><trkpt lat="42.2535447" lon="11.9410718"><ele>302.0</ele><time>2026-04-25T08:03:10.583Z</time></trkpt><trkpt lat="42.2535165" lon="11.9413329"><ele>299.0</ele><time>2026-04-25T08:03:11.583Z</time></trkpt><trkpt lat="42.253488" lon="11.9415879"><ele>296.0</ele><time>2026-04-25T08:03:12.583Z</time></trkpt><trkpt lat="42.2534583" lon="11.941843"><ele>293.0</ele><time>2026-04-25T08:03:13.583Z</time></trkpt><trkpt lat="42.2534271" lon="11.9420978"><ele>289.6666666666667</ele><time>2026-04-25T08:03:14.583Z</time></trkpt><trkpt lat="42.2533976" lon="11.9423423"><ele>286.3333333333333</ele><time>2026-04-25T08:03:15.583Z</time></trkpt><trkpt lat="42.2533811" lon="11.9425804"><ele>283.0</ele><time>2026-04-25T08:03:16.583Z</time></trkpt><trkpt lat="42.2533805" lon="11.9428122"><ele>280.3333333333333</ele><time>2026-04-25T08:03:17.583Z</time></trkpt><trkpt lat="42.2533972" lon="11.9430349"><ele>277.6666666666667</ele><time>2026-04-25T08:03:18.583Z</time></trkpt><trkpt lat="42.2534317" lon="11.9432455"><ele>275.0</ele><time>2026-04-25T08:03:19.583Z</time></trkpt><trkpt lat="42.2534938" lon="11.9434409"><ele>272.0</ele><time>2026-04-25T08:03:20.583Z</time></trkpt><trkpt lat="42.2535807" lon="11.9436155"><ele>269.0</ele><time>2026-04-25T08:03:21.583Z</time></trkpt><trkpt lat="42.2536911" lon="11.9437721"><ele>266.0</ele><time>2026-04-25T08:03:22.582Z</time></trkpt><trkpt lat="42.253839" lon="11.9439009"><ele>266.33333333333337</ele><time>2026-04-25T08:03:23.583Z</time></trkpt><trkpt lat="42.2539944" lon="11.9440237"><ele>266.6666666666667</ele><time>2026-04-25T08:03:24.583Z</time></trkpt><trkpt lat="42.2541353" lon="11.9441418"><ele>267.0</ele><time>2026-04-25T08:03:25.583Z</time></trkpt><trkpt lat="42.2542596" lon="11.9442615"><ele>264.3333333333333</ele><time>2026-04-25T08:03:26.583Z</time></trkpt><trkpt lat="42.2543621" lon="11.9443996"><ele>261.66666666666663</ele><time>2026-04-25T08:03:27.583Z</time></trkpt><trkpt lat="42.2544439" lon="11.9445702"><ele>259.0</ele><time>2026-04-25T08:03:28.583Z</time></trkpt><trkpt lat="42.254508" lon="11.944765"><ele>259.0</ele><time>2026-04-25T08:03:29.583Z</time></trkpt><trkpt lat="42.2545494" lon="11.9449783"><ele>259.0</ele><time>2026-04-25T08:03:30.584Z</time></trkpt><trkpt lat="42.2545751" lon="11.9452023"><ele>259.0</ele><time>2026-04-25T08:03:31.583Z</time></trkpt><trkpt lat="42.2545988" lon="11.9454217"><ele>256.0</ele><time>2026-04-25T08:03:32.583Z</time></trkpt><trkpt lat="42.2546305" lon="11.9456275"><ele>253.0</ele><time>2026-04-25T08:03:33.584Z</time></trkpt><trkpt lat="42.2546896" lon="11.9458191"><ele>250.0</ele><time>2026-04-25T08:03:34.583Z</time></trkpt><trkpt lat="42.2547828" lon="11.9459898"><ele>249.0</ele><time>2026-04-25T08:03:35.583Z</time></trkpt><trkpt lat="42.2549116" lon="11.9461313"><ele>248.0</ele><time>2026-04-25T08:03:36.583Z</time></trkpt><trkpt lat="42.2550622" lon="11.9462546"><ele>247.0</ele><time>2026-04-25T08:03:37.583Z</time></trkpt><trkpt lat="42.2552154" lon="11.9463732"><ele>247.0</ele><time>2026-04-25T08:03:38.583Z</time></trkpt><trkpt lat="42.2553613" lon="11.9464924"><ele>247.0</ele><time>2026-04-25T08:03:39.583Z</time></trkpt><trkpt lat="42.2554998" lon="11.9466243"><ele>247.0</ele><time>2026-04-25T08:03:40.583Z</time></trkpt><trkpt lat="42.2556273" lon="11.9467738"><ele>244.0</ele><time>2026-04-25T08:03:41.583Z</time></trkpt><trkpt lat="42.2557426" lon="11.9469432"><ele>241.0</ele><time>2026-04-25T08:03:42.583Z</time></trkpt><trkpt lat="42.2558387" lon="11.9471305"><ele>238.0</ele><time>2026-04-25T08:03:43.584Z</time></trkpt><trkpt lat="42.255916" lon="11.9473284"><ele>238.0</ele><time>2026-04-25T08:03:44.583Z</time></trkpt><trkpt lat="42.2559652" lon="11.9475348"><ele>238.0</ele><time>2026-04-25T08:03:45.583Z</time></trkpt><trkpt lat="42.2559889" lon="11.9477523"><ele>238.0</ele><time>2026-04-25T08:03:46.583Z</time></trkpt><trkpt lat="42.2559831" lon="11.9479827"><ele>236.0</ele><time>2026-04-25T08:03:47.583Z</time></trkpt><trkpt lat="42.2559546" lon="11.9482172"><ele>234.0</ele><time>2026-04-25T08:03:48.583Z</time></trkpt><trkpt lat="42.2559175" lon="11.9484603"><ele>232.0</ele><time>2026-04-25T08:03:49.583Z</time></trkpt><trkpt lat="42.2558786" lon="11.9487127"><ele>230.66666666666666</ele><time>2026-04-25T08:03:50.584Z</time></trkpt><trkpt lat="42.255841" lon="11.9489706"><ele>229.33333333333331</ele><time>2026-04-25T08:03:51.583Z</time></trkpt><trkpt lat="42.2558045" lon="11.9492372"><ele>228.0</ele><time>2026-04-25T08:03:52.583Z</time></trkpt><trkpt lat="42.2557646" lon="11.9494976"><ele>227.0</ele><time>2026-04-25T08:03:53.583Z</time></trkpt><trkpt lat="42.2557248" lon="11.9497619"><ele>226.0</ele><time>2026-04-25T08:03:54.583Z</time></trkpt><trkpt lat="42.2556834" lon="11.9500275"><ele>225.0</ele><time>2026-04-25T08:03:55.583Z</time></trkpt><trkpt lat="42.2556463" lon="11.9502795"><ele>223.66666666666669</ele><time>2026-04-25T08:03:56.583Z</time></trkpt><trkpt lat="42.2556108" lon="11.9505319"><ele>222.33333333333334</ele><time>2026-04-25T08:03:57.583Z</time></trkpt><trkpt lat="42.2555709" lon="11.9507885"><ele>221.0</ele><time>2026-04-25T08:03:58.583Z</time></trkpt><trkpt lat="42.2555282" lon="11.9510468"><ele>220.66666666666669</ele><time>2026-04-25T08:03:59.583Z</time></trkpt><trkpt lat="42.2554815" lon="11.9513048"><ele>220.33333333333331</ele><time>2026-04-25T08:04:00.583Z</time></trkpt><trkpt lat="42.2554347" lon="11.9515611"><ele>220.0</ele><time>2026-04-25T08:04:01.583Z</time></trkpt><trkpt lat="42.2553899" lon="11.9518157"><ele>219.33333333333331</ele><time>2026-04-25T08:04:02.583Z</time></trkpt><trkpt lat="42.2553464" lon="11.9520686"><ele>218.66666666666669</ele><time>2026-04-25T08:04:03.583Z</time></trkpt><trkpt lat="42.2553011" lon="11.9523142"><ele>218.0</ele><time>2026-04-25T08:04:04.583Z</time></trkpt><trkpt lat="42.2552563" lon="11.9525557"><ele>217.33333333333334</ele><time>2026-04-25T08:04:05.583Z</time></trkpt><trkpt lat="42.2552177" lon="11.9527885"><ele>216.66666666666669</ele><time>2026-04-25T08:04:06.583Z</time></trkpt><trkpt lat="42.2551837" lon="11.9530214"><ele>216.0</ele><time>2026-04-25T08:04:07.583Z</time></trkpt><trkpt lat="42.255157" lon="11.9532698"><ele>215.33333333333331</ele><time>2026-04-25T08:04:08.583Z</time></trkpt><trkpt lat="42.255095" lon="11.9534945"><ele>214.66666666666666</ele><time>2026-04-25T08:04:09.583Z</time></trkpt><trkpt lat="42.2550509" lon="11.9537386"><ele>214.0</ele><time>2026-04-25T08:04:10.583Z</time></trkpt><trkpt lat="42.2550073" lon="11.9539844"><ele>213.66666666666666</ele><time>2026-04-25T08:04:11.583Z</time></trkpt><trkpt lat="42.2549578" lon="11.9542309"><ele>213.33333333333331</ele><time>2026-04-25T08:04:12.583Z</time></trkpt><trkpt lat="42.2549083" lon="11.9544815"><ele>213.0</ele><time>2026-04-25T08:04:13.583Z</time></trkpt><trkpt lat="42.2548614" lon="11.9547294"><ele>213.0</ele><time>2026-04-25T08:04:14.583Z</time></trkpt><trkpt lat="42.2548167" lon="11.9549661"><ele>213.0</ele><time>2026-04-25T08:04:15.583Z</time></trkpt><trkpt lat="42.2547722" lon="11.9551962"><ele>213.0</ele><time>2026-04-25T08:04:16.583Z</time></trkpt><trkpt lat="42.2547276" lon="11.9554322"><ele>212.66666666666669</ele><time>2026-04-25T08:04:17.583Z</time></trkpt><trkpt lat="42.2546915" lon="11.9556541"><ele>212.33333333333334</ele><time>2026-04-25T08:04:18.583Z</time></trkpt><trkpt lat="42.2546739" lon="11.9558753"><ele>212.0</ele><time>2026-04-25T08:04:19.583Z</time></trkpt><trkpt lat="42.2546737" lon="11.9561101"><ele>211.66666666666669</ele><time>2026-04-25T08:04:20.583Z</time></trkpt><trkpt lat="42.2547004" lon="11.9563382"><ele>211.33333333333331</ele><time>2026-04-25T08:04:21.583Z</time></trkpt><trkpt lat="42.2547517" lon="11.9565646"><ele>211.0</ele><time>2026-04-25T08:04:22.583Z</time></trkpt><trkpt lat="42.2548177" lon="11.9567841"><ele>210.66666666666666</ele><time>2026-04-25T08:04:23.584Z</time></trkpt><trkpt lat="42.2549045" lon="11.9569947"><ele>210.33333333333331</ele><time>2026-04-25T08:04:24.583Z</time></trkpt><trkpt lat="42.2550084" lon="11.9572014"><ele>210.0</ele><time>2026-04-25T08:04:25.583Z</time></trkpt><trkpt lat="42.2551175" lon="11.9574143"><ele>212.33333333333331</ele><time>2026-04-25T08:04:26.583Z</time></trkpt><trkpt lat="42.255226" lon="11.9576388"><ele>214.66666666666666</ele><time>2026-04-25T08:04:27.583Z</time></trkpt><trkpt lat="42.2553425" lon="11.9578588"><ele>217.0</ele><time>2026-04-25T08:04:28.583Z</time></trkpt><trkpt lat="42.2554468" lon="11.9580597"><ele>217.0</ele><time>2026-04-25T08:04:29.583Z</time></trkpt><trkpt lat="42.2555433" lon="11.9582497"><ele>217.0</ele><time>2026-04-25T08:04:30.583Z</time></trkpt><trkpt lat="42.25563" lon="11.9584374"><ele>217.0</ele><time>2026-04-25T08:04:31.584Z</time></trkpt><trkpt lat="42.2557015" lon="11.9586446"><ele>217.33333333333331</ele><time>2026-04-25T08:04:32.583Z</time></trkpt><trkpt lat="42.2557539" lon="11.9588541"><ele>217.66666666666669</ele><time>2026-04-25T08:04:33.583Z</time></trkpt><trkpt lat="42.2557783" lon="11.9590666"><ele>218.0</ele><time>2026-04-25T08:04:34.583Z</time></trkpt><trkpt lat="42.2557865" lon="11.959293"><ele>218.0</ele><time>2026-04-25T08:04:35.584Z</time></trkpt><trkpt lat="42.2557905" lon="11.9595301"><ele>218.0</ele><time>2026-04-25T08:04:36.583Z</time></trkpt><trkpt lat="42.2557955" lon="11.9597756"><ele>218.0</ele><time>2026-04-25T08:04:37.583Z</time></trkpt><trkpt lat="42.2557983" lon="11.960027"><ele>217.0</ele><time>2026-04-25T08:04:38.583Z</time></trkpt><trkpt lat="42.2557992" lon="11.9602656"><ele>216.0</ele><time>2026-04-25T08:04:39.583Z</time></trkpt><trkpt lat="42.2557935" lon="11.960491"><ele>215.0</ele><time>2026-04-25T08:04:40.583Z</time></trkpt><trkpt lat="42.2557739" lon="11.9607092"><ele>214.33333333333334</ele><time>2026-04-25T08:04:41.583Z</time></trkpt><trkpt lat="42.2557301" lon="11.9609362"><ele>213.66666666666669</ele><time>2026-04-25T08:04:42.583Z</time></trkpt><trkpt lat="42.2556665" lon="11.9611647"><ele>213.0</ele><time>2026-04-25T08:04:43.584Z</time></trkpt><trkpt lat="42.2555933" lon="11.9613986"><ele>213.0</ele><time>2026-04-25T08:04:44.583Z</time></trkpt><trkpt lat="42.2555151" lon="11.9616363"><ele>213.0</ele><time>2026-04-25T08:04:45.583Z</time></trkpt><trkpt lat="42.2554349" lon="11.9618742"><ele>213.0</ele><time>2026-04-25T08:04:46.583Z</time></trkpt><trkpt lat="42.2553583" lon="11.9621001"><ele>211.0</ele><time>2026-04-25T08:04:47.583Z</time></trkpt><trkpt lat="42.2552838" lon="11.9623157"><ele>209.0</ele><time>2026-04-25T08:04:48.583Z</time></trkpt><trkpt lat="42.2552124" lon="11.9625235"><ele>207.0</ele><time>2026-04-25T08:04:49.583Z</time></trkpt><trkpt lat="42.255142" lon="11.9627237"><ele>205.33333333333331</ele><time>2026-04-25T08:04:50.582Z</time></trkpt><trkpt lat="42.2550772" lon="11.9629238"><ele>203.66666666666666</ele><time>2026-04-25T08:04:51.582Z</time></trkpt><trkpt lat="42.2550214" lon="11.9631318"><ele>202.0</ele><time>2026-04-25T08:04:52.582Z</time></trkpt><trkpt lat="42.2549805" lon="11.9633531"><ele>201.33333333333331</ele><time>2026-04-25T08:04:53.582Z</time></trkpt><trkpt lat="42.2549599" lon="11.9635863"><ele>200.66666666666669</ele><time>2026-04-25T08:04:54.582Z</time></trkpt><trkpt lat="42.25495" lon="11.9638275"><ele>200.0</ele><time>2026-04-25T08:04:55.582Z</time></trkpt><trkpt lat="42.2549432" lon="11.9640745"><ele>199.33333333333334</ele><time>2026-04-25T08:04:56.582Z</time></trkpt><trkpt lat="42.2549361" lon="11.9643362"><ele>198.66666666666669</ele><time>2026-04-25T08:04:57.582Z</time></trkpt><trkpt lat="42.2549327" lon="11.964604"><ele>198.0</ele><time>2026-04-25T08:04:58.582Z</time></trkpt><trkpt lat="42.2549263" lon="11.9648748"><ele>197.33333333333331</ele><time>2026-04-25T08:04:59.582Z</time></trkpt><trkpt lat="42.25492" lon="11.965146"><ele>196.66666666666666</ele><time>2026-04-25T08:05:00.582Z</time></trkpt><trkpt lat="42.2549144" lon="11.9654163"><ele>196.0</ele><time>2026-04-25T08:05:01.582Z</time></trkpt><trkpt lat="42.2549084" lon="11.9656858"><ele>196.0</ele><time>2026-04-25T08:05:02.582Z</time></trkpt><trkpt lat="42.2549042" lon="11.9659513"><ele>196.0</ele><time>2026-04-25T08:05:03.582Z</time></trkpt><trkpt lat="42.2549002" lon="11.9662104"><ele>196.0</ele><time>2026-04-25T08:05:04.582Z</time></trkpt><trkpt lat="42.2548969" lon="11.9664623"><ele>195.66666666666666</ele><time>2026-04-25T08:05:05.582Z</time></trkpt><trkpt lat="42.2548943" lon="11.9667104"><ele>195.33333333333331</ele><time>2026-04-25T08:05:06.582Z</time></trkpt><trkpt lat="42.2548895" lon="11.9669603"><ele>195.0</ele><time>2026-04-25T08:05:07.582Z</time></trkpt><trkpt lat="42.2548844" lon="11.9672188"><ele>195.0</ele><time>2026-04-25T08:05:08.582Z</time></trkpt><trkpt lat="42.2548813" lon="11.9674812"><ele>195.0</ele><time>2026-04-25T08:05:09.582Z</time></trkpt><trkpt lat="42.254877" lon="11.967741"><ele>195.0</ele><time>2026-04-25T08:05:10.583Z</time></trkpt><trkpt lat="42.2548684" lon="11.9679954"><ele>195.0</ele><time>2026-04-25T08:05:11.582Z</time></trkpt><trkpt lat="42.2548618" lon="11.9682498"><ele>195.0</ele><time>2026-04-25T08:05:12.582Z</time></trkpt><trkpt lat="42.2548541" lon="11.9685058"><ele>195.0</ele><time>2026-04-25T08:05:13.582Z</time></trkpt><trkpt lat="42.2548472" lon="11.9687707"><ele>195.0</ele><time>2026-04-25T08:05:14.582Z</time></trkpt><trkpt lat="42.2548419" lon="11.9690358"><ele>195.0</ele><time>2026-04-25T08:05:15.582Z</time></trkpt><trkpt lat="42.254837" lon="11.9693051"><ele>195.0</ele><time>2026-04-25T08:05:16.582Z</time></trkpt><trkpt lat="42.2548245" lon="11.9695739"><ele>195.0</ele><time>2026-04-25T08:05:17.582Z</time></trkpt><trkpt lat="42.2548044" lon="11.9698419"><ele>195.0</ele><time>2026-04-25T08:05:18.582Z</time></trkpt><trkpt lat="42.254777" lon="11.9701089"><ele>195.0</ele><time>2026-04-25T08:05:19.582Z</time></trkpt><trkpt lat="42.2547454" lon="11.9703751"><ele>193.66666666666666</ele><time>2026-04-25T08:05:20.582Z</time></trkpt><trkpt lat="42.2547128" lon="11.9706411"><ele>192.33333333333331</ele><time>2026-04-25T08:05:21.582Z</time></trkpt><trkpt lat="42.2546805" lon="11.9709057"><ele>191.0</ele><time>2026-04-25T08:05:22.582Z</time></trkpt><trkpt lat="42.2546483" lon="11.9711692"><ele>191.0</ele><time>2026-04-25T08:05:23.583Z</time></trkpt><trkpt lat="42.2546147" lon="11.971419"><ele>191.0</ele><time>2026-04-25T08:05:24.582Z</time></trkpt><trkpt lat="42.2545816" lon="11.9716704"><ele>191.0</ele><time>2026-04-25T08:05:25.582Z</time></trkpt><trkpt lat="42.2545471" lon="11.9719262"><ele>191.33333333333331</ele><time>2026-04-25T08:05:26.583Z</time></trkpt><trkpt lat="42.2545118" lon="11.9721847"><ele>191.66666666666666</ele><time>2026-04-25T08:05:27.582Z</time></trkpt><trkpt lat="42.2544782" lon="11.9724448"><ele>192.0</ele><time>2026-04-25T08:05:28.582Z</time></trkpt><trkpt lat="42.2544469" lon="11.9726986"><ele>192.0</ele><time>2026-04-25T08:05:29.582Z</time></trkpt><trkpt lat="42.2544184" lon="11.9729369"><ele>192.0</ele><time>2026-04-25T08:05:30.582Z</time></trkpt><trkpt lat="42.2543962" lon="11.9731726"><ele>192.0</ele><time>2026-04-25T08:05:31.582Z</time></trkpt><trkpt lat="42.2543875" lon="11.9734133"><ele>192.0</ele><time>2026-04-25T08:05:32.582Z</time></trkpt><trkpt lat="42.2543921" lon="11.9736608"><ele>192.0</ele><time>2026-04-25T08:05:33.582Z</time></trkpt><trkpt lat="42.254402" lon="11.9739149"><ele>192.0</ele><time>2026-04-25T08:05:34.581Z</time></trkpt><trkpt lat="42.2544168" lon="11.9741765"><ele>193.0</ele><time>2026-04-25T08:05:35.582Z</time></trkpt><trkpt lat="42.2544334" lon="11.9744496"><ele>194.0</ele><time>2026-04-25T08:05:36.582Z</time></trkpt><trkpt lat="42.2544482" lon="11.9747248"><ele>195.0</ele><time>2026-04-25T08:05:37.582Z</time></trkpt><trkpt lat="42.2544639" lon="11.9750018"><ele>196.0</ele><time>2026-04-25T08:05:38.582Z</time></trkpt><trkpt lat="42.2544826" lon="11.9752777"><ele>197.0</ele><time>2026-04-25T08:05:39.582Z</time></trkpt><trkpt lat="42.2545033" lon="11.9755499"><ele>198.0</ele><time>2026-04-25T08:05:40.582Z</time></trkpt><trkpt lat="42.2545214" lon="11.975808"><ele>196.33333333333331</ele><time>2026-04-25T08:05:41.582Z</time></trkpt><trkpt lat="42.2545399" lon="11.9760659"><ele>194.66666666666666</ele><time>2026-04-25T08:05:42.581Z</time></trkpt><trkpt lat="42.2545585" lon="11.9763244"><ele>193.0</ele><time>2026-04-25T08:05:43.582Z</time></trkpt><trkpt lat="42.2545768" lon="11.9765853"><ele>191.66666666666666</ele><time>2026-04-25T08:05:44.582Z</time></trkpt><trkpt lat="42.2545956" lon="11.9768495"><ele>190.33333333333331</ele><time>2026-04-25T08:05:45.582Z</time></trkpt><trkpt lat="42.2546135" lon="11.9771174"><ele>189.0</ele><time>2026-04-25T08:05:46.582Z</time></trkpt><trkpt lat="42.2546324" lon="11.9773873"><ele>188.33333333333334</ele><time>2026-04-25T08:05:47.583Z</time></trkpt><trkpt lat="42.2546527" lon="11.9776548"><ele>187.66666666666669</ele><time>2026-04-25T08:05:48.582Z</time></trkpt><trkpt lat="42.2546695" lon="11.9779203"><ele>187.0</ele><time>2026-04-25T08:05:49.582Z</time></trkpt><trkpt lat="42.2546875" lon="11.9781856"><ele>187.33333333333334</ele><time>2026-04-25T08:05:50.582Z</time></trkpt><trkpt lat="42.2547082" lon="11.9784617"><ele>187.66666666666666</ele><time>2026-04-25T08:05:51.581Z</time></trkpt><trkpt lat="42.2547293" lon="11.9787454"><ele>188.0</ele><time>2026-04-25T08:05:52.582Z</time></trkpt><trkpt lat="42.2547487" lon="11.9790256"><ele>188.33333333333331</ele><time>2026-04-25T08:05:53.582Z</time></trkpt><trkpt lat="42.254768" lon="11.9792968"><ele>188.66666666666666</ele><time>2026-04-25T08:05:54.582Z</time></trkpt><trkpt lat="42.2547893" lon="11.9795638"><ele>189.0</ele><time>2026-04-25T08:05:55.582Z</time></trkpt><trkpt lat="42.2548153" lon="11.9798294"><ele>190.66666666666669</ele><time>2026-04-25T08:05:56.582Z</time></trkpt><trkpt lat="42.2548483" lon="11.9800935"><ele>192.33333333333334</ele><time>2026-04-25T08:05:57.582Z</time></trkpt><trkpt lat="42.2548915" lon="11.9803549"><ele>194.0</ele><time>2026-04-25T08:05:58.582Z</time></trkpt><trkpt lat="42.2549426" lon="11.9806124"><ele>193.66666666666669</ele><time>2026-04-25T08:05:59.582Z</time></trkpt><trkpt lat="42.2549939" lon="11.9808638"><ele>193.33333333333331</ele><time>2026-04-25T08:06:00.582Z</time></trkpt><trkpt lat="42.2550407" lon="11.981111"><ele>193.0</ele><time>2026-04-25T08:06:01.582Z</time></trkpt><trkpt lat="42.2550891" lon="11.9813505"><ele>193.0</ele><time>2026-04-25T08:06:02.582Z</time></trkpt><trkpt lat="42.255137" lon="11.9815916"><ele>193.0</ele><time>2026-04-25T08:06:03.582Z</time></trkpt><trkpt lat="42.2551839" lon="11.9818296"><ele>193.0</ele><time>2026-04-25T08:06:04.583Z</time></trkpt><trkpt lat="42.255225" lon="11.9820706"><ele>194.0</ele><time>2026-04-25T08:06:05.582Z</time></trkpt><trkpt lat="42.255257" lon="11.982322"><ele>195.0</ele><time>2026-04-25T08:06:06.582Z</time></trkpt><trkpt lat="42.255275" lon="11.9825769"><ele>196.0</ele><time>2026-04-25T08:06:07.582Z</time></trkpt><trkpt lat="42.2552784" lon="11.9828411"><ele>197.66666666666666</ele><time>2026-04-25T08:06:08.582Z</time></trkpt><trkpt lat="42.2552764" lon="11.9831091"><ele>199.33333333333331</ele><time>2026-04-25T08:06:09.582Z</time></trkpt><trkpt lat="42.2552745" lon="11.9833785"><ele>201.0</ele><time>2026-04-25T08:06:10.582Z</time></trkpt><trkpt lat="42.2552714" lon="11.9836412"><ele>201.33333333333331</ele><time>2026-04-25T08:06:11.582Z</time></trkpt><trkpt lat="42.2552621" lon="11.9839063"><ele>201.66666666666666</ele><time>2026-04-25T08:06:12.582Z</time></trkpt><trkpt lat="42.2552484" lon="11.9841745"><ele>202.0</ele><time>2026-04-25T08:06:13.582Z</time></trkpt><trkpt lat="42.2552323" lon="11.9844447"><ele>202.0</ele><time>2026-04-25T08:06:14.582Z</time></trkpt><trkpt lat="42.25522" lon="11.9847152"><ele>202.0</ele><time>2026-04-25T08:06:15.582Z</time></trkpt><trkpt lat="42.2552173" lon="11.9849804"><ele>202.0</ele><time>2026-04-25T08:06:16.582Z</time></trkpt><trkpt lat="42.2552181" lon="11.9852425"><ele>202.66666666666666</ele><time>2026-04-25T08:06:17.582Z</time></trkpt><trkpt lat="42.2552196" lon="11.985503"><ele>203.33333333333331</ele><time>2026-04-25T08:06:18.582Z</time></trkpt><trkpt lat="42.2552179" lon="11.9857613"><ele>204.0</ele><time>2026-04-25T08:06:19.582Z</time></trkpt><trkpt lat="42.2552158" lon="11.9860234"><ele>204.66666666666669</ele><time>2026-04-25T08:06:20.582Z</time></trkpt><trkpt lat="42.2552148" lon="11.9862874"><ele>205.33333333333334</ele><time>2026-04-25T08:06:21.583Z</time></trkpt><trkpt lat="42.2552141" lon="11.9865515"><ele>206.0</ele><time>2026-04-25T08:06:22.582Z</time></trkpt><trkpt lat="42.2552178" lon="11.986806"><ele>206.33333333333334</ele><time>2026-04-25T08:06:23.582Z</time></trkpt><trkpt lat="42.2552323" lon="11.9870466"><ele>206.66666666666669</ele><time>2026-04-25T08:06:24.582Z</time></trkpt><trkpt lat="42.2552627" lon="11.9872906"><ele>207.0</ele><time>2026-04-25T08:06:25.583Z</time></trkpt><trkpt lat="42.255317" lon="11.9875293"><ele>207.66666666666669</ele><time>2026-04-25T08:06:26.582Z</time></trkpt><trkpt lat="42.2553758" lon="11.9877636"><ele>208.33333333333334</ele><time>2026-04-25T08:06:27.582Z</time></trkpt><trkpt lat="42.2554326" lon="11.9879789"><ele>209.0</ele><time>2026-04-25T08:06:28.582Z</time></trkpt><trkpt lat="42.2554907" lon="11.9881751"><ele>208.75</ele><time>2026-04-25T08:06:29.582Z</time></trkpt><trkpt lat="42.255553" lon="11.9883508"><ele>208.5</ele><time>2026-04-25T08:06:30.582Z</time></trkpt><trkpt lat="42.2556267" lon="11.9885068"><ele>208.25</ele><time>2026-04-25T08:06:31.582Z</time></trkpt><trkpt lat="42.2557229" lon="11.9886555"><ele>208.0</ele><time>2026-04-25T08:06:32.582Z</time></trkpt><trkpt lat="42.2558356" lon="11.988802"><ele>208.0</ele><time>2026-04-25T08:06:33.583Z</time></trkpt><trkpt lat="42.2559552" lon="11.9889565"><ele>208.0</ele><time>2026-04-25T08:06:34.582Z</time></trkpt><trkpt lat="42.2560779" lon="11.9891162"><ele>208.0</ele><time>2026-04-25T08:06:35.582Z</time></trkpt><trkpt lat="42.2562072" lon="11.9892832"><ele>208.0</ele><time>2026-04-25T08:06:36.582Z</time></trkpt><trkpt lat="42.2563405" lon="11.9894477"><ele>208.0</ele><time>2026-04-25T08:06:37.582Z</time></trkpt><trkpt lat="42.2564807" lon="11.9896173"><ele>208.0</ele><time>2026-04-25T08:06:38.582Z</time></trkpt><trkpt lat="42.2566358" lon="11.9897875"><ele>208.33333333333331</ele><time>2026-04-25T08:06:39.582Z</time></trkpt><trkpt lat="42.2567965" lon="11.9899594"><ele>208.66666666666669</ele><time>2026-04-25T08:06:40.582Z</time></trkpt><trkpt lat="42.2569435" lon="11.9901232"><ele>209.0</ele><time>2026-04-25T08:06:41.582Z</time></trkpt><trkpt lat="42.2570915" lon="11.990281"><ele>209.0</ele><time>2026-04-25T08:06:42.582Z</time></trkpt><trkpt lat="42.257238" lon="11.990436"><ele>209.0</ele><time>2026-04-25T08:06:43.582Z</time></trkpt><trkpt lat="42.25738" lon="11.9905851"><ele>209.0</ele><time>2026-04-25T08:06:44.582Z</time></trkpt><trkpt lat="42.2575185" lon="11.9907547"><ele>209.66666666666669</ele><time>2026-04-25T08:06:45.582Z</time></trkpt><trkpt lat="42.2576425" lon="11.9909207"><ele>210.33333333333331</ele><time>2026-04-25T08:06:46.582Z</time></trkpt><trkpt lat="42.2577588" lon="11.9910895"><ele>211.0</ele><time>2026-04-25T08:06:47.582Z</time></trkpt><trkpt lat="42.2578659" lon="11.9912732"><ele>211.0</ele><time>2026-04-25T08:06:48.582Z</time></trkpt><trkpt lat="42.2579464" lon="11.9914531"><ele>211.0</ele><time>2026-04-25T08:06:49.582Z</time></trkpt><trkpt lat="42.2579969" lon="11.9916292"><ele>211.0</ele><time>2026-04-25T08:06:50.583Z</time></trkpt><trkpt lat="42.2580206" lon="11.991825"><ele>211.0</ele><time>2026-04-25T08:06:51.582Z</time></trkpt><trkpt lat="42.2580222" lon="11.9920279"><ele>211.66666666666666</ele><time>2026-04-25T08:06:52.582Z</time></trkpt><trkpt lat="42.2579961" lon="11.9922385"><ele>212.33333333333331</ele><time>2026-04-25T08:06:53.582Z</time></trkpt><trkpt lat="42.2579516" lon="11.992454"><ele>213.0</ele><time>2026-04-25T08:06:54.582Z</time></trkpt><trkpt lat="42.2578988" lon="11.992676"><ele>213.66666666666669</ele><time>2026-04-25T08:06:55.582Z</time></trkpt><trkpt lat="42.2578413" lon="11.992901"><ele>214.33333333333334</ele><time>2026-04-25T08:06:56.582Z</time></trkpt><trkpt lat="42.2577839" lon="11.9931226"><ele>215.0</ele><time>2026-04-25T08:06:57.582Z</time></trkpt><trkpt lat="42.2577252" lon="11.9933534"><ele>216.33333333333334</ele><time>2026-04-25T08:06:58.582Z</time></trkpt><trkpt lat="42.2576693" lon="11.9935796"><ele>217.66666666666669</ele><time>2026-04-25T08:06:59.582Z</time></trkpt><trkpt lat="42.2576102" lon="11.9937959"><ele>219.0</ele><time>2026-04-25T08:07:00.582Z</time></trkpt><trkpt lat="42.2575514" lon="11.9940151"><ele>220.33333333333331</ele><time>2026-04-25T08:07:01.582Z</time></trkpt><trkpt lat="42.2574836" lon="11.9942177"><ele>221.66666666666666</ele><time>2026-04-25T08:07:02.582Z</time></trkpt><trkpt lat="42.2573991" lon="11.9944268"><ele>223.0</ele><time>2026-04-25T08:07:03.582Z</time></trkpt><trkpt lat="42.2573111" lon="11.9946392"><ele>221.66666666666666</ele><time>2026-04-25T08:07:04.582Z</time></trkpt><trkpt lat="42.2572222" lon="11.99486"><ele>220.33333333333331</ele><time>2026-04-25T08:07:05.582Z</time></trkpt><trkpt lat="42.2571364" lon="11.9950889"><ele>219.0</ele><time>2026-04-25T08:07:06.582Z</time></trkpt><trkpt lat="42.2570546" lon="11.9953244"><ele>219.0</ele><time>2026-04-25T08:07:07.582Z</time></trkpt><trkpt lat="42.2569758" lon="11.995564"><ele>219.0</ele><time>2026-04-25T08:07:08.582Z</time></trkpt><trkpt lat="42.2568973" lon="11.9958009"><ele>219.0</ele><time>2026-04-25T08:07:09.582Z</time></trkpt><trkpt lat="42.2568232" lon="11.9960218"><ele>221.33333333333331</ele><time>2026-04-25T08:07:10.583Z</time></trkpt><trkpt lat="42.2567486" lon="11.9962524"><ele>223.66666666666666</ele><time>2026-04-25T08:07:11.582Z</time></trkpt><trkpt lat="42.2566757" lon="11.9964867"><ele>226.0</ele><time>2026-04-25T08:07:12.582Z</time></trkpt><trkpt lat="42.2566017" lon="11.9967247"><ele>226.0</ele><time>2026-04-25T08:07:13.583Z</time></trkpt><trkpt lat="42.2565281" lon="11.9969577"><ele>226.0</ele><time>2026-04-25T08:07:14.582Z</time></trkpt><trkpt lat="42.2564605" lon="11.9971725"><ele>226.0</ele><time>2026-04-25T08:07:15.582Z</time></trkpt><trkpt lat="42.2563938" lon="11.9973829"><ele>226.33333333333331</ele><time>2026-04-25T08:07:16.582Z</time></trkpt><trkpt lat="42.2563249" lon="11.9975944"><ele>226.66666666666669</ele><time>2026-04-25T08:07:17.582Z</time></trkpt><trkpt lat="42.2562525" lon="11.9978129"><ele>227.0</ele><time>2026-04-25T08:07:18.582Z</time></trkpt><trkpt lat="42.2561688" lon="11.9980266"><ele>227.0</ele><time>2026-04-25T08:07:19.582Z</time></trkpt><trkpt lat="42.2560719" lon="11.9982428"><ele>227.0</ele><time>2026-04-25T08:07:20.582Z</time></trkpt><trkpt lat="42.25598" lon="11.99846"><ele>227.0</ele><time>2026-04-25T08:07:21.582Z</time></trkpt><trkpt lat="42.2558933" lon="11.9986775"><ele>227.66666666666669</ele><time>2026-04-25T08:07:22.582Z</time></trkpt><trkpt lat="42.2558101" lon="11.998905"><ele>228.33333333333331</ele><time>2026-04-25T08:07:23.582Z</time></trkpt><trkpt lat="42.2557413" lon="11.9991428"><ele>229.0</ele><time>2026-04-25T08:07:24.582Z</time></trkpt><trkpt lat="42.2556782" lon="11.9993924"><ele>230.66666666666666</ele><time>2026-04-25T08:07:25.582Z</time></trkpt><trkpt lat="42.2556167" lon="11.9996411"><ele>232.33333333333331</ele><time>2026-04-25T08:07:26.582Z</time></trkpt><trkpt lat="42.2555579" lon="11.9998848"><ele>234.0</ele><time>2026-04-25T08:07:27.582Z</time></trkpt><trkpt lat="42.2555016" lon="12.0001281"><ele>234.0</ele><time>2026-04-25T08:07:28.582Z</time></trkpt><trkpt lat="42.2554473" lon="12.0003739"><ele>234.0</ele><time>2026-04-25T08:07:29.583Z</time></trkpt><trkpt lat="42.2553933" lon="12.0006138"><ele>234.0</ele><time>2026-04-25T08:07:30.582Z</time></trkpt><trkpt lat="42.2553445" lon="12.0008468"><ele>234.33333333333331</ele><time>2026-04-25T08:07:31.582Z</time></trkpt><trkpt lat="42.2552993" lon="12.0010851"><ele>234.66666666666666</ele><time>2026-04-25T08:07:32.582Z</time></trkpt><trkpt lat="42.2552536" lon="12.0013298"><ele>235.0</ele><time>2026-04-25T08:07:33.582Z</time></trkpt><trkpt lat="42.2552069" lon="12.0015783"><ele>235.66666666666666</ele><time>2026-04-25T08:07:34.582Z</time></trkpt><trkpt lat="42.2551638" lon="12.0018287"><ele>236.33333333333331</ele><time>2026-04-25T08:07:35.583Z</time></trkpt><trkpt lat="42.2551281" lon="12.0020786"><ele>237.0</ele><time>2026-04-25T08:07:36.582Z</time></trkpt><trkpt lat="42.2550959" lon="12.002328"><ele>237.66666666666669</ele><time>2026-04-25T08:07:37.582Z</time></trkpt><trkpt lat="42.2550672" lon="12.0025731"><ele>238.33333333333334</ele><time>2026-04-25T08:07:38.582Z</time></trkpt><trkpt lat="42.2550384" lon="12.0028242"><ele>239.0</ele><time>2026-04-25T08:07:39.582Z</time></trkpt><trkpt lat="42.2550096" lon="12.0030786"><ele>240.0</ele><time>2026-04-25T08:07:40.582Z</time></trkpt><trkpt lat="42.2549806" lon="12.0033347"><ele>241.0</ele><time>2026-04-25T08:07:41.582Z</time></trkpt><trkpt lat="42.2549532" lon="12.0035921"><ele>242.0</ele><time>2026-04-25T08:07:42.582Z</time></trkpt><trkpt lat="42.2549271" lon="12.0038502"><ele>242.0</ele><time>2026-04-25T08:07:43.582Z</time></trkpt><trkpt lat="42.2548991" lon="12.004093"><ele>242.0</ele><time>2026-04-25T08:07:44.582Z</time></trkpt><trkpt lat="42.2548713" lon="12.0043327"><ele>242.0</ele><time>2026-04-25T08:07:45.583Z</time></trkpt><trkpt lat="42.2548466" lon="12.004559"><ele>243.66666666666669</ele><time>2026-04-25T08:07:46.582Z</time></trkpt><trkpt lat="42.2548239" lon="12.0047767"><ele>245.33333333333331</ele><time>2026-04-25T08:07:47.582Z</time></trkpt><trkpt lat="42.2548136" lon="12.005003"><ele>247.0</ele><time>2026-04-25T08:07:48.582Z</time></trkpt><trkpt lat="42.2548228" lon="12.0052279"><ele>247.66666666666666</ele><time>2026-04-25T08:07:49.582Z</time></trkpt><trkpt lat="42.2548548" lon="12.0054584"><ele>248.33333333333331</ele><time>2026-04-25T08:07:50.582Z</time></trkpt><trkpt lat="42.254907" lon="12.0056892"><ele>249.0</ele><time>2026-04-25T08:07:51.582Z</time></trkpt><trkpt lat="42.2549748" lon="12.005922"><ele>249.66666666666669</ele><time>2026-04-25T08:07:52.582Z</time></trkpt><trkpt lat="42.2550542" lon="12.0061579"><ele>250.33333333333334</ele><time>2026-04-25T08:07:53.582Z</time></trkpt><trkpt lat="42.2551422" lon="12.0063955"><ele>251.0</ele><time>2026-04-25T08:07:54.583Z</time></trkpt><trkpt lat="42.2552301" lon="12.006637"><ele>251.33333333333334</ele><time>2026-04-25T08:07:55.582Z</time></trkpt><trkpt lat="42.2553172" lon="12.00688"><ele>251.66666666666669</ele><time>2026-04-25T08:07:56.582Z</time></trkpt><trkpt lat="42.2554081" lon="12.0071199"><ele>252.0</ele><time>2026-04-25T08:07:57.582Z</time></trkpt><trkpt lat="42.2554983" lon="12.0073591"><ele>252.33333333333331</ele><time>2026-04-25T08:07:58.582Z</time></trkpt><trkpt lat="42.2555865" lon="12.007604"><ele>252.66666666666666</ele><time>2026-04-25T08:07:59.582Z</time></trkpt><trkpt lat="42.2556722" lon="12.0078471"><ele>253.0</ele><time>2026-04-25T08:08:00.582Z</time></trkpt><trkpt lat="42.2557524" lon="12.0080939"><ele>254.0</ele><time>2026-04-25T08:08:01.583Z</time></trkpt><trkpt lat="42.2558309" lon="12.0083309"><ele>255.0</ele><time>2026-04-25T08:08:02.582Z</time></trkpt><trkpt lat="42.2559041" lon="12.0085682"><ele>256.0</ele><time>2026-04-25T08:08:03.582Z</time></trkpt><trkpt lat="42.2559698" lon="12.0088093"><ele>256.0</ele><time>2026-04-25T08:08:04.582Z</time></trkpt><trkpt lat="42.2560231" lon="12.009051"><ele>256.0</ele><time>2026-04-25T08:08:05.582Z</time></trkpt><trkpt lat="42.2560656" lon="12.0092978"><ele>256.0</ele><time>2026-04-25T08:08:06.582Z</time></trkpt><trkpt lat="42.2561082" lon="12.0095517"><ele>257.0</ele><time>2026-04-25T08:08:07.582Z</time></trkpt><trkpt lat="42.2561492" lon="12.0098044"><ele>258.0</ele><time>2026-04-25T08:08:08.582Z</time></trkpt><trkpt lat="42.2561925" lon="12.0100469"><ele>259.0</ele><time>2026-04-25T08:08:09.582Z</time></trkpt><trkpt lat="42.2562394" lon="12.010282"><ele>259.66666666666663</ele><time>2026-04-25T08:08:10.582Z</time></trkpt><trkpt lat="42.2562976" lon="12.0105216"><ele>260.3333333333333</ele><time>2026-04-25T08:08:11.582Z</time></trkpt><trkpt lat="42.2563638" lon="12.0107589"><ele>261.0</ele><time>2026-04-25T08:08:12.582Z</time></trkpt><trkpt lat="42.2564388" lon="12.0109935"><ele>263.0</ele><time>2026-04-25T08:08:13.582Z</time></trkpt><trkpt lat="42.2565173" lon="12.0112325"><ele>265.0</ele><time>2026-04-25T08:08:14.583Z</time></trkpt><trkpt lat="42.2565946" lon="12.0114733"><ele>267.0</ele><time>2026-04-25T08:08:15.582Z</time></trkpt><trkpt lat="42.2566706" lon="12.0117164"><ele>267.0</ele><time>2026-04-25T08:08:16.582Z</time></trkpt><trkpt lat="42.2567464" lon="12.0119562"><ele>267.0</ele><time>2026-04-25T08:08:17.582Z</time></trkpt><trkpt lat="42.2568247" lon="12.0121957"><ele>267.0</ele><time>2026-04-25T08:08:18.582Z</time></trkpt><trkpt lat="42.256899" lon="12.0124389"><ele>267.0</ele><time>2026-04-25T08:08:19.582Z</time></trkpt><trkpt lat="42.2569734" lon="12.0126812"><ele>267.0</ele><time>2026-04-25T08:08:20.583Z</time></trkpt><trkpt lat="42.2570475" lon="12.0129288"><ele>267.0</ele><time>2026-04-25T08:08:21.582Z</time></trkpt><trkpt lat="42.2571206" lon="12.0131719"><ele>268.0</ele><time>2026-04-25T08:08:22.582Z</time></trkpt><trkpt lat="42.2571935" lon="12.013399"><ele>269.0</ele><time>2026-04-25T08:08:23.582Z</time></trkpt><trkpt lat="42.2572608" lon="12.0136224"><ele>270.0</ele><time>2026-04-25T08:08:24.583Z</time></trkpt><trkpt lat="42.2573292" lon="12.0138484"><ele>271.6666666666667</ele><time>2026-04-25T08:08:25.582Z</time></trkpt><trkpt lat="42.2573955" lon="12.0140733"><ele>273.33333333333337</ele><time>2026-04-25T08:08:26.582Z</time></trkpt><trkpt lat="42.2574592" lon="12.0142978"><ele>275.0</ele><time>2026-04-25T08:08:27.582Z</time></trkpt><trkpt lat="42.2575156" lon="12.0145216"><ele>276.0</ele><time>2026-04-25T08:08:28.583Z</time></trkpt><trkpt lat="42.2575633" lon="12.0147553"><ele>277.0</ele><time>2026-04-25T08:08:29.583Z</time></trkpt><trkpt lat="42.2576115" lon="12.0149916"><ele>278.0</ele><time>2026-04-25T08:08:30.582Z</time></trkpt><trkpt lat="42.2576571" lon="12.015232"><ele>278.6666666666667</ele><time>2026-04-25T08:08:31.582Z</time></trkpt><trkpt lat="42.2576983" lon="12.0154781"><ele>279.3333333333333</ele><time>2026-04-25T08:08:32.582Z</time></trkpt><trkpt lat="42.2577395" lon="12.0157233"><ele>280.0</ele><time>2026-04-25T08:08:33.582Z</time></trkpt><trkpt lat="42.2577811" lon="12.0159712"><ele>282.0</ele><time>2026-04-25T08:08:34.582Z</time></trkpt><trkpt lat="42.2578198" lon="12.0162205"><ele>284.0</ele><time>2026-04-25T08:08:35.582Z</time></trkpt><trkpt lat="42.2578608" lon="12.0164645"><ele>286.0</ele><time>2026-04-25T08:08:36.582Z</time></trkpt><trkpt lat="42.257903" lon="12.016706"><ele>287.3333333333333</ele><time>2026-04-25T08:08:37.582Z</time></trkpt><trkpt lat="42.2579443" lon="12.0169372"><ele>288.6666666666667</ele><time>2026-04-25T08:08:38.583Z</time></trkpt><trkpt lat="42.2579872" lon="12.0171634"><ele>290.0</ele><time>2026-04-25T08:08:39.582Z</time></trkpt><trkpt lat="42.2580299" lon="12.017392"><ele>291.0</ele><time>2026-04-25T08:08:40.582Z</time></trkpt><trkpt lat="42.2580736" lon="12.0176324"><ele>292.0</ele><time>2026-04-25T08:08:41.582Z</time></trkpt><trkpt lat="42.2581165" lon="12.0178525"><ele>293.0</ele><time>2026-04-25T08:08:42.582Z</time></trkpt><trkpt lat="42.2581548" lon="12.0180544"><ele>294.2</ele><time>2026-04-25T08:08:43.583Z</time></trkpt><trkpt lat="42.2581873" lon="12.0182356"><ele>295.4</ele><time>2026-04-25T08:08:44.582Z</time></trkpt><trkpt lat="42.2582112" lon="12.0183687"><ele>296.59999999999997</ele><time>2026-04-25T08:08:45.582Z</time></trkpt><trkpt lat="42.2582296" lon="12.0184702"><ele>297.8</ele><time>2026-04-25T08:08:46.582Z</time></trkpt><trkpt lat="42.2582465" lon="12.0186197"><ele>299.0</ele><time>2026-04-25T08:08:48.582Z</time></trkpt><trkpt lat="42.2582011" lon="12.0186823"><ele>299.0</ele><time>2026-04-25T08:08:50.582Z</time></trkpt><trkpt lat="42.2581139" lon="12.0187286"><ele>299.0</ele><time>2026-04-25T08:08:52.582Z</time></trkpt><trkpt lat="42.2580389" lon="12.0187496"><ele>299.0</ele><time>2026-04-25T08:08:53.582Z</time></trkpt><trkpt lat="42.2579559" lon="12.0187729"><ele>299.0</ele><time>2026-04-25T08:08:54.583Z</time></trkpt><trkpt lat="42.2578645" lon="12.0187998"><ele>299.0</ele><time>2026-04-25T08:08:55.582Z</time></trkpt><trkpt lat="42.2577741" lon="12.0188215"><ele>299.0</ele><time>2026-04-25T08:08:56.582Z</time></trkpt><trkpt lat="42.2576832" lon="12.018838"><ele>299.0</ele><time>2026-04-25T08:08:57.582Z</time></trkpt><trkpt lat="42.2575921" lon="12.0188653"><ele>299.0</ele><time>2026-04-25T08:08:58.582Z</time></trkpt><trkpt lat="42.2575003" lon="12.0188991"><ele>299.0</ele><time>2026-04-25T08:08:59.582Z</time></trkpt><trkpt lat="42.2574069" lon="12.0189312"><ele>299.0</ele><time>2026-04-25T08:09:00.582Z</time></trkpt><trkpt lat="42.2573133" lon="12.0189616"><ele>299.0</ele><time>2026-04-25T08:09:01.582Z</time></trkpt><trkpt lat="42.2572128" lon="12.0189878"><ele>299.59999999999997</ele><time>2026-04-25T08:09:02.582Z</time></trkpt><trkpt lat="42.2571102" lon="12.0190199"><ele>300.2</ele><time>2026-04-25T08:09:03.582Z</time></trkpt><trkpt lat="42.2570123" lon="12.0190478"><ele>300.79999999999995</ele><time>2026-04-25T08:09:04.582Z</time></trkpt><trkpt lat="42.2569193" lon="12.0190752"><ele>301.4</ele><time>2026-04-25T08:09:05.582Z</time></trkpt><trkpt lat="42.2568383" lon="12.0191071"><ele>302.0</ele><time>2026-04-25T08:09:06.582Z</time></trkpt><trkpt lat="42.2567467" lon="12.0191395"><ele>302.8</ele><time>2026-04-25T08:09:07.582Z</time></trkpt><trkpt lat="42.2566577" lon="12.019171"><ele>303.6</ele><time>2026-04-25T08:09:08.582Z</time></trkpt><trkpt lat="42.2565735" lon="12.0191998"><ele>304.40000000000003</ele><time>2026-04-25T08:09:09.582Z</time></trkpt><trkpt lat="42.2564777" lon="12.0192287"><ele>305.2</ele><time>2026-04-25T08:09:10.582Z</time></trkpt><trkpt lat="42.2563694" lon="12.0192564"><ele>306.0</ele><time>2026-04-25T08:09:11.582Z</time></trkpt><trkpt lat="42.2562671" lon="12.0192764"><ele>306.0</ele><time>2026-04-25T08:09:12.582Z</time></trkpt><trkpt lat="42.2561758" lon="12.0192927"><ele>306.0</ele><time>2026-04-25T08:09:13.582Z</time></trkpt><trkpt lat="42.2560849" lon="12.0193131"><ele>306.0</ele><time>2026-04-25T08:09:14.582Z</time></trkpt><trkpt lat="42.2559866" lon="12.0193335"><ele>306.0</ele><time>2026-04-25T08:09:15.582Z</time></trkpt><trkpt lat="42.2558912" lon="12.0193542"><ele>306.0</ele><time>2026-04-25T08:09:16.582Z</time></trkpt><trkpt lat="42.2557995" lon="12.019385"><ele>306.0</ele><time>2026-04-25T08:09:17.582Z</time></trkpt><trkpt lat="42.2557172" lon="12.0194211"><ele>306.0</ele><time>2026-04-25T08:09:18.583Z</time></trkpt><trkpt lat="42.2556471" lon="12.0194646"><ele>306.0</ele><time>2026-04-25T08:09:19.582Z</time></trkpt><trkpt lat="42.2555549" lon="12.0195473"><ele>306.0</ele><time>2026-04-25T08:09:21.581Z</time></trkpt><trkpt lat="42.2555192" lon="12.0196698"><ele>306.0</ele><time>2026-04-25T08:09:23.582Z</time></trkpt><trkpt lat="42.2555136" lon="12.019758"><ele>306.0</ele><time>2026-04-25T08:09:24.582Z</time></trkpt><trkpt lat="42.2555125" lon="12.0198561"><ele>306.5</ele><time>2026-04-25T08:09:25.582Z</time></trkpt><trkpt lat="42.2555094" lon="12.0199483"><ele>307.0</ele><time>2026-04-25T08:09:26.582Z</time></trkpt><trkpt lat="42.255502" lon="12.0200437"><ele>307.5</ele><time>2026-04-25T08:09:27.582Z</time></trkpt><trkpt lat="42.2554992" lon="12.0201545"><ele>308.0</ele><time>2026-04-25T08:09:28.582Z</time></trkpt><trkpt lat="42.2554945" lon="12.0202689"><ele>308.5</ele><time>2026-04-25T08:09:29.582Z</time></trkpt><trkpt lat="42.255491" lon="12.0203874"><ele>309.0</ele><time>2026-04-25T08:09:30.582Z</time></trkpt><trkpt lat="42.2554877" lon="12.0205054"><ele>309.0</ele><time>2026-04-25T08:09:31.582Z</time></trkpt><trkpt lat="42.2554854" lon="12.0206182"><ele>309.0</ele><time>2026-04-25T08:09:32.582Z</time></trkpt><trkpt lat="42.2554836" lon="12.0207372"><ele>309.0</ele><time>2026-04-25T08:09:33.582Z</time></trkpt><trkpt lat="42.255479" lon="12.020849"><ele>309.0</ele><time>2026-04-25T08:09:34.582Z</time></trkpt><trkpt lat="42.2554722" lon="12.0209608"><ele>309.0</ele><time>2026-04-25T08:09:35.582Z</time></trkpt><trkpt lat="42.2554693" lon="12.0210776"><ele>309.0</ele><time>2026-04-25T08:09:36.582Z</time></trkpt><trkpt lat="42.2554639" lon="12.0211916"><ele>309.8333333333333</ele><time>2026-04-25T08:09:37.583Z</time></trkpt><trkpt lat="42.2554608" lon="12.021306"><ele>310.6666666666667</ele><time>2026-04-25T08:09:38.582Z</time></trkpt><trkpt lat="42.2554596" lon="12.0214232"><ele>311.5</ele><time>2026-04-25T08:09:39.582Z</time></trkpt><trkpt lat="42.2554636" lon="12.0215404"><ele>312.33333333333337</ele><time>2026-04-25T08:09:40.582Z</time></trkpt><trkpt lat="42.2554649" lon="12.0216545"><ele>313.1666666666667</ele><time>2026-04-25T08:09:41.582Z</time></trkpt><trkpt lat="42.2554609" lon="12.0217664"><ele>314.0</ele><time>2026-04-25T08:09:42.581Z</time></trkpt><trkpt lat="42.2554568" lon="12.0218892"><ele>315.4</ele><time>2026-04-25T08:09:43.582Z</time></trkpt><trkpt lat="42.2554535" lon="12.0220158"><ele>316.79999999999995</ele><time>2026-04-25T08:09:44.582Z</time></trkpt><trkpt lat="42.2554499" lon="12.0221489"><ele>318.20000000000005</ele><time>2026-04-25T08:09:45.582Z</time></trkpt><trkpt lat="42.2554429" lon="12.0222801"><ele>319.6</ele><time>2026-04-25T08:09:46.582Z</time></trkpt><trkpt lat="42.2554361" lon="12.0224123"><ele>321.0</ele><time>2026-04-25T08:09:47.582Z</time></trkpt><trkpt lat="42.2554335" lon="12.0225466"><ele>322.20000000000005</ele><time>2026-04-25T08:09:48.582Z</time></trkpt><trkpt lat="42.2554306" lon="12.0226778"><ele>323.40000000000003</ele><time>2026-04-25T08:09:49.582Z</time></trkpt><trkpt lat="42.2554229" lon="12.0228086"><ele>324.6</ele><time>2026-04-25T08:09:50.582Z</time></trkpt><trkpt lat="42.255418" lon="12.0229321"><ele>325.8</ele><time>2026-04-25T08:09:51.581Z</time></trkpt><trkpt lat="42.2554127" lon="12.0230413"><ele>327.0</ele><time>2026-04-25T08:09:52.581Z</time></trkpt><trkpt lat="42.2554051" lon="12.0231592"><ele>327.0</ele><time>2026-04-25T08:09:53.581Z</time></trkpt><trkpt lat="42.2554012" lon="12.0232818"><ele>327.0</ele><time>2026-04-25T08:09:54.581Z</time></trkpt><trkpt lat="42.2553971" lon="12.0234038"><ele>327.0</ele><time>2026-04-25T08:09:55.581Z</time></trkpt><trkpt lat="42.2553895" lon="12.0235276"><ele>327.0</ele><time>2026-04-25T08:09:56.581Z</time></trkpt><trkpt lat="42.2553872" lon="12.0236589"><ele>327.0</ele><time>2026-04-25T08:09:57.581Z</time></trkpt><trkpt lat="42.2553816" lon="12.0237778"><ele>328.40000000000003</ele><time>2026-04-25T08:09:58.581Z</time></trkpt><trkpt lat="42.2553772" lon="12.0238972"><ele>329.8</ele><time>2026-04-25T08:09:59.581Z</time></trkpt><trkpt lat="42.2553739" lon="12.0240243"><ele>331.2</ele><time>2026-04-25T08:10:00.581Z</time></trkpt><trkpt lat="42.2553704" lon="12.024146"><ele>332.6</ele><time>2026-04-25T08:10:01.581Z</time></trkpt><trkpt lat="42.2553669" lon="12.0242699"><ele>334.0</ele><time>2026-04-25T08:10:02.58Z</time></trkpt><trkpt lat="42.2553593" lon="12.0243998"><ele>335.0</ele><time>2026-04-25T08:10:03.581Z</time></trkpt><trkpt lat="42.2553515" lon="12.0245338"><ele>336.0</ele><time>2026-04-25T08:10:04.581Z</time></trkpt><trkpt lat="42.2553494" lon="12.0246623"><ele>337.0</ele><time>2026-04-25T08:10:05.581Z</time></trkpt><trkpt lat="42.2553461" lon="12.0247931"><ele>338.0</ele><time>2026-04-25T08:10:06.581Z</time></trkpt><trkpt lat="42.2553381" lon="12.0249241"><ele>339.0</ele><time>2026-04-25T08:10:07.581Z</time></trkpt><trkpt lat="42.2553333" lon="12.025049"><ele>339.8333333333333</ele><time>2026-04-25T08:10:08.581Z</time></trkpt><trkpt lat="42.2553276" lon="12.0251603"><ele>340.6666666666667</ele><time>2026-04-25T08:10:09.581Z</time></trkpt><trkpt lat="42.2553219" lon="12.0252702"><ele>341.5</ele><time>2026-04-25T08:10:10.581Z</time></trkpt><trkpt lat="42.2553168" lon="12.0253863"><ele>342.33333333333337</ele><time>2026-04-25T08:10:11.581Z</time></trkpt><trkpt lat="42.2553124" lon="12.0254974"><ele>343.1666666666667</ele><time>2026-04-25T08:10:12.581Z</time></trkpt><trkpt lat="42.2553088" lon="12.0256106"><ele>344.0</ele><time>2026-04-25T08:10:13.582Z</time></trkpt><trkpt lat="42.2553087" lon="12.0257199"><ele>344.7142857142857</ele><time>2026-04-25T08:10:14.581Z</time></trkpt><trkpt lat="42.2553114" lon="12.0258228"><ele>345.42857142857144</ele><time>2026-04-25T08:10:15.581Z</time></trkpt><trkpt lat="42.2553062" lon="12.0259282"><ele>346.1428571428571</ele><time>2026-04-25T08:10:16.581Z</time></trkpt><trkpt lat="42.2553013" lon="12.0260204"><ele>346.8571428571429</ele><time>2026-04-25T08:10:17.581Z</time></trkpt><trkpt lat="42.2552966" lon="12.0261178"><ele>347.57142857142856</ele><time>2026-04-25T08:10:18.581Z</time></trkpt><trkpt lat="42.2552987" lon="12.0262195"><ele>348.2857142857143</ele><time>2026-04-25T08:10:19.581Z</time></trkpt><trkpt lat="42.2552937" lon="12.0263196"><ele>349.0</ele><time>2026-04-25T08:10:20.581Z</time></trkpt><trkpt lat="42.2552868" lon="12.0264309"><ele>349.0</ele><time>2026-04-25T08:10:21.581Z</time></trkpt><trkpt lat="42.2552819" lon="12.0265437"><ele>349.0</ele><time>2026-04-25T08:10:22.581Z</time></trkpt><trkpt lat="42.2552801" lon="12.0266615"><ele>349.0</ele><time>2026-04-25T08:10:23.582Z</time></trkpt><trkpt lat="42.2552773" lon="12.0267775"><ele>349.0</ele><time>2026-04-25T08:10:24.581Z</time></trkpt><trkpt lat="42.2552799" lon="12.0268824"><ele>349.0</ele><time>2026-04-25T08:10:25.581Z</time></trkpt><trkpt lat="42.2552849" lon="12.0269867"><ele>349.0</ele><time>2026-04-25T08:10:26.582Z</time></trkpt><trkpt lat="42.2552846" lon="12.0270926"><ele>350.4</ele><time>2026-04-25T08:10:27.581Z</time></trkpt><trkpt lat="42.2552784" lon="12.0272041"><ele>351.79999999999995</ele><time>2026-04-25T08:10:28.581Z</time></trkpt><trkpt lat="42.2552718" lon="12.0273272"><ele>353.20000000000005</ele><time>2026-04-25T08:10:29.581Z</time></trkpt><trkpt lat="42.2552654" lon="12.027456"><ele>354.6</ele><time>2026-04-25T08:10:30.581Z</time></trkpt><trkpt lat="42.2552622" lon="12.0275881"><ele>356.0</ele><time>2026-04-25T08:10:31.581Z</time></trkpt><trkpt lat="42.2552572" lon="12.027715"><ele>357.20000000000005</ele><time>2026-04-25T08:10:32.581Z</time></trkpt><trkpt lat="42.2552493" lon="12.0278492"><ele>358.40000000000003</ele><time>2026-04-25T08:10:33.582Z</time></trkpt><trkpt lat="42.2552402" lon="12.0279874"><ele>359.6</ele><time>2026-04-25T08:10:34.581Z</time></trkpt><trkpt lat="42.2552346" lon="12.0281262"><ele>360.8</ele><time>2026-04-25T08:10:35.581Z</time></trkpt><trkpt lat="42.2552297" lon="12.0282627"><ele>362.0</ele><time>2026-04-25T08:10:36.581Z</time></trkpt><trkpt lat="42.2552253" lon="12.028401"><ele>362.6666666666667</ele><time>2026-04-25T08:10:37.581Z</time></trkpt><trkpt lat="42.2552216" lon="12.0285383"><ele>363.33333333333337</ele><time>2026-04-25T08:10:38.581Z</time></trkpt><trkpt lat="42.2552196" lon="12.0286606"><ele>364.0</ele><time>2026-04-25T08:10:39.581Z</time></trkpt><trkpt lat="42.2552148" lon="12.0287789"><ele>364.6666666666667</ele><time>2026-04-25T08:10:40.581Z</time></trkpt><trkpt lat="42.2552142" lon="12.0288916"><ele>365.3333333333333</ele><time>2026-04-25T08:10:41.581Z</time></trkpt><trkpt lat="42.2552108" lon="12.028996"><ele>366.0</ele><time>2026-04-25T08:10:42.581Z</time></trkpt><trkpt lat="42.255208" lon="12.029094"><ele>366.6666666666667</ele><time>2026-04-25T08:10:43.581Z</time></trkpt><trkpt lat="42.255203" lon="12.0291899"><ele>367.3333333333333</ele><time>2026-04-25T08:10:44.581Z</time></trkpt><trkpt lat="42.255196" lon="12.0292803"><ele>368.0</ele><time>2026-04-25T08:10:45.581Z</time></trkpt><trkpt lat="42.2551898" lon="12.0293829"><ele>368.66666666666663</ele><time>2026-04-25T08:10:46.581Z</time></trkpt><trkpt lat="42.2551873" lon="12.029493"><ele>369.3333333333333</ele><time>2026-04-25T08:10:47.581Z</time></trkpt><trkpt lat="42.2551832" lon="12.0296137"><ele>370.0</ele><time>2026-04-25T08:10:48.581Z</time></trkpt><trkpt lat="42.2551774" lon="12.0297452"><ele>370.0</ele><time>2026-04-25T08:10:49.581Z</time></trkpt><trkpt lat="42.2551717" lon="12.0298768"><ele>370.0</ele><time>2026-04-25T08:10:50.581Z</time></trkpt><trkpt lat="42.2551658" lon="12.0300107"><ele>370.0</ele><time>2026-04-25T08:10:51.581Z</time></trkpt><trkpt lat="42.2551596" lon="12.0301484"><ele>370.0</ele><time>2026-04-25T08:10:52.581Z</time></trkpt><trkpt lat="42.2551548" lon="12.0302635"><ele>370.0</ele><time>2026-04-25T08:10:53.581Z</time></trkpt><trkpt lat="42.2551531" lon="12.0303642"><ele>370.2</ele><time>2026-04-25T08:10:54.581Z</time></trkpt><trkpt lat="42.2551465" lon="12.0305138"><ele>370.4</ele><time>2026-04-25T08:10:56.581Z</time></trkpt><trkpt lat="42.2551422" lon="12.030651"><ele>370.6</ele><time>2026-04-25T08:10:58.581Z</time></trkpt><trkpt lat="42.2551397" lon="12.030769"><ele>370.8</ele><time>2026-04-25T08:11:00.581Z</time></trkpt><trkpt lat="42.2551296" lon="12.0308984"><ele>371.0</ele><time>2026-04-25T08:11:02.58Z</time></trkpt><trkpt lat="42.2551253" lon="12.0310419"><ele>371.0</ele><time>2026-04-25T08:11:04.581Z</time></trkpt><trkpt lat="42.2551203" lon="12.0311837"><ele>371.0</ele><time>2026-04-25T08:11:06.581Z</time></trkpt><trkpt lat="42.2551097" lon="12.0312978"><ele>371.0</ele><time>2026-04-25T08:11:08.581Z</time></trkpt><trkpt lat="42.2551123" lon="12.0314073"><ele>371.0</ele><time>2026-04-25T08:11:42.581Z</time></trkpt><trkpt lat="42.2551103" lon="12.0314987"><ele>371.0</ele><time>2026-04-25T08:11:45.581Z</time></trkpt><trkpt lat="42.2550369" lon="12.0315374"><ele>371.0</ele><time>2026-04-25T08:11:48.581Z</time></trkpt><trkpt lat="42.2549646" lon="12.031479"><ele>371.0</ele><time>2026-04-25T08:11:51.581Z</time></trkpt><trkpt lat="42.254993" lon="12.0315602"><ele>371.0</ele><time>2026-04-25T08:11:58.581Z</time></trkpt><trkpt lat="42.2550597" lon="12.0315435"><ele>371.0</ele><time>2026-04-25T08:12:00.581Z</time></trkpt><trkpt lat="42.2551203" lon="12.0314855"><ele>371.0</ele><time>2026-04-25T08:12:03.581Z</time></trkpt><trkpt lat="42.2551291" lon="12.031376"><ele>371.0</ele><time>2026-04-25T08:12:05.581Z</time></trkpt><trkpt lat="42.2551305" lon="12.0312621"><ele>371.0</ele><time>2026-04-25T08:12:07.581Z</time></trkpt><trkpt lat="42.2551391" lon="12.0311441"><ele>371.0</ele><time>2026-04-25T08:12:09.581Z</time></trkpt><trkpt lat="42.2551354" lon="12.0309945"><ele>371.0</ele><time>2026-04-25T08:12:11.581Z</time></trkpt><trkpt lat="42.2551365" lon="12.0308536"><ele>371.0</ele><time>2026-04-25T08:12:13.581Z</time></trkpt><trkpt lat="42.2551467" lon="12.0306975"><ele>371.0</ele><time>2026-04-25T08:12:15.581Z</time></trkpt><trkpt lat="42.2551433" lon="12.0305975"><ele>371.0</ele><time>2026-04-25T08:12:16.581Z</time></trkpt><trkpt lat="42.2551519" lon="12.0305012"><ele>370.8</ele><time>2026-04-25T08:12:17.581Z</time></trkpt><trkpt lat="42.2551599" lon="12.030364"><ele>370.6</ele><time>2026-04-25T08:12:19.581Z</time></trkpt><trkpt lat="42.2551768" lon="12.0302766"><ele>370.4</ele><time>2026-04-25T08:13:22.582Z</time></trkpt><trkpt lat="42.2551794" lon="12.0301778"><ele>370.2</ele><time>2026-04-25T08:13:23.581Z</time></trkpt><trkpt lat="42.2551884" lon="12.0300264"><ele>370.0</ele><time>2026-04-25T08:13:25.581Z</time></trkpt><trkpt lat="42.2551934" lon="12.0298786"><ele>370.0</ele><time>2026-04-25T08:13:27.581Z</time></trkpt><trkpt lat="42.2551979" lon="12.0297298"><ele>370.0</ele><time>2026-04-25T08:13:29.581Z</time></trkpt><trkpt lat="42.2551976" lon="12.0295902"><ele>370.0</ele><time>2026-04-25T08:13:31.581Z</time></trkpt><trkpt lat="42.2551905" lon="12.029472"><ele>370.0</ele><time>2026-04-25T08:13:33.581Z</time></trkpt><trkpt lat="42.2552288" lon="12.0293626"><ele>370.0</ele><time>2026-04-25T08:13:36.581Z</time></trkpt><trkpt lat="42.2553082" lon="12.0293469"><ele>370.0</ele><time>2026-04-25T08:13:38.581Z</time></trkpt><trkpt lat="42.2554248" lon="12.0293646"><ele>370.0</ele><time>2026-04-25T08:13:40.581Z</time></trkpt><trkpt lat="42.2554948" lon="12.0293661"><ele>370.0</ele><time>2026-04-25T08:13:41.581Z</time></trkpt><trkpt lat="42.2555653" lon="12.0293734"><ele>370.0</ele><time>2026-04-25T08:13:42.582Z</time></trkpt><trkpt lat="42.2556324" lon="12.0293802"><ele>370.0</ele><time>2026-04-25T08:13:43.581Z</time></trkpt><trkpt lat="42.2557021" lon="12.0293879"><ele>370.0</ele><time>2026-04-25T08:13:44.581Z</time></trkpt><trkpt lat="42.2557762" lon="12.0293947"><ele>368.5</ele><time>2026-04-25T08:13:45.581Z</time></trkpt><trkpt lat="42.2558516" lon="12.0294011"><ele>367.0</ele><time>2026-04-25T08:13:46.581Z</time></trkpt><trkpt lat="42.2559299" lon="12.0294035"><ele>365.5</ele><time>2026-04-25T08:13:47.581Z</time></trkpt><trkpt lat="42.2560047" lon="12.029405"><ele>364.0</ele><time>2026-04-25T08:13:48.581Z</time></trkpt><trkpt lat="42.2560865" lon="12.0294101"><ele>362.5</ele><time>2026-04-25T08:13:49.582Z</time></trkpt><trkpt lat="42.2561694" lon="12.0294134"><ele>361.0</ele><time>2026-04-25T08:13:50.581Z</time></trkpt><trkpt lat="42.2562541" lon="12.0294225"><ele>361.0</ele><time>2026-04-25T08:13:51.581Z</time></trkpt><trkpt lat="42.2563372" lon="12.0294303"><ele>361.0</ele><time>2026-04-25T08:13:52.581Z</time></trkpt><trkpt lat="42.256419" lon="12.0294386"><ele>361.0</ele><time>2026-04-25T08:13:53.581Z</time></trkpt><trkpt lat="42.2564995" lon="12.0294451"><ele>361.0</ele><time>2026-04-25T08:13:54.581Z</time></trkpt><trkpt lat="42.2565789" lon="12.0294517"><ele>361.0</ele><time>2026-04-25T08:13:55.581Z</time></trkpt><trkpt lat="42.2566606" lon="12.0294558"><ele>361.0</ele><time>2026-04-25T08:13:56.581Z</time></trkpt><trkpt lat="42.2567399" lon="12.0294606"><ele>358.66666666666663</ele><time>2026-04-25T08:13:57.581Z</time></trkpt><trkpt lat="42.2568231" lon="12.0294623"><ele>356.3333333333333</ele><time>2026-04-25T08:13:58.581Z</time></trkpt><trkpt lat="42.2569119" lon="12.0294648"><ele>354.0</ele><time>2026-04-25T08:13:59.582Z</time></trkpt><trkpt lat="42.2569971" lon="12.0294672"><ele>351.6666666666667</ele><time>2026-04-25T08:14:00.581Z</time></trkpt><trkpt lat="42.2570768" lon="12.0294707"><ele>349.33333333333337</ele><time>2026-04-25T08:14:01.581Z</time></trkpt><trkpt lat="42.2571538" lon="12.0294764"><ele>347.0</ele><time>2026-04-25T08:14:02.581Z</time></trkpt><trkpt lat="42.2572292" lon="12.029482"><ele>344.7142857142857</ele><time>2026-04-25T08:14:03.581Z</time></trkpt><trkpt lat="42.2573028" lon="12.0294859"><ele>342.4285714285714</ele><time>2026-04-25T08:14:04.581Z</time></trkpt><trkpt lat="42.2573762" lon="12.0294865"><ele>340.1428571428571</ele><time>2026-04-25T08:14:05.581Z</time></trkpt><trkpt lat="42.2574481" lon="12.0294914"><ele>337.8571428571429</ele><time>2026-04-25T08:14:06.581Z</time></trkpt><trkpt lat="42.2575186" lon="12.0294961"><ele>335.57142857142856</ele><time>2026-04-25T08:14:07.581Z</time></trkpt><trkpt lat="42.2575893" lon="12.029498"><ele>333.2857142857143</ele><time>2026-04-25T08:14:08.581Z</time></trkpt><trkpt lat="42.2576623" lon="12.0294996"><ele>331.0</ele><time>2026-04-25T08:14:09.581Z</time></trkpt><trkpt lat="42.2577367" lon="12.0295028"><ele>331.0</ele><time>2026-04-25T08:14:10.581Z</time></trkpt><trkpt lat="42.2578164" lon="12.0295063"><ele>331.0</ele><time>2026-04-25T08:14:11.582Z</time></trkpt><trkpt lat="42.2578948" lon="12.0295131"><ele>331.0</ele><time>2026-04-25T08:14:12.581Z</time></trkpt><trkpt lat="42.2579722" lon="12.0295168"><ele>331.0</ele><time>2026-04-25T08:14:13.581Z</time></trkpt><trkpt lat="42.2580485" lon="12.0295167"><ele>331.0</ele><time>2026-04-25T08:14:14.581Z</time></trkpt><trkpt lat="42.2581239" lon="12.0295213"><ele>331.0</ele><time>2026-04-25T08:14:15.581Z</time></trkpt><trkpt lat="42.2581972" lon="12.0295272"><ele>329.3333333333333</ele><time>2026-04-25T08:14:16.581Z</time></trkpt><trkpt lat="42.2582734" lon="12.0295323"><ele>327.66666666666663</ele><time>2026-04-25T08:14:17.581Z</time></trkpt><trkpt lat="42.2583565" lon="12.0295385"><ele>326.0</ele><time>2026-04-25T08:14:18.581Z</time></trkpt><trkpt lat="42.258441" lon="12.0295429"><ele>324.3333333333333</ele><time>2026-04-25T08:14:19.581Z</time></trkpt><trkpt lat="42.2585269" lon="12.029549"><ele>322.6666666666667</ele><time>2026-04-25T08:14:20.58Z</time></trkpt><trkpt lat="42.2586131" lon="12.0295536"><ele>321.0</ele><time>2026-04-25T08:14:21.58Z</time></trkpt><trkpt lat="42.2586991" lon="12.029559"><ele>321.0</ele><time>2026-04-25T08:14:22.58Z</time></trkpt><trkpt lat="42.2587903" lon="12.0295635"><ele>321.0</ele><time>2026-04-25T08:14:23.58Z</time></trkpt><trkpt lat="42.2588787" lon="12.0295714"><ele>321.0</ele><time>2026-04-25T08:14:24.58Z</time></trkpt><trkpt lat="42.2589658" lon="12.0295784"><ele>321.0</ele><time>2026-04-25T08:14:25.58Z</time></trkpt><trkpt lat="42.2590513" lon="12.0295811"><ele>321.0</ele><time>2026-04-25T08:14:26.58Z</time></trkpt><trkpt lat="42.2591376" lon="12.0295868"><ele>321.0</ele><time>2026-04-25T08:14:27.58Z</time></trkpt><trkpt lat="42.2592198" lon="12.0295916"><ele>319.8333333333333</ele><time>2026-04-25T08:14:28.58Z</time></trkpt><trkpt lat="42.2592998" lon="12.0295934"><ele>318.6666666666667</ele><time>2026-04-25T08:14:29.58Z</time></trkpt><trkpt lat="42.2593805" lon="12.0295965"><ele>317.5</ele><time>2026-04-25T08:14:30.581Z</time></trkpt><trkpt lat="42.2594619" lon="12.0295972"><ele>316.33333333333337</ele><time>2026-04-25T08:14:31.58Z</time></trkpt><trkpt lat="42.2595517" lon="12.0296043"><ele>315.1666666666667</ele><time>2026-04-25T08:14:32.58Z</time></trkpt><trkpt lat="42.2596408" lon="12.0296048"><ele>314.0</ele><time>2026-04-25T08:14:33.58Z</time></trkpt><trkpt lat="42.2597311" lon="12.0296092"><ele>312.33333333333337</ele><time>2026-04-25T08:14:34.58Z</time></trkpt><trkpt lat="42.259815" lon="12.0296165"><ele>310.6666666666667</ele><time>2026-04-25T08:14:35.58Z</time></trkpt><trkpt lat="42.2598934" lon="12.0296239"><ele>309.0</ele><time>2026-04-25T08:14:36.58Z</time></trkpt><trkpt lat="42.2599681" lon="12.0296321"><ele>307.3333333333333</ele><time>2026-04-25T08:14:37.58Z</time></trkpt><trkpt lat="42.2600349" lon="12.0296328"><ele>305.66666666666663</ele><time>2026-04-25T08:14:38.581Z</time></trkpt><trkpt lat="42.2601461" lon="12.0296401"><ele>304.0</ele><time>2026-04-25T08:14:40.58Z</time></trkpt><trkpt lat="42.2602561" lon="12.0296466"><ele>304.0</ele><time>2026-04-25T08:14:42.58Z</time></trkpt><trkpt lat="42.260351" lon="12.0296548"><ele>304.0</ele><time>2026-04-25T08:14:44.581Z</time></trkpt><trkpt lat="42.2604301" lon="12.0296552"><ele>304.0</ele><time>2026-04-25T08:14:46.58Z</time></trkpt><trkpt lat="42.2604978" lon="12.0296994"><ele>304.0</ele><time>2026-04-25T08:14:49.58Z</time></trkpt><trkpt lat="42.2605575" lon="12.0298349"><ele>304.0</ele><time>2026-04-25T08:14:51.58Z</time></trkpt><trkpt lat="42.260591" lon="12.0299379"><ele>304.0</ele><time>2026-04-25T08:14:52.58Z</time></trkpt><trkpt lat="42.2606203" lon="12.0300536"><ele>302.25</ele><time>2026-04-25T08:14:53.58Z</time></trkpt><trkpt lat="42.2606657" lon="12.0301948"><ele>300.5</ele><time>2026-04-25T08:14:54.58Z</time></trkpt><trkpt lat="42.2607167" lon="12.0303492"><ele>298.75</ele><time>2026-04-25T08:14:55.58Z</time></trkpt><trkpt lat="42.2607669" lon="12.0305029"><ele>297.0</ele><time>2026-04-25T08:14:56.58Z</time></trkpt><trkpt lat="42.2608188" lon="12.0306785"><ele>297.75</ele><time>2026-04-25T08:14:57.58Z</time></trkpt><trkpt lat="42.2608614" lon="12.0308355"><ele>298.5</ele><time>2026-04-25T08:14:58.58Z</time></trkpt><trkpt lat="42.260888" lon="12.0309866"><ele>299.25</ele><time>2026-04-25T08:14:59.58Z</time></trkpt><trkpt lat="42.2608933" lon="12.031148"><ele>300.0</ele><time>2026-04-25T08:15:00.58Z</time></trkpt><trkpt lat="42.2608699" lon="12.0313171"><ele>300.0</ele><time>2026-04-25T08:15:01.58Z</time></trkpt><trkpt lat="42.2608287" lon="12.0315016"><ele>300.0</ele><time>2026-04-25T08:15:02.58Z</time></trkpt><trkpt lat="42.2607749" lon="12.0316858"><ele>300.0</ele><time>2026-04-25T08:15:03.579Z</time></trkpt><trkpt lat="42.2607156" lon="12.0318666"><ele>300.0</ele><time>2026-04-25T08:15:04.58Z</time></trkpt><trkpt lat="42.2606485" lon="12.0320551"><ele>300.3333333333333</ele><time>2026-04-25T08:15:05.58Z</time></trkpt><trkpt lat="42.2605737" lon="12.0322191"><ele>300.66666666666663</ele><time>2026-04-25T08:15:06.58Z</time></trkpt><trkpt lat="42.2604763" lon="12.0323836"><ele>301.0</ele><time>2026-04-25T08:15:07.58Z</time></trkpt><trkpt lat="42.2603708" lon="12.0325427"><ele>301.25</ele><time>2026-04-25T08:15:08.579Z</time></trkpt><trkpt lat="42.2602682" lon="12.0326878"><ele>301.5</ele><time>2026-04-25T08:15:09.58Z</time></trkpt><trkpt lat="42.2601727" lon="12.0328358"><ele>301.75</ele><time>2026-04-25T08:15:10.58Z</time></trkpt><trkpt lat="42.2600852" lon="12.0330027"><ele>302.0</ele><time>2026-04-25T08:15:11.579Z</time></trkpt><trkpt lat="42.2600089" lon="12.0332005"><ele>303.0</ele><time>2026-04-25T08:15:12.58Z</time></trkpt><trkpt lat="42.2599405" lon="12.0334267"><ele>304.0</ele><time>2026-04-25T08:15:13.581Z</time></trkpt><trkpt lat="42.2598801" lon="12.0336448"><ele>305.0</ele><time>2026-04-25T08:15:14.581Z</time></trkpt><trkpt lat="42.2598194" lon="12.0338676"><ele>305.33333333333337</ele><time>2026-04-25T08:15:15.58Z</time></trkpt><trkpt lat="42.2597591" lon="12.0340947"><ele>305.6666666666667</ele><time>2026-04-25T08:15:16.58Z</time></trkpt><trkpt lat="42.2596977" lon="12.0343215"><ele>306.0</ele><time>2026-04-25T08:15:17.58Z</time></trkpt><trkpt lat="42.2596372" lon="12.0345471"><ele>306.3333333333333</ele><time>2026-04-25T08:15:18.581Z</time></trkpt><trkpt lat="42.2595794" lon="12.0347555"><ele>306.66666666666663</ele><time>2026-04-25T08:15:19.58Z</time></trkpt><trkpt lat="42.2595226" lon="12.0349684"><ele>307.0</ele><time>2026-04-25T08:15:20.58Z</time></trkpt><trkpt lat="42.259466" lon="12.0351877"><ele>307.3333333333333</ele><time>2026-04-25T08:15:21.58Z</time></trkpt><trkpt lat="42.2594124" lon="12.0353989"><ele>307.6666666666667</ele><time>2026-04-25T08:15:22.58Z</time></trkpt><trkpt lat="42.2593615" lon="12.0356037"><ele>308.0</ele><time>2026-04-25T08:15:23.58Z</time></trkpt><trkpt lat="42.2593151" lon="12.0358071"><ele>308.5</ele><time>2026-04-25T08:15:24.58Z</time></trkpt><trkpt lat="42.2592743" lon="12.0360036"><ele>309.0</ele><time>2026-04-25T08:15:25.579Z</time></trkpt><trkpt lat="42.2592326" lon="12.0361925"><ele>309.5</ele><time>2026-04-25T08:15:26.58Z</time></trkpt><trkpt lat="42.2591861" lon="12.0363694"><ele>310.0</ele><time>2026-04-25T08:15:27.58Z</time></trkpt><trkpt lat="42.2591232" lon="12.0365305"><ele>310.0</ele><time>2026-04-25T08:15:28.58Z</time></trkpt><trkpt lat="42.2590309" lon="12.0366652"><ele>310.0</ele><time>2026-04-25T08:15:29.58Z</time></trkpt><trkpt lat="42.2589186" lon="12.0367795"><ele>310.0</ele><time>2026-04-25T08:15:30.58Z</time></trkpt><trkpt lat="42.2588091" lon="12.0368708"><ele>310.0</ele><time>2026-04-25T08:15:31.58Z</time></trkpt><trkpt lat="42.2587079" lon="12.0369571"><ele>310.0</ele><time>2026-04-25T08:15:32.58Z</time></trkpt><trkpt lat="42.2586123" lon="12.0370557"><ele>310.0</ele><time>2026-04-25T08:15:33.58Z</time></trkpt><trkpt lat="42.2585207" lon="12.037179"><ele>310.0</ele><time>2026-04-25T08:15:34.581Z</time></trkpt><trkpt lat="42.2584392" lon="12.0373284"><ele>310.0</ele><time>2026-04-25T08:15:35.58Z</time></trkpt><trkpt lat="42.2583591" lon="12.0375043"><ele>310.0</ele><time>2026-04-25T08:15:36.58Z</time></trkpt><trkpt lat="42.2582751" lon="12.0376975"><ele>310.0</ele><time>2026-04-25T08:15:37.58Z</time></trkpt><trkpt lat="42.2581865" lon="12.0379115"><ele>310.0</ele><time>2026-04-25T08:15:38.58Z</time></trkpt><trkpt lat="42.258095" lon="12.038131"><ele>310.66666666666663</ele><time>2026-04-25T08:15:39.58Z</time></trkpt><trkpt lat="42.2580023" lon="12.0383477"><ele>311.3333333333333</ele><time>2026-04-25T08:15:40.581Z</time></trkpt><trkpt lat="42.257907" lon="12.0385652"><ele>312.0</ele><time>2026-04-25T08:15:41.58Z</time></trkpt><trkpt lat="42.2578146" lon="12.038784"><ele>312.0</ele><time>2026-04-25T08:15:42.58Z</time></trkpt><trkpt lat="42.2577282" lon="12.038992"><ele>312.0</ele><time>2026-04-25T08:15:43.58Z</time></trkpt><trkpt lat="42.2576395" lon="12.0392019"><ele>312.0</ele><time>2026-04-25T08:15:44.58Z</time></trkpt><trkpt lat="42.2575483" lon="12.0394132"><ele>312.3333333333333</ele><time>2026-04-25T08:15:45.58Z</time></trkpt><trkpt lat="42.2574572" lon="12.0396238"><ele>312.66666666666663</ele><time>2026-04-25T08:15:46.581Z</time></trkpt><trkpt lat="42.2573664" lon="12.0398321"><ele>313.0</ele><time>2026-04-25T08:15:47.58Z</time></trkpt><trkpt lat="42.2572773" lon="12.0400352"><ele>313.0</ele><time>2026-04-25T08:15:48.58Z</time></trkpt><trkpt lat="42.2571956" lon="12.0402293"><ele>313.0</ele><time>2026-04-25T08:15:49.58Z</time></trkpt><trkpt lat="42.2571261" lon="12.0404364"><ele>313.0</ele><time>2026-04-25T08:15:50.58Z</time></trkpt><trkpt lat="42.2570826" lon="12.0406579"><ele>313.0</ele><time>2026-04-25T08:15:51.58Z</time></trkpt><trkpt lat="42.2570559" lon="12.0408927"><ele>313.0</ele><time>2026-04-25T08:15:52.581Z</time></trkpt><trkpt lat="42.2570361" lon="12.0411337"><ele>313.0</ele><time>2026-04-25T08:15:53.58Z</time></trkpt><trkpt lat="42.2570171" lon="12.0413825"><ele>312.66666666666663</ele><time>2026-04-25T08:15:54.58Z</time></trkpt><trkpt lat="42.256999" lon="12.041635"><ele>312.3333333333333</ele><time>2026-04-25T08:15:55.581Z</time></trkpt><trkpt lat="42.2569788" lon="12.0418914"><ele>312.0</ele><time>2026-04-25T08:15:56.58Z</time></trkpt><trkpt lat="42.2569593" lon="12.0421513"><ele>312.0</ele><time>2026-04-25T08:15:57.58Z</time></trkpt><trkpt lat="42.2569405" lon="12.0424044"><ele>312.0</ele><time>2026-04-25T08:15:58.58Z</time></trkpt><trkpt lat="42.2569232" lon="12.0426419"><ele>312.0</ele><time>2026-04-25T08:15:59.58Z</time></trkpt><trkpt lat="42.2569046" lon="12.0428757"><ele>312.0</ele><time>2026-04-25T08:16:00.58Z</time></trkpt><trkpt lat="42.2568859" lon="12.0431095"><ele>312.0</ele><time>2026-04-25T08:16:01.58Z</time></trkpt><trkpt lat="42.2568687" lon="12.0433387"><ele>312.0</ele><time>2026-04-25T08:16:02.58Z</time></trkpt><trkpt lat="42.2568536" lon="12.0435658"><ele>312.0</ele><time>2026-04-25T08:16:03.58Z</time></trkpt><trkpt lat="42.2568364" lon="12.0437935"><ele>312.0</ele><time>2026-04-25T08:16:04.58Z</time></trkpt><trkpt lat="42.2568205" lon="12.0440265"><ele>312.0</ele><time>2026-04-25T08:16:05.58Z</time></trkpt><trkpt lat="42.2568055" lon="12.0442622"><ele>312.6666666666667</ele><time>2026-04-25T08:16:06.58Z</time></trkpt><trkpt lat="42.2567878" lon="12.0445004"><ele>313.33333333333337</ele><time>2026-04-25T08:16:07.58Z</time></trkpt><trkpt lat="42.2567689" lon="12.0447426"><ele>314.0</ele><time>2026-04-25T08:16:08.579Z</time></trkpt><trkpt lat="42.2567502" lon="12.0449917"><ele>314.33333333333337</ele><time>2026-04-25T08:16:09.58Z</time></trkpt><trkpt lat="42.2567326" lon="12.0452388"><ele>314.6666666666667</ele><time>2026-04-25T08:16:10.581Z</time></trkpt><trkpt lat="42.2567141" lon="12.0454822"><ele>315.0</ele><time>2026-04-25T08:16:11.58Z</time></trkpt><trkpt lat="42.2566963" lon="12.0457236"><ele>315.3333333333333</ele><time>2026-04-25T08:16:12.58Z</time></trkpt><trkpt lat="42.2566794" lon="12.0459656"><ele>315.66666666666663</ele><time>2026-04-25T08:16:13.58Z</time></trkpt><trkpt lat="42.2566609" lon="12.0462111"><ele>316.0</ele><time>2026-04-25T08:16:14.58Z</time></trkpt><trkpt lat="42.2566419" lon="12.046458"><ele>316.0</ele><time>2026-04-25T08:16:15.581Z</time></trkpt><trkpt lat="42.2566233" lon="12.0467044"><ele>316.0</ele><time>2026-04-25T08:16:16.58Z</time></trkpt><trkpt lat="42.2566055" lon="12.0469495"><ele>316.0</ele><time>2026-04-25T08:16:17.58Z</time></trkpt><trkpt lat="42.2565848" lon="12.0471977"><ele>316.0</ele><time>2026-04-25T08:16:18.58Z</time></trkpt><trkpt lat="42.2565654" lon="12.0474453"><ele>316.0</ele><time>2026-04-25T08:16:19.58Z</time></trkpt><trkpt lat="42.2565449" lon="12.0476963"><ele>316.0</ele><time>2026-04-25T08:16:20.58Z</time></trkpt><trkpt lat="42.2565218" lon="12.0479476"><ele>316.0</ele><time>2026-04-25T08:16:21.581Z</time></trkpt><trkpt lat="42.2564911" lon="12.0481954"><ele>316.0</ele><time>2026-04-25T08:16:22.58Z</time></trkpt><trkpt lat="42.2564557" lon="12.0484416"><ele>316.0</ele><time>2026-04-25T08:16:23.58Z</time></trkpt><trkpt lat="42.2564179" lon="12.0486874"><ele>315.3333333333333</ele><time>2026-04-25T08:16:24.581Z</time></trkpt><trkpt lat="42.2563799" lon="12.0489328"><ele>314.6666666666667</ele><time>2026-04-25T08:16:25.581Z</time></trkpt><trkpt lat="42.2563418" lon="12.0491788"><ele>314.0</ele><time>2026-04-25T08:16:26.58Z</time></trkpt><trkpt lat="42.2563032" lon="12.0494264"><ele>314.0</ele><time>2026-04-25T08:16:27.58Z</time></trkpt><trkpt lat="42.2562631" lon="12.049674"><ele>314.0</ele><time>2026-04-25T08:16:28.58Z</time></trkpt><trkpt lat="42.2562227" lon="12.0499222"><ele>314.0</ele><time>2026-04-25T08:16:29.58Z</time></trkpt><trkpt lat="42.2561812" lon="12.0501715"><ele>314.33333333333337</ele><time>2026-04-25T08:16:30.58Z</time></trkpt><trkpt lat="42.2561415" lon="12.0504198"><ele>314.6666666666667</ele><time>2026-04-25T08:16:31.58Z</time></trkpt><trkpt lat="42.2561021" lon="12.0506691"><ele>315.0</ele><time>2026-04-25T08:16:32.58Z</time></trkpt><trkpt lat="42.2560619" lon="12.0509168"><ele>315.6666666666667</ele><time>2026-04-25T08:16:33.58Z</time></trkpt><trkpt lat="42.2560199" lon="12.0511649"><ele>316.33333333333337</ele><time>2026-04-25T08:16:34.58Z</time></trkpt><trkpt lat="42.2559771" lon="12.0514119"><ele>317.0</ele><time>2026-04-25T08:16:35.58Z</time></trkpt><trkpt lat="42.2559363" lon="12.0516607"><ele>317.0</ele><time>2026-04-25T08:16:36.58Z</time></trkpt><trkpt lat="42.2558968" lon="12.0519082"><ele>317.0</ele><time>2026-04-25T08:16:37.58Z</time></trkpt><trkpt lat="42.2558593" lon="12.0521538"><ele>317.0</ele><time>2026-04-25T08:16:38.58Z</time></trkpt><trkpt lat="42.2558222" lon="12.0523968"><ele>316.6666666666667</ele><time>2026-04-25T08:16:39.58Z</time></trkpt><trkpt lat="42.2557826" lon="12.0526426"><ele>316.3333333333333</ele><time>2026-04-25T08:16:40.58Z</time></trkpt><trkpt lat="42.2557416" lon="12.0528953"><ele>316.0</ele><time>2026-04-25T08:16:41.58Z</time></trkpt><trkpt lat="42.2556989" lon="12.0531476"><ele>316.3333333333333</ele><time>2026-04-25T08:16:42.58Z</time></trkpt><trkpt lat="42.2556551" lon="12.0534064"><ele>316.6666666666667</ele><time>2026-04-25T08:16:43.58Z</time></trkpt><trkpt lat="42.2556137" lon="12.053666"><ele>317.0</ele><time>2026-04-25T08:16:44.58Z</time></trkpt><trkpt lat="42.2555741" lon="12.0539228"><ele>320.33333333333337</ele><time>2026-04-25T08:16:45.581Z</time></trkpt><trkpt lat="42.2555327" lon="12.0541618"><ele>323.6666666666667</ele><time>2026-04-25T08:16:46.58Z</time></trkpt><trkpt lat="42.2554836" lon="12.0543739"><ele>327.0</ele><time>2026-04-25T08:16:47.58Z</time></trkpt><trkpt lat="42.255418" lon="12.0545674"><ele>327.0</ele><time>2026-04-25T08:16:48.58Z</time></trkpt><trkpt lat="42.2553273" lon="12.0547559"><ele>327.0</ele><time>2026-04-25T08:16:49.581Z</time></trkpt><trkpt lat="42.2552147" lon="12.0549363"><ele>327.0</ele><time>2026-04-25T08:16:50.58Z</time></trkpt><trkpt lat="42.2550869" lon="12.0551177"><ele>328.3333333333333</ele><time>2026-04-25T08:16:51.58Z</time></trkpt><trkpt lat="42.2549484" lon="12.055299"><ele>329.66666666666663</ele><time>2026-04-25T08:16:52.581Z</time></trkpt><trkpt lat="42.2548064" lon="12.0554794"><ele>331.0</ele><time>2026-04-25T08:16:53.58Z</time></trkpt><trkpt lat="42.2546728" lon="12.0556575"><ele>330.3333333333333</ele><time>2026-04-25T08:16:54.58Z</time></trkpt><trkpt lat="42.2545367" lon="12.0558326"><ele>329.6666666666667</ele><time>2026-04-25T08:16:55.58Z</time></trkpt><trkpt lat="42.2543976" lon="12.0560074"><ele>329.0</ele><time>2026-04-25T08:16:56.58Z</time></trkpt><trkpt lat="42.2542645" lon="12.0561832"><ele>329.0</ele><time>2026-04-25T08:16:57.58Z</time></trkpt><trkpt lat="42.2541368" lon="12.0563525"><ele>329.0</ele><time>2026-04-25T08:16:58.581Z</time></trkpt><trkpt lat="42.2540154" lon="12.0565095"><ele>329.0</ele><time>2026-04-25T08:16:59.58Z</time></trkpt><trkpt lat="42.2538924" lon="12.0566687"><ele>330.6666666666667</ele><time>2026-04-25T08:17:00.58Z</time></trkpt><trkpt lat="42.253768" lon="12.0568301"><ele>332.3333333333333</ele><time>2026-04-25T08:17:01.58Z</time></trkpt><trkpt lat="42.2536417" lon="12.0569936"><ele>334.0</ele><time>2026-04-25T08:17:02.58Z</time></trkpt><trkpt lat="42.2535145" lon="12.0571597"><ele>334.0</ele><time>2026-04-25T08:17:03.58Z</time></trkpt><trkpt lat="42.2533853" lon="12.057336"><ele>334.0</ele><time>2026-04-25T08:17:04.58Z</time></trkpt><trkpt lat="42.2532653" lon="12.0575273"><ele>334.0</ele><time>2026-04-25T08:17:05.581Z</time></trkpt><trkpt lat="42.2531574" lon="12.0577418"><ele>337.66666666666663</ele><time>2026-04-25T08:17:06.58Z</time></trkpt><trkpt lat="42.2530595" lon="12.0579678"><ele>341.3333333333333</ele><time>2026-04-25T08:17:07.58Z</time></trkpt><trkpt lat="42.2529644" lon="12.0581897"><ele>345.0</ele><time>2026-04-25T08:17:08.58Z</time></trkpt><trkpt lat="42.2528736" lon="12.0583935"><ele>345.0</ele><time>2026-04-25T08:17:09.58Z</time></trkpt><trkpt lat="42.2527852" lon="12.0586001"><ele>345.0</ele><time>2026-04-25T08:17:10.58Z</time></trkpt><trkpt lat="42.2527001" lon="12.0588105"><ele>345.0</ele><time>2026-04-25T08:17:11.58Z</time></trkpt><trkpt lat="42.2526155" lon="12.0590238"><ele>342.6666666666667</ele><time>2026-04-25T08:17:12.58Z</time></trkpt><trkpt lat="42.2525311" lon="12.0592284"><ele>340.33333333333337</ele><time>2026-04-25T08:17:13.58Z</time></trkpt><trkpt lat="42.2524514" lon="12.0594071"><ele>338.0</ele><time>2026-04-25T08:17:14.58Z</time></trkpt><trkpt lat="42.252378" lon="12.0595644"><ele>338.0</ele><time>2026-04-25T08:17:15.58Z</time></trkpt><trkpt lat="42.2522921" lon="12.0596955"><ele>338.0</ele><time>2026-04-25T08:17:16.58Z</time></trkpt><trkpt lat="42.2521969" lon="12.0598144"><ele>338.0</ele><time>2026-04-25T08:17:17.58Z</time></trkpt><trkpt lat="42.2520951" lon="12.0599099"><ele>338.0</ele><time>2026-04-25T08:17:18.58Z</time></trkpt><trkpt lat="42.2519819" lon="12.0599926"><ele>337.75</ele><time>2026-04-25T08:17:19.581Z</time></trkpt><trkpt lat="42.2518498" lon="12.0600504"><ele>337.5</ele><time>2026-04-25T08:17:20.58Z</time></trkpt><trkpt lat="42.2517056" lon="12.0600905"><ele>337.25</ele><time>2026-04-25T08:17:21.58Z</time></trkpt><trkpt lat="42.2515547" lon="12.0601194"><ele>337.0</ele><time>2026-04-25T08:17:22.58Z</time></trkpt><trkpt lat="42.2513995" lon="12.060148"><ele>338.66666666666663</ele><time>2026-04-25T08:17:23.58Z</time></trkpt><trkpt lat="42.2512382" lon="12.0601781"><ele>340.3333333333333</ele><time>2026-04-25T08:17:24.58Z</time></trkpt><trkpt lat="42.2510856" lon="12.0602053"><ele>342.0</ele><time>2026-04-25T08:17:25.581Z</time></trkpt><trkpt lat="42.250937" lon="12.0602313"><ele>342.0</ele><time>2026-04-25T08:17:26.58Z</time></trkpt><trkpt lat="42.250785" lon="12.0602551"><ele>342.0</ele><time>2026-04-25T08:17:27.58Z</time></trkpt><trkpt lat="42.2506399" lon="12.0602815"><ele>342.0</ele><time>2026-04-25T08:17:28.579Z</time></trkpt><trkpt lat="42.250502" lon="12.060309"><ele>342.0</ele><time>2026-04-25T08:17:29.579Z</time></trkpt><trkpt lat="42.2503568" lon="12.0603321"><ele>342.5</ele><time>2026-04-25T08:17:30.58Z</time></trkpt><trkpt lat="42.2502192" lon="12.0603501"><ele>343.0</ele><time>2026-04-25T08:17:31.579Z</time></trkpt><trkpt lat="42.2500844" lon="12.0603676"><ele>343.5</ele><time>2026-04-25T08:17:32.579Z</time></trkpt><trkpt lat="42.2499595" lon="12.0603896"><ele>344.0</ele><time>2026-04-25T08:17:33.579Z</time></trkpt><trkpt lat="42.24984" lon="12.0604165"><ele>344.25</ele><time>2026-04-25T08:17:34.579Z</time></trkpt><trkpt lat="42.2497221" lon="12.0604553"><ele>344.5</ele><time>2026-04-25T08:17:35.579Z</time></trkpt><trkpt lat="42.2496145" lon="12.0605225"><ele>344.75</ele><time>2026-04-25T08:17:36.579Z</time></trkpt><trkpt lat="42.2495246" lon="12.0606277"><ele>345.0</ele><time>2026-04-25T08:17:37.579Z</time></trkpt><trkpt lat="42.2494531" lon="12.0607625"><ele>342.75</ele><time>2026-04-25T08:17:38.579Z</time></trkpt><trkpt lat="42.2494051" lon="12.0609159"><ele>340.5</ele><time>2026-04-25T08:17:39.578Z</time></trkpt><trkpt lat="42.2493856" lon="12.0610858"><ele>338.25</ele><time>2026-04-25T08:17:40.58Z</time></trkpt><trkpt lat="42.249388" lon="12.061272"><ele>336.0</ele><time>2026-04-25T08:17:41.579Z</time></trkpt><trkpt lat="42.2494" lon="12.0614555"><ele>335.0</ele><time>2026-04-25T08:17:42.579Z</time></trkpt><trkpt lat="42.2494118" lon="12.0616367"><ele>334.0</ele><time>2026-04-25T08:17:43.579Z</time></trkpt><trkpt lat="42.2494221" lon="12.0618288"><ele>333.0</ele><time>2026-04-25T08:17:44.579Z</time></trkpt><trkpt lat="42.2494315" lon="12.0620202"><ele>332.0</ele><time>2026-04-25T08:17:45.579Z</time></trkpt><trkpt lat="42.249444" lon="12.0622157"><ele>332.0</ele><time>2026-04-25T08:17:46.58Z</time></trkpt><trkpt lat="42.2494556" lon="12.0624085"><ele>332.0</ele><time>2026-04-25T08:17:47.579Z</time></trkpt><trkpt lat="42.249466" lon="12.0626051"><ele>332.0</ele><time>2026-04-25T08:17:48.579Z</time></trkpt><trkpt lat="42.2494758" lon="12.0627995"><ele>332.0</ele><time>2026-04-25T08:17:49.579Z</time></trkpt><trkpt lat="42.2494855" lon="12.0629951"><ele>333.0</ele><time>2026-04-25T08:17:50.579Z</time></trkpt><trkpt lat="42.2494961" lon="12.0631868"><ele>334.0</ele><time>2026-04-25T08:17:51.579Z</time></trkpt><trkpt lat="42.2495069" lon="12.0633762"><ele>335.0</ele><time>2026-04-25T08:17:52.579Z</time></trkpt><trkpt lat="42.2495212" lon="12.0635662"><ele>336.0</ele><time>2026-04-25T08:17:53.579Z</time></trkpt><trkpt lat="42.2495318" lon="12.0637542"><ele>336.0</ele><time>2026-04-25T08:17:54.579Z</time></trkpt><trkpt lat="42.2495432" lon="12.0639474"><ele>336.0</ele><time>2026-04-25T08:17:55.579Z</time></trkpt><trkpt lat="42.2495503" lon="12.064146"><ele>336.0</ele><time>2026-04-25T08:17:56.579Z</time></trkpt><trkpt lat="42.2495594" lon="12.0643438"><ele>336.0</ele><time>2026-04-25T08:17:57.579Z</time></trkpt><trkpt lat="42.2495702" lon="12.0645457"><ele>336.0</ele><time>2026-04-25T08:17:58.579Z</time></trkpt><trkpt lat="42.249582" lon="12.0647497"><ele>336.0</ele><time>2026-04-25T08:17:59.579Z</time></trkpt><trkpt lat="42.2495927" lon="12.0649546"><ele>336.0</ele><time>2026-04-25T08:18:00.578Z</time></trkpt><trkpt lat="42.249604" lon="12.06516"><ele>335.75</ele><time>2026-04-25T08:18:01.579Z</time></trkpt><trkpt lat="42.2496152" lon="12.0653586"><ele>335.5</ele><time>2026-04-25T08:18:02.579Z</time></trkpt><trkpt lat="42.2496257" lon="12.065552"><ele>335.25</ele><time>2026-04-25T08:18:03.579Z</time></trkpt><trkpt lat="42.2496364" lon="12.0657318"><ele>335.0</ele><time>2026-04-25T08:18:04.579Z</time></trkpt><trkpt lat="42.2496466" lon="12.0659208"><ele>332.75</ele><time>2026-04-25T08:18:05.579Z</time></trkpt><trkpt lat="42.2496542" lon="12.0661225"><ele>330.5</ele><time>2026-04-25T08:18:06.579Z</time></trkpt><trkpt lat="42.2496595" lon="12.0663058"><ele>328.25</ele><time>2026-04-25T08:18:07.579Z</time></trkpt><trkpt lat="42.2496525" lon="12.0664466"><ele>326.0</ele><time>2026-04-25T08:18:08.579Z</time></trkpt><trkpt lat="42.2496364" lon="12.0665596"><ele>327.5</ele><time>2026-04-25T08:18:09.58Z</time></trkpt><trkpt lat="42.249617" lon="12.0666636"><ele>329.0</ele><time>2026-04-25T08:18:10.579Z</time></trkpt><trkpt lat="42.2495929" lon="12.0667589"><ele>330.5</ele><time>2026-04-25T08:18:11.579Z</time></trkpt><trkpt lat="42.2495566" lon="12.0668611"><ele>332.0</ele><time>2026-04-25T08:18:12.579Z</time></trkpt><trkpt lat="42.249515" lon="12.0669552"><ele>333.5</ele><time>2026-04-25T08:18:13.58Z</time></trkpt><trkpt lat="42.2494708" lon="12.0670459"><ele>335.0</ele><time>2026-04-25T08:18:14.579Z</time></trkpt><trkpt lat="42.2494259" lon="12.0671274"><ele>335.0</ele><time>2026-04-25T08:18:15.579Z</time></trkpt><trkpt lat="42.2493718" lon="12.0672014"><ele>335.0</ele><time>2026-04-25T08:18:16.579Z</time></trkpt><trkpt lat="42.2493" lon="12.067275"><ele>335.0</ele><time>2026-04-25T08:18:17.578Z</time></trkpt><trkpt lat="42.2492104" lon="12.0673531"><ele>335.0</ele><time>2026-04-25T08:18:18.579Z</time></trkpt><trkpt lat="42.2491093" lon="12.0674401"><ele>335.0</ele><time>2026-04-25T08:18:19.579Z</time></trkpt><trkpt lat="42.2490183" lon="12.0675155"><ele>335.6</ele><time>2026-04-25T08:18:20.579Z</time></trkpt><trkpt lat="42.2489226" lon="12.0675983"><ele>336.2</ele><time>2026-04-25T08:18:21.579Z</time></trkpt><trkpt lat="42.2488281" lon="12.0676704"><ele>336.79999999999995</ele><time>2026-04-25T08:18:22.579Z</time></trkpt><trkpt lat="42.24874" lon="12.0677425"><ele>337.4</ele><time>2026-04-25T08:18:23.58Z</time></trkpt><trkpt lat="42.2486539" lon="12.0678142"><ele>338.0</ele><time>2026-04-25T08:18:24.579Z</time></trkpt><trkpt lat="42.2485678" lon="12.067882"><ele>338.0</ele><time>2026-04-25T08:18:25.579Z</time></trkpt><trkpt lat="42.2484929" lon="12.0679452"><ele>338.0</ele><time>2026-04-25T08:18:26.579Z</time></trkpt><trkpt lat="42.248419" lon="12.0680057"><ele>338.0</ele><time>2026-04-25T08:18:27.579Z</time></trkpt><trkpt lat="42.2483388" lon="12.0680728"><ele>338.0</ele><time>2026-04-25T08:18:28.579Z</time></trkpt><trkpt lat="42.2482581" lon="12.0681386"><ele>338.0</ele><time>2026-04-25T08:18:29.579Z</time></trkpt><trkpt lat="42.2481785" lon="12.0682055"><ele>337.59999999999997</ele><time>2026-04-25T08:18:30.578Z</time></trkpt><trkpt lat="42.2480953" lon="12.0682743"><ele>337.2</ele><time>2026-04-25T08:18:31.578Z</time></trkpt><trkpt lat="42.2480066" lon="12.0683432"><ele>336.8</ele><time>2026-04-25T08:18:32.578Z</time></trkpt><trkpt lat="42.2479109" lon="12.0684189"><ele>336.4</ele><time>2026-04-25T08:18:33.578Z</time></trkpt><trkpt lat="42.2478183" lon="12.0685009"><ele>336.0</ele><time>2026-04-25T08:18:34.578Z</time></trkpt><trkpt lat="42.2477253" lon="12.0685958"><ele>337.75</ele><time>2026-04-25T08:18:35.578Z</time></trkpt><trkpt lat="42.2476354" lon="12.068699"><ele>339.5</ele><time>2026-04-25T08:18:36.578Z</time></trkpt><trkpt lat="42.247541" lon="12.0688062"><ele>341.25</ele><time>2026-04-25T08:18:37.578Z</time></trkpt><trkpt lat="42.2474432" lon="12.0689131"><ele>343.0</ele><time>2026-04-25T08:18:38.578Z</time></trkpt><trkpt lat="42.2473377" lon="12.0690024"><ele>342.66666666666663</ele><time>2026-04-25T08:18:39.578Z</time></trkpt><trkpt lat="42.2472081" lon="12.0690709"><ele>342.3333333333333</ele><time>2026-04-25T08:18:40.578Z</time></trkpt><trkpt lat="42.2470661" lon="12.069132"><ele>342.0</ele><time>2026-04-25T08:18:41.578Z</time></trkpt><trkpt lat="42.2469076" lon="12.0692"><ele>342.6666666666667</ele><time>2026-04-25T08:18:42.578Z</time></trkpt><trkpt lat="42.2467416" lon="12.069268"><ele>343.33333333333337</ele><time>2026-04-25T08:18:43.578Z</time></trkpt><trkpt lat="42.2465865" lon="12.0693269"><ele>344.0</ele><time>2026-04-25T08:18:44.578Z</time></trkpt><trkpt lat="42.2464299" lon="12.0693882"><ele>344.0</ele><time>2026-04-25T08:18:45.578Z</time></trkpt><trkpt lat="42.246271" lon="12.069454"><ele>344.0</ele><time>2026-04-25T08:18:46.578Z</time></trkpt><trkpt lat="42.2461114" lon="12.0695294"><ele>344.0</ele><time>2026-04-25T08:18:47.578Z</time></trkpt><trkpt lat="42.245948" lon="12.0696191"><ele>344.0</ele><time>2026-04-25T08:18:48.579Z</time></trkpt><trkpt lat="42.2457815" lon="12.0697183"><ele>344.0</ele><time>2026-04-25T08:18:49.578Z</time></trkpt><trkpt lat="42.2456144" lon="12.0698218"><ele>344.0</ele><time>2026-04-25T08:18:50.578Z</time></trkpt><trkpt lat="42.2454597" lon="12.0699212"><ele>345.6666666666667</ele><time>2026-04-25T08:18:51.578Z</time></trkpt><trkpt lat="42.2453085" lon="12.0700331"><ele>347.3333333333333</ele><time>2026-04-25T08:18:52.578Z</time></trkpt><trkpt lat="42.2451592" lon="12.07016"><ele>349.0</ele><time>2026-04-25T08:18:53.578Z</time></trkpt><trkpt lat="42.2450167" lon="12.0703054"><ele>349.0</ele><time>2026-04-25T08:18:54.577Z</time></trkpt><trkpt lat="42.2448772" lon="12.0704599"><ele>349.0</ele><time>2026-04-25T08:18:55.578Z</time></trkpt><trkpt lat="42.244741" lon="12.070618"><ele>349.0</ele><time>2026-04-25T08:18:56.578Z</time></trkpt><trkpt lat="42.2446041" lon="12.0707726"><ele>352.0</ele><time>2026-04-25T08:18:57.578Z</time></trkpt><trkpt lat="42.2444688" lon="12.0709234"><ele>355.0</ele><time>2026-04-25T08:18:58.578Z</time></trkpt><trkpt lat="42.2443354" lon="12.0710727"><ele>358.0</ele><time>2026-04-25T08:18:59.578Z</time></trkpt><trkpt lat="42.2442094" lon="12.0712161"><ele>358.0</ele><time>2026-04-25T08:19:00.578Z</time></trkpt><trkpt lat="42.2440991" lon="12.0713424"><ele>358.0</ele><time>2026-04-25T08:19:01.578Z</time></trkpt><trkpt lat="42.2440026" lon="12.0714658"><ele>358.0</ele><time>2026-04-25T08:19:02.578Z</time></trkpt><trkpt lat="42.2439281" lon="12.0715911"><ele>358.0</ele><time>2026-04-25T08:19:03.578Z</time></trkpt><trkpt lat="42.2438759" lon="12.0717199"><ele>360.66666666666663</ele><time>2026-04-25T08:19:04.578Z</time></trkpt><trkpt lat="42.2438403" lon="12.071842"><ele>363.3333333333333</ele><time>2026-04-25T08:19:05.578Z</time></trkpt><trkpt lat="42.2438134" lon="12.0719545"><ele>366.0</ele><time>2026-04-25T08:19:06.578Z</time></trkpt><trkpt lat="42.2437953" lon="12.0720593"><ele>368.6666666666667</ele><time>2026-04-25T08:19:07.578Z</time></trkpt><trkpt lat="42.2437787" lon="12.0721455"><ele>371.33333333333337</ele><time>2026-04-25T08:19:08.578Z</time></trkpt><trkpt lat="42.2437412" lon="12.0722688"><ele>374.0</ele><time>2026-04-25T08:19:10.578Z</time></trkpt><trkpt lat="42.2436642" lon="12.0723429"><ele>373.83333333333337</ele><time>2026-04-25T08:19:12.578Z</time></trkpt><trkpt lat="42.2435688" lon="12.0724506"><ele>373.6666666666667</ele><time>2026-04-25T08:19:14.578Z</time></trkpt><trkpt lat="42.2435174" lon="12.0725112"><ele>373.5</ele><time>2026-04-25T08:19:15.578Z</time></trkpt><trkpt lat="42.2434664" lon="12.0725827"><ele>373.3333333333333</ele><time>2026-04-25T08:19:16.578Z</time></trkpt><trkpt lat="42.2434148" lon="12.0726541"><ele>373.16666666666663</ele><time>2026-04-25T08:19:17.578Z</time></trkpt><trkpt lat="42.2433625" lon="12.0727462"><ele>373.0</ele><time>2026-04-25T08:19:18.578Z</time></trkpt><trkpt lat="42.2433156" lon="12.0728259"><ele>373.0</ele><time>2026-04-25T08:19:19.578Z</time></trkpt><trkpt lat="42.243268" lon="12.0729079"><ele>373.0</ele><time>2026-04-25T08:19:20.578Z</time></trkpt><trkpt lat="42.2432201" lon="12.0729926"><ele>373.0</ele><time>2026-04-25T08:19:21.578Z</time></trkpt><trkpt lat="42.243174" lon="12.0730608"><ele>373.0</ele><time>2026-04-25T08:19:22.578Z</time></trkpt><trkpt lat="42.2431281" lon="12.0731339"><ele>373.0</ele><time>2026-04-25T08:19:23.578Z</time></trkpt><trkpt lat="42.2430812" lon="12.073192"><ele>373.0</ele><time>2026-04-25T08:19:24.578Z</time></trkpt><trkpt lat="42.24303" lon="12.0732526"><ele>373.0</ele><time>2026-04-25T08:19:25.579Z</time></trkpt><trkpt lat="42.2429786" lon="12.0733088"><ele>375.79999999999995</ele><time>2026-04-25T08:19:26.578Z</time></trkpt><trkpt lat="42.2428721" lon="12.0734158"><ele>378.6</ele><time>2026-04-25T08:19:28.578Z</time></trkpt><trkpt lat="42.2428047" lon="12.0734645"><ele>381.4</ele><time>2026-04-25T08:19:29.578Z</time></trkpt><trkpt lat="42.2427317" lon="12.0735095"><ele>384.20000000000005</ele><time>2026-04-25T08:19:30.578Z</time></trkpt><trkpt lat="42.2426571" lon="12.0735482"><ele>387.0</ele><time>2026-04-25T08:19:31.578Z</time></trkpt><trkpt lat="42.2425761" lon="12.0735749"><ele>387.0</ele><time>2026-04-25T08:19:32.578Z</time></trkpt><trkpt lat="42.2425061" lon="12.0736"><ele>387.0</ele><time>2026-04-25T08:19:33.578Z</time></trkpt><trkpt lat="42.2424333" lon="12.0736179"><ele>387.0</ele><time>2026-04-25T08:19:34.578Z</time></trkpt><trkpt lat="42.2423658" lon="12.0736231"><ele>387.0</ele><time>2026-04-25T08:19:35.578Z</time></trkpt><trkpt lat="42.2422606" lon="12.0736268"><ele>387.0</ele><time>2026-04-25T08:19:37.578Z</time></trkpt><trkpt lat="42.2421923" lon="12.0736279"><ele>387.0</ele><time>2026-04-25T08:19:39.579Z</time></trkpt><trkpt lat="42.2421203" lon="12.0736865"><ele>387.57142857142856</ele><time>2026-04-25T08:19:59.578Z</time></trkpt><trkpt lat="42.2420648" lon="12.0737541"><ele>388.14285714285717</ele><time>2026-04-25T08:20:01.578Z</time></trkpt><trkpt lat="42.2420071" lon="12.0738242"><ele>388.71428571428567</ele><time>2026-04-25T08:20:03.578Z</time></trkpt><trkpt lat="42.2419515" lon="12.0738829"><ele>389.2857142857143</ele><time>2026-04-25T08:20:05.579Z</time></trkpt><trkpt lat="42.2419004" lon="12.073937"><ele>389.85714285714283</ele><time>2026-04-25T08:20:07.578Z</time></trkpt><trkpt lat="42.2418491" lon="12.073994"><ele>390.4285714285714</ele><time>2026-04-25T08:20:12.578Z</time></trkpt><trkpt lat="42.2417892" lon="12.0740555"><ele>391.0</ele><time>2026-04-25T08:20:15.578Z</time></trkpt><trkpt lat="42.2417331" lon="12.0741204"><ele>391.00000000000006</ele><time>2026-04-25T08:20:18.578Z</time></trkpt><trkpt lat="42.2416864" lon="12.0741831"><ele>391.0</ele><time>2026-04-25T08:20:35.578Z</time></trkpt><trkpt lat="42.2416242" lon="12.0742449"><ele>391.0</ele><time>2026-04-25T08:20:38.578Z</time></trkpt><trkpt lat="42.2415709" lon="12.0743182"><ele>391.0</ele><time>2026-04-25T08:20:41.578Z</time></trkpt><trkpt lat="42.2415025" lon="12.0743712"><ele>391.00000000000006</ele><time>2026-04-25T08:20:44.578Z</time></trkpt><trkpt lat="42.24142" lon="12.0744181"><ele>391.0</ele><time>2026-04-25T08:20:47.578Z</time></trkpt><trkpt lat="42.2413497" lon="12.0744723"><ele>392.1666666666667</ele><time>2026-04-25T08:20:50.578Z</time></trkpt><trkpt lat="42.2412877" lon="12.0745293"><ele>393.33333333333337</ele><time>2026-04-25T08:20:53.578Z</time></trkpt><trkpt lat="42.2412177" lon="12.0745956"><ele>394.5</ele><time>2026-04-25T08:20:56.579Z</time></trkpt><trkpt lat="42.2411523" lon="12.0746434"><ele>395.66666666666663</ele><time>2026-04-25T08:20:58.578Z</time></trkpt><trkpt lat="42.2410643" lon="12.0746736"><ele>396.8333333333333</ele><time>2026-04-25T08:21:01.578Z</time></trkpt><trkpt lat="42.2409905" lon="12.0747008"><ele>398.0</ele><time>2026-04-25T08:21:03.579Z</time></trkpt><trkpt lat="42.2409117" lon="12.074745"><ele>397.99999999999994</ele><time>2026-04-25T08:21:05.578Z</time></trkpt><trkpt lat="42.2408398" lon="12.0747977"><ele>398.0</ele><time>2026-04-25T08:21:07.578Z</time></trkpt><trkpt lat="42.2407777" lon="12.0748564"><ele>398.0</ele><time>2026-04-25T08:21:09.579Z</time></trkpt><trkpt lat="42.240704" lon="12.0749326"><ele>398.0</ele><time>2026-04-25T08:21:11.579Z</time></trkpt><trkpt lat="42.2406448" lon="12.0750173"><ele>397.99999999999994</ele><time>2026-04-25T08:21:13.579Z</time></trkpt><trkpt lat="42.2405835" lon="12.0750931"><ele>398.0</ele><time>2026-04-25T08:21:15.578Z</time></trkpt><trkpt lat="42.2405156" lon="12.0751738"><ele>399.8333333333333</ele><time>2026-04-25T08:21:17.579Z</time></trkpt><trkpt lat="42.2404757" lon="12.0752563"><ele>401.66666666666663</ele><time>2026-04-25T08:21:19.579Z</time></trkpt><trkpt lat="42.2404462" lon="12.0753332"><ele>403.5</ele><time>2026-04-25T08:21:21.579Z</time></trkpt><trkpt lat="42.2404155" lon="12.0754244"><ele>405.33333333333337</ele><time>2026-04-25T08:21:23.578Z</time></trkpt><trkpt lat="42.2403756" lon="12.0755302"><ele>407.1666666666667</ele><time>2026-04-25T08:21:25.579Z</time></trkpt><trkpt lat="42.2403209" lon="12.0756267"><ele>409.0</ele><time>2026-04-25T08:21:27.579Z</time></trkpt><trkpt lat="42.240265" lon="12.0756994"><ele>409.0</ele><time>2026-04-25T08:21:29.579Z</time></trkpt><trkpt lat="42.240213" lon="12.0757581"><ele>409.0</ele><time>2026-04-25T08:21:31.579Z</time></trkpt><trkpt lat="42.2401606" lon="12.0758156"><ele>409.0</ele><time>2026-04-25T08:21:33.579Z</time></trkpt><trkpt lat="42.2401218" lon="12.0758959"><ele>409.0</ele><time>2026-04-25T08:21:36.579Z</time></trkpt><trkpt lat="42.2400593" lon="12.0759822"><ele>409.0</ele><time>2026-04-25T08:21:39.579Z</time></trkpt><trkpt lat="42.2400029" lon="12.0760553"><ele>409.0</ele><time>2026-04-25T08:21:41.579Z</time></trkpt><trkpt lat="42.239951" lon="12.0761126"><ele>409.0</ele><time>2026-04-25T08:21:43.579Z</time></trkpt><trkpt lat="42.2398777" lon="12.076196"><ele>409.2</ele><time>2026-04-25T08:21:45.579Z</time></trkpt><trkpt lat="42.2397983" lon="12.0762826"><ele>409.4</ele><time>2026-04-25T08:21:47.579Z</time></trkpt><trkpt lat="42.2397262" lon="12.0763599"><ele>409.6</ele><time>2026-04-25T08:21:49.579Z</time></trkpt><trkpt lat="42.2396533" lon="12.0764307"><ele>409.8</ele><time>2026-04-25T08:21:51.579Z</time></trkpt><trkpt lat="42.2395842" lon="12.0765116"><ele>410.0</ele><time>2026-04-25T08:21:53.579Z</time></trkpt><trkpt lat="42.2395306" lon="12.076586"><ele>410.3333333333333</ele><time>2026-04-25T08:21:55.579Z</time></trkpt><trkpt lat="42.2394824" lon="12.0766603"><ele>410.66666666666663</ele><time>2026-04-25T08:21:57.579Z</time></trkpt><trkpt lat="42.2394317" lon="12.0767314"><ele>411.0</ele><time>2026-04-25T08:21:59.579Z</time></trkpt><trkpt lat="42.2393762" lon="12.0768082"><ele>411.33333333333337</ele><time>2026-04-25T08:22:01.579Z</time></trkpt><trkpt lat="42.239307" lon="12.0768981"><ele>411.6666666666667</ele><time>2026-04-25T08:22:04.579Z</time></trkpt><trkpt lat="42.2392383" lon="12.0769646"><ele>412.0</ele><time>2026-04-25T08:22:06.58Z</time></trkpt><trkpt lat="42.2391832" lon="12.0770308"><ele>411.99999999999994</ele><time>2026-04-25T08:22:08.579Z</time></trkpt><trkpt lat="42.239143" lon="12.0771028"><ele>412.0</ele><time>2026-04-25T08:24:11.578Z</time></trkpt><trkpt lat="42.2391948" lon="12.077025"><ele>412.0</ele><time>2026-04-25T08:24:44.578Z</time></trkpt><trkpt lat="42.2392405" lon="12.076949"><ele>412.0</ele><time>2026-04-25T08:24:46.578Z</time></trkpt><trkpt lat="42.239291" lon="12.0768905"><ele>412.0</ele><time>2026-04-25T08:24:48.578Z</time></trkpt><trkpt lat="42.2393413" lon="12.0768371"><ele>411.99999999999994</ele><time>2026-04-25T08:24:50.578Z</time></trkpt><trkpt lat="42.2393936" lon="12.0767668"><ele>412.0</ele><time>2026-04-25T08:24:53.577Z</time></trkpt><trkpt lat="42.2394431" lon="12.076695"><ele>412.00000000000006</ele><time>2026-04-25T08:24:55.578Z</time></trkpt><trkpt lat="42.2395006" lon="12.0766128"><ele>412.0</ele><time>2026-04-25T08:24:57.578Z</time></trkpt><trkpt lat="42.2395623" lon="12.0765307"><ele>412.0</ele><time>2026-04-25T08:24:59.578Z</time></trkpt><trkpt lat="42.2396306" lon="12.0764555"><ele>412.0</ele><time>2026-04-25T08:25:01.578Z</time></trkpt><trkpt lat="42.2397015" lon="12.0763823"><ele>412.00000000000006</ele><time>2026-04-25T08:25:03.578Z</time></trkpt><trkpt lat="42.2397772" lon="12.0763117"><ele>412.0</ele><time>2026-04-25T08:25:05.579Z</time></trkpt><trkpt lat="42.2398428" lon="12.0762543"><ele>412.1428571428571</ele><time>2026-04-25T08:25:07.578Z</time></trkpt><trkpt lat="42.2398964" lon="12.0761874"><ele>412.2857142857143</ele><time>2026-04-25T08:25:09.578Z</time></trkpt><trkpt lat="42.2399434" lon="12.0761223"><ele>412.42857142857144</ele><time>2026-04-25T08:25:11.579Z</time></trkpt><trkpt lat="42.2399974" lon="12.0760597"><ele>412.57142857142856</ele><time>2026-04-25T08:25:13.578Z</time></trkpt><trkpt lat="42.2400481" lon="12.0759942"><ele>412.7142857142857</ele><time>2026-04-25T08:25:15.578Z</time></trkpt><trkpt lat="42.2401022" lon="12.075917"><ele>412.85714285714283</ele><time>2026-04-25T08:25:17.578Z</time></trkpt><trkpt lat="42.2401552" lon="12.0758434"><ele>413.0</ele><time>2026-04-25T08:25:19.578Z</time></trkpt><trkpt lat="42.2401998" lon="12.0757683"><ele>412.3333333333333</ele><time>2026-04-25T08:25:21.578Z</time></trkpt><trkpt lat="42.2402541" lon="12.0757039"><ele>411.66666666666663</ele><time>2026-04-25T08:25:23.578Z</time></trkpt><trkpt lat="42.2403209" lon="12.0756158"><ele>411.0</ele><time>2026-04-25T08:25:26.578Z</time></trkpt><trkpt lat="42.2403694" lon="12.0755323"><ele>410.33333333333337</ele><time>2026-04-25T08:25:28.579Z</time></trkpt><trkpt lat="42.2404064" lon="12.0754425"><ele>409.6666666666667</ele><time>2026-04-25T08:25:30.578Z</time></trkpt><trkpt lat="42.2404352" lon="12.0753606"><ele>409.0</ele><time>2026-04-25T08:25:32.578Z</time></trkpt><trkpt lat="42.2404664" lon="12.0752709"><ele>409.00000000000006</ele><time>2026-04-25T08:25:35.578Z</time></trkpt><trkpt lat="42.2405023" lon="12.0751748"><ele>409.0</ele><time>2026-04-25T08:25:38.578Z</time></trkpt><trkpt lat="42.2405526" lon="12.0751112"><ele>409.0</ele><time>2026-04-25T08:25:40.578Z</time></trkpt><trkpt lat="42.240617" lon="12.0750354"><ele>409.0</ele><time>2026-04-25T08:25:43.578Z</time></trkpt><trkpt lat="42.2406814" lon="12.0749441"><ele>409.00000000000006</ele><time>2026-04-25T08:25:46.578Z</time></trkpt><trkpt lat="42.2407556" lon="12.0748695"><ele>409.0</ele><time>2026-04-25T08:25:49.578Z</time></trkpt><trkpt lat="42.2408098" lon="12.0748256"><ele>407.4285714285714</ele><time>2026-04-25T08:25:51.578Z</time></trkpt><trkpt lat="42.2408678" lon="12.074779"><ele>405.8571428571429</ele><time>2026-04-25T08:25:53.577Z</time></trkpt><trkpt lat="42.2409325" lon="12.0747313"><ele>404.2857142857143</ele><time>2026-04-25T08:25:55.577Z</time></trkpt><trkpt lat="42.2410065" lon="12.0746911"><ele>402.71428571428567</ele><time>2026-04-25T08:25:57.577Z</time></trkpt><trkpt lat="42.2410825" lon="12.0746644"><ele>401.1428571428571</ele><time>2026-04-25T08:25:59.577Z</time></trkpt><trkpt lat="42.2411579" lon="12.0746339"><ele>399.57142857142856</ele><time>2026-04-25T08:26:01.577Z</time></trkpt><trkpt lat="42.2412204" lon="12.0745893"><ele>398.0</ele><time>2026-04-25T08:26:03.577Z</time></trkpt><trkpt lat="42.2412836" lon="12.0745236"><ele>397.99999999999994</ele><time>2026-04-25T08:26:06.577Z</time></trkpt><trkpt lat="42.2413359" lon="12.0744718"><ele>398.0</ele><time>2026-04-25T08:26:09.577Z</time></trkpt><trkpt lat="42.2413974" lon="12.07442"><ele>398.0</ele><time>2026-04-25T08:26:11.577Z</time></trkpt><trkpt lat="42.2414599" lon="12.0743819"><ele>398.0</ele><time>2026-04-25T08:26:13.577Z</time></trkpt><trkpt lat="42.2415274" lon="12.0743448"><ele>397.99999999999994</ele><time>2026-04-25T08:26:16.578Z</time></trkpt><trkpt lat="42.2415922" lon="12.0742799"><ele>398.0</ele><time>2026-04-25T08:26:19.577Z</time></trkpt><trkpt lat="42.2416601" lon="12.0741953"><ele>396.99999999999994</ele><time>2026-04-25T08:26:22.577Z</time></trkpt><trkpt lat="42.2417262" lon="12.0741222"><ele>396.0</ele><time>2026-04-25T08:26:25.577Z</time></trkpt><trkpt lat="42.2417788" lon="12.0740515"><ele>395.0</ele><time>2026-04-25T08:26:28.577Z</time></trkpt><trkpt lat="42.2418353" lon="12.0739982"><ele>394.0</ele><time>2026-04-25T08:26:30.577Z</time></trkpt><trkpt lat="42.2418928" lon="12.0739397"><ele>393.0</ele><time>2026-04-25T08:26:32.577Z</time></trkpt><trkpt lat="42.2419422" lon="12.0738819"><ele>391.99999999999994</ele><time>2026-04-25T08:26:34.577Z</time></trkpt><trkpt lat="42.2419992" lon="12.0738222"><ele>391.0</ele><time>2026-04-25T08:26:36.577Z</time></trkpt><trkpt lat="42.2420551" lon="12.0737548"><ele>390.33333333333337</ele><time>2026-04-25T08:26:38.577Z</time></trkpt><trkpt lat="42.2421097" lon="12.0736985"><ele>389.6666666666667</ele><time>2026-04-25T08:26:40.578Z</time></trkpt><trkpt lat="42.2421751" lon="12.0736426"><ele>389.0</ele><time>2026-04-25T08:26:42.577Z</time></trkpt><trkpt lat="42.2422645" lon="12.0736319"><ele>388.33333333333337</ele><time>2026-04-25T08:26:44.577Z</time></trkpt><trkpt lat="42.242356" lon="12.0736246"><ele>387.6666666666667</ele><time>2026-04-25T08:26:46.577Z</time></trkpt><trkpt lat="42.2424426" lon="12.0736196"><ele>387.0</ele><time>2026-04-25T08:26:48.577Z</time></trkpt><trkpt lat="42.2425349" lon="12.0736067"><ele>387.0</ele><time>2026-04-25T08:26:50.576Z</time></trkpt><trkpt lat="42.2426399" lon="12.0735711"><ele>387.0</ele><time>2026-04-25T08:26:52.576Z</time></trkpt><trkpt lat="42.2427389" lon="12.0735136"><ele>387.0</ele><time>2026-04-25T08:26:54.576Z</time></trkpt><trkpt lat="42.2428336" lon="12.0734469"><ele>387.0</ele><time>2026-04-25T08:26:56.577Z</time></trkpt><trkpt lat="42.2429244" lon="12.0733799"><ele>387.0</ele><time>2026-04-25T08:26:58.576Z</time></trkpt><trkpt lat="42.2430024" lon="12.0733001"><ele>388.40000000000003</ele><time>2026-04-25T08:27:00.576Z</time></trkpt><trkpt lat="42.2430708" lon="12.0732128"><ele>389.8</ele><time>2026-04-25T08:27:02.576Z</time></trkpt><trkpt lat="42.2431468" lon="12.0731239"><ele>391.2</ele><time>2026-04-25T08:27:04.576Z</time></trkpt><trkpt lat="42.2432204" lon="12.0730138"><ele>392.6</ele><time>2026-04-25T08:27:06.576Z</time></trkpt><trkpt lat="42.2432841" lon="12.0728878"><ele>394.0</ele><time>2026-04-25T08:27:08.576Z</time></trkpt><trkpt lat="42.2433573" lon="12.0727744"><ele>390.0</ele><time>2026-04-25T08:27:10.576Z</time></trkpt><trkpt lat="42.2434287" lon="12.0726614"><ele>386.0</ele><time>2026-04-25T08:27:12.576Z</time></trkpt><trkpt lat="42.2434971" lon="12.0725652"><ele>382.0</ele><time>2026-04-25T08:27:14.577Z</time></trkpt><trkpt lat="42.2435682" lon="12.0724695"><ele>378.0</ele><time>2026-04-25T08:27:16.576Z</time></trkpt><trkpt lat="42.2436342" lon="12.0723877"><ele>374.0</ele><time>2026-04-25T08:27:18.576Z</time></trkpt><trkpt lat="42.2436844" lon="12.0723299"><ele>374.0</ele><time>2026-04-25T08:27:20.576Z</time></trkpt><trkpt lat="42.2437491" lon="12.072375"><ele>374.0</ele><time>2026-04-25T08:27:24.576Z</time></trkpt><trkpt lat="42.2437305" lon="12.072518"><ele>374.0</ele><time>2026-04-25T08:27:26.576Z</time></trkpt><trkpt lat="42.2437168" lon="12.0726037"><ele>374.0</ele><time>2026-04-25T08:27:27.576Z</time></trkpt><trkpt lat="42.2437056" lon="12.0726991"><ele>374.0</ele><time>2026-04-25T08:27:28.576Z</time></trkpt><trkpt lat="42.243684" lon="12.0728287"><ele>374.0</ele><time>2026-04-25T08:27:29.576Z</time></trkpt><trkpt lat="42.2436577" lon="12.0729784"><ele>373.75</ele><time>2026-04-25T08:27:30.576Z</time></trkpt><trkpt lat="42.2436257" lon="12.0731366"><ele>373.5</ele><time>2026-04-25T08:27:31.576Z</time></trkpt><trkpt lat="42.2435936" lon="12.0733099"><ele>373.25</ele><time>2026-04-25T08:27:32.576Z</time></trkpt><trkpt lat="42.2435678" lon="12.0734688"><ele>373.0</ele><time>2026-04-25T08:27:33.576Z</time></trkpt><trkpt lat="42.243542" lon="12.0736495"><ele>372.25</ele><time>2026-04-25T08:27:34.576Z</time></trkpt><trkpt lat="42.2435076" lon="12.0738303"><ele>371.5</ele><time>2026-04-25T08:27:35.576Z</time></trkpt><trkpt lat="42.2434751" lon="12.0740283"><ele>370.75</ele><time>2026-04-25T08:27:36.576Z</time></trkpt><trkpt lat="42.2434394" lon="12.0742305"><ele>370.0</ele><time>2026-04-25T08:27:37.576Z</time></trkpt><trkpt lat="42.2433995" lon="12.0744288"><ele>369.66666666666663</ele><time>2026-04-25T08:27:38.576Z</time></trkpt><trkpt lat="42.2433509" lon="12.0746408"><ele>369.3333333333333</ele><time>2026-04-25T08:27:39.575Z</time></trkpt><trkpt lat="42.2432944" lon="12.0748529"><ele>369.0</ele><time>2026-04-25T08:27:40.576Z</time></trkpt><trkpt lat="42.243235" lon="12.0750724"><ele>368.6666666666667</ele><time>2026-04-25T08:27:41.576Z</time></trkpt><trkpt lat="42.2431744" lon="12.0752922"><ele>368.33333333333337</ele><time>2026-04-25T08:27:42.576Z</time></trkpt><trkpt lat="42.2431111" lon="12.0755195"><ele>368.0</ele><time>2026-04-25T08:27:43.576Z</time></trkpt><trkpt lat="42.2430496" lon="12.0757278"><ele>371.33333333333337</ele><time>2026-04-25T08:27:44.576Z</time></trkpt><trkpt lat="42.2429793" lon="12.0759288"><ele>374.6666666666667</ele><time>2026-04-25T08:27:45.576Z</time></trkpt><trkpt lat="42.2428994" lon="12.0761377"><ele>378.0</ele><time>2026-04-25T08:27:46.576Z</time></trkpt><trkpt lat="42.2428108" lon="12.0763501"><ele>378.0</ele><time>2026-04-25T08:27:47.577Z</time></trkpt><trkpt lat="42.2427123" lon="12.0765639"><ele>378.0</ele><time>2026-04-25T08:27:48.577Z</time></trkpt><trkpt lat="42.2426093" lon="12.0767787"><ele>378.0</ele><time>2026-04-25T08:27:49.576Z</time></trkpt><trkpt lat="42.2425073" lon="12.0769927"><ele>378.3333333333333</ele><time>2026-04-25T08:27:50.576Z</time></trkpt><trkpt lat="42.2424057" lon="12.077208"><ele>378.66666666666663</ele><time>2026-04-25T08:27:51.576Z</time></trkpt><trkpt lat="42.2423015" lon="12.0774231"><ele>379.0</ele><time>2026-04-25T08:27:52.576Z</time></trkpt><trkpt lat="42.2421975" lon="12.0776352"><ele>382.3333333333333</ele><time>2026-04-25T08:27:53.576Z</time></trkpt><trkpt lat="42.2420947" lon="12.0778472"><ele>385.66666666666663</ele><time>2026-04-25T08:27:54.576Z</time></trkpt><trkpt lat="42.2419913" lon="12.0780564"><ele>389.0</ele><time>2026-04-25T08:27:55.576Z</time></trkpt><trkpt lat="42.2418881" lon="12.0782745"><ele>389.0</ele><time>2026-04-25T08:27:56.576Z</time></trkpt><trkpt lat="42.2417818" lon="12.0784865"><ele>389.0</ele><time>2026-04-25T08:27:57.576Z</time></trkpt><trkpt lat="42.2416823" lon="12.0787036"><ele>389.0</ele><time>2026-04-25T08:27:58.576Z</time></trkpt><trkpt lat="42.2415791" lon="12.0789176"><ele>391.3333333333333</ele><time>2026-04-25T08:27:59.576Z</time></trkpt><trkpt lat="42.2414862" lon="12.0791233"><ele>393.66666666666663</ele><time>2026-04-25T08:28:00.576Z</time></trkpt><trkpt lat="42.2414101" lon="12.0793235"><ele>396.0</ele><time>2026-04-25T08:28:01.576Z</time></trkpt><trkpt lat="42.2413538" lon="12.0795429"><ele>396.0</ele><time>2026-04-25T08:28:02.576Z</time></trkpt><trkpt lat="42.2413082" lon="12.0797716"><ele>396.0</ele><time>2026-04-25T08:28:03.576Z</time></trkpt><trkpt lat="42.2413073" lon="12.0800088"><ele>396.0</ele><time>2026-04-25T08:28:04.576Z</time></trkpt><trkpt lat="42.2413222" lon="12.0802515"><ele>397.66666666666663</ele><time>2026-04-25T08:28:05.576Z</time></trkpt><trkpt lat="42.2413526" lon="12.0804963"><ele>399.3333333333333</ele><time>2026-04-25T08:28:06.576Z</time></trkpt><trkpt lat="42.241406" lon="12.0807324"><ele>401.0</ele><time>2026-04-25T08:28:07.576Z</time></trkpt><trkpt lat="42.2414582" lon="12.0809596"><ele>402.66666666666663</ele><time>2026-04-25T08:28:08.576Z</time></trkpt><trkpt lat="42.2415169" lon="12.0811818"><ele>404.33333333333337</ele><time>2026-04-25T08:28:09.576Z</time></trkpt><trkpt lat="42.2415719" lon="12.081408"><ele>406.0</ele><time>2026-04-25T08:28:10.576Z</time></trkpt><trkpt lat="42.2416255" lon="12.0816437"><ele>406.6666666666667</ele><time>2026-04-25T08:28:11.576Z</time></trkpt><trkpt lat="42.2416867" lon="12.0818883"><ele>407.33333333333337</ele><time>2026-04-25T08:28:12.576Z</time></trkpt><trkpt lat="42.2417529" lon="12.082135"><ele>408.0</ele><time>2026-04-25T08:28:13.576Z</time></trkpt><trkpt lat="42.2418141" lon="12.0823631"><ele>408.66666666666663</ele><time>2026-04-25T08:28:14.576Z</time></trkpt><trkpt lat="42.2418658" lon="12.0825878"><ele>409.3333333333333</ele><time>2026-04-25T08:28:15.576Z</time></trkpt><trkpt lat="42.2419132" lon="12.0828341"><ele>410.0</ele><time>2026-04-25T08:28:16.576Z</time></trkpt><trkpt lat="42.2419399" lon="12.0830938"><ele>410.0</ele><time>2026-04-25T08:28:17.576Z</time></trkpt><trkpt lat="42.2419692" lon="12.0833567"><ele>410.0</ele><time>2026-04-25T08:28:18.576Z</time></trkpt><trkpt lat="42.2419927" lon="12.083625"><ele>410.0</ele><time>2026-04-25T08:28:19.576Z</time></trkpt><trkpt lat="42.2420132" lon="12.0838935"><ele>408.66666666666663</ele><time>2026-04-25T08:28:20.576Z</time></trkpt><trkpt lat="42.242035" lon="12.0841579"><ele>407.33333333333337</ele><time>2026-04-25T08:28:21.576Z</time></trkpt><trkpt lat="42.2420542" lon="12.0844179"><ele>406.0</ele><time>2026-04-25T08:28:22.577Z</time></trkpt><trkpt lat="42.2420745" lon="12.0846627"><ele>406.0</ele><time>2026-04-25T08:28:23.576Z</time></trkpt><trkpt lat="42.2420951" lon="12.084902"><ele>406.0</ele><time>2026-04-25T08:28:24.576Z</time></trkpt><trkpt lat="42.242116" lon="12.0851426"><ele>406.0</ele><time>2026-04-25T08:28:25.576Z</time></trkpt><trkpt lat="42.2421378" lon="12.0853789"><ele>406.0</ele><time>2026-04-25T08:28:26.576Z</time></trkpt><trkpt lat="42.2421571" lon="12.0856205"><ele>406.0</ele><time>2026-04-25T08:28:27.576Z</time></trkpt><trkpt lat="42.2421765" lon="12.0858557"><ele>406.0</ele><time>2026-04-25T08:28:28.576Z</time></trkpt><trkpt lat="42.2421969" lon="12.086101"><ele>406.0</ele><time>2026-04-25T08:28:29.576Z</time></trkpt><trkpt lat="42.2422133" lon="12.0863311"><ele>406.0</ele><time>2026-04-25T08:28:30.576Z</time></trkpt><trkpt lat="42.2422219" lon="12.0865458"><ele>406.0</ele><time>2026-04-25T08:28:31.576Z</time></trkpt><trkpt lat="42.2422198" lon="12.0867495"><ele>406.0</ele><time>2026-04-25T08:28:32.576Z</time></trkpt><trkpt lat="42.2422076" lon="12.0869406"><ele>406.0</ele><time>2026-04-25T08:28:33.575Z</time></trkpt><trkpt lat="42.2421895" lon="12.0870961"><ele>406.0</ele><time>2026-04-25T08:28:34.576Z</time></trkpt><trkpt lat="42.2421708" lon="12.0872166"><ele>406.0</ele><time>2026-04-25T08:28:35.576Z</time></trkpt><trkpt lat="42.2421524" lon="12.087314"><ele>406.0</ele><time>2026-04-25T08:28:36.576Z</time></trkpt><trkpt lat="42.2421287" lon="12.0874214"><ele>406.20000000000005</ele><time>2026-04-25T08:28:38.576Z</time></trkpt><trkpt lat="42.2421037" lon="12.0875442"><ele>406.40000000000003</ele><time>2026-04-25T08:30:12.576Z</time></trkpt><trkpt lat="42.2420814" lon="12.0877154"><ele>406.6</ele><time>2026-04-25T08:30:14.576Z</time></trkpt><trkpt lat="42.2420583" lon="12.0877972"><ele>406.8</ele><time>2026-04-25T08:30:15.576Z</time></trkpt><trkpt lat="42.2419769" lon="12.0879664"><ele>407.0</ele><time>2026-04-25T08:30:17.576Z</time></trkpt><trkpt lat="42.2419082" lon="12.0880682"><ele>407.0</ele><time>2026-04-25T08:30:18.577Z</time></trkpt><trkpt lat="42.2418267" lon="12.0881486"><ele>407.0</ele><time>2026-04-25T08:30:19.576Z</time></trkpt><trkpt lat="42.2417434" lon="12.0882221"><ele>407.0</ele><time>2026-04-25T08:30:20.576Z</time></trkpt><trkpt lat="42.2416511" lon="12.0883056"><ele>407.0</ele><time>2026-04-25T08:30:21.576Z</time></trkpt><trkpt lat="42.2415512" lon="12.0884017"><ele>407.0</ele><time>2026-04-25T08:30:22.576Z</time></trkpt><trkpt lat="42.2414365" lon="12.0885091"><ele>406.25</ele><time>2026-04-25T08:30:23.576Z</time></trkpt><trkpt lat="42.2413185" lon="12.0886211"><ele>405.5</ele><time>2026-04-25T08:30:24.576Z</time></trkpt><trkpt lat="42.2412019" lon="12.0887308"><ele>404.75</ele><time>2026-04-25T08:30:25.576Z</time></trkpt><trkpt lat="42.2410925" lon="12.0888401"><ele>404.0</ele><time>2026-04-25T08:30:26.576Z</time></trkpt><trkpt lat="42.2409911" lon="12.0889357"><ele>404.0</ele><time>2026-04-25T08:30:27.576Z</time></trkpt><trkpt lat="42.2408933" lon="12.0890193"><ele>404.0</ele><time>2026-04-25T08:30:28.576Z</time></trkpt><trkpt lat="42.2407983" lon="12.0890995"><ele>404.0</ele><time>2026-04-25T08:30:29.576Z</time></trkpt><trkpt lat="42.2406865" lon="12.0891455"><ele>404.0</ele><time>2026-04-25T08:30:30.576Z</time></trkpt><trkpt lat="42.2405792" lon="12.0891728"><ele>404.75</ele><time>2026-04-25T08:30:31.576Z</time></trkpt><trkpt lat="42.240461" lon="12.0891727"><ele>405.5</ele><time>2026-04-25T08:30:32.576Z</time></trkpt><trkpt lat="42.2403382" lon="12.0891864"><ele>406.25</ele><time>2026-04-25T08:30:33.576Z</time></trkpt><trkpt lat="42.2402156" lon="12.0892324"><ele>407.0</ele><time>2026-04-25T08:30:34.576Z</time></trkpt><trkpt lat="42.240093" lon="12.0893057"><ele>407.0</ele><time>2026-04-25T08:30:35.576Z</time></trkpt><trkpt lat="42.2399672" lon="12.0893892"><ele>407.0</ele><time>2026-04-25T08:30:36.576Z</time></trkpt><trkpt lat="42.2398535" lon="12.0894874"><ele>407.0</ele><time>2026-04-25T08:30:37.576Z</time></trkpt><trkpt lat="42.2397453" lon="12.0895585"><ele>407.0</ele><time>2026-04-25T08:30:38.576Z</time></trkpt><trkpt lat="42.2396415" lon="12.0895945"><ele>406.5</ele><time>2026-04-25T08:30:39.576Z</time></trkpt><trkpt lat="42.2395211" lon="12.0896075"><ele>406.0</ele><time>2026-04-25T08:30:40.576Z</time></trkpt><trkpt lat="42.2393904" lon="12.0896003"><ele>405.5</ele><time>2026-04-25T08:30:41.576Z</time></trkpt><trkpt lat="42.2392405" lon="12.0895899"><ele>405.0</ele><time>2026-04-25T08:30:42.576Z</time></trkpt><trkpt lat="42.2390893" lon="12.0895833"><ele>404.0</ele><time>2026-04-25T08:30:43.576Z</time></trkpt><trkpt lat="42.2389377" lon="12.0895851"><ele>403.0</ele><time>2026-04-25T08:30:44.576Z</time></trkpt><trkpt lat="42.2387847" lon="12.0895847"><ele>402.0</ele><time>2026-04-25T08:30:45.577Z</time></trkpt><trkpt lat="42.2386338" lon="12.0895764"><ele>402.0</ele><time>2026-04-25T08:30:46.576Z</time></trkpt><trkpt lat="42.2384829" lon="12.0895704"><ele>402.0</ele><time>2026-04-25T08:30:47.575Z</time></trkpt><trkpt lat="42.2383386" lon="12.0895624"><ele>402.0</ele><time>2026-04-25T08:30:48.575Z</time></trkpt><trkpt lat="42.2382038" lon="12.0895515"><ele>402.0</ele><time>2026-04-25T08:30:49.575Z</time></trkpt><trkpt lat="42.238086" lon="12.0895123"><ele>400.75</ele><time>2026-04-25T08:30:50.575Z</time></trkpt><trkpt lat="42.2379701" lon="12.0894643"><ele>399.5</ele><time>2026-04-25T08:30:51.575Z</time></trkpt><trkpt lat="42.2378682" lon="12.0893276"><ele>398.25</ele><time>2026-04-25T08:30:52.575Z</time></trkpt><trkpt lat="42.2377466" lon="12.0892"><ele>397.0</ele><time>2026-04-25T08:30:53.575Z</time></trkpt><trkpt lat="42.2376162" lon="12.0890593"><ele>397.0</ele><time>2026-04-25T08:30:54.575Z</time></trkpt><trkpt lat="42.2374865" lon="12.0889291"><ele>397.0</ele><time>2026-04-25T08:30:55.575Z</time></trkpt><trkpt lat="42.2373593" lon="12.0887928"><ele>397.0</ele><time>2026-04-25T08:30:56.575Z</time></trkpt><trkpt lat="42.237225" lon="12.0886436"><ele>396.0</ele><time>2026-04-25T08:30:57.575Z</time></trkpt><trkpt lat="42.2371015" lon="12.0885058"><ele>395.0</ele><time>2026-04-25T08:30:58.575Z</time></trkpt><trkpt lat="42.2369931" lon="12.0883815"><ele>394.0</ele><time>2026-04-25T08:30:59.575Z</time></trkpt><trkpt lat="42.236883" lon="12.0882737"><ele>393.0</ele><time>2026-04-25T08:31:00.575Z</time></trkpt><trkpt lat="42.2367716" lon="12.0881823"><ele>393.0</ele><time>2026-04-25T08:31:01.576Z</time></trkpt><trkpt lat="42.2366424" lon="12.0881158"><ele>393.0</ele><time>2026-04-25T08:31:02.575Z</time></trkpt><trkpt lat="42.2364966" lon="12.0880852"><ele>393.0</ele><time>2026-04-25T08:31:03.574Z</time></trkpt><trkpt lat="42.2363438" lon="12.0880801"><ele>393.0</ele><time>2026-04-25T08:31:04.575Z</time></trkpt><trkpt lat="42.2361792" lon="12.088097"><ele>392.0</ele><time>2026-04-25T08:31:05.575Z</time></trkpt><trkpt lat="42.2360086" lon="12.088135"><ele>391.0</ele><time>2026-04-25T08:31:06.576Z</time></trkpt><trkpt lat="42.2358418" lon="12.0881705"><ele>390.0</ele><time>2026-04-25T08:31:07.575Z</time></trkpt><trkpt lat="42.2356796" lon="12.0882089"><ele>388.66666666666663</ele><time>2026-04-25T08:31:08.575Z</time></trkpt><trkpt lat="42.2355258" lon="12.0882514"><ele>387.3333333333333</ele><time>2026-04-25T08:31:09.575Z</time></trkpt><trkpt lat="42.2353745" lon="12.0882935"><ele>386.0</ele><time>2026-04-25T08:31:10.575Z</time></trkpt><trkpt lat="42.2352286" lon="12.0883301"><ele>386.0</ele><time>2026-04-25T08:31:11.576Z</time></trkpt><trkpt lat="42.2350786" lon="12.08837"><ele>386.0</ele><time>2026-04-25T08:31:12.575Z</time></trkpt><trkpt lat="42.2349284" lon="12.088407"><ele>386.0</ele><time>2026-04-25T08:31:13.575Z</time></trkpt><trkpt lat="42.2347769" lon="12.0884479"><ele>385.0</ele><time>2026-04-25T08:31:14.575Z</time></trkpt><trkpt lat="42.2346252" lon="12.088494"><ele>384.0</ele><time>2026-04-25T08:31:15.575Z</time></trkpt><trkpt lat="42.2344752" lon="12.0885367"><ele>383.0</ele><time>2026-04-25T08:31:16.575Z</time></trkpt><trkpt lat="42.2343261" lon="12.0885776"><ele>383.0</ele><time>2026-04-25T08:31:17.575Z</time></trkpt><trkpt lat="42.2341835" lon="12.0886141"><ele>383.0</ele><time>2026-04-25T08:31:18.575Z</time></trkpt><trkpt lat="42.234044" lon="12.088651"><ele>383.0</ele><time>2026-04-25T08:31:19.575Z</time></trkpt><trkpt lat="42.2339116" lon="12.0886902"><ele>383.0</ele><time>2026-04-25T08:31:20.575Z</time></trkpt><trkpt lat="42.2337801" lon="12.0887229"><ele>382.5</ele><time>2026-04-25T08:31:21.575Z</time></trkpt><trkpt lat="42.2336474" lon="12.0887612"><ele>382.0</ele><time>2026-04-25T08:31:22.575Z</time></trkpt><trkpt lat="42.2335208" lon="12.088811"><ele>381.5</ele><time>2026-04-25T08:31:23.575Z</time></trkpt><trkpt lat="42.2334071" lon="12.0888765"><ele>381.0</ele><time>2026-04-25T08:31:24.575Z</time></trkpt><trkpt lat="42.2332978" lon="12.0889706"><ele>380.5</ele><time>2026-04-25T08:31:25.575Z</time></trkpt><trkpt lat="42.233196" lon="12.0890966"><ele>380.0</ele><time>2026-04-25T08:31:26.575Z</time></trkpt><trkpt lat="42.2331085" lon="12.0892561"><ele>379.5</ele><time>2026-04-25T08:31:27.575Z</time></trkpt><trkpt lat="42.2330313" lon="12.089436"><ele>379.0</ele><time>2026-04-25T08:31:28.575Z</time></trkpt><trkpt lat="42.2329516" lon="12.0896016"><ele>379.25</ele><time>2026-04-25T08:31:29.575Z</time></trkpt><trkpt lat="42.2328665" lon="12.0897452"><ele>379.5</ele><time>2026-04-25T08:31:30.575Z</time></trkpt><trkpt lat="42.232772" lon="12.0898795"><ele>379.75</ele><time>2026-04-25T08:31:31.575Z</time></trkpt><trkpt lat="42.2326632" lon="12.0900069"><ele>380.0</ele><time>2026-04-25T08:31:32.575Z</time></trkpt><trkpt lat="42.2325438" lon="12.0901187"><ele>380.0</ele><time>2026-04-25T08:31:33.575Z</time></trkpt><trkpt lat="42.2324133" lon="12.0902275"><ele>380.0</ele><time>2026-04-25T08:31:34.575Z</time></trkpt><trkpt lat="42.2322796" lon="12.090339"><ele>380.0</ele><time>2026-04-25T08:31:35.575Z</time></trkpt><trkpt lat="42.2321499" lon="12.0904447"><ele>381.6666666666667</ele><time>2026-04-25T08:31:36.575Z</time></trkpt><trkpt lat="42.2320205" lon="12.090548"><ele>383.33333333333337</ele><time>2026-04-25T08:31:37.575Z</time></trkpt><trkpt lat="42.2318874" lon="12.0906534"><ele>385.0</ele><time>2026-04-25T08:31:38.575Z</time></trkpt><trkpt lat="42.2317539" lon="12.0907664"><ele>382.6666666666667</ele><time>2026-04-25T08:31:39.575Z</time></trkpt><trkpt lat="42.2316181" lon="12.090876"><ele>380.33333333333337</ele><time>2026-04-25T08:31:40.574Z</time></trkpt><trkpt lat="42.2314859" lon="12.0909796"><ele>378.0</ele><time>2026-04-25T08:31:41.575Z</time></trkpt><trkpt lat="42.23136" lon="12.0910776"><ele>378.0</ele><time>2026-04-25T08:31:42.575Z</time></trkpt><trkpt lat="42.2312424" lon="12.0911669"><ele>378.0</ele><time>2026-04-25T08:31:43.575Z</time></trkpt><trkpt lat="42.2311304" lon="12.0912386"><ele>378.0</ele><time>2026-04-25T08:31:44.575Z</time></trkpt><trkpt lat="42.2310129" lon="12.0912881"><ele>378.0</ele><time>2026-04-25T08:31:45.575Z</time></trkpt><trkpt lat="42.230897" lon="12.0912966"><ele>378.0</ele><time>2026-04-25T08:31:46.574Z</time></trkpt><trkpt lat="42.2307732" lon="12.0912605"><ele>378.0</ele><time>2026-04-25T08:31:47.575Z</time></trkpt><trkpt lat="42.2306526" lon="12.091183"><ele>378.0</ele><time>2026-04-25T08:31:48.575Z</time></trkpt><trkpt lat="42.2305359" lon="12.0910695"><ele>378.0</ele><time>2026-04-25T08:31:49.575Z</time></trkpt><trkpt lat="42.2304232" lon="12.0909278"><ele>378.3333333333333</ele><time>2026-04-25T08:31:50.575Z</time></trkpt><trkpt lat="42.230306" lon="12.0907869"><ele>378.66666666666663</ele><time>2026-04-25T08:31:51.575Z</time></trkpt><trkpt lat="42.2301897" lon="12.0906426"><ele>379.0</ele><time>2026-04-25T08:31:52.575Z</time></trkpt><trkpt lat="42.2300723" lon="12.0904992"><ele>380.0</ele><time>2026-04-25T08:31:53.575Z</time></trkpt><trkpt lat="42.2299575" lon="12.0903496"><ele>381.0</ele><time>2026-04-25T08:31:54.575Z</time></trkpt><trkpt lat="42.2298393" lon="12.0902067"><ele>382.0</ele><time>2026-04-25T08:31:55.574Z</time></trkpt><trkpt lat="42.2297244" lon="12.0900613"><ele>384.66666666666663</ele><time>2026-04-25T08:31:56.575Z</time></trkpt><trkpt lat="42.2296094" lon="12.0899093"><ele>387.3333333333333</ele><time>2026-04-25T08:31:57.575Z</time></trkpt><trkpt lat="42.2294969" lon="12.0897527"><ele>390.0</ele><time>2026-04-25T08:31:58.575Z</time></trkpt><trkpt lat="42.2293847" lon="12.0895921"><ele>390.0</ele><time>2026-04-25T08:31:59.575Z</time></trkpt><trkpt lat="42.2292741" lon="12.0894338"><ele>390.0</ele><time>2026-04-25T08:32:00.575Z</time></trkpt><trkpt lat="42.2291656" lon="12.0892745"><ele>390.0</ele><time>2026-04-25T08:32:01.575Z</time></trkpt><trkpt lat="42.2290572" lon="12.0891151"><ele>393.33333333333337</ele><time>2026-04-25T08:32:02.575Z</time></trkpt><trkpt lat="42.2289508" lon="12.0889566"><ele>396.6666666666667</ele><time>2026-04-25T08:32:03.575Z</time></trkpt><trkpt lat="42.2288476" lon="12.0888005"><ele>400.0</ele><time>2026-04-25T08:32:04.575Z</time></trkpt><trkpt lat="42.2287447" lon="12.0886441"><ele>400.0</ele><time>2026-04-25T08:32:05.575Z</time></trkpt><trkpt lat="42.2286437" lon="12.0884929"><ele>400.0</ele><time>2026-04-25T08:32:06.576Z</time></trkpt><trkpt lat="42.2285427" lon="12.08836"><ele>400.0</ele><time>2026-04-25T08:32:07.575Z</time></trkpt><trkpt lat="42.2284289" lon="12.0882422"><ele>400.0</ele><time>2026-04-25T08:32:08.575Z</time></trkpt><trkpt lat="42.2282993" lon="12.0881457"><ele>401.33333333333337</ele><time>2026-04-25T08:32:09.575Z</time></trkpt><trkpt lat="42.2281525" lon="12.0880717"><ele>402.66666666666663</ele><time>2026-04-25T08:32:10.575Z</time></trkpt><trkpt lat="42.2279942" lon="12.0880205"><ele>404.0</ele><time>2026-04-25T08:32:11.576Z</time></trkpt><trkpt lat="42.2278262" lon="12.0879941"><ele>405.66666666666663</ele><time>2026-04-25T08:32:12.575Z</time></trkpt><trkpt lat="42.2276484" lon="12.0879821"><ele>407.33333333333337</ele><time>2026-04-25T08:32:13.575Z</time></trkpt><trkpt lat="42.2274725" lon="12.0879684"><ele>409.0</ele><time>2026-04-25T08:32:14.576Z</time></trkpt><trkpt lat="42.2273019" lon="12.087957"><ele>409.33333333333337</ele><time>2026-04-25T08:32:15.575Z</time></trkpt><trkpt lat="42.227137" lon="12.0879429"><ele>409.66666666666663</ele><time>2026-04-25T08:32:16.574Z</time></trkpt><trkpt lat="42.2269785" lon="12.0879321"><ele>410.0</ele><time>2026-04-25T08:32:17.576Z</time></trkpt><trkpt lat="42.2268205" lon="12.0879188"><ele>410.0</ele><time>2026-04-25T08:32:18.575Z</time></trkpt><trkpt lat="42.2266625" lon="12.0879069"><ele>410.0</ele><time>2026-04-25T08:32:19.575Z</time></trkpt><trkpt lat="42.2265038" lon="12.0878973"><ele>410.0</ele><time>2026-04-25T08:32:20.575Z</time></trkpt><trkpt lat="42.2263422" lon="12.0878905"><ele>410.3333333333333</ele><time>2026-04-25T08:32:21.575Z</time></trkpt><trkpt lat="42.2261746" lon="12.0878806"><ele>410.66666666666663</ele><time>2026-04-25T08:32:22.575Z</time></trkpt><trkpt lat="42.2259935" lon="12.0878703"><ele>411.0</ele><time>2026-04-25T08:32:23.575Z</time></trkpt><trkpt lat="42.2258125" lon="12.0878615"><ele>409.66666666666663</ele><time>2026-04-25T08:32:24.575Z</time></trkpt><trkpt lat="42.2256333" lon="12.0878513"><ele>408.3333333333333</ele><time>2026-04-25T08:32:25.575Z</time></trkpt><trkpt lat="42.2254486" lon="12.0878401"><ele>407.0</ele><time>2026-04-25T08:32:26.575Z</time></trkpt><trkpt lat="42.2252618" lon="12.0878218"><ele>407.0</ele><time>2026-04-25T08:32:27.575Z</time></trkpt><trkpt lat="42.2250764" lon="12.0877977"><ele>407.0</ele><time>2026-04-25T08:32:28.575Z</time></trkpt><trkpt lat="42.2249018" lon="12.0877802"><ele>407.0</ele><time>2026-04-25T08:32:29.576Z</time></trkpt><trkpt lat="42.2247356" lon="12.0877663"><ele>408.0</ele><time>2026-04-25T08:32:30.575Z</time></trkpt><trkpt lat="42.2245751" lon="12.0877607"><ele>409.0</ele><time>2026-04-25T08:32:31.575Z</time></trkpt><trkpt lat="42.2244145" lon="12.0877888"><ele>410.0</ele><time>2026-04-25T08:32:32.575Z</time></trkpt><trkpt lat="42.2242578" lon="12.0878649"><ele>410.0</ele><time>2026-04-25T08:32:33.575Z</time></trkpt><trkpt lat="42.2241127" lon="12.0879771"><ele>410.0</ele><time>2026-04-25T08:32:34.575Z</time></trkpt><trkpt lat="42.2239722" lon="12.088137"><ele>410.0</ele><time>2026-04-25T08:32:35.575Z</time></trkpt><trkpt lat="42.2238451" lon="12.0883162"><ele>408.66666666666663</ele><time>2026-04-25T08:32:36.575Z</time></trkpt><trkpt lat="42.2237375" lon="12.0885292"><ele>407.33333333333337</ele><time>2026-04-25T08:32:37.575Z</time></trkpt><trkpt lat="42.2236426" lon="12.0887522"><ele>406.0</ele><time>2026-04-25T08:32:38.575Z</time></trkpt><trkpt lat="42.2235504" lon="12.0889806"><ele>404.6666666666667</ele><time>2026-04-25T08:32:39.575Z</time></trkpt><trkpt lat="42.2234626" lon="12.0892069"><ele>403.33333333333337</ele><time>2026-04-25T08:32:40.575Z</time></trkpt><trkpt lat="42.2233786" lon="12.0894295"><ele>402.0</ele><time>2026-04-25T08:32:41.575Z</time></trkpt><trkpt lat="42.2232996" lon="12.0896365"><ele>402.0</ele><time>2026-04-25T08:32:42.575Z</time></trkpt><trkpt lat="42.2232236" lon="12.0898396"><ele>402.0</ele><time>2026-04-25T08:32:43.574Z</time></trkpt><trkpt lat="42.223154" lon="12.0900296"><ele>402.0</ele><time>2026-04-25T08:32:44.576Z</time></trkpt><trkpt lat="42.2230876" lon="12.0902104"><ele>401.75</ele><time>2026-04-25T08:32:45.575Z</time></trkpt><trkpt lat="42.2230269" lon="12.0903822"><ele>401.5</ele><time>2026-04-25T08:32:46.575Z</time></trkpt><trkpt lat="42.2229682" lon="12.0905487"><ele>401.25</ele><time>2026-04-25T08:32:47.575Z</time></trkpt><trkpt lat="42.2229091" lon="12.0907034"><ele>401.0</ele><time>2026-04-25T08:32:48.576Z</time></trkpt><trkpt lat="42.222853" lon="12.0908507"><ele>401.0</ele><time>2026-04-25T08:32:49.575Z</time></trkpt><trkpt lat="42.2228016" lon="12.0909959"><ele>401.0</ele><time>2026-04-25T08:32:50.575Z</time></trkpt><trkpt lat="42.2227497" lon="12.0911365"><ele>401.0</ele><time>2026-04-25T08:32:51.575Z</time></trkpt><trkpt lat="42.2227002" lon="12.0912708"><ele>401.0</ele><time>2026-04-25T08:32:52.575Z</time></trkpt><trkpt lat="42.2226512" lon="12.0914007"><ele>401.0</ele><time>2026-04-25T08:32:53.575Z</time></trkpt><trkpt lat="42.2226044" lon="12.0915199"><ele>401.0</ele><time>2026-04-25T08:32:54.575Z</time></trkpt><trkpt lat="42.2225614" lon="12.0916355"><ele>401.0</ele><time>2026-04-25T08:32:55.575Z</time></trkpt><trkpt lat="42.2225188" lon="12.0917505"><ele>401.0</ele><time>2026-04-25T08:32:56.575Z</time></trkpt><trkpt lat="42.2224745" lon="12.0918692"><ele>401.0</ele><time>2026-04-25T08:32:57.575Z</time></trkpt><trkpt lat="42.2224285" lon="12.0919869"><ele>401.0</ele><time>2026-04-25T08:32:58.575Z</time></trkpt><trkpt lat="42.2223833" lon="12.0921106"><ele>401.0</ele><time>2026-04-25T08:32:59.575Z</time></trkpt><trkpt lat="42.2223361" lon="12.0922363"><ele>401.0</ele><time>2026-04-25T08:33:00.575Z</time></trkpt><trkpt lat="42.2222852" lon="12.0923618"><ele>401.0</ele><time>2026-04-25T08:33:01.575Z</time></trkpt><trkpt lat="42.2222336" lon="12.0924901"><ele>401.0</ele><time>2026-04-25T08:33:02.575Z</time></trkpt><trkpt lat="42.2221768" lon="12.0926172"><ele>400.75</ele><time>2026-04-25T08:33:03.575Z</time></trkpt><trkpt lat="42.2221098" lon="12.0927387"><ele>400.5</ele><time>2026-04-25T08:33:04.575Z</time></trkpt><trkpt lat="42.2220301" lon="12.0928589"><ele>400.25</ele><time>2026-04-25T08:33:05.575Z</time></trkpt><trkpt lat="42.2219422" lon="12.092963"><ele>400.0</ele><time>2026-04-25T08:33:06.575Z</time></trkpt><trkpt lat="42.2218483" lon="12.0930513"><ele>400.0</ele><time>2026-04-25T08:33:07.575Z</time></trkpt><trkpt lat="42.221746" lon="12.0931289"><ele>400.0</ele><time>2026-04-25T08:33:08.575Z</time></trkpt><trkpt lat="42.2216376" lon="12.0931923"><ele>400.0</ele><time>2026-04-25T08:33:09.575Z</time></trkpt><trkpt lat="42.2215254" lon="12.093247"><ele>400.0</ele><time>2026-04-25T08:33:10.575Z</time></trkpt><trkpt lat="42.2214126" lon="12.0932952"><ele>400.0</ele><time>2026-04-25T08:33:11.575Z</time></trkpt><trkpt lat="42.2212975" lon="12.0933437"><ele>400.0</ele><time>2026-04-25T08:33:12.576Z</time></trkpt><trkpt lat="42.2211824" lon="12.0933927"><ele>400.0</ele><time>2026-04-25T08:33:13.574Z</time></trkpt><trkpt lat="42.2210643" lon="12.093442"><ele>400.0</ele><time>2026-04-25T08:33:14.575Z</time></trkpt><trkpt lat="42.2209476" lon="12.0934875"><ele>400.0</ele><time>2026-04-25T08:33:15.576Z</time></trkpt><trkpt lat="42.220832" lon="12.0935338"><ele>400.0</ele><time>2026-04-25T08:33:16.577Z</time></trkpt><trkpt lat="42.2207149" lon="12.0935777"><ele>400.0</ele><time>2026-04-25T08:33:17.577Z</time></trkpt><trkpt lat="42.2205987" lon="12.0936195"><ele>400.0</ele><time>2026-04-25T08:33:18.575Z</time></trkpt><trkpt lat="42.2204844" lon="12.0936658"><ele>399.75</ele><time>2026-04-25T08:33:19.575Z</time></trkpt><trkpt lat="42.2203721" lon="12.0937111"><ele>399.5</ele><time>2026-04-25T08:33:20.575Z</time></trkpt><trkpt lat="42.2202611" lon="12.0937515"><ele>399.25</ele><time>2026-04-25T08:33:21.575Z</time></trkpt><trkpt lat="42.2201437" lon="12.0937959"><ele>399.0</ele><time>2026-04-25T08:33:22.575Z</time></trkpt><trkpt lat="42.2200356" lon="12.0938388"><ele>399.0</ele><time>2026-04-25T08:33:23.575Z</time></trkpt><trkpt lat="42.2199214" lon="12.0938845"><ele>399.0</ele><time>2026-04-25T08:33:24.575Z</time></trkpt><trkpt lat="42.2198068" lon="12.0939292"><ele>399.0</ele><time>2026-04-25T08:33:25.575Z</time></trkpt><trkpt lat="42.2196953" lon="12.0939709"><ele>399.0</ele><time>2026-04-25T08:33:26.575Z</time></trkpt><trkpt lat="42.2195878" lon="12.094012"><ele>399.0</ele><time>2026-04-25T08:33:27.575Z</time></trkpt><trkpt lat="42.2194788" lon="12.0940547"><ele>399.0</ele><time>2026-04-25T08:33:28.575Z</time></trkpt><trkpt lat="42.219368" lon="12.0940968"><ele>399.0</ele><time>2026-04-25T08:33:29.575Z</time></trkpt><trkpt lat="42.2192605" lon="12.0941392"><ele>399.0</ele><time>2026-04-25T08:33:30.575Z</time></trkpt><trkpt lat="42.2191595" lon="12.0941799"><ele>399.0</ele><time>2026-04-25T08:33:31.575Z</time></trkpt><trkpt lat="42.2190632" lon="12.09422"><ele>398.6</ele><time>2026-04-25T08:33:32.575Z</time></trkpt><trkpt lat="42.2189715" lon="12.0942552"><ele>398.2</ele><time>2026-04-25T08:33:33.575Z</time></trkpt><trkpt lat="42.2188786" lon="12.0942946"><ele>397.8</ele><time>2026-04-25T08:33:34.575Z</time></trkpt><trkpt lat="42.2187772" lon="12.0943303"><ele>397.40000000000003</ele><time>2026-04-25T08:33:35.575Z</time></trkpt><trkpt lat="42.2186773" lon="12.0943682"><ele>397.0</ele><time>2026-04-25T08:33:36.575Z</time></trkpt><trkpt lat="42.2185798" lon="12.0944077"><ele>397.0</ele><time>2026-04-25T08:33:37.575Z</time></trkpt><trkpt lat="42.2184799" lon="12.0944443"><ele>397.0</ele><time>2026-04-25T08:33:38.575Z</time></trkpt><trkpt lat="42.2183833" lon="12.0944829"><ele>397.0</ele><time>2026-04-25T08:33:39.575Z</time></trkpt><trkpt lat="42.2182906" lon="12.0945236"><ele>397.0</ele><time>2026-04-25T08:33:40.575Z</time></trkpt><trkpt lat="42.2181979" lon="12.0945566"><ele>397.0</ele><time>2026-04-25T08:33:41.576Z</time></trkpt><trkpt lat="42.2181088" lon="12.0946002"><ele>396.50000000000006</ele><time>2026-04-25T08:33:42.574Z</time></trkpt><trkpt lat="42.2180211" lon="12.0946286"><ele>396.0</ele><time>2026-04-25T08:33:43.575Z</time></trkpt><trkpt lat="42.2179328" lon="12.0946645"><ele>395.5</ele><time>2026-04-25T08:33:44.575Z</time></trkpt><trkpt lat="42.2178477" lon="12.0946934"><ele>395.0</ele><time>2026-04-25T08:33:45.575Z</time></trkpt><trkpt lat="42.2177639" lon="12.0947254"><ele>394.50000000000006</ele><time>2026-04-25T08:33:46.575Z</time></trkpt><trkpt lat="42.2176865" lon="12.0947633"><ele>394.0</ele><time>2026-04-25T08:33:47.575Z</time></trkpt><trkpt lat="42.2176047" lon="12.0948031"><ele>394.00000000000006</ele><time>2026-04-25T08:33:48.575Z</time></trkpt><trkpt lat="42.2175302" lon="12.0948348"><ele>394.0</ele><time>2026-04-25T08:33:49.575Z</time></trkpt><trkpt lat="42.2174546" lon="12.0948637"><ele>394.0</ele><time>2026-04-25T08:33:50.575Z</time></trkpt><trkpt lat="42.2173764" lon="12.0948916"><ele>394.0</ele><time>2026-04-25T08:33:51.575Z</time></trkpt><trkpt lat="42.2173026" lon="12.0949197"><ele>394.00000000000006</ele><time>2026-04-25T08:33:52.575Z</time></trkpt><trkpt lat="42.2172349" lon="12.094941"><ele>394.0</ele><time>2026-04-25T08:33:53.575Z</time></trkpt><trkpt lat="42.2171669" lon="12.0949686"><ele>393.33333333333337</ele><time>2026-04-25T08:33:54.575Z</time></trkpt><trkpt lat="42.2171006" lon="12.095014"><ele>392.6666666666667</ele><time>2026-04-25T08:33:55.575Z</time></trkpt><trkpt lat="42.217041" lon="12.095067"><ele>392.0</ele><time>2026-04-25T08:33:56.575Z</time></trkpt><trkpt lat="42.2169824" lon="12.0951308"><ele>391.33333333333337</ele><time>2026-04-25T08:33:57.575Z</time></trkpt><trkpt lat="42.2169209" lon="12.0952152"><ele>390.6666666666667</ele><time>2026-04-25T08:33:58.574Z</time></trkpt><trkpt lat="42.2168511" lon="12.0953098"><ele>390.0</ele><time>2026-04-25T08:33:59.575Z</time></trkpt><trkpt lat="42.216767" lon="12.0954286"><ele>390.0</ele><time>2026-04-25T08:34:00.575Z</time></trkpt><trkpt lat="42.2166817" lon="12.0955492"><ele>390.0</ele><time>2026-04-25T08:34:01.575Z</time></trkpt><trkpt lat="42.2166022" lon="12.095663"><ele>390.0</ele><time>2026-04-25T08:34:02.575Z</time></trkpt><trkpt lat="42.2165249" lon="12.0957704"><ele>390.0</ele><time>2026-04-25T08:34:03.575Z</time></trkpt><trkpt lat="42.2164533" lon="12.0958726"><ele>389.1666666666667</ele><time>2026-04-25T08:34:04.575Z</time></trkpt><trkpt lat="42.2163859" lon="12.0959663"><ele>388.33333333333337</ele><time>2026-04-25T08:34:05.575Z</time></trkpt><trkpt lat="42.2163382" lon="12.0960588"><ele>387.5</ele><time>2026-04-25T08:34:06.575Z</time></trkpt><trkpt lat="42.216313" lon="12.0961653"><ele>386.6666666666667</ele><time>2026-04-25T08:34:07.575Z</time></trkpt><trkpt lat="42.2163119" lon="12.0962876"><ele>385.83333333333337</ele><time>2026-04-25T08:34:08.575Z</time></trkpt><trkpt lat="42.2163306" lon="12.0964038"><ele>385.0</ele><time>2026-04-25T08:34:09.575Z</time></trkpt><trkpt lat="42.2163475" lon="12.0965156"><ele>382.83333333333337</ele><time>2026-04-25T08:34:10.575Z</time></trkpt><trkpt lat="42.2163585" lon="12.0966242"><ele>380.6666666666667</ele><time>2026-04-25T08:34:11.575Z</time></trkpt><trkpt lat="42.2163596" lon="12.0967238"><ele>378.5</ele><time>2026-04-25T08:34:12.575Z</time></trkpt><trkpt lat="42.2163087" lon="12.0968685"><ele>376.33333333333337</ele><time>2026-04-25T08:34:14.575Z</time></trkpt><trkpt lat="42.2162422" lon="12.096905"><ele>374.1666666666667</ele><time>2026-04-25T08:34:15.575Z</time></trkpt><trkpt lat="42.2161689" lon="12.096903"><ele>372.0</ele><time>2026-04-25T08:34:16.575Z</time></trkpt><trkpt lat="42.2160782" lon="12.0968695"><ele>372.0</ele><time>2026-04-25T08:34:17.575Z</time></trkpt><trkpt lat="42.2159834" lon="12.096801"><ele>372.0</ele><time>2026-04-25T08:34:18.575Z</time></trkpt><trkpt lat="42.215891" lon="12.0967162"><ele>372.0</ele><time>2026-04-25T08:34:19.575Z</time></trkpt><trkpt lat="42.2157995" lon="12.0966389"><ele>372.0</ele><time>2026-04-25T08:34:20.575Z</time></trkpt><trkpt lat="42.2157165" lon="12.096565"><ele>372.0</ele><time>2026-04-25T08:34:21.574Z</time></trkpt><trkpt lat="42.215638" lon="12.0965055"><ele>370.8</ele><time>2026-04-25T08:34:22.575Z</time></trkpt><trkpt lat="42.2155578" lon="12.0964637"><ele>369.6</ele><time>2026-04-25T08:34:23.575Z</time></trkpt><trkpt lat="42.2154733" lon="12.0964497"><ele>368.40000000000003</ele><time>2026-04-25T08:34:24.575Z</time></trkpt><trkpt lat="42.215386" lon="12.0964717"><ele>367.20000000000005</ele><time>2026-04-25T08:34:25.575Z</time></trkpt><trkpt lat="42.2153069" lon="12.0965432"><ele>366.0</ele><time>2026-04-25T08:34:26.575Z</time></trkpt><trkpt lat="42.2152381" lon="12.0966494"><ele>364.0</ele><time>2026-04-25T08:34:27.575Z</time></trkpt><trkpt lat="42.2151709" lon="12.0967748"><ele>362.0</ele><time>2026-04-25T08:34:28.575Z</time></trkpt><trkpt lat="42.2151022" lon="12.0969089"><ele>360.0</ele><time>2026-04-25T08:34:29.575Z</time></trkpt><trkpt lat="42.2150329" lon="12.0970436"><ele>358.0</ele><time>2026-04-25T08:34:30.575Z</time></trkpt><trkpt lat="42.214961" lon="12.0971837"><ele>358.0</ele><time>2026-04-25T08:34:31.575Z</time></trkpt><trkpt lat="42.2148871" lon="12.0973298"><ele>358.0</ele><time>2026-04-25T08:34:32.575Z</time></trkpt><trkpt lat="42.2148145" lon="12.0974727"><ele>358.0</ele><time>2026-04-25T08:34:33.575Z</time></trkpt><trkpt lat="42.2147478" lon="12.0976059"><ele>358.0</ele><time>2026-04-25T08:34:34.575Z</time></trkpt><trkpt lat="42.2146847" lon="12.0977186"><ele>356.59999999999997</ele><time>2026-04-25T08:34:35.575Z</time></trkpt><trkpt lat="42.2146138" lon="12.0978114"><ele>355.2</ele><time>2026-04-25T08:34:36.575Z</time></trkpt><trkpt lat="42.214526" lon="12.0978712"><ele>353.8</ele><time>2026-04-25T08:34:37.575Z</time></trkpt><trkpt lat="42.2144169" lon="12.0979106"><ele>352.4</ele><time>2026-04-25T08:34:38.575Z</time></trkpt><trkpt lat="42.2142946" lon="12.0979501"><ele>351.0</ele><time>2026-04-25T08:34:39.575Z</time></trkpt><trkpt lat="42.2141598" lon="12.0979869"><ele>351.0</ele><time>2026-04-25T08:34:40.575Z</time></trkpt><trkpt lat="42.2140206" lon="12.0980224"><ele>351.0</ele><time>2026-04-25T08:34:41.575Z</time></trkpt><trkpt lat="42.2138768" lon="12.0980556"><ele>351.0</ele><time>2026-04-25T08:34:42.575Z</time></trkpt><trkpt lat="42.2137344" lon="12.098091"><ele>351.0</ele><time>2026-04-25T08:34:43.575Z</time></trkpt><trkpt lat="42.2135946" lon="12.0981267"><ele>351.0</ele><time>2026-04-25T08:34:44.575Z</time></trkpt><trkpt lat="42.2134526" lon="12.0981614"><ele>351.0</ele><time>2026-04-25T08:34:45.575Z</time></trkpt><trkpt lat="42.2133081" lon="12.0982038"><ele>351.0</ele><time>2026-04-25T08:34:46.575Z</time></trkpt><trkpt lat="42.21317" lon="12.0982617"><ele>351.0</ele><time>2026-04-25T08:34:47.575Z</time></trkpt><trkpt lat="42.213033" lon="12.0983372"><ele>353.0</ele><time>2026-04-25T08:34:48.575Z</time></trkpt><trkpt lat="42.2128987" lon="12.0984328"><ele>355.0</ele><time>2026-04-25T08:34:49.575Z</time></trkpt><trkpt lat="42.2127709" lon="12.0985445"><ele>357.0</ele><time>2026-04-25T08:34:50.575Z</time></trkpt><trkpt lat="42.2126533" lon="12.0986728"><ele>357.0</ele><time>2026-04-25T08:34:51.575Z</time></trkpt><trkpt lat="42.2125476" lon="12.0988236"><ele>357.0</ele><time>2026-04-25T08:34:52.575Z</time></trkpt><trkpt lat="42.2124521" lon="12.0989911"><ele>357.0</ele><time>2026-04-25T08:34:53.575Z</time></trkpt><trkpt lat="42.2123675" lon="12.0991624"><ele>352.0</ele><time>2026-04-25T08:34:54.575Z</time></trkpt><trkpt lat="42.2122905" lon="12.0993409"><ele>347.0</ele><time>2026-04-25T08:34:55.575Z</time></trkpt><trkpt lat="42.2122198" lon="12.0995225"><ele>342.0</ele><time>2026-04-25T08:34:56.575Z</time></trkpt><trkpt lat="42.212146" lon="12.0997038"><ele>342.0</ele><time>2026-04-25T08:34:57.575Z</time></trkpt><trkpt lat="42.212074" lon="12.0998865"><ele>342.0</ele><time>2026-04-25T08:34:58.575Z</time></trkpt><trkpt lat="42.2120062" lon="12.1000702"><ele>342.0</ele><time>2026-04-25T08:34:59.575Z</time></trkpt><trkpt lat="42.2119356" lon="12.100258"><ele>342.0</ele><time>2026-04-25T08:35:00.575Z</time></trkpt><trkpt lat="42.2118657" lon="12.1004491"><ele>342.0</ele><time>2026-04-25T08:35:01.575Z</time></trkpt><trkpt lat="42.2117916" lon="12.1006423"><ele>342.0</ele><time>2026-04-25T08:35:02.574Z</time></trkpt><trkpt lat="42.2117181" lon="12.1008361"><ele>343.0</ele><time>2026-04-25T08:35:03.575Z</time></trkpt><trkpt lat="42.2116431" lon="12.1010361"><ele>344.0</ele><time>2026-04-25T08:35:04.575Z</time></trkpt><trkpt lat="42.2115703" lon="12.1012403"><ele>345.0</ele><time>2026-04-25T08:35:05.575Z</time></trkpt><trkpt lat="42.2114966" lon="12.1014428"><ele>353.0</ele><time>2026-04-25T08:35:06.575Z</time></trkpt><trkpt lat="42.2114212" lon="12.1016435"><ele>361.0</ele><time>2026-04-25T08:35:07.575Z</time></trkpt><trkpt lat="42.2113439" lon="12.1018472"><ele>369.0</ele><time>2026-04-25T08:35:08.575Z</time></trkpt><trkpt lat="42.2112658" lon="12.1020527"><ele>369.0</ele><time>2026-04-25T08:35:09.575Z</time></trkpt><trkpt lat="42.2111897" lon="12.1022565"><ele>369.0</ele><time>2026-04-25T08:35:10.574Z</time></trkpt><trkpt lat="42.2111148" lon="12.1024381"><ele>369.0</ele><time>2026-04-25T08:35:11.574Z</time></trkpt><trkpt lat="42.2110351" lon="12.1026065"><ele>371.3333333333333</ele><time>2026-04-25T08:35:12.574Z</time></trkpt><trkpt lat="42.2109401" lon="12.1027663"><ele>373.66666666666663</ele><time>2026-04-25T08:35:13.574Z</time></trkpt><trkpt lat="42.2108346" lon="12.1029149"><ele>376.0</ele><time>2026-04-25T08:35:14.574Z</time></trkpt><trkpt lat="42.2107233" lon="12.1030517"><ele>379.0</ele><time>2026-04-25T08:35:15.574Z</time></trkpt><trkpt lat="42.2106108" lon="12.1031909"><ele>382.0</ele><time>2026-04-25T08:35:16.574Z</time></trkpt><trkpt lat="42.2104898" lon="12.1033057"><ele>385.0</ele><time>2026-04-25T08:35:17.574Z</time></trkpt><trkpt lat="42.2103804" lon="12.1034174"><ele>388.0</ele><time>2026-04-25T08:35:18.574Z</time></trkpt><trkpt lat="42.2102691" lon="12.1035243"><ele>388.0</ele><time>2026-04-25T08:35:19.573Z</time></trkpt><trkpt lat="42.2101565" lon="12.1036348"><ele>388.0</ele><time>2026-04-25T08:35:20.574Z</time></trkpt><trkpt lat="42.2100413" lon="12.1037434"><ele>388.0</ele><time>2026-04-25T08:35:21.574Z</time></trkpt><trkpt lat="42.2099254" lon="12.103823"><ele>388.0</ele><time>2026-04-25T08:35:22.574Z</time></trkpt><trkpt lat="42.2097994" lon="12.103883"><ele>388.25</ele><time>2026-04-25T08:35:23.574Z</time></trkpt><trkpt lat="42.2096776" lon="12.1039115"><ele>388.5</ele><time>2026-04-25T08:35:24.574Z</time></trkpt><trkpt lat="42.2095527" lon="12.1039004"><ele>388.75</ele><time>2026-04-25T08:35:25.574Z</time></trkpt><trkpt lat="42.2094365" lon="12.1038541"><ele>389.0</ele><time>2026-04-25T08:35:26.574Z</time></trkpt><trkpt lat="42.2093332" lon="12.103765"><ele>389.0</ele><time>2026-04-25T08:35:27.574Z</time></trkpt><trkpt lat="42.2092365" lon="12.1036439"><ele>389.0</ele><time>2026-04-25T08:35:28.574Z</time></trkpt><trkpt lat="42.20914" lon="12.1035071"><ele>389.0</ele><time>2026-04-25T08:35:29.574Z</time></trkpt><trkpt lat="42.2090329" lon="12.103371"><ele>389.0</ele><time>2026-04-25T08:35:30.574Z</time></trkpt><trkpt lat="42.2089141" lon="12.1032476"><ele>391.3333333333333</ele><time>2026-04-25T08:35:31.574Z</time></trkpt><trkpt lat="42.2087734" lon="12.1031526"><ele>393.66666666666663</ele><time>2026-04-25T08:35:32.574Z</time></trkpt><trkpt lat="42.2086186" lon="12.103093"><ele>396.0</ele><time>2026-04-25T08:35:33.575Z</time></trkpt><trkpt lat="42.2084529" lon="12.1030571"><ele>396.0</ele><time>2026-04-25T08:35:34.574Z</time></trkpt><trkpt lat="42.2082781" lon="12.1030321"><ele>396.0</ele><time>2026-04-25T08:35:35.574Z</time></trkpt><trkpt lat="42.2081036" lon="12.1030132"><ele>396.0</ele><time>2026-04-25T08:35:36.574Z</time></trkpt><trkpt lat="42.2079433" lon="12.1029912"><ele>397.0</ele><time>2026-04-25T08:35:37.574Z</time></trkpt><trkpt lat="42.207786" lon="12.1029698"><ele>398.0</ele><time>2026-04-25T08:35:38.574Z</time></trkpt><trkpt lat="42.2076366" lon="12.1029669"><ele>399.0</ele><time>2026-04-25T08:35:39.574Z</time></trkpt><trkpt lat="42.207504" lon="12.1029965"><ele>400.0</ele><time>2026-04-25T08:35:40.574Z</time></trkpt><trkpt lat="42.2073868" lon="12.1030755"><ele>402.25</ele><time>2026-04-25T08:35:41.574Z</time></trkpt><trkpt lat="42.2072938" lon="12.1031977"><ele>404.5</ele><time>2026-04-25T08:35:42.574Z</time></trkpt><trkpt lat="42.2072283" lon="12.1033606"><ele>406.75</ele><time>2026-04-25T08:35:43.574Z</time></trkpt><trkpt lat="42.2072003" lon="12.1035543"><ele>409.0</ele><time>2026-04-25T08:35:44.575Z</time></trkpt><trkpt lat="42.2072029" lon="12.103763"><ele>409.0</ele><time>2026-04-25T08:35:45.574Z</time></trkpt><trkpt lat="42.207218" lon="12.1039788"><ele>409.0</ele><time>2026-04-25T08:35:46.574Z</time></trkpt><trkpt lat="42.2072218" lon="12.1041776"><ele>409.0</ele><time>2026-04-25T08:35:47.574Z</time></trkpt><trkpt lat="42.2072069" lon="12.1043821"><ele>409.0</ele><time>2026-04-25T08:35:48.574Z</time></trkpt><trkpt lat="42.207165" lon="12.1045926"><ele>409.0</ele><time>2026-04-25T08:35:49.574Z</time></trkpt><trkpt lat="42.2070966" lon="12.1047993"><ele>409.0</ele><time>2026-04-25T08:35:50.574Z</time></trkpt><trkpt lat="42.206997" lon="12.1049848"><ele>409.0</ele><time>2026-04-25T08:35:51.574Z</time></trkpt><trkpt lat="42.2068638" lon="12.1051549"><ele>409.0</ele><time>2026-04-25T08:35:52.574Z</time></trkpt><trkpt lat="42.2067108" lon="12.1053227"><ele>409.0</ele><time>2026-04-25T08:35:53.574Z</time></trkpt><trkpt lat="42.2065535" lon="12.1054913"><ele>408.0</ele><time>2026-04-25T08:35:54.573Z</time></trkpt><trkpt lat="42.2063938" lon="12.1056612"><ele>407.0</ele><time>2026-04-25T08:35:55.575Z</time></trkpt><trkpt lat="42.2062387" lon="12.1058292"><ele>406.0</ele><time>2026-04-25T08:35:56.574Z</time></trkpt><trkpt lat="42.2060783" lon="12.1060043"><ele>406.0</ele><time>2026-04-25T08:35:57.574Z</time></trkpt><trkpt lat="42.2059218" lon="12.1061809"><ele>406.0</ele><time>2026-04-25T08:35:58.574Z</time></trkpt><trkpt lat="42.2057688" lon="12.1063644"><ele>406.0</ele><time>2026-04-25T08:35:59.574Z</time></trkpt><trkpt lat="42.2056193" lon="12.1065481"><ele>403.33333333333337</ele><time>2026-04-25T08:36:00.574Z</time></trkpt><trkpt lat="42.205473" lon="12.1067303"><ele>400.66666666666663</ele><time>2026-04-25T08:36:01.574Z</time></trkpt><trkpt lat="42.2053288" lon="12.1069084"><ele>398.0</ele><time>2026-04-25T08:36:02.574Z</time></trkpt><trkpt lat="42.2051868" lon="12.1070886"><ele>398.0</ele><time>2026-04-25T08:36:03.574Z</time></trkpt><trkpt lat="42.2050407" lon="12.1072712"><ele>398.0</ele><time>2026-04-25T08:36:04.574Z</time></trkpt><trkpt lat="42.2048957" lon="12.1074541"><ele>398.0</ele><time>2026-04-25T08:36:05.574Z</time></trkpt><trkpt lat="42.2047485" lon="12.1076372"><ele>398.3333333333333</ele><time>2026-04-25T08:36:06.574Z</time></trkpt><trkpt lat="42.2045995" lon="12.1078212"><ele>398.66666666666663</ele><time>2026-04-25T08:36:07.575Z</time></trkpt><trkpt lat="42.2044515" lon="12.1080063"><ele>399.0</ele><time>2026-04-25T08:36:08.574Z</time></trkpt><trkpt lat="42.2043065" lon="12.1081961"><ele>399.0</ele><time>2026-04-25T08:36:09.574Z</time></trkpt><trkpt lat="42.2041653" lon="12.1083808"><ele>399.0</ele><time>2026-04-25T08:36:10.574Z</time></trkpt><trkpt lat="42.2040248" lon="12.1085611"><ele>399.0</ele><time>2026-04-25T08:36:11.574Z</time></trkpt><trkpt lat="42.2038854" lon="12.1087361"><ele>399.0</ele><time>2026-04-25T08:36:12.574Z</time></trkpt><trkpt lat="42.2037504" lon="12.1089051"><ele>399.0</ele><time>2026-04-25T08:36:13.574Z</time></trkpt><trkpt lat="42.2036171" lon="12.1090697"><ele>399.0</ele><time>2026-04-25T08:36:14.574Z</time></trkpt><trkpt lat="42.2034822" lon="12.1092366"><ele>400.0</ele><time>2026-04-25T08:36:15.574Z</time></trkpt><trkpt lat="42.2033457" lon="12.1094082"><ele>401.0</ele><time>2026-04-25T08:36:16.574Z</time></trkpt><trkpt lat="42.2032099" lon="12.1095825"><ele>402.0</ele><time>2026-04-25T08:36:17.574Z</time></trkpt><trkpt lat="42.2030754" lon="12.1097615"><ele>402.33333333333337</ele><time>2026-04-25T08:36:18.574Z</time></trkpt><trkpt lat="42.2029433" lon="12.1099433"><ele>402.6666666666667</ele><time>2026-04-25T08:36:19.574Z</time></trkpt><trkpt lat="42.2028172" lon="12.1101197"><ele>403.0</ele><time>2026-04-25T08:36:20.574Z</time></trkpt><trkpt lat="42.2026913" lon="12.110303"><ele>403.0</ele><time>2026-04-25T08:36:21.574Z</time></trkpt><trkpt lat="42.20257" lon="12.1105018"><ele>403.0</ele><time>2026-04-25T08:36:22.574Z</time></trkpt><trkpt lat="42.2024666" lon="12.1107173"><ele>403.0</ele><time>2026-04-25T08:36:23.574Z</time></trkpt><trkpt lat="42.2023817" lon="12.1109538"><ele>403.0</ele><time>2026-04-25T08:36:24.574Z</time></trkpt><trkpt lat="42.2023102" lon="12.1112011"><ele>403.0</ele><time>2026-04-25T08:36:25.574Z</time></trkpt><trkpt lat="42.2022453" lon="12.1114541"><ele>403.0</ele><time>2026-04-25T08:36:26.574Z</time></trkpt><trkpt lat="42.2021815" lon="12.1117052"><ele>403.0</ele><time>2026-04-25T08:36:27.574Z</time></trkpt><trkpt lat="42.2021169" lon="12.1119533"><ele>403.0</ele><time>2026-04-25T08:36:28.574Z</time></trkpt><trkpt lat="42.2020533" lon="12.1121995"><ele>403.0</ele><time>2026-04-25T08:36:29.574Z</time></trkpt><trkpt lat="42.2019904" lon="12.112444"><ele>402.0</ele><time>2026-04-25T08:36:30.574Z</time></trkpt><trkpt lat="42.2019264" lon="12.1126875"><ele>401.0</ele><time>2026-04-25T08:36:31.574Z</time></trkpt><trkpt lat="42.2018611" lon="12.1129298"><ele>400.0</ele><time>2026-04-25T08:36:32.574Z</time></trkpt><trkpt lat="42.2018" lon="12.1131712"><ele>400.33333333333337</ele><time>2026-04-25T08:36:33.574Z</time></trkpt><trkpt lat="42.2017425" lon="12.1134104"><ele>400.66666666666663</ele><time>2026-04-25T08:36:34.574Z</time></trkpt><trkpt lat="42.2016858" lon="12.1136489"><ele>401.0</ele><time>2026-04-25T08:36:35.574Z</time></trkpt><trkpt lat="42.2016245" lon="12.1138876"><ele>400.3333333333333</ele><time>2026-04-25T08:36:36.575Z</time></trkpt><trkpt lat="42.2015624" lon="12.1141293"><ele>399.66666666666663</ele><time>2026-04-25T08:36:37.574Z</time></trkpt><trkpt lat="42.2014976" lon="12.1143701"><ele>399.0</ele><time>2026-04-25T08:36:38.573Z</time></trkpt><trkpt lat="42.2014346" lon="12.1146065"><ele>399.0</ele><time>2026-04-25T08:36:39.574Z</time></trkpt><trkpt lat="42.2013735" lon="12.1148444"><ele>399.0</ele><time>2026-04-25T08:36:40.574Z</time></trkpt><trkpt lat="42.2013122" lon="12.1150806"><ele>399.0</ele><time>2026-04-25T08:36:41.574Z</time></trkpt><trkpt lat="42.2012522" lon="12.1153172"><ele>399.0</ele><time>2026-04-25T08:36:42.574Z</time></trkpt><trkpt lat="42.2011929" lon="12.11555"><ele>399.0</ele><time>2026-04-25T08:36:43.574Z</time></trkpt><trkpt lat="42.2011361" lon="12.115782"><ele>399.0</ele><time>2026-04-25T08:36:44.575Z</time></trkpt><trkpt lat="42.2010779" lon="12.1160144"><ele>400.0</ele><time>2026-04-25T08:36:45.575Z</time></trkpt><trkpt lat="42.201019" lon="12.1162491"><ele>401.0</ele><time>2026-04-25T08:36:46.574Z</time></trkpt><trkpt lat="42.2009599" lon="12.1164822"><ele>402.0</ele><time>2026-04-25T08:36:47.574Z</time></trkpt><trkpt lat="42.2008999" lon="12.1167134"><ele>402.33333333333337</ele><time>2026-04-25T08:36:48.574Z</time></trkpt><trkpt lat="42.2008426" lon="12.1169474"><ele>402.6666666666667</ele><time>2026-04-25T08:36:49.574Z</time></trkpt><trkpt lat="42.2007811" lon="12.1171842"><ele>403.0</ele><time>2026-04-25T08:36:50.574Z</time></trkpt><trkpt lat="42.2007165" lon="12.117412"><ele>402.0</ele><time>2026-04-25T08:36:51.574Z</time></trkpt><trkpt lat="42.2006438" lon="12.1176343"><ele>401.0</ele><time>2026-04-25T08:36:52.574Z</time></trkpt><trkpt lat="42.2005632" lon="12.1178535"><ele>400.0</ele><time>2026-04-25T08:36:53.575Z</time></trkpt><trkpt lat="42.2004698" lon="12.1180654"><ele>402.6666666666667</ele><time>2026-04-25T08:36:54.574Z</time></trkpt><trkpt lat="42.2003694" lon="12.1182594"><ele>405.33333333333337</ele><time>2026-04-25T08:36:55.575Z</time></trkpt><trkpt lat="42.2002531" lon="12.118438"><ele>408.0</ele><time>2026-04-25T08:36:56.574Z</time></trkpt><trkpt lat="42.2001204" lon="12.1186028"><ele>408.0</ele><time>2026-04-25T08:36:57.574Z</time></trkpt><trkpt lat="42.1999751" lon="12.1187498"><ele>408.0</ele><time>2026-04-25T08:36:58.574Z</time></trkpt><trkpt lat="42.1998212" lon="12.1188875"><ele>408.0</ele><time>2026-04-25T08:36:59.574Z</time></trkpt><trkpt lat="42.1996622" lon="12.1190212"><ele>409.33333333333337</ele><time>2026-04-25T08:37:00.575Z</time></trkpt><trkpt lat="42.1994993" lon="12.1191556"><ele>410.6666666666667</ele><time>2026-04-25T08:37:01.574Z</time></trkpt><trkpt lat="42.1993363" lon="12.1192849"><ele>412.0</ele><time>2026-04-25T08:37:02.574Z</time></trkpt><trkpt lat="42.1991722" lon="12.1194152"><ele>412.0</ele><time>2026-04-25T08:37:03.574Z</time></trkpt><trkpt lat="42.199006" lon="12.1195452"><ele>412.0</ele><time>2026-04-25T08:37:04.574Z</time></trkpt><trkpt lat="42.1988365" lon="12.1196739"><ele>412.0</ele><time>2026-04-25T08:37:05.574Z</time></trkpt><trkpt lat="42.1986657" lon="12.1198021"><ele>413.0</ele><time>2026-04-25T08:37:06.574Z</time></trkpt><trkpt lat="42.1984906" lon="12.1199293"><ele>414.0</ele><time>2026-04-25T08:37:07.574Z</time></trkpt><trkpt lat="42.1983191" lon="12.1200574"><ele>415.0</ele><time>2026-04-25T08:37:08.574Z</time></trkpt><trkpt lat="42.198143" lon="12.1201863"><ele>412.6666666666667</ele><time>2026-04-25T08:37:09.574Z</time></trkpt><trkpt lat="42.1979781" lon="12.1203099"><ele>410.33333333333337</ele><time>2026-04-25T08:37:10.574Z</time></trkpt><trkpt lat="42.1978186" lon="12.1204306"><ele>408.0</ele><time>2026-04-25T08:37:11.574Z</time></trkpt><trkpt lat="42.1976586" lon="12.1205518"><ele>408.0</ele><time>2026-04-25T08:37:12.574Z</time></trkpt><trkpt lat="42.1974947" lon="12.1206743"><ele>408.0</ele><time>2026-04-25T08:37:13.575Z</time></trkpt><trkpt lat="42.1973255" lon="12.1208001"><ele>408.0</ele><time>2026-04-25T08:37:14.574Z</time></trkpt><trkpt lat="42.1971591" lon="12.1209262"><ele>407.0</ele><time>2026-04-25T08:37:15.574Z</time></trkpt><trkpt lat="42.1970003" lon="12.1210458"><ele>406.0</ele><time>2026-04-25T08:37:16.574Z</time></trkpt><trkpt lat="42.1968557" lon="12.1211732"><ele>405.0</ele><time>2026-04-25T08:37:17.574Z</time></trkpt><trkpt lat="42.1967143" lon="12.121318"><ele>405.0</ele><time>2026-04-25T08:37:18.575Z</time></trkpt><trkpt lat="42.1965844" lon="12.1214859"><ele>405.0</ele><time>2026-04-25T08:37:19.574Z</time></trkpt><trkpt lat="42.1964686" lon="12.1216759"><ele>405.0</ele><time>2026-04-25T08:37:20.574Z</time></trkpt><trkpt lat="42.1963658" lon="12.121884"><ele>406.33333333333337</ele><time>2026-04-25T08:37:21.574Z</time></trkpt><trkpt lat="42.1962768" lon="12.122108"><ele>407.6666666666667</ele><time>2026-04-25T08:37:22.574Z</time></trkpt><trkpt lat="42.1961993" lon="12.1223427"><ele>409.0</ele><time>2026-04-25T08:37:23.574Z</time></trkpt><trkpt lat="42.1961336" lon="12.1225873"><ele>406.33333333333337</ele><time>2026-04-25T08:37:24.574Z</time></trkpt><trkpt lat="42.1960817" lon="12.1228356"><ele>403.66666666666663</ele><time>2026-04-25T08:37:25.574Z</time></trkpt><trkpt lat="42.196036" lon="12.1230887"><ele>401.0</ele><time>2026-04-25T08:37:26.574Z</time></trkpt><trkpt lat="42.1959952" lon="12.1233412"><ele>401.0</ele><time>2026-04-25T08:37:27.574Z</time></trkpt><trkpt lat="42.1959516" lon="12.1235923"><ele>401.0</ele><time>2026-04-25T08:37:28.575Z</time></trkpt><trkpt lat="42.195909" lon="12.1238402"><ele>401.0</ele><time>2026-04-25T08:37:29.574Z</time></trkpt><trkpt lat="42.1958696" lon="12.1240875"><ele>401.0</ele><time>2026-04-25T08:37:30.574Z</time></trkpt><trkpt lat="42.1958333" lon="12.1243358"><ele>401.0</ele><time>2026-04-25T08:37:31.574Z</time></trkpt><trkpt lat="42.1957944" lon="12.1245796"><ele>401.0</ele><time>2026-04-25T08:37:32.574Z</time></trkpt><trkpt lat="42.1957556" lon="12.1248204"><ele>402.0</ele><time>2026-04-25T08:37:33.574Z</time></trkpt><trkpt lat="42.195719" lon="12.1250604"><ele>403.0</ele><time>2026-04-25T08:37:34.575Z</time></trkpt><trkpt lat="42.1956838" lon="12.1252957"><ele>404.0</ele><time>2026-04-25T08:37:35.574Z</time></trkpt><trkpt lat="42.1956501" lon="12.1255142"><ele>408.66666666666663</ele><time>2026-04-25T08:37:36.574Z</time></trkpt><trkpt lat="42.1956164" lon="12.125733"><ele>413.33333333333337</ele><time>2026-04-25T08:37:37.574Z</time></trkpt><trkpt lat="42.195583" lon="12.1259563"><ele>418.0</ele><time>2026-04-25T08:37:38.574Z</time></trkpt><trkpt lat="42.1955482" lon="12.126186"><ele>418.0</ele><time>2026-04-25T08:37:39.574Z</time></trkpt><trkpt lat="42.1955128" lon="12.1264219"><ele>418.0</ele><time>2026-04-25T08:37:40.574Z</time></trkpt><trkpt lat="42.1954769" lon="12.1266648"><ele>418.0</ele><time>2026-04-25T08:37:41.574Z</time></trkpt><trkpt lat="42.1954386" lon="12.1269109"><ele>419.0</ele><time>2026-04-25T08:37:42.574Z</time></trkpt><trkpt lat="42.1953977" lon="12.1271627"><ele>420.0</ele><time>2026-04-25T08:37:43.574Z</time></trkpt><trkpt lat="42.1953568" lon="12.1274113"><ele>421.0</ele><time>2026-04-25T08:37:44.574Z</time></trkpt><trkpt lat="42.1953202" lon="12.1276569"><ele>421.0</ele><time>2026-04-25T08:37:45.575Z</time></trkpt><trkpt lat="42.1952845" lon="12.1279025"><ele>421.0</ele><time>2026-04-25T08:37:46.574Z</time></trkpt><trkpt lat="42.1952487" lon="12.1281523"><ele>421.0</ele><time>2026-04-25T08:37:47.574Z</time></trkpt><trkpt lat="42.1952095" lon="12.1283986"><ele>419.0</ele><time>2026-04-25T08:37:48.574Z</time></trkpt><trkpt lat="42.1951717" lon="12.1286453"><ele>417.0</ele><time>2026-04-25T08:37:49.574Z</time></trkpt><trkpt lat="42.1951365" lon="12.1288792"><ele>415.0</ele><time>2026-04-25T08:37:50.574Z</time></trkpt><trkpt lat="42.1951011" lon="12.1291047"><ele>412.33333333333337</ele><time>2026-04-25T08:37:51.574Z</time></trkpt><trkpt lat="42.1950658" lon="12.1293422"><ele>409.66666666666663</ele><time>2026-04-25T08:37:52.574Z</time></trkpt><trkpt lat="42.1950354" lon="12.1295816"><ele>407.0</ele><time>2026-04-25T08:37:53.574Z</time></trkpt><trkpt lat="42.1949857" lon="12.1298146"><ele>406.0</ele><time>2026-04-25T08:37:54.574Z</time></trkpt><trkpt lat="42.1949446" lon="12.1300572"><ele>405.0</ele><time>2026-04-25T08:37:55.574Z</time></trkpt><trkpt lat="42.1948916" lon="12.1302953"><ele>404.0</ele><time>2026-04-25T08:37:56.574Z</time></trkpt><trkpt lat="42.1948305" lon="12.130529"><ele>401.3333333333333</ele><time>2026-04-25T08:37:57.574Z</time></trkpt><trkpt lat="42.1947551" lon="12.1307553"><ele>398.66666666666663</ele><time>2026-04-25T08:37:58.574Z</time></trkpt><trkpt lat="42.1946688" lon="12.130985"><ele>396.0</ele><time>2026-04-25T08:37:59.574Z</time></trkpt><trkpt lat="42.1945661" lon="12.1312016"><ele>396.0</ele><time>2026-04-25T08:38:00.575Z</time></trkpt><trkpt lat="42.1944541" lon="12.131416"><ele>396.0</ele><time>2026-04-25T08:38:01.574Z</time></trkpt><trkpt lat="42.1943337" lon="12.1316258"><ele>396.0</ele><time>2026-04-25T08:38:02.574Z</time></trkpt><trkpt lat="42.1942155" lon="12.1318349"><ele>397.66666666666663</ele><time>2026-04-25T08:38:03.574Z</time></trkpt><trkpt lat="42.1941052" lon="12.1320325"><ele>399.3333333333333</ele><time>2026-04-25T08:38:04.574Z</time></trkpt><trkpt lat="42.193994" lon="12.1322263"><ele>401.0</ele><time>2026-04-25T08:38:05.573Z</time></trkpt><trkpt lat="42.1938863" lon="12.1324122"><ele>401.66666666666663</ele><time>2026-04-25T08:38:06.574Z</time></trkpt><trkpt lat="42.1937834" lon="12.1325901"><ele>402.33333333333337</ele><time>2026-04-25T08:38:07.574Z</time></trkpt><trkpt lat="42.193679" lon="12.1327714"><ele>403.0</ele><time>2026-04-25T08:38:08.574Z</time></trkpt><trkpt lat="42.1935721" lon="12.1329509"><ele>403.0</ele><time>2026-04-25T08:38:09.574Z</time></trkpt><trkpt lat="42.193468" lon="12.1331299"><ele>403.0</ele><time>2026-04-25T08:38:10.574Z</time></trkpt><trkpt lat="42.1933637" lon="12.1333093"><ele>403.0</ele><time>2026-04-25T08:38:11.574Z</time></trkpt><trkpt lat="42.1932616" lon="12.1334877"><ele>399.6666666666667</ele><time>2026-04-25T08:38:12.574Z</time></trkpt><trkpt lat="42.1931551" lon="12.1336697"><ele>396.33333333333337</ele><time>2026-04-25T08:38:13.574Z</time></trkpt><trkpt lat="42.1930474" lon="12.1338552"><ele>393.0</ele><time>2026-04-25T08:38:14.574Z</time></trkpt><trkpt lat="42.1929397" lon="12.1340474"><ele>394.33333333333337</ele><time>2026-04-25T08:38:15.574Z</time></trkpt><trkpt lat="42.1928286" lon="12.1342371"><ele>395.6666666666667</ele><time>2026-04-25T08:38:16.574Z</time></trkpt><trkpt lat="42.1927218" lon="12.134416"><ele>397.0</ele><time>2026-04-25T08:38:17.574Z</time></trkpt><trkpt lat="42.192606" lon="12.1345944"><ele>397.0</ele><time>2026-04-25T08:38:18.574Z</time></trkpt><trkpt lat="42.1924817" lon="12.1347612"><ele>397.0</ele><time>2026-04-25T08:38:19.574Z</time></trkpt><trkpt lat="42.1923455" lon="12.13492"><ele>397.0</ele><time>2026-04-25T08:38:20.574Z</time></trkpt><trkpt lat="42.1921955" lon="12.1350663"><ele>397.0</ele><time>2026-04-25T08:38:21.574Z</time></trkpt><trkpt lat="42.1920339" lon="12.1352022"><ele>397.0</ele><time>2026-04-25T08:38:22.574Z</time></trkpt><trkpt lat="42.1918655" lon="12.1353246"><ele>397.0</ele><time>2026-04-25T08:38:23.574Z</time></trkpt><trkpt lat="42.1916912" lon="12.135438"><ele>397.0</ele><time>2026-04-25T08:38:24.574Z</time></trkpt><trkpt lat="42.1915154" lon="12.1355443"><ele>397.0</ele><time>2026-04-25T08:38:25.574Z</time></trkpt><trkpt lat="42.1913367" lon="12.1356464"><ele>397.0</ele><time>2026-04-25T08:38:26.574Z</time></trkpt><trkpt lat="42.1911578" lon="12.135745"><ele>397.33333333333337</ele><time>2026-04-25T08:38:27.574Z</time></trkpt><trkpt lat="42.1909815" lon="12.135841"><ele>397.66666666666663</ele><time>2026-04-25T08:38:28.574Z</time></trkpt><trkpt lat="42.1908088" lon="12.1359365"><ele>398.0</ele><time>2026-04-25T08:38:29.574Z</time></trkpt><trkpt lat="42.1906388" lon="12.136032"><ele>398.66666666666663</ele><time>2026-04-25T08:38:30.574Z</time></trkpt><trkpt lat="42.1904704" lon="12.1361274"><ele>399.33333333333337</ele><time>2026-04-25T08:38:31.574Z</time></trkpt><trkpt lat="42.1903028" lon="12.1362207"><ele>400.0</ele><time>2026-04-25T08:38:32.574Z</time></trkpt><trkpt lat="42.1901367" lon="12.1363147"><ele>400.0</ele><time>2026-04-25T08:38:33.574Z</time></trkpt><trkpt lat="42.1899687" lon="12.1364087"><ele>400.0</ele><time>2026-04-25T08:38:34.574Z</time></trkpt><trkpt lat="42.189797" lon="12.1365028"><ele>400.0</ele><time>2026-04-25T08:38:35.574Z</time></trkpt><trkpt lat="42.1896258" lon="12.136595"><ele>400.0</ele><time>2026-04-25T08:38:36.574Z</time></trkpt><trkpt lat="42.1894596" lon="12.1366855"><ele>400.0</ele><time>2026-04-25T08:38:37.574Z</time></trkpt><trkpt lat="42.1892958" lon="12.1367755"><ele>400.0</ele><time>2026-04-25T08:38:38.574Z</time></trkpt><trkpt lat="42.1891331" lon="12.1368653"><ele>400.33333333333337</ele><time>2026-04-25T08:38:39.574Z</time></trkpt><trkpt lat="42.1889706" lon="12.1369546"><ele>400.66666666666663</ele><time>2026-04-25T08:38:40.574Z</time></trkpt><trkpt lat="42.1888124" lon="12.1370426"><ele>401.0</ele><time>2026-04-25T08:38:41.574Z</time></trkpt><trkpt lat="42.1886647" lon="12.1371247"><ele>401.0</ele><time>2026-04-25T08:38:42.574Z</time></trkpt><trkpt lat="42.1885192" lon="12.1372016"><ele>401.0</ele><time>2026-04-25T08:38:43.574Z</time></trkpt><trkpt lat="42.1883771" lon="12.1372746"><ele>401.0</ele><time>2026-04-25T08:38:44.574Z</time></trkpt><trkpt lat="42.1882426" lon="12.1373369"><ele>401.5</ele><time>2026-04-25T08:38:45.574Z</time></trkpt><trkpt lat="42.1881127" lon="12.1373876"><ele>402.0</ele><time>2026-04-25T08:38:46.573Z</time></trkpt><trkpt lat="42.1879908" lon="12.1374285"><ele>402.5</ele><time>2026-04-25T08:38:47.574Z</time></trkpt><trkpt lat="42.1878714" lon="12.1374626"><ele>403.0</ele><time>2026-04-25T08:38:48.574Z</time></trkpt><trkpt lat="42.1877541" lon="12.1374875"><ele>403.0</ele><time>2026-04-25T08:38:49.574Z</time></trkpt><trkpt lat="42.187634" lon="12.1375054"><ele>403.0</ele><time>2026-04-25T08:38:50.574Z</time></trkpt><trkpt lat="42.1875229" lon="12.1375161"><ele>403.0</ele><time>2026-04-25T08:38:51.574Z</time></trkpt><trkpt lat="42.1874186" lon="12.1375186"><ele>403.0</ele><time>2026-04-25T08:38:52.574Z</time></trkpt><trkpt lat="42.187321" lon="12.1375131"><ele>403.0</ele><time>2026-04-25T08:38:53.575Z</time></trkpt><trkpt lat="42.1872211" lon="12.1375046"><ele>404.0</ele><time>2026-04-25T08:38:54.574Z</time></trkpt><trkpt lat="42.1871184" lon="12.1374887"><ele>405.0</ele><time>2026-04-25T08:38:55.574Z</time></trkpt><trkpt lat="42.1870196" lon="12.1374708"><ele>406.0</ele><time>2026-04-25T08:38:56.574Z</time></trkpt><trkpt lat="42.1869209" lon="12.1374485"><ele>407.0</ele><time>2026-04-25T08:38:57.574Z</time></trkpt><trkpt lat="42.1868166" lon="12.13742"><ele>408.0</ele><time>2026-04-25T08:38:58.574Z</time></trkpt><trkpt lat="42.1867087" lon="12.137388"><ele>407.0</ele><time>2026-04-25T08:38:59.574Z</time></trkpt><trkpt lat="42.1865877" lon="12.1373516"><ele>406.0</ele><time>2026-04-25T08:39:00.574Z</time></trkpt><trkpt lat="42.1864498" lon="12.1373094"><ele>405.0</ele><time>2026-04-25T08:39:01.574Z</time></trkpt><trkpt lat="42.1863111" lon="12.1372665"><ele>404.0</ele><time>2026-04-25T08:39:02.574Z</time></trkpt><trkpt lat="42.1861672" lon="12.1372228"><ele>404.0</ele><time>2026-04-25T08:39:03.574Z</time></trkpt><trkpt lat="42.1860194" lon="12.1371812"><ele>404.0</ele><time>2026-04-25T08:39:04.574Z</time></trkpt><trkpt lat="42.1858589" lon="12.1371465"><ele>404.0</ele><time>2026-04-25T08:39:05.574Z</time></trkpt><trkpt lat="42.1856796" lon="12.1371121"><ele>405.3333333333333</ele><time>2026-04-25T08:39:06.574Z</time></trkpt><trkpt lat="42.1854819" lon="12.137081"><ele>406.66666666666663</ele><time>2026-04-25T08:39:07.574Z</time></trkpt><trkpt lat="42.1852883" lon="12.1370623"><ele>408.0</ele><time>2026-04-25T08:39:08.574Z</time></trkpt><trkpt lat="42.1850923" lon="12.1370551"><ele>408.0</ele><time>2026-04-25T08:39:09.574Z</time></trkpt><trkpt lat="42.1848882" lon="12.1370557"><ele>408.0</ele><time>2026-04-25T08:39:10.574Z</time></trkpt><trkpt lat="42.1846752" lon="12.1370571"><ele>408.0</ele><time>2026-04-25T08:39:11.574Z</time></trkpt><trkpt lat="42.1844681" lon="12.1370615"><ele>407.0</ele><time>2026-04-25T08:39:12.574Z</time></trkpt><trkpt lat="42.1842686" lon="12.1370662"><ele>406.0</ele><time>2026-04-25T08:39:13.574Z</time></trkpt><trkpt lat="42.1840788" lon="12.1370692"><ele>405.0</ele><time>2026-04-25T08:39:14.574Z</time></trkpt><trkpt lat="42.1838877" lon="12.1370733"><ele>404.66666666666663</ele><time>2026-04-25T08:39:15.574Z</time></trkpt><trkpt lat="42.1837005" lon="12.1370757"><ele>404.3333333333333</ele><time>2026-04-25T08:39:16.574Z</time></trkpt><trkpt lat="42.1835156" lon="12.1370781"><ele>404.0</ele><time>2026-04-25T08:39:17.574Z</time></trkpt><trkpt lat="42.1833275" lon="12.1370829"><ele>403.66666666666663</ele><time>2026-04-25T08:39:18.574Z</time></trkpt><trkpt lat="42.1831394" lon="12.1370866"><ele>403.33333333333337</ele><time>2026-04-25T08:39:19.575Z</time></trkpt><trkpt lat="42.1829499" lon="12.1370872"><ele>403.0</ele><time>2026-04-25T08:39:20.574Z</time></trkpt><trkpt lat="42.182761" lon="12.1370865"><ele>403.0</ele><time>2026-04-25T08:39:21.575Z</time></trkpt><trkpt lat="42.1825727" lon="12.1370875"><ele>403.0</ele><time>2026-04-25T08:39:22.574Z</time></trkpt><trkpt lat="42.1823886" lon="12.1370908"><ele>403.0</ele><time>2026-04-25T08:39:23.574Z</time></trkpt><trkpt lat="42.1822069" lon="12.1370928"><ele>402.33333333333337</ele><time>2026-04-25T08:39:24.574Z</time></trkpt><trkpt lat="42.1820257" lon="12.1370944"><ele>401.66666666666663</ele><time>2026-04-25T08:39:25.574Z</time></trkpt><trkpt lat="42.1818437" lon="12.1370997"><ele>401.0</ele><time>2026-04-25T08:39:26.574Z</time></trkpt><trkpt lat="42.1816634" lon="12.1371017"><ele>401.3333333333333</ele><time>2026-04-25T08:39:27.574Z</time></trkpt><trkpt lat="42.1814817" lon="12.1371041"><ele>401.66666666666663</ele><time>2026-04-25T08:39:28.574Z</time></trkpt><trkpt lat="42.1813036" lon="12.1371054"><ele>402.0</ele><time>2026-04-25T08:39:29.574Z</time></trkpt><trkpt lat="42.1811283" lon="12.1371062"><ele>402.0</ele><time>2026-04-25T08:39:30.574Z</time></trkpt><trkpt lat="42.1809556" lon="12.1371058"><ele>402.0</ele><time>2026-04-25T08:39:31.575Z</time></trkpt><trkpt lat="42.1807815" lon="12.1371107"><ele>402.0</ele><time>2026-04-25T08:39:32.574Z</time></trkpt><trkpt lat="42.1806094" lon="12.1371138"><ele>402.66666666666663</ele><time>2026-04-25T08:39:33.574Z</time></trkpt><trkpt lat="42.1804363" lon="12.1371199"><ele>403.3333333333333</ele><time>2026-04-25T08:39:34.575Z</time></trkpt><trkpt lat="42.1802675" lon="12.1371233"><ele>404.0</ele><time>2026-04-25T08:39:35.574Z</time></trkpt><trkpt lat="42.1801001" lon="12.1371244"><ele>404.0</ele><time>2026-04-25T08:39:36.574Z</time></trkpt><trkpt lat="42.1799329" lon="12.1371276"><ele>404.0</ele><time>2026-04-25T08:39:37.574Z</time></trkpt><trkpt lat="42.1797618" lon="12.1371304"><ele>404.0</ele><time>2026-04-25T08:39:38.574Z</time></trkpt><trkpt lat="42.1795864" lon="12.1371317"><ele>404.66666666666663</ele><time>2026-04-25T08:39:39.574Z</time></trkpt><trkpt lat="42.1794072" lon="12.1371355"><ele>405.33333333333337</ele><time>2026-04-25T08:39:40.574Z</time></trkpt><trkpt lat="42.1792244" lon="12.1371382"><ele>406.0</ele><time>2026-04-25T08:39:41.574Z</time></trkpt><trkpt lat="42.1790363" lon="12.1371412"><ele>406.33333333333337</ele><time>2026-04-25T08:39:42.574Z</time></trkpt><trkpt lat="42.1788439" lon="12.1371456"><ele>406.66666666666663</ele><time>2026-04-25T08:39:43.574Z</time></trkpt><trkpt lat="42.1786524" lon="12.1371491"><ele>407.0</ele><time>2026-04-25T08:39:44.574Z</time></trkpt><trkpt lat="42.1784618" lon="12.1371479"><ele>407.0</ele><time>2026-04-25T08:39:45.575Z</time></trkpt><trkpt lat="42.1782651" lon="12.1371504"><ele>407.0</ele><time>2026-04-25T08:39:46.574Z</time></trkpt><trkpt lat="42.1780673" lon="12.137154"><ele>407.0</ele><time>2026-04-25T08:39:47.574Z</time></trkpt><trkpt lat="42.177871" lon="12.1371564"><ele>406.66666666666663</ele><time>2026-04-25T08:39:48.574Z</time></trkpt><trkpt lat="42.1776736" lon="12.1371614"><ele>406.33333333333337</ele><time>2026-04-25T08:39:49.574Z</time></trkpt><trkpt lat="42.1774754" lon="12.1371616"><ele>406.0</ele><time>2026-04-25T08:39:50.574Z</time></trkpt><trkpt lat="42.177276" lon="12.1371604"><ele>406.6666666666667</ele><time>2026-04-25T08:39:51.574Z</time></trkpt><trkpt lat="42.1770751" lon="12.137162"><ele>407.33333333333337</ele><time>2026-04-25T08:39:52.574Z</time></trkpt><trkpt lat="42.1768746" lon="12.1371667"><ele>408.0</ele><time>2026-04-25T08:39:53.574Z</time></trkpt><trkpt lat="42.1766723" lon="12.1371706"><ele>407.66666666666663</ele><time>2026-04-25T08:39:54.574Z</time></trkpt><trkpt lat="42.1764717" lon="12.1371725"><ele>407.3333333333333</ele><time>2026-04-25T08:39:55.574Z</time></trkpt><trkpt lat="42.1762719" lon="12.1371732"><ele>407.0</ele><time>2026-04-25T08:39:56.574Z</time></trkpt><trkpt lat="42.1760737" lon="12.1371748"><ele>407.0</ele><time>2026-04-25T08:39:57.575Z</time></trkpt><trkpt lat="42.1758768" lon="12.1371764"><ele>407.0</ele><time>2026-04-25T08:39:58.574Z</time></trkpt><trkpt lat="42.1756829" lon="12.1371805"><ele>407.0</ele><time>2026-04-25T08:39:59.574Z</time></trkpt><trkpt lat="42.1754926" lon="12.1371844"><ele>407.3333333333333</ele><time>2026-04-25T08:40:00.574Z</time></trkpt><trkpt lat="42.1753063" lon="12.1371874"><ele>407.66666666666663</ele><time>2026-04-25T08:40:01.574Z</time></trkpt><trkpt lat="42.1751195" lon="12.1371922"><ele>408.0</ele><time>2026-04-25T08:40:02.575Z</time></trkpt><trkpt lat="42.1749327" lon="12.1371966"><ele>408.66666666666663</ele><time>2026-04-25T08:40:03.574Z</time></trkpt><trkpt lat="42.1747446" lon="12.1372001"><ele>409.3333333333333</ele><time>2026-04-25T08:40:04.574Z</time></trkpt><trkpt lat="42.1745568" lon="12.1372017"><ele>410.0</ele><time>2026-04-25T08:40:05.574Z</time></trkpt><trkpt lat="42.1743649" lon="12.1372048"><ele>410.0</ele><time>2026-04-25T08:40:06.575Z</time></trkpt><trkpt lat="42.1741704" lon="12.1372074"><ele>410.0</ele><time>2026-04-25T08:40:07.574Z</time></trkpt><trkpt lat="42.1739768" lon="12.1372067"><ele>410.0</ele><time>2026-04-25T08:40:08.574Z</time></trkpt><trkpt lat="42.1737831" lon="12.1372079"><ele>409.0</ele><time>2026-04-25T08:40:09.574Z</time></trkpt><trkpt lat="42.1735873" lon="12.1372096"><ele>408.0</ele><time>2026-04-25T08:40:10.574Z</time></trkpt><trkpt lat="42.1733938" lon="12.1372101"><ele>407.0</ele><time>2026-04-25T08:40:11.574Z</time></trkpt><trkpt lat="42.1732065" lon="12.1372155"><ele>407.0</ele><time>2026-04-25T08:40:12.574Z</time></trkpt><trkpt lat="42.1730201" lon="12.1372235"><ele>407.0</ele><time>2026-04-25T08:40:13.574Z</time></trkpt><trkpt lat="42.1728401" lon="12.1372266"><ele>407.0</ele><time>2026-04-25T08:40:14.574Z</time></trkpt><trkpt lat="42.1726614" lon="12.1372267"><ele>407.0</ele><time>2026-04-25T08:40:15.575Z</time></trkpt><trkpt lat="42.1724839" lon="12.1372279"><ele>407.0</ele><time>2026-04-25T08:40:16.574Z</time></trkpt><trkpt lat="42.172305" lon="12.137228"><ele>407.0</ele><time>2026-04-25T08:40:17.574Z</time></trkpt><trkpt lat="42.1721244" lon="12.1372299"><ele>407.3333333333333</ele><time>2026-04-25T08:40:18.574Z</time></trkpt><trkpt lat="42.1719412" lon="12.1372309"><ele>407.66666666666663</ele><time>2026-04-25T08:40:19.574Z</time></trkpt><trkpt lat="42.1717549" lon="12.1372342"><ele>408.0</ele><time>2026-04-25T08:40:20.574Z</time></trkpt><trkpt lat="42.1715657" lon="12.137239"><ele>408.33333333333337</ele><time>2026-04-25T08:40:21.574Z</time></trkpt><trkpt lat="42.1713747" lon="12.1372418"><ele>408.6666666666667</ele><time>2026-04-25T08:40:22.574Z</time></trkpt><trkpt lat="42.1711825" lon="12.1372436"><ele>409.0</ele><time>2026-04-25T08:40:23.574Z</time></trkpt><trkpt lat="42.170996" lon="12.1372464"><ele>409.0</ele><time>2026-04-25T08:40:24.574Z</time></trkpt><trkpt lat="42.170821" lon="12.1372498"><ele>409.0</ele><time>2026-04-25T08:40:25.574Z</time></trkpt><trkpt lat="42.1706546" lon="12.1372546"><ele>409.0</ele><time>2026-04-25T08:40:26.574Z</time></trkpt><trkpt lat="42.170498" lon="12.1372591"><ele>409.6666666666667</ele><time>2026-04-25T08:40:27.574Z</time></trkpt><trkpt lat="42.170336" lon="12.1372602"><ele>410.33333333333337</ele><time>2026-04-25T08:40:28.574Z</time></trkpt><trkpt lat="42.1701697" lon="12.1372637"><ele>411.0</ele><time>2026-04-25T08:40:29.574Z</time></trkpt><trkpt lat="42.1700034" lon="12.1372745"><ele>411.66666666666663</ele><time>2026-04-25T08:40:30.574Z</time></trkpt><trkpt lat="42.1698414" lon="12.137293"><ele>412.3333333333333</ele><time>2026-04-25T08:40:31.573Z</time></trkpt><trkpt lat="42.1696836" lon="12.1373169"><ele>413.0</ele><time>2026-04-25T08:40:32.573Z</time></trkpt><trkpt lat="42.1695245" lon="12.1373416"><ele>413.0</ele><time>2026-04-25T08:40:33.573Z</time></trkpt><trkpt lat="42.1693726" lon="12.1373657"><ele>413.0</ele><time>2026-04-25T08:40:34.573Z</time></trkpt><trkpt lat="42.1692276" lon="12.1373909"><ele>413.0</ele><time>2026-04-25T08:40:35.573Z</time></trkpt><trkpt lat="42.1690905" lon="12.1374118"><ele>413.0</ele><time>2026-04-25T08:40:36.573Z</time></trkpt><trkpt lat="42.1689596" lon="12.1374322"><ele>412.0</ele><time>2026-04-25T08:40:37.573Z</time></trkpt><trkpt lat="42.1688313" lon="12.1374529"><ele>411.0</ele><time>2026-04-25T08:40:38.573Z</time></trkpt><trkpt lat="42.1687097" lon="12.1374708"><ele>410.0</ele><time>2026-04-25T08:40:39.573Z</time></trkpt><trkpt lat="42.1685791" lon="12.1374901"><ele>409.0</ele><time>2026-04-25T08:40:40.573Z</time></trkpt><trkpt lat="42.1684436" lon="12.1375087"><ele>409.0</ele><time>2026-04-25T08:40:41.573Z</time></trkpt><trkpt lat="42.1683134" lon="12.1375278"><ele>409.0</ele><time>2026-04-25T08:40:42.573Z</time></trkpt><trkpt lat="42.1681895" lon="12.1375483"><ele>409.0</ele><time>2026-04-25T08:40:43.573Z</time></trkpt><trkpt lat="42.1680695" lon="12.1375671"><ele>409.0</ele><time>2026-04-25T08:40:44.574Z</time></trkpt><trkpt lat="42.1679552" lon="12.1375815"><ele>408.75</ele><time>2026-04-25T08:40:45.573Z</time></trkpt><trkpt lat="42.1678379" lon="12.1376015"><ele>408.5</ele><time>2026-04-25T08:40:46.573Z</time></trkpt><trkpt lat="42.167725" lon="12.1376222"><ele>408.25</ele><time>2026-04-25T08:40:47.573Z</time></trkpt><trkpt lat="42.1676152" lon="12.1376418"><ele>408.0</ele><time>2026-04-25T08:40:48.573Z</time></trkpt><trkpt lat="42.1675067" lon="12.13766"><ele>408.0</ele><time>2026-04-25T08:40:49.573Z</time></trkpt><trkpt lat="42.1674043" lon="12.1376755"><ele>408.0</ele><time>2026-04-25T08:40:50.573Z</time></trkpt><trkpt lat="42.1673059" lon="12.1376929"><ele>408.0</ele><time>2026-04-25T08:40:51.573Z</time></trkpt><trkpt lat="42.1672053" lon="12.1377103"><ele>408.0</ele><time>2026-04-25T08:40:52.573Z</time></trkpt><trkpt lat="42.1671008" lon="12.1377273"><ele>408.0</ele><time>2026-04-25T08:40:53.573Z</time></trkpt><trkpt lat="42.1669995" lon="12.1377444"><ele>407.75</ele><time>2026-04-25T08:40:54.573Z</time></trkpt><trkpt lat="42.1668911" lon="12.1377615"><ele>407.5</ele><time>2026-04-25T08:40:55.573Z</time></trkpt><trkpt lat="42.1667782" lon="12.1377774"><ele>407.25</ele><time>2026-04-25T08:40:56.574Z</time></trkpt><trkpt lat="42.1666636" lon="12.1377973"><ele>407.0</ele><time>2026-04-25T08:40:57.573Z</time></trkpt><trkpt lat="42.1665499" lon="12.1378202"><ele>406.75</ele><time>2026-04-25T08:40:58.573Z</time></trkpt><trkpt lat="42.1664323" lon="12.1378443"><ele>406.5</ele><time>2026-04-25T08:40:59.573Z</time></trkpt><trkpt lat="42.1663102" lon="12.1378637"><ele>406.25</ele><time>2026-04-25T08:41:00.573Z</time></trkpt><trkpt lat="42.1661885" lon="12.1378839"><ele>406.0</ele><time>2026-04-25T08:41:01.574Z</time></trkpt><trkpt lat="42.1660758" lon="12.1378988"><ele>406.0</ele><time>2026-04-25T08:41:02.573Z</time></trkpt><trkpt lat="42.1659665" lon="12.1379149"><ele>406.0</ele><time>2026-04-25T08:41:03.573Z</time></trkpt><trkpt lat="42.1658525" lon="12.1379341"><ele>406.0</ele><time>2026-04-25T08:41:04.573Z</time></trkpt><trkpt lat="42.165747" lon="12.1379516"><ele>406.0</ele><time>2026-04-25T08:41:05.573Z</time></trkpt><trkpt lat="42.165646" lon="12.1379685"><ele>406.0</ele><time>2026-04-25T08:41:06.573Z</time></trkpt><trkpt lat="42.1655492" lon="12.1379831"><ele>405.6</ele><time>2026-04-25T08:41:07.573Z</time></trkpt><trkpt lat="42.1654563" lon="12.1379932"><ele>405.20000000000005</ele><time>2026-04-25T08:41:08.574Z</time></trkpt><trkpt lat="42.1653678" lon="12.138006"><ele>404.79999999999995</ele><time>2026-04-25T08:41:09.573Z</time></trkpt><trkpt lat="42.1652733" lon="12.1380237"><ele>404.4</ele><time>2026-04-25T08:41:10.573Z</time></trkpt><trkpt lat="42.1651779" lon="12.1380407"><ele>404.0</ele><time>2026-04-25T08:41:11.573Z</time></trkpt><trkpt lat="42.1650895" lon="12.1380578"><ele>403.99999999999994</ele><time>2026-04-25T08:41:12.574Z</time></trkpt><trkpt lat="42.1650063" lon="12.1380717"><ele>404.0</ele><time>2026-04-25T08:41:13.573Z</time></trkpt><trkpt lat="42.1649283" lon="12.1380859"><ele>404.0</ele><time>2026-04-25T08:41:14.573Z</time></trkpt><trkpt lat="42.1648561" lon="12.1380975"><ele>404.0</ele><time>2026-04-25T08:41:15.572Z</time></trkpt><trkpt lat="42.1647671" lon="12.1381129"><ele>403.99999999999994</ele><time>2026-04-25T08:41:17.573Z</time></trkpt><trkpt lat="42.1646862" lon="12.138126"><ele>404.0</ele><time>2026-04-25T08:41:21.573Z</time></trkpt><trkpt lat="42.1646228" lon="12.1381572"><ele>404.3333333333333</ele><time>2026-04-25T08:41:23.573Z</time></trkpt><trkpt lat="42.164559" lon="12.1381595"><ele>404.66666666666663</ele><time>2026-04-25T08:41:24.574Z</time></trkpt><trkpt lat="42.1644452" lon="12.1381675"><ele>405.0</ele><time>2026-04-25T08:41:26.573Z</time></trkpt><trkpt lat="42.1643712" lon="12.1381756"><ele>405.33333333333337</ele><time>2026-04-25T08:41:27.574Z</time></trkpt><trkpt lat="42.1643012" lon="12.1381845"><ele>405.6666666666667</ele><time>2026-04-25T08:41:28.573Z</time></trkpt><trkpt lat="42.1642361" lon="12.1381907"><ele>406.0</ele><time>2026-04-25T08:41:29.574Z</time></trkpt><trkpt lat="42.1641734" lon="12.1381991"><ele>406.00000000000006</ele><time>2026-04-25T08:41:30.573Z</time></trkpt><trkpt lat="42.1641051" lon="12.1382083"><ele>406.0</ele><time>2026-04-25T08:41:31.573Z</time></trkpt><trkpt lat="42.164034" lon="12.1382188"><ele>406.0</ele><time>2026-04-25T08:41:32.573Z</time></trkpt><trkpt lat="42.1639599" lon="12.1382299"><ele>406.0</ele><time>2026-04-25T08:41:33.573Z</time></trkpt><trkpt lat="42.1638818" lon="12.1382398"><ele>406.00000000000006</ele><time>2026-04-25T08:41:34.573Z</time></trkpt><trkpt lat="42.1638023" lon="12.138251"><ele>406.0</ele><time>2026-04-25T08:41:35.573Z</time></trkpt><trkpt lat="42.1637184" lon="12.1382667"><ele>406.4</ele><time>2026-04-25T08:41:36.573Z</time></trkpt><trkpt lat="42.1636313" lon="12.138279"><ele>406.8</ele><time>2026-04-25T08:41:37.573Z</time></trkpt><trkpt lat="42.1635373" lon="12.138297"><ele>407.2</ele><time>2026-04-25T08:41:38.573Z</time></trkpt><trkpt lat="42.1634346" lon="12.1383148"><ele>407.59999999999997</ele><time>2026-04-25T08:41:39.573Z</time></trkpt><trkpt lat="42.163331" lon="12.1383335"><ele>408.0</ele><time>2026-04-25T08:41:40.573Z</time></trkpt><trkpt lat="42.1632325" lon="12.1383504"><ele>409.4</ele><time>2026-04-25T08:41:41.573Z</time></trkpt><trkpt lat="42.1631249" lon="12.1383657"><ele>410.79999999999995</ele><time>2026-04-25T08:41:42.573Z</time></trkpt><trkpt lat="42.1630178" lon="12.1383803"><ele>412.2</ele><time>2026-04-25T08:41:43.573Z</time></trkpt><trkpt lat="42.1629037" lon="12.1383993"><ele>413.6</ele><time>2026-04-25T08:41:44.573Z</time></trkpt><trkpt lat="42.1627858" lon="12.1384169"><ele>415.0</ele><time>2026-04-25T08:41:45.573Z</time></trkpt><trkpt lat="42.162666" lon="12.1384355"><ele>415.0</ele><time>2026-04-25T08:41:46.573Z</time></trkpt><trkpt lat="42.1625441" lon="12.1384553"><ele>415.0</ele><time>2026-04-25T08:41:47.573Z</time></trkpt><trkpt lat="42.1624269" lon="12.1384739"><ele>415.0</ele><time>2026-04-25T08:41:48.573Z</time></trkpt><trkpt lat="42.1623176" lon="12.1384942"><ele>415.0</ele><time>2026-04-25T08:41:49.573Z</time></trkpt><trkpt lat="42.1622029" lon="12.1385111"><ele>415.0</ele><time>2026-04-25T08:41:50.573Z</time></trkpt><trkpt lat="42.1620892" lon="12.1385293"><ele>415.0</ele><time>2026-04-25T08:41:51.573Z</time></trkpt><trkpt lat="42.1619851" lon="12.1385461"><ele>415.0</ele><time>2026-04-25T08:41:52.573Z</time></trkpt><trkpt lat="42.1618894" lon="12.1385582"><ele>415.0</ele><time>2026-04-25T08:41:53.573Z</time></trkpt><trkpt lat="42.1617951" lon="12.1385707"><ele>415.0</ele><time>2026-04-25T08:41:54.573Z</time></trkpt><trkpt lat="42.1616962" lon="12.1385872"><ele>415.00000000000006</ele><time>2026-04-25T08:41:55.573Z</time></trkpt><trkpt lat="42.1616038" lon="12.1386039"><ele>415.0</ele><time>2026-04-25T08:41:56.573Z</time></trkpt><trkpt lat="42.1615179" lon="12.1386172"><ele>415.0</ele><time>2026-04-25T08:41:57.573Z</time></trkpt><trkpt lat="42.1614297" lon="12.1386312"><ele>415.0</ele><time>2026-04-25T08:41:58.573Z</time></trkpt><trkpt lat="42.1613421" lon="12.1386436"><ele>415.00000000000006</ele><time>2026-04-25T08:41:59.573Z</time></trkpt><trkpt lat="42.1612557" lon="12.1386585"><ele>415.0</ele><time>2026-04-25T08:42:00.573Z</time></trkpt><trkpt lat="42.1611722" lon="12.1386753"><ele>415.33333333333337</ele><time>2026-04-25T08:42:01.573Z</time></trkpt><trkpt lat="42.1610853" lon="12.1386915"><ele>415.6666666666667</ele><time>2026-04-25T08:42:02.573Z</time></trkpt><trkpt lat="42.1609929" lon="12.1387042"><ele>416.0</ele><time>2026-04-25T08:42:03.573Z</time></trkpt><trkpt lat="42.1609026" lon="12.138715"><ele>416.33333333333337</ele><time>2026-04-25T08:42:04.573Z</time></trkpt><trkpt lat="42.1608175" lon="12.1387264"><ele>416.6666666666667</ele><time>2026-04-25T08:42:05.573Z</time></trkpt><trkpt lat="42.1607391" lon="12.1387361"><ele>417.0</ele><time>2026-04-25T08:42:06.573Z</time></trkpt><trkpt lat="42.1606631" lon="12.138745"><ele>418.0</ele><time>2026-04-25T08:42:07.573Z</time></trkpt><trkpt lat="42.1605844" lon="12.138752"><ele>419.0</ele><time>2026-04-25T08:42:08.573Z</time></trkpt><trkpt lat="42.1605094" lon="12.1387575"><ele>420.0</ele><time>2026-04-25T08:42:09.574Z</time></trkpt><trkpt lat="42.1604383" lon="12.1387676"><ele>421.0</ele><time>2026-04-25T08:42:10.573Z</time></trkpt><trkpt lat="42.1603668" lon="12.1387723"><ele>422.0</ele><time>2026-04-25T08:42:11.573Z</time></trkpt><trkpt lat="42.1602999" lon="12.1387757"><ele>423.0</ele><time>2026-04-25T08:42:12.573Z</time></trkpt><trkpt lat="42.1602299" lon="12.138774"><ele>424.0</ele><time>2026-04-25T08:42:13.573Z</time></trkpt><trkpt lat="42.1601632" lon="12.1387737"><ele>424.0</ele><time>2026-04-25T08:42:14.574Z</time></trkpt><trkpt lat="42.1600992" lon="12.1387686"><ele>424.0</ele><time>2026-04-25T08:42:15.573Z</time></trkpt><trkpt lat="42.1599802" lon="12.138772"><ele>424.0</ele><time>2026-04-25T08:42:17.573Z</time></trkpt><trkpt lat="42.1598665" lon="12.1387718"><ele>424.0</ele><time>2026-04-25T08:42:19.573Z</time></trkpt><trkpt lat="42.1597484" lon="12.1387801"><ele>424.0</ele><time>2026-04-25T08:42:21.573Z</time></trkpt><trkpt lat="42.159629" lon="12.1387931"><ele>424.4</ele><time>2026-04-25T08:42:23.573Z</time></trkpt><trkpt lat="42.1595137" lon="12.1388215"><ele>424.79999999999995</ele><time>2026-04-25T08:42:25.573Z</time></trkpt><trkpt lat="42.1594095" lon="12.1388565"><ele>425.20000000000005</ele><time>2026-04-25T08:42:27.573Z</time></trkpt><trkpt lat="42.1593166" lon="12.1388754"><ele>425.6</ele><time>2026-04-25T08:42:29.573Z</time></trkpt><trkpt lat="42.1592346" lon="12.1388848"><ele>426.0</ele><time>2026-04-25T08:42:31.573Z</time></trkpt><trkpt lat="42.1591291" lon="12.1388756"><ele>425.99999999999994</ele><time>2026-04-25T08:42:33.573Z</time></trkpt><trkpt lat="42.1590559" lon="12.1388699"><ele>426.0</ele><time>2026-04-25T08:42:34.573Z</time></trkpt><trkpt lat="42.1589746" lon="12.1388648"><ele>426.0</ele><time>2026-04-25T08:42:35.573Z</time></trkpt><trkpt lat="42.1588939" lon="12.1388636"><ele>426.0</ele><time>2026-04-25T08:42:36.573Z</time></trkpt><trkpt lat="42.1588197" lon="12.1388606"><ele>426.0</ele><time>2026-04-25T08:42:37.573Z</time></trkpt><trkpt lat="42.1587493" lon="12.1388585"><ele>425.99999999999994</ele><time>2026-04-25T08:42:38.573Z</time></trkpt><trkpt lat="42.1586824" lon="12.1388573"><ele>426.0</ele><time>2026-04-25T08:42:39.573Z</time></trkpt><trkpt lat="42.1586183" lon="12.1388551"><ele>426.3333333333333</ele><time>2026-04-25T08:42:40.573Z</time></trkpt><trkpt lat="42.1584921" lon="12.1388464"><ele>426.66666666666663</ele><time>2026-04-25T08:42:42.574Z</time></trkpt><trkpt lat="42.1584206" lon="12.1388425"><ele>427.0</ele><time>2026-04-25T08:42:43.573Z</time></trkpt><trkpt lat="42.1583421" lon="12.1388427"><ele>427.3333333333333</ele><time>2026-04-25T08:42:44.573Z</time></trkpt><trkpt lat="42.1582596" lon="12.1388413"><ele>427.66666666666663</ele><time>2026-04-25T08:42:45.573Z</time></trkpt><trkpt lat="42.1581795" lon="12.1388405"><ele>428.0</ele><time>2026-04-25T08:42:46.573Z</time></trkpt><trkpt lat="42.1581006" lon="12.1388369"><ele>428.16666666666663</ele><time>2026-04-25T08:42:47.572Z</time></trkpt><trkpt lat="42.1580178" lon="12.1388385"><ele>428.3333333333333</ele><time>2026-04-25T08:42:48.573Z</time></trkpt><trkpt lat="42.1579316" lon="12.1388413"><ele>428.5</ele><time>2026-04-25T08:42:49.573Z</time></trkpt><trkpt lat="42.1578426" lon="12.1388409"><ele>428.66666666666663</ele><time>2026-04-25T08:42:50.573Z</time></trkpt><trkpt lat="42.1577555" lon="12.1388398"><ele>428.8333333333333</ele><time>2026-04-25T08:42:51.572Z</time></trkpt><trkpt lat="42.1576714" lon="12.1388356"><ele>429.0</ele><time>2026-04-25T08:42:52.573Z</time></trkpt><trkpt lat="42.1575878" lon="12.1388323"><ele>429.0</ele><time>2026-04-25T08:42:53.573Z</time></trkpt><trkpt lat="42.1575035" lon="12.1388309"><ele>429.0</ele><time>2026-04-25T08:42:54.573Z</time></trkpt><trkpt lat="42.1574256" lon="12.1388284"><ele>429.0</ele><time>2026-04-25T08:42:55.573Z</time></trkpt><trkpt lat="42.1573535" lon="12.1388223"><ele>429.0</ele><time>2026-04-25T08:42:56.573Z</time></trkpt><trkpt lat="42.1572905" lon="12.1388136"><ele>429.0</ele><time>2026-04-25T08:42:57.574Z</time></trkpt><trkpt lat="42.1572285" lon="12.1387899"><ele>429.0</ele><time>2026-04-25T08:42:58.573Z</time></trkpt><trkpt lat="42.1571626" lon="12.1387501"><ele>429.0</ele><time>2026-04-25T08:42:59.573Z</time></trkpt><trkpt lat="42.1570896" lon="12.1386913"><ele>428.2</ele><time>2026-04-25T08:43:00.573Z</time></trkpt><trkpt lat="42.1570188" lon="12.1386152"><ele>427.4</ele><time>2026-04-25T08:43:01.573Z</time></trkpt><trkpt lat="42.1569464" lon="12.1385448"><ele>426.6</ele><time>2026-04-25T08:43:02.573Z</time></trkpt><trkpt lat="42.156867" lon="12.138479"><ele>425.8</ele><time>2026-04-25T08:43:03.573Z</time></trkpt><trkpt lat="42.1567862" lon="12.1384248"><ele>425.0</ele><time>2026-04-25T08:43:04.573Z</time></trkpt><trkpt lat="42.1567083" lon="12.1383643"><ele>425.0</ele><time>2026-04-25T08:43:05.573Z</time></trkpt><trkpt lat="42.1566278" lon="12.1383041"><ele>425.0</ele><time>2026-04-25T08:43:06.573Z</time></trkpt><trkpt lat="42.1565447" lon="12.1382472"><ele>425.0</ele><time>2026-04-25T08:43:07.573Z</time></trkpt><trkpt lat="42.1564594" lon="12.1381881"><ele>425.0</ele><time>2026-04-25T08:43:08.573Z</time></trkpt><trkpt lat="42.156377" lon="12.1381287"><ele>425.0</ele><time>2026-04-25T08:43:09.573Z</time></trkpt><trkpt lat="42.1563009" lon="12.1380742"><ele>424.8</ele><time>2026-04-25T08:43:10.573Z</time></trkpt><trkpt lat="42.1562218" lon="12.1380153"><ele>424.6</ele><time>2026-04-25T08:43:11.573Z</time></trkpt><trkpt lat="42.1561399" lon="12.1379538"><ele>424.4</ele><time>2026-04-25T08:43:12.573Z</time></trkpt><trkpt lat="42.156054" lon="12.1378954"><ele>424.2</ele><time>2026-04-25T08:43:13.573Z</time></trkpt><trkpt lat="42.1559678" lon="12.1378382"><ele>424.0</ele><time>2026-04-25T08:43:14.573Z</time></trkpt><trkpt lat="42.1558828" lon="12.137783"><ele>424.00000000000006</ele><time>2026-04-25T08:43:15.573Z</time></trkpt><trkpt lat="42.1558023" lon="12.1377322"><ele>424.0</ele><time>2026-04-25T08:43:16.573Z</time></trkpt><trkpt lat="42.1557252" lon="12.1376835"><ele>424.0</ele><time>2026-04-25T08:43:17.573Z</time></trkpt><trkpt lat="42.155652" lon="12.137634"><ele>424.0</ele><time>2026-04-25T08:43:18.573Z</time></trkpt><trkpt lat="42.1555873" lon="12.1375907"><ele>424.00000000000006</ele><time>2026-04-25T08:43:19.573Z</time></trkpt><trkpt lat="42.1555292" lon="12.1375535"><ele>424.0</ele><time>2026-04-25T08:43:20.573Z</time></trkpt><trkpt lat="42.1554345" lon="12.1374974"><ele>423.1666666666667</ele><time>2026-04-25T08:43:22.573Z</time></trkpt><trkpt lat="42.1553569" lon="12.1374382"><ele>422.33333333333337</ele><time>2026-04-25T08:43:24.573Z</time></trkpt><trkpt lat="42.1552898" lon="12.1373892"><ele>421.5</ele><time>2026-04-25T08:43:26.573Z</time></trkpt><trkpt lat="42.1552227" lon="12.1373487"><ele>420.66666666666663</ele><time>2026-04-25T08:43:28.573Z</time></trkpt><trkpt lat="42.1551628" lon="12.1372922"><ele>419.8333333333333</ele><time>2026-04-25T08:43:43.573Z</time></trkpt><trkpt lat="42.1550745" lon="12.1372258"><ele>419.0</ele><time>2026-04-25T08:43:45.573Z</time></trkpt><trkpt lat="42.1549775" lon="12.1371465"><ele>418.4</ele><time>2026-04-25T08:43:47.573Z</time></trkpt><trkpt lat="42.1548636" lon="12.1370619"><ele>417.79999999999995</ele><time>2026-04-25T08:43:49.573Z</time></trkpt><trkpt lat="42.1548029" lon="12.1370132"><ele>417.20000000000005</ele><time>2026-04-25T08:43:50.572Z</time></trkpt><trkpt lat="42.1547366" lon="12.1369629"><ele>416.6</ele><time>2026-04-25T08:43:51.573Z</time></trkpt><trkpt lat="42.1546628" lon="12.1369077"><ele>416.0</ele><time>2026-04-25T08:43:52.574Z</time></trkpt><trkpt lat="42.1545853" lon="12.13685"><ele>416.0</ele><time>2026-04-25T08:43:53.573Z</time></trkpt><trkpt lat="42.1545112" lon="12.1367901"><ele>416.0</ele><time>2026-04-25T08:43:54.573Z</time></trkpt><trkpt lat="42.1544339" lon="12.136727"><ele>416.0</ele><time>2026-04-25T08:43:55.573Z</time></trkpt><trkpt lat="42.154348" lon="12.1366582"><ele>416.0</ele><time>2026-04-25T08:43:56.573Z</time></trkpt><trkpt lat="42.1542517" lon="12.1365808"><ele>416.0</ele><time>2026-04-25T08:43:57.573Z</time></trkpt><trkpt lat="42.1541479" lon="12.1364983"><ele>415.5</ele><time>2026-04-25T08:43:58.573Z</time></trkpt><trkpt lat="42.1540454" lon="12.1364172"><ele>415.0</ele><time>2026-04-25T08:43:59.573Z</time></trkpt><trkpt lat="42.1539399" lon="12.1363377"><ele>414.5</ele><time>2026-04-25T08:44:00.573Z</time></trkpt><trkpt lat="42.1538404" lon="12.1362555"><ele>414.0</ele><time>2026-04-25T08:44:01.573Z</time></trkpt><trkpt lat="42.1537395" lon="12.1361766"><ele>413.75</ele><time>2026-04-25T08:44:02.573Z</time></trkpt><trkpt lat="42.1536298" lon="12.1360947"><ele>413.5</ele><time>2026-04-25T08:44:03.573Z</time></trkpt><trkpt lat="42.1535191" lon="12.1360131"><ele>413.25</ele><time>2026-04-25T08:44:04.573Z</time></trkpt><trkpt lat="42.1534132" lon="12.1359348"><ele>413.0</ele><time>2026-04-25T08:44:05.573Z</time></trkpt><trkpt lat="42.1533025" lon="12.1358518"><ele>413.0</ele><time>2026-04-25T08:44:06.573Z</time></trkpt><trkpt lat="42.1531893" lon="12.1357665"><ele>413.0</ele><time>2026-04-25T08:44:07.573Z</time></trkpt><trkpt lat="42.153075" lon="12.1356801"><ele>413.0</ele><time>2026-04-25T08:44:08.573Z</time></trkpt><trkpt lat="42.1529597" lon="12.1355892"><ele>413.0</ele><time>2026-04-25T08:44:09.573Z</time></trkpt><trkpt lat="42.1528376" lon="12.1354958"><ele>413.0</ele><time>2026-04-25T08:44:10.573Z</time></trkpt><trkpt lat="42.1527049" lon="12.1353936"><ele>413.0</ele><time>2026-04-25T08:44:11.573Z</time></trkpt><trkpt lat="42.1525579" lon="12.1352823"><ele>413.0</ele><time>2026-04-25T08:44:12.573Z</time></trkpt><trkpt lat="42.1523993" lon="12.1351636"><ele>413.0</ele><time>2026-04-25T08:44:13.573Z</time></trkpt><trkpt lat="42.1522496" lon="12.1350479"><ele>413.0</ele><time>2026-04-25T08:44:14.573Z</time></trkpt><trkpt lat="42.1520986" lon="12.1349288"><ele>413.0</ele><time>2026-04-25T08:44:15.573Z</time></trkpt><trkpt lat="42.1519436" lon="12.134809"><ele>413.3333333333333</ele><time>2026-04-25T08:44:16.573Z</time></trkpt><trkpt lat="42.1517913" lon="12.1346884"><ele>413.66666666666663</ele><time>2026-04-25T08:44:17.573Z</time></trkpt><trkpt lat="42.1516407" lon="12.1345713"><ele>414.0</ele><time>2026-04-25T08:44:18.573Z</time></trkpt><trkpt lat="42.1514911" lon="12.134459"><ele>414.0</ele><time>2026-04-25T08:44:19.573Z</time></trkpt><trkpt lat="42.1513461" lon="12.1343462"><ele>414.0</ele><time>2026-04-25T08:44:20.573Z</time></trkpt><trkpt lat="42.1512032" lon="12.1342396"><ele>414.0</ele><time>2026-04-25T08:44:21.573Z</time></trkpt><trkpt lat="42.1510629" lon="12.134132"><ele>414.0</ele><time>2026-04-25T08:44:22.573Z</time></trkpt><trkpt lat="42.150925" lon="12.1340272"><ele>414.0</ele><time>2026-04-25T08:44:23.573Z</time></trkpt><trkpt lat="42.150783" lon="12.1339274"><ele>414.0</ele><time>2026-04-25T08:44:24.573Z</time></trkpt><trkpt lat="42.1506403" lon="12.1338309"><ele>414.0</ele><time>2026-04-25T08:44:25.574Z</time></trkpt><trkpt lat="42.1504962" lon="12.1337365"><ele>414.0</ele><time>2026-04-25T08:44:26.573Z</time></trkpt><trkpt lat="42.1503503" lon="12.1336408"><ele>414.0</ele><time>2026-04-25T08:44:27.573Z</time></trkpt><trkpt lat="42.1502048" lon="12.1335406"><ele>414.0</ele><time>2026-04-25T08:44:28.573Z</time></trkpt><trkpt lat="42.1500566" lon="12.133442"><ele>414.0</ele><time>2026-04-25T08:44:29.573Z</time></trkpt><trkpt lat="42.1499097" lon="12.1333448"><ele>414.0</ele><time>2026-04-25T08:44:30.573Z</time></trkpt><trkpt lat="42.1497657" lon="12.1332489"><ele>415.0</ele><time>2026-04-25T08:44:31.573Z</time></trkpt><trkpt lat="42.149627" lon="12.1331562"><ele>416.0</ele><time>2026-04-25T08:44:32.573Z</time></trkpt><trkpt lat="42.1494914" lon="12.133064"><ele>417.0</ele><time>2026-04-25T08:44:33.573Z</time></trkpt><trkpt lat="42.1493587" lon="12.1329747"><ele>417.0</ele><time>2026-04-25T08:44:34.574Z</time></trkpt><trkpt lat="42.1492283" lon="12.1328863"><ele>417.0</ele><time>2026-04-25T08:44:35.573Z</time></trkpt><trkpt lat="42.1490976" lon="12.1327911"><ele>417.0</ele><time>2026-04-25T08:44:36.573Z</time></trkpt><trkpt lat="42.1489691" lon="12.1326837"><ele>417.0</ele><time>2026-04-25T08:44:37.573Z</time></trkpt><trkpt lat="42.1488416" lon="12.1325709"><ele>417.0</ele><time>2026-04-25T08:44:38.574Z</time></trkpt><trkpt lat="42.1487172" lon="12.1324535"><ele>417.0</ele><time>2026-04-25T08:44:39.574Z</time></trkpt><trkpt lat="42.1485944" lon="12.1323354"><ele>417.0</ele><time>2026-04-25T08:44:40.574Z</time></trkpt><trkpt lat="42.1484751" lon="12.132229"><ele>417.0</ele><time>2026-04-25T08:44:41.572Z</time></trkpt><trkpt lat="42.1483558" lon="12.1321257"><ele>417.0</ele><time>2026-04-25T08:44:42.573Z</time></trkpt><trkpt lat="42.1482428" lon="12.1320236"><ele>417.0</ele><time>2026-04-25T08:44:43.573Z</time></trkpt><trkpt lat="42.1481329" lon="12.1319285"><ele>417.0</ele><time>2026-04-25T08:44:44.573Z</time></trkpt><trkpt lat="42.1480263" lon="12.1318392"><ele>417.0</ele><time>2026-04-25T08:44:45.573Z</time></trkpt><trkpt lat="42.1479238" lon="12.1317548"><ele>417.25</ele><time>2026-04-25T08:44:46.573Z</time></trkpt><trkpt lat="42.147823" lon="12.1316751"><ele>417.5</ele><time>2026-04-25T08:44:47.572Z</time></trkpt><trkpt lat="42.1477208" lon="12.1315959"><ele>417.75</ele><time>2026-04-25T08:44:48.573Z</time></trkpt><trkpt lat="42.1476168" lon="12.1315178"><ele>418.0</ele><time>2026-04-25T08:44:49.574Z</time></trkpt><trkpt lat="42.1475126" lon="12.1314392"><ele>418.0</ele><time>2026-04-25T08:44:50.573Z</time></trkpt><trkpt lat="42.1474152" lon="12.1313629"><ele>418.0</ele><time>2026-04-25T08:44:51.573Z</time></trkpt><trkpt lat="42.1473281" lon="12.131292"><ele>418.0</ele><time>2026-04-25T08:44:52.574Z</time></trkpt><trkpt lat="42.1472427" lon="12.1312205"><ele>418.0</ele><time>2026-04-25T08:44:53.573Z</time></trkpt><trkpt lat="42.1471624" lon="12.1311474"><ele>418.0</ele><time>2026-04-25T08:44:54.573Z</time></trkpt><trkpt lat="42.1470728" lon="12.1310613"><ele>417.75</ele><time>2026-04-25T08:44:55.573Z</time></trkpt><trkpt lat="42.1469689" lon="12.1309578"><ele>417.5</ele><time>2026-04-25T08:44:56.573Z</time></trkpt><trkpt lat="42.1468468" lon="12.1308398"><ele>417.25</ele><time>2026-04-25T08:44:57.573Z</time></trkpt><trkpt lat="42.1467119" lon="12.1307065"><ele>417.0</ele><time>2026-04-25T08:44:58.573Z</time></trkpt><trkpt lat="42.1465812" lon="12.1305726"><ele>418.66666666666663</ele><time>2026-04-25T08:44:59.573Z</time></trkpt><trkpt lat="42.1464505" lon="12.1304406"><ele>420.3333333333333</ele><time>2026-04-25T08:45:00.573Z</time></trkpt><trkpt lat="42.1463223" lon="12.1303158"><ele>422.0</ele><time>2026-04-25T08:45:01.573Z</time></trkpt><trkpt lat="42.1461822" lon="12.1302121"><ele>422.0</ele><time>2026-04-25T08:45:02.573Z</time></trkpt><trkpt lat="42.1460218" lon="12.1301425"><ele>422.0</ele><time>2026-04-25T08:45:03.573Z</time></trkpt><trkpt lat="42.1458509" lon="12.1301061"><ele>422.0</ele><time>2026-04-25T08:45:04.573Z</time></trkpt><trkpt lat="42.1456796" lon="12.1300898"><ele>424.3333333333333</ele><time>2026-04-25T08:45:05.573Z</time></trkpt><trkpt lat="42.145507" lon="12.1300812"><ele>426.66666666666663</ele><time>2026-04-25T08:45:06.573Z</time></trkpt><trkpt lat="42.1453307" lon="12.1300735"><ele>429.0</ele><time>2026-04-25T08:45:07.573Z</time></trkpt><trkpt lat="42.1451639" lon="12.1300666"><ele>429.0</ele><time>2026-04-25T08:45:08.573Z</time></trkpt><trkpt lat="42.1450095" lon="12.1300532"><ele>429.0</ele><time>2026-04-25T08:45:09.573Z</time></trkpt><trkpt lat="42.144866" lon="12.1300378"><ele>429.0</ele><time>2026-04-25T08:45:10.572Z</time></trkpt><trkpt lat="42.1447449" lon="12.1300223"><ele>429.0</ele><time>2026-04-25T08:45:11.572Z</time></trkpt><trkpt lat="42.144626" lon="12.1300002"><ele>428.6</ele><time>2026-04-25T08:45:12.573Z</time></trkpt><trkpt lat="42.1445164" lon="12.129982"><ele>428.2</ele><time>2026-04-25T08:45:13.573Z</time></trkpt><trkpt lat="42.1444157" lon="12.1299608"><ele>427.80000000000007</ele><time>2026-04-25T08:45:14.573Z</time></trkpt><trkpt lat="42.1443174" lon="12.1299424"><ele>427.40000000000003</ele><time>2026-04-25T08:45:15.573Z</time></trkpt><trkpt lat="42.1442149" lon="12.129928"><ele>427.0</ele><time>2026-04-25T08:45:16.573Z</time></trkpt><trkpt lat="42.1440976" lon="12.1299053"><ele>426.0</ele><time>2026-04-25T08:45:17.573Z</time></trkpt><trkpt lat="42.1439773" lon="12.1298912"><ele>425.0</ele><time>2026-04-25T08:45:18.573Z</time></trkpt><trkpt lat="42.1438546" lon="12.1298747"><ele>424.0</ele><time>2026-04-25T08:45:19.573Z</time></trkpt><trkpt lat="42.1437276" lon="12.1298668"><ele>423.0</ele><time>2026-04-25T08:45:20.572Z</time></trkpt><trkpt lat="42.1436037" lon="12.1298683"><ele>423.0</ele><time>2026-04-25T08:45:21.572Z</time></trkpt><trkpt lat="42.1434762" lon="12.1298786"><ele>423.0</ele><time>2026-04-25T08:45:22.573Z</time></trkpt><trkpt lat="42.1433435" lon="12.1298983"><ele>423.0</ele><time>2026-04-25T08:45:23.573Z</time></trkpt><trkpt lat="42.1432089" lon="12.1299302"><ele>423.0</ele><time>2026-04-25T08:45:24.573Z</time></trkpt><trkpt lat="42.1430695" lon="12.1299719"><ele>421.33333333333337</ele><time>2026-04-25T08:45:25.573Z</time></trkpt><trkpt lat="42.1429274" lon="12.1300151"><ele>419.6666666666667</ele><time>2026-04-25T08:45:26.573Z</time></trkpt><trkpt lat="42.1427799" lon="12.1300651"><ele>418.0</ele><time>2026-04-25T08:45:27.573Z</time></trkpt><trkpt lat="42.142626" lon="12.1301218"><ele>418.0</ele><time>2026-04-25T08:45:28.573Z</time></trkpt><trkpt lat="42.1424821" lon="12.1301727"><ele>418.0</ele><time>2026-04-25T08:45:29.573Z</time></trkpt><trkpt lat="42.142342" lon="12.1302233"><ele>418.0</ele><time>2026-04-25T08:45:30.573Z</time></trkpt><trkpt lat="42.1422081" lon="12.1302711"><ele>418.0</ele><time>2026-04-25T08:45:31.572Z</time></trkpt><trkpt lat="42.1420791" lon="12.1303121"><ele>417.75</ele><time>2026-04-25T08:45:32.573Z</time></trkpt><trkpt lat="42.1419529" lon="12.1303515"><ele>417.5</ele><time>2026-04-25T08:45:33.574Z</time></trkpt><trkpt lat="42.1418344" lon="12.1303725"><ele>417.25</ele><time>2026-04-25T08:45:34.573Z</time></trkpt><trkpt lat="42.1417187" lon="12.1303743"><ele>417.0</ele><time>2026-04-25T08:45:35.573Z</time></trkpt><trkpt lat="42.1416051" lon="12.1303565"><ele>415.75</ele><time>2026-04-25T08:45:36.573Z</time></trkpt><trkpt lat="42.1414912" lon="12.1303152"><ele>414.5</ele><time>2026-04-25T08:45:37.574Z</time></trkpt><trkpt lat="42.1413774" lon="12.1302516"><ele>413.25</ele><time>2026-04-25T08:45:38.573Z</time></trkpt><trkpt lat="42.1412681" lon="12.1301612"><ele>412.0</ele><time>2026-04-25T08:45:39.573Z</time></trkpt><trkpt lat="42.1411708" lon="12.1300537"><ele>412.0</ele><time>2026-04-25T08:45:40.573Z</time></trkpt><trkpt lat="42.1410791" lon="12.1299169"><ele>412.0</ele><time>2026-04-25T08:45:41.573Z</time></trkpt><trkpt lat="42.140987" lon="12.1297608"><ele>412.0</ele><time>2026-04-25T08:45:42.573Z</time></trkpt><trkpt lat="42.1409002" lon="12.1295942"><ele>412.0</ele><time>2026-04-25T08:45:43.573Z</time></trkpt><trkpt lat="42.1408111" lon="12.1294201"><ele>411.6666666666667</ele><time>2026-04-25T08:45:44.573Z</time></trkpt><trkpt lat="42.140715" lon="12.1292408"><ele>411.33333333333337</ele><time>2026-04-25T08:45:45.573Z</time></trkpt><trkpt lat="42.1406195" lon="12.1290707"><ele>411.0</ele><time>2026-04-25T08:45:46.573Z</time></trkpt><trkpt lat="42.1405206" lon="12.1289097"><ele>411.0</ele><time>2026-04-25T08:45:47.573Z</time></trkpt><trkpt lat="42.1404145" lon="12.128771"><ele>411.0</ele><time>2026-04-25T08:45:48.573Z</time></trkpt><trkpt lat="42.1403037" lon="12.1286496"><ele>411.0</ele><time>2026-04-25T08:45:49.573Z</time></trkpt><trkpt lat="42.1401847" lon="12.1285447"><ele>411.0</ele><time>2026-04-25T08:45:50.574Z</time></trkpt><trkpt lat="42.1400572" lon="12.1284569"><ele>411.0</ele><time>2026-04-25T08:45:51.573Z</time></trkpt><trkpt lat="42.1399217" lon="12.1283808"><ele>411.0</ele><time>2026-04-25T08:45:52.572Z</time></trkpt><trkpt lat="42.1397768" lon="12.1283113"><ele>411.0</ele><time>2026-04-25T08:45:53.572Z</time></trkpt><trkpt lat="42.139622" lon="12.1282491"><ele>414.0</ele><time>2026-04-25T08:45:54.571Z</time></trkpt><trkpt lat="42.139461" lon="12.1281877"><ele>417.0</ele><time>2026-04-25T08:45:55.572Z</time></trkpt><trkpt lat="42.1392987" lon="12.1281288"><ele>420.0</ele><time>2026-04-25T08:45:56.572Z</time></trkpt><trkpt lat="42.1391374" lon="12.1280676"><ele>415.0</ele><time>2026-04-25T08:45:57.572Z</time></trkpt><trkpt lat="42.138973" lon="12.1280064"><ele>410.0</ele><time>2026-04-25T08:45:58.572Z</time></trkpt><trkpt lat="42.1388054" lon="12.1279445"><ele>405.0</ele><time>2026-04-25T08:45:59.572Z</time></trkpt><trkpt lat="42.1386415" lon="12.12788"><ele>405.0</ele><time>2026-04-25T08:46:00.571Z</time></trkpt><trkpt lat="42.1384795" lon="12.1278184"><ele>405.0</ele><time>2026-04-25T08:46:01.572Z</time></trkpt><trkpt lat="42.1383244" lon="12.1277614"><ele>405.0</ele><time>2026-04-25T08:46:02.572Z</time></trkpt><trkpt lat="42.1381739" lon="12.1277071"><ele>402.75</ele><time>2026-04-25T08:46:03.572Z</time></trkpt><trkpt lat="42.1380257" lon="12.1276558"><ele>400.5</ele><time>2026-04-25T08:46:04.572Z</time></trkpt><trkpt lat="42.1378812" lon="12.1276045"><ele>398.25</ele><time>2026-04-25T08:46:05.572Z</time></trkpt><trkpt lat="42.1377426" lon="12.1275552"><ele>396.0</ele><time>2026-04-25T08:46:06.572Z</time></trkpt><trkpt lat="42.1376059" lon="12.1275094"><ele>396.0</ele><time>2026-04-25T08:46:07.572Z</time></trkpt><trkpt lat="42.1374721" lon="12.1274686"><ele>396.0</ele><time>2026-04-25T08:46:08.572Z</time></trkpt><trkpt lat="42.1373424" lon="12.1274256"><ele>396.0</ele><time>2026-04-25T08:46:09.572Z</time></trkpt><trkpt lat="42.1371996" lon="12.1273736"><ele>396.0</ele><time>2026-04-25T08:46:10.572Z</time></trkpt><trkpt lat="42.1370523" lon="12.1273166"><ele>397.66666666666663</ele><time>2026-04-25T08:46:11.571Z</time></trkpt><trkpt lat="42.1369018" lon="12.1272576"><ele>399.3333333333333</ele><time>2026-04-25T08:46:12.572Z</time></trkpt><trkpt lat="42.1367546" lon="12.1271991"><ele>401.0</ele><time>2026-04-25T08:46:13.572Z</time></trkpt><trkpt lat="42.1366127" lon="12.1271466"><ele>398.66666666666663</ele><time>2026-04-25T08:46:14.572Z</time></trkpt><trkpt lat="42.136474" lon="12.127093"><ele>396.33333333333337</ele><time>2026-04-25T08:46:15.572Z</time></trkpt><trkpt lat="42.1363278" lon="12.1270379"><ele>394.0</ele><time>2026-04-25T08:46:16.572Z</time></trkpt><trkpt lat="42.1361766" lon="12.1269823"><ele>394.0</ele><time>2026-04-25T08:46:17.572Z</time></trkpt><trkpt lat="42.1360185" lon="12.1269247"><ele>394.0</ele><time>2026-04-25T08:46:18.572Z</time></trkpt><trkpt lat="42.1358539" lon="12.1268648"><ele>394.0</ele><time>2026-04-25T08:46:19.572Z</time></trkpt><trkpt lat="42.1356843" lon="12.1268084"><ele>391.6666666666667</ele><time>2026-04-25T08:46:20.572Z</time></trkpt><trkpt lat="42.1355203" lon="12.1267585"><ele>389.33333333333337</ele><time>2026-04-25T08:46:21.572Z</time></trkpt><trkpt lat="42.1353619" lon="12.1267114"><ele>387.0</ele><time>2026-04-25T08:46:22.572Z</time></trkpt><trkpt lat="42.1352035" lon="12.1266691"><ele>387.0</ele><time>2026-04-25T08:46:23.572Z</time></trkpt><trkpt lat="42.1350524" lon="12.1266291"><ele>387.0</ele><time>2026-04-25T08:46:24.572Z</time></trkpt><trkpt lat="42.1349058" lon="12.1265877"><ele>387.0</ele><time>2026-04-25T08:46:25.572Z</time></trkpt><trkpt lat="42.1347654" lon="12.1265465"><ele>387.0</ele><time>2026-04-25T08:46:26.573Z</time></trkpt><trkpt lat="42.1346281" lon="12.126503"><ele>384.5</ele><time>2026-04-25T08:46:27.572Z</time></trkpt><trkpt lat="42.1344937" lon="12.1264627"><ele>382.0</ele><time>2026-04-25T08:46:28.572Z</time></trkpt><trkpt lat="42.1343639" lon="12.1264212"><ele>379.5</ele><time>2026-04-25T08:46:29.571Z</time></trkpt><trkpt lat="42.1342301" lon="12.1263828"><ele>377.0</ele><time>2026-04-25T08:46:30.572Z</time></trkpt><trkpt lat="42.1340974" lon="12.1263442"><ele>376.25</ele><time>2026-04-25T08:46:31.572Z</time></trkpt><trkpt lat="42.1339665" lon="12.1263148"><ele>375.5</ele><time>2026-04-25T08:46:32.572Z</time></trkpt><trkpt lat="42.1338225" lon="12.126295"><ele>374.75</ele><time>2026-04-25T08:46:33.572Z</time></trkpt><trkpt lat="42.1336826" lon="12.1262949"><ele>374.0</ele><time>2026-04-25T08:46:34.572Z</time></trkpt><trkpt lat="42.133543" lon="12.1263101"><ele>374.0</ele><time>2026-04-25T08:46:35.572Z</time></trkpt><trkpt lat="42.1334079" lon="12.1263289"><ele>374.0</ele><time>2026-04-25T08:46:36.573Z</time></trkpt><trkpt lat="42.133283" lon="12.12635"><ele>374.0</ele><time>2026-04-25T08:46:37.572Z</time></trkpt><trkpt lat="42.133167" lon="12.126362"><ele>374.0</ele><time>2026-04-25T08:46:38.571Z</time></trkpt><trkpt lat="42.1330616" lon="12.1263781"><ele>373.1666666666667</ele><time>2026-04-25T08:46:39.572Z</time></trkpt><trkpt lat="42.1329687" lon="12.1263948"><ele>372.33333333333337</ele><time>2026-04-25T08:46:40.573Z</time></trkpt><trkpt lat="42.1328788" lon="12.1264145"><ele>371.5</ele><time>2026-04-25T08:46:41.572Z</time></trkpt><trkpt lat="42.1328032" lon="12.1264241"><ele>370.6666666666667</ele><time>2026-04-25T08:46:42.572Z</time></trkpt><trkpt lat="42.1327361" lon="12.1264333"><ele>369.8333333333333</ele><time>2026-04-25T08:46:43.572Z</time></trkpt><trkpt lat="42.1326692" lon="12.1264374"><ele>369.0</ele><time>2026-04-25T08:46:44.571Z</time></trkpt><trkpt lat="42.1325728" lon="12.1264445"><ele>369.0</ele><time>2026-04-25T08:46:46.572Z</time></trkpt><trkpt lat="42.1324886" lon="12.1264519"><ele>369.0</ele><time>2026-04-25T08:46:48.572Z</time></trkpt><trkpt lat="42.1324035" lon="12.126456"><ele>369.0</ele><time>2026-04-25T08:46:50.572Z</time></trkpt><trkpt lat="42.1323379" lon="12.1264631"><ele>369.0</ele><time>2026-04-25T08:46:52.572Z</time></trkpt><trkpt lat="42.1322669" lon="12.1264598"><ele>369.0</ele><time>2026-04-25T08:47:13.572Z</time></trkpt><trkpt lat="42.1321469" lon="12.1264883"><ele>369.0</ele><time>2026-04-25T08:47:15.572Z</time></trkpt><trkpt lat="42.1320839" lon="12.1265007"><ele>369.0</ele><time>2026-04-25T08:47:16.572Z</time></trkpt><trkpt lat="42.1320088" lon="12.1265179"><ele>369.0</ele><time>2026-04-25T08:47:17.572Z</time></trkpt><trkpt lat="42.1319325" lon="12.1265352"><ele>369.0</ele><time>2026-04-25T08:47:18.572Z</time></trkpt><trkpt lat="42.1318624" lon="12.1265498"><ele>369.0</ele><time>2026-04-25T08:47:19.572Z</time></trkpt><trkpt lat="42.1317933" lon="12.1265644"><ele>369.0</ele><time>2026-04-25T08:47:20.571Z</time></trkpt><trkpt lat="42.13172" lon="12.1265817"><ele>369.0</ele><time>2026-04-25T08:47:21.572Z</time></trkpt><trkpt lat="42.1316388" lon="12.1265921"><ele>368.2</ele><time>2026-04-25T08:47:22.572Z</time></trkpt><trkpt lat="42.1315478" lon="12.1266029"><ele>367.4</ele><time>2026-04-25T08:47:23.572Z</time></trkpt><trkpt lat="42.1314473" lon="12.1266143"><ele>366.6</ele><time>2026-04-25T08:47:24.572Z</time></trkpt><trkpt lat="42.1313482" lon="12.1266309"><ele>365.8</ele><time>2026-04-25T08:47:25.572Z</time></trkpt><trkpt lat="42.1312395" lon="12.1266454"><ele>365.0</ele><time>2026-04-25T08:47:26.572Z</time></trkpt><trkpt lat="42.1311204" lon="12.1266597"><ele>365.0</ele><time>2026-04-25T08:47:27.572Z</time></trkpt><trkpt lat="42.1310029" lon="12.1266738"><ele>365.0</ele><time>2026-04-25T08:47:28.572Z</time></trkpt><trkpt lat="42.1308861" lon="12.1266879"><ele>365.0</ele><time>2026-04-25T08:47:29.572Z</time></trkpt><trkpt lat="42.1307793" lon="12.1266993"><ele>365.0</ele><time>2026-04-25T08:47:30.572Z</time></trkpt><trkpt lat="42.130679" lon="12.1267119"><ele>365.0</ele><time>2026-04-25T08:47:31.572Z</time></trkpt><trkpt lat="42.1305788" lon="12.126727"><ele>364.6666666666667</ele><time>2026-04-25T08:47:32.572Z</time></trkpt><trkpt lat="42.1304796" lon="12.1267443"><ele>364.33333333333337</ele><time>2026-04-25T08:47:33.571Z</time></trkpt><trkpt lat="42.1303842" lon="12.126756"><ele>364.0</ele><time>2026-04-25T08:47:34.572Z</time></trkpt><trkpt lat="42.1302984" lon="12.1267659"><ele>363.6666666666667</ele><time>2026-04-25T08:47:35.573Z</time></trkpt><trkpt lat="42.1302259" lon="12.1267717"><ele>363.3333333333333</ele><time>2026-04-25T08:47:36.572Z</time></trkpt><trkpt lat="42.1301607" lon="12.1267772"><ele>363.0</ele><time>2026-04-25T08:47:37.572Z</time></trkpt><trkpt lat="42.1300861" lon="12.1267817"><ele>363.0</ele><time>2026-04-25T08:47:39.572Z</time></trkpt><trkpt lat="42.1300149" lon="12.1267872"><ele>363.0</ele><time>2026-04-25T08:47:43.572Z</time></trkpt><trkpt lat="42.1299384" lon="12.1267923"><ele>363.0</ele><time>2026-04-25T08:47:45.572Z</time></trkpt><trkpt lat="42.129854" lon="12.1268225"><ele>363.0</ele><time>2026-04-25T08:47:48.572Z</time></trkpt><trkpt lat="42.1298007" lon="12.1269661"><ele>363.0</ele><time>2026-04-25T08:47:50.573Z</time></trkpt><trkpt lat="42.1297588" lon="12.1270854"><ele>362.4</ele><time>2026-04-25T08:47:51.572Z</time></trkpt><trkpt lat="42.1297097" lon="12.1272271"><ele>361.79999999999995</ele><time>2026-04-25T08:47:52.572Z</time></trkpt><trkpt lat="42.1296638" lon="12.1273586"><ele>361.2</ele><time>2026-04-25T08:47:53.572Z</time></trkpt><trkpt lat="42.1296193" lon="12.1274836"><ele>360.6</ele><time>2026-04-25T08:47:54.572Z</time></trkpt><trkpt lat="42.1295732" lon="12.1275995"><ele>360.0</ele><time>2026-04-25T08:47:55.572Z</time></trkpt><trkpt lat="42.1295281" lon="12.127716"><ele>360.0</ele><time>2026-04-25T08:47:56.572Z</time></trkpt><trkpt lat="42.1294866" lon="12.1278292"><ele>360.0</ele><time>2026-04-25T08:47:57.573Z</time></trkpt><trkpt lat="42.1294448" lon="12.1279372"><ele>360.0</ele><time>2026-04-25T08:47:58.572Z</time></trkpt><trkpt lat="42.1294036" lon="12.1280396"><ele>360.0</ele><time>2026-04-25T08:47:59.572Z</time></trkpt><trkpt lat="42.129365" lon="12.1281371"><ele>360.0</ele><time>2026-04-25T08:48:00.572Z</time></trkpt><trkpt lat="42.1293311" lon="12.1282291"><ele>360.0</ele><time>2026-04-25T08:48:01.572Z</time></trkpt><trkpt lat="42.1292948" lon="12.1283238"><ele>360.1666666666667</ele><time>2026-04-25T08:48:02.572Z</time></trkpt><trkpt lat="42.1292563" lon="12.1284301"><ele>360.3333333333333</ele><time>2026-04-25T08:48:03.573Z</time></trkpt><trkpt lat="42.1292179" lon="12.1285382"><ele>360.5</ele><time>2026-04-25T08:48:04.572Z</time></trkpt><trkpt lat="42.1291794" lon="12.1286446"><ele>360.66666666666663</ele><time>2026-04-25T08:48:05.572Z</time></trkpt><trkpt lat="42.1291396" lon="12.1287502"><ele>360.8333333333333</ele><time>2026-04-25T08:48:06.572Z</time></trkpt><trkpt lat="42.1290994" lon="12.1288543"><ele>361.0</ele><time>2026-04-25T08:48:07.572Z</time></trkpt><trkpt lat="42.129061" lon="12.1289551"><ele>361.3333333333333</ele><time>2026-04-25T08:48:08.572Z</time></trkpt><trkpt lat="42.1290265" lon="12.1290474"><ele>361.66666666666663</ele><time>2026-04-25T08:48:09.572Z</time></trkpt><trkpt lat="42.1289908" lon="12.1291431"><ele>362.0</ele><time>2026-04-25T08:48:10.572Z</time></trkpt><trkpt lat="42.1289474" lon="12.1292512"><ele>362.3333333333333</ele><time>2026-04-25T08:48:11.572Z</time></trkpt><trkpt lat="42.1289085" lon="12.1293546"><ele>362.6666666666667</ele><time>2026-04-25T08:48:12.572Z</time></trkpt><trkpt lat="42.1288692" lon="12.1294627"><ele>363.0</ele><time>2026-04-25T08:48:13.572Z</time></trkpt><trkpt lat="42.1288352" lon="12.1295543"><ele>363.0</ele><time>2026-04-25T08:48:14.572Z</time></trkpt><trkpt lat="42.1287863" lon="12.1296712"><ele>363.0</ele><time>2026-04-25T08:48:16.572Z</time></trkpt><trkpt lat="42.12876" lon="12.1297638"><ele>363.0</ele><time>2026-04-25T08:48:18.572Z</time></trkpt><trkpt lat="42.1287256" lon="12.1298634"><ele>363.0</ele><time>2026-04-25T08:48:20.572Z</time></trkpt><trkpt lat="42.1286877" lon="12.1299498"><ele>363.0</ele><time>2026-04-25T08:48:23.572Z</time></trkpt><trkpt lat="42.1286498" lon="12.1300454"><ele>363.0</ele><time>2026-04-25T08:48:26.572Z</time></trkpt><trkpt lat="42.1286175" lon="12.1301233"><ele>363.2</ele><time>2026-04-25T08:48:28.572Z</time></trkpt><trkpt lat="42.1285594" lon="12.1302492"><ele>363.4</ele><time>2026-04-25T08:48:30.572Z</time></trkpt><trkpt lat="42.1285115" lon="12.1303751"><ele>363.59999999999997</ele><time>2026-04-25T08:48:32.572Z</time></trkpt><trkpt lat="42.1284605" lon="12.130513"><ele>363.79999999999995</ele><time>2026-04-25T08:48:34.572Z</time></trkpt><trkpt lat="42.1284152" lon="12.1306441"><ele>364.0</ele><time>2026-04-25T08:48:36.572Z</time></trkpt><trkpt lat="42.1283699" lon="12.130778"><ele>364.2</ele><time>2026-04-25T08:48:38.572Z</time></trkpt><trkpt lat="42.1283271" lon="12.1308982"><ele>364.4</ele><time>2026-04-25T08:48:40.572Z</time></trkpt><trkpt lat="42.1282834" lon="12.1309966"><ele>364.6</ele><time>2026-04-25T08:48:42.572Z</time></trkpt><trkpt lat="42.1282373" lon="12.1311067"><ele>364.8</ele><time>2026-04-25T08:48:44.572Z</time></trkpt><trkpt lat="42.1281971" lon="12.1312177"><ele>365.0</ele><time>2026-04-25T08:48:46.572Z</time></trkpt><trkpt lat="42.1281564" lon="12.1313186"><ele>365.2</ele><time>2026-04-25T08:48:48.573Z</time></trkpt><trkpt lat="42.1281223" lon="12.1314007"><ele>365.4</ele><time>2026-04-25T08:48:50.573Z</time></trkpt><trkpt lat="42.1280972" lon="12.1314801"><ele>365.6</ele><time>2026-04-25T08:48:53.572Z</time></trkpt><trkpt lat="42.1281411" lon="12.1316283"><ele>365.8</ele><time>2026-04-25T08:48:57.572Z</time></trkpt><trkpt lat="42.1282353" lon="12.1317381"><ele>366.0</ele><time>2026-04-25T08:48:59.572Z</time></trkpt><trkpt lat="42.1283349" lon="12.1318375"><ele>366.6</ele><time>2026-04-25T08:49:01.572Z</time></trkpt><trkpt lat="42.1284281" lon="12.131935"><ele>367.20000000000005</ele><time>2026-04-25T08:49:03.572Z</time></trkpt><trkpt lat="42.1284945" lon="12.1320164"><ele>367.79999999999995</ele><time>2026-04-25T08:49:05.572Z</time></trkpt><trkpt lat="42.1285772" lon="12.1321026"><ele>368.4</ele><time>2026-04-25T08:49:07.572Z</time></trkpt><trkpt lat="42.1286688" lon="12.132183"><ele>369.0</ele><time>2026-04-25T08:49:09.573Z</time></trkpt><trkpt lat="42.1287445" lon="12.1322433"><ele>369.0</ele><time>2026-04-25T08:49:11.572Z</time></trkpt><trkpt lat="42.1287975" lon="12.1322897"><ele>369.0</ele><time>2026-04-25T08:49:13.572Z</time></trkpt><trkpt lat="42.1288788" lon="12.1323624"><ele>369.0</ele><time>2026-04-25T08:49:16.572Z</time></trkpt><trkpt lat="42.1289419" lon="12.132418"><ele>369.0</ele><time>2026-04-25T08:49:18.572Z</time></trkpt><trkpt lat="42.1289943" lon="12.1324653"><ele>369.0</ele><time>2026-04-25T08:49:20.572Z</time></trkpt><trkpt lat="42.1290479" lon="12.1325139"><ele>369.0</ele><time>2026-04-25T08:49:22.572Z</time></trkpt><trkpt lat="42.1291292" lon="12.1325805"><ele>369.6</ele><time>2026-04-25T08:49:24.572Z</time></trkpt><trkpt lat="42.129213" lon="12.1326492"><ele>370.2</ele><time>2026-04-25T08:49:26.572Z</time></trkpt><trkpt lat="42.1293011" lon="12.1326881"><ele>370.8</ele><time>2026-04-25T08:49:28.572Z</time></trkpt><trkpt lat="42.1294078" lon="12.132679"><ele>371.40000000000003</ele><time>2026-04-25T08:49:30.572Z</time></trkpt><trkpt lat="42.1295238" lon="12.1326659"><ele>372.0</ele><time>2026-04-25T08:49:32.572Z</time></trkpt><trkpt lat="42.1296354" lon="12.1326546"><ele>372.0</ele><time>2026-04-25T08:49:34.572Z</time></trkpt><trkpt lat="42.1297642" lon="12.1327109"><ele>372.0</ele><time>2026-04-25T08:49:36.572Z</time></trkpt><trkpt lat="42.1298415" lon="12.1327485"><ele>372.0</ele><time>2026-04-25T08:49:37.572Z</time></trkpt><trkpt lat="42.1299103" lon="12.1327847"><ele>372.0</ele><time>2026-04-25T08:49:38.572Z</time></trkpt><trkpt lat="42.1299809" lon="12.1328265"><ele>372.0</ele><time>2026-04-25T08:49:39.572Z</time></trkpt><trkpt lat="42.1300514" lon="12.1328588"><ele>372.0</ele><time>2026-04-25T08:49:40.572Z</time></trkpt><trkpt lat="42.130127" lon="12.1329043"><ele>371.8333333333333</ele><time>2026-04-25T08:49:41.573Z</time></trkpt><trkpt lat="42.1301952" lon="12.1329513"><ele>371.6666666666667</ele><time>2026-04-25T08:49:42.572Z</time></trkpt><trkpt lat="42.1302584" lon="12.1329989"><ele>371.5</ele><time>2026-04-25T08:49:43.572Z</time></trkpt><trkpt lat="42.130317" lon="12.1330488"><ele>371.33333333333337</ele><time>2026-04-25T08:49:44.572Z</time></trkpt><trkpt lat="42.1303705" lon="12.1330975"><ele>371.1666666666667</ele><time>2026-04-25T08:49:45.572Z</time></trkpt><trkpt lat="42.1304244" lon="12.1331421"><ele>371.0</ele><time>2026-04-25T08:49:46.572Z</time></trkpt><trkpt lat="42.1305371" lon="12.1332106"><ele>371.0</ele><time>2026-04-25T08:49:48.572Z</time></trkpt><trkpt lat="42.1306541" lon="12.1331836"><ele>371.0</ele><time>2026-04-25T08:49:50.572Z</time></trkpt><trkpt lat="42.1307091" lon="12.1331278"><ele>371.0</ele><time>2026-04-25T08:49:51.572Z</time></trkpt><trkpt lat="42.1307616" lon="12.1330649"><ele>371.0</ele><time>2026-04-25T08:49:52.573Z</time></trkpt><trkpt lat="42.1308154" lon="12.1330138"><ele>371.0</ele><time>2026-04-25T08:49:53.572Z</time></trkpt><trkpt lat="42.1309405" lon="12.1329784"><ele>369.6666666666667</ele><time>2026-04-25T08:49:55.572Z</time></trkpt><trkpt lat="42.1310173" lon="12.1329964"><ele>368.33333333333337</ele><time>2026-04-25T08:49:56.572Z</time></trkpt><trkpt lat="42.1310944" lon="12.1330428"><ele>367.0</ele><time>2026-04-25T08:49:57.572Z</time></trkpt><trkpt lat="42.1311766" lon="12.1331073"><ele>365.6666666666667</ele><time>2026-04-25T08:49:58.572Z</time></trkpt><trkpt lat="42.1312562" lon="12.1331758"><ele>364.3333333333333</ele><time>2026-04-25T08:49:59.572Z</time></trkpt><trkpt lat="42.1313351" lon="12.1332461"><ele>363.0</ele><time>2026-04-25T08:50:00.572Z</time></trkpt><trkpt lat="42.1314113" lon="12.1333121"><ele>362.5</ele><time>2026-04-25T08:50:01.572Z</time></trkpt><trkpt lat="42.1314847" lon="12.1333737"><ele>362.0</ele><time>2026-04-25T08:50:02.572Z</time></trkpt><trkpt lat="42.1315562" lon="12.1334345"><ele>361.5</ele><time>2026-04-25T08:50:03.572Z</time></trkpt><trkpt lat="42.1316242" lon="12.1334955"><ele>361.0</ele><time>2026-04-25T08:50:04.572Z</time></trkpt><trkpt lat="42.1316912" lon="12.1335536"><ele>360.5</ele><time>2026-04-25T08:50:05.572Z</time></trkpt><trkpt lat="42.1317556" lon="12.133615"><ele>360.0</ele><time>2026-04-25T08:50:06.572Z</time></trkpt><trkpt lat="42.1318228" lon="12.1336782"><ele>358.4</ele><time>2026-04-25T08:50:07.572Z</time></trkpt><trkpt lat="42.1318905" lon="12.1337458"><ele>356.8</ele><time>2026-04-25T08:50:08.572Z</time></trkpt><trkpt lat="42.1319621" lon="12.1338204"><ele>355.20000000000005</ele><time>2026-04-25T08:50:09.572Z</time></trkpt><trkpt lat="42.1320413" lon="12.1338955"><ele>353.6</ele><time>2026-04-25T08:50:10.572Z</time></trkpt><trkpt lat="42.1321217" lon="12.1339677"><ele>352.0</ele><time>2026-04-25T08:50:11.572Z</time></trkpt><trkpt lat="42.1322024" lon="12.1340338"><ele>350.66666666666663</ele><time>2026-04-25T08:50:12.573Z</time></trkpt><trkpt lat="42.1322795" lon="12.1340918"><ele>349.3333333333333</ele><time>2026-04-25T08:50:13.573Z</time></trkpt><trkpt lat="42.1323565" lon="12.1341309"><ele>348.0</ele><time>2026-04-25T08:50:14.572Z</time></trkpt><trkpt lat="42.1324337" lon="12.134153"><ele>346.6666666666667</ele><time>2026-04-25T08:50:15.572Z</time></trkpt><trkpt lat="42.1325075" lon="12.1341533"><ele>345.33333333333337</ele><time>2026-04-25T08:50:16.572Z</time></trkpt><trkpt lat="42.1325761" lon="12.1341293"><ele>344.0</ele><time>2026-04-25T08:50:17.572Z</time></trkpt><trkpt lat="42.1326415" lon="12.1340843"><ele>345.33333333333337</ele><time>2026-04-25T08:50:18.572Z</time></trkpt><trkpt lat="42.1327083" lon="12.1340054"><ele>346.6666666666667</ele><time>2026-04-25T08:50:19.572Z</time></trkpt><trkpt lat="42.1327709" lon="12.133908"><ele>348.0</ele><time>2026-04-25T08:50:20.572Z</time></trkpt><trkpt lat="42.1328313" lon="12.1338081"><ele>349.3333333333333</ele><time>2026-04-25T08:50:21.572Z</time></trkpt><trkpt lat="42.1328875" lon="12.1337165"><ele>350.66666666666663</ele><time>2026-04-25T08:50:22.572Z</time></trkpt><trkpt lat="42.1329386" lon="12.1336326"><ele>352.0</ele><time>2026-04-25T08:50:23.572Z</time></trkpt><trkpt lat="42.1329831" lon="12.1335715"><ele>352.0</ele><time>2026-04-25T08:50:24.572Z</time></trkpt><trkpt lat="42.1330648" lon="12.133496"><ele>352.0</ele><time>2026-04-25T08:50:26.572Z</time></trkpt><trkpt lat="42.1331501" lon="12.1334476"><ele>352.0</ele><time>2026-04-25T08:50:28.572Z</time></trkpt><trkpt lat="42.1332581" lon="12.1334562"><ele>352.0</ele><time>2026-04-25T08:50:30.572Z</time></trkpt><trkpt lat="42.1333213" lon="12.1335004"><ele>352.0</ele><time>2026-04-25T08:50:31.572Z</time></trkpt><trkpt lat="42.1333798" lon="12.1335588"><ele>352.0</ele><time>2026-04-25T08:50:32.572Z</time></trkpt><trkpt lat="42.1334253" lon="12.1336227"><ele>350.8333333333333</ele><time>2026-04-25T08:50:33.572Z</time></trkpt><trkpt lat="42.1334642" lon="12.1337088"><ele>349.66666666666663</ele><time>2026-04-25T08:50:34.572Z</time></trkpt><trkpt lat="42.1335022" lon="12.133819"><ele>348.5</ele><time>2026-04-25T08:50:35.572Z</time></trkpt><trkpt lat="42.1335452" lon="12.1339219"><ele>347.3333333333333</ele><time>2026-04-25T08:50:36.572Z</time></trkpt><trkpt lat="42.1336044" lon="12.1340092"><ele>346.1666666666667</ele><time>2026-04-25T08:50:37.572Z</time></trkpt><trkpt lat="42.1336782" lon="12.1340764"><ele>345.0</ele><time>2026-04-25T08:50:38.572Z</time></trkpt><trkpt lat="42.13377" lon="12.1341321"><ele>344.0</ele><time>2026-04-25T08:50:39.572Z</time></trkpt><trkpt lat="42.1338836" lon="12.1341684"><ele>343.0</ele><time>2026-04-25T08:50:40.571Z</time></trkpt><trkpt lat="42.1340102" lon="12.1341989"><ele>342.0</ele><time>2026-04-25T08:50:41.571Z</time></trkpt><trkpt lat="42.1341489" lon="12.1342237"><ele>341.0</ele><time>2026-04-25T08:50:42.571Z</time></trkpt><trkpt lat="42.1342947" lon="12.1342356"><ele>343.0</ele><time>2026-04-25T08:50:43.571Z</time></trkpt><trkpt lat="42.1344286" lon="12.1342559"><ele>345.0</ele><time>2026-04-25T08:50:44.571Z</time></trkpt><trkpt lat="42.134559" lon="12.134275"><ele>347.0</ele><time>2026-04-25T08:50:45.571Z</time></trkpt><trkpt lat="42.1346831" lon="12.1342985"><ele>349.0</ele><time>2026-04-25T08:50:46.571Z</time></trkpt><trkpt lat="42.1348041" lon="12.134319"><ele>350.5</ele><time>2026-04-25T08:50:47.571Z</time></trkpt><trkpt lat="42.1349335" lon="12.1343326"><ele>352.0</ele><time>2026-04-25T08:50:48.571Z</time></trkpt><trkpt lat="42.1350671" lon="12.1343393"><ele>353.5</ele><time>2026-04-25T08:50:49.571Z</time></trkpt><trkpt lat="42.1351874" lon="12.1343432"><ele>355.0</ele><time>2026-04-25T08:50:50.571Z</time></trkpt><trkpt lat="42.1353039" lon="12.1343445"><ele>355.0</ele><time>2026-04-25T08:50:51.571Z</time></trkpt><trkpt lat="42.1354281" lon="12.134348"><ele>355.0</ele><time>2026-04-25T08:50:52.571Z</time></trkpt><trkpt lat="42.1355538" lon="12.1343448"><ele>355.0</ele><time>2026-04-25T08:50:53.571Z</time></trkpt><trkpt lat="42.1356757" lon="12.1343374"><ele>355.0</ele><time>2026-04-25T08:50:54.571Z</time></trkpt><trkpt lat="42.1357948" lon="12.1343408"><ele>356.5</ele><time>2026-04-25T08:50:55.571Z</time></trkpt><trkpt lat="42.1359142" lon="12.1343396"><ele>358.0</ele><time>2026-04-25T08:50:56.571Z</time></trkpt><trkpt lat="42.1360301" lon="12.1343569"><ele>359.5</ele><time>2026-04-25T08:50:57.571Z</time></trkpt><trkpt lat="42.1361476" lon="12.134377"><ele>361.0</ele><time>2026-04-25T08:50:58.571Z</time></trkpt><trkpt lat="42.1362552" lon="12.1343975"><ele>361.0</ele><time>2026-04-25T08:50:59.571Z</time></trkpt><trkpt lat="42.1363561" lon="12.1344171"><ele>361.0</ele><time>2026-04-25T08:51:00.571Z</time></trkpt><trkpt lat="42.1364479" lon="12.1344373"><ele>361.0</ele><time>2026-04-25T08:51:01.571Z</time></trkpt><trkpt lat="42.1365362" lon="12.1344592"><ele>361.0</ele><time>2026-04-25T08:51:02.571Z</time></trkpt><trkpt lat="42.1366071" lon="12.1344799"><ele>361.0</ele><time>2026-04-25T08:51:03.571Z</time></trkpt><trkpt lat="42.1366734" lon="12.134501"><ele>361.0</ele><time>2026-04-25T08:51:04.571Z</time></trkpt><trkpt lat="42.1367318" lon="12.134548"><ele>361.8333333333333</ele><time>2026-04-25T08:51:05.571Z</time></trkpt><trkpt lat="42.1367978" lon="12.1346003"><ele>362.66666666666663</ele><time>2026-04-25T08:51:06.572Z</time></trkpt><trkpt lat="42.136862" lon="12.1346659"><ele>363.5</ele><time>2026-04-25T08:51:07.571Z</time></trkpt><trkpt lat="42.1369221" lon="12.1347486"><ele>364.3333333333333</ele><time>2026-04-25T08:51:08.571Z</time></trkpt><trkpt lat="42.1369863" lon="12.1348438"><ele>365.1666666666667</ele><time>2026-04-25T08:51:09.57Z</time></trkpt><trkpt lat="42.1370593" lon="12.1349527"><ele>366.0</ele><time>2026-04-25T08:51:10.571Z</time></trkpt><trkpt lat="42.137144" lon="12.1350718"><ele>366.0</ele><time>2026-04-25T08:51:11.571Z</time></trkpt><trkpt lat="42.13724" lon="12.1351928"><ele>366.0</ele><time>2026-04-25T08:51:12.571Z</time></trkpt><trkpt lat="42.1373503" lon="12.1353348"><ele>366.0</ele><time>2026-04-25T08:51:13.571Z</time></trkpt><trkpt lat="42.1374621" lon="12.1354858"><ele>366.0</ele><time>2026-04-25T08:51:14.571Z</time></trkpt><trkpt lat="42.1375651" lon="12.1356331"><ele>365.0</ele><time>2026-04-25T08:51:15.571Z</time></trkpt><trkpt lat="42.1376801" lon="12.1357889"><ele>364.0</ele><time>2026-04-25T08:51:16.571Z</time></trkpt><trkpt lat="42.1377835" lon="12.1359389"><ele>363.0</ele><time>2026-04-25T08:51:17.572Z</time></trkpt><trkpt lat="42.1378905" lon="12.1360965"><ele>363.0</ele><time>2026-04-25T08:51:18.571Z</time></trkpt><trkpt lat="42.1379913" lon="12.1362481"><ele>363.0</ele><time>2026-04-25T08:51:19.571Z</time></trkpt><trkpt lat="42.1380871" lon="12.1363892"><ele>363.0</ele><time>2026-04-25T08:51:20.571Z</time></trkpt><trkpt lat="42.1381867" lon="12.13651"><ele>363.0</ele><time>2026-04-25T08:51:21.571Z</time></trkpt><trkpt lat="42.1383051" lon="12.1366191"><ele>364.5</ele><time>2026-04-25T08:51:22.571Z</time></trkpt><trkpt lat="42.1384296" lon="12.1367106"><ele>366.0</ele><time>2026-04-25T08:51:23.571Z</time></trkpt><trkpt lat="42.1385516" lon="12.1367962"><ele>367.5</ele><time>2026-04-25T08:51:24.571Z</time></trkpt><trkpt lat="42.1386684" lon="12.1368821"><ele>369.0</ele><time>2026-04-25T08:51:25.571Z</time></trkpt><trkpt lat="42.1387785" lon="12.1369694"><ele>369.0</ele><time>2026-04-25T08:51:26.571Z</time></trkpt><trkpt lat="42.1388792" lon="12.1370508"><ele>369.0</ele><time>2026-04-25T08:51:27.571Z</time></trkpt><trkpt lat="42.1389762" lon="12.1371218"><ele>369.0</ele><time>2026-04-25T08:51:28.571Z</time></trkpt><trkpt lat="42.1390675" lon="12.1371893"><ele>369.0</ele><time>2026-04-25T08:51:29.571Z</time></trkpt><trkpt lat="42.1391474" lon="12.1372451"><ele>369.0</ele><time>2026-04-25T08:51:30.571Z</time></trkpt><trkpt lat="42.1392307" lon="12.1372899"><ele>370.79999999999995</ele><time>2026-04-25T08:51:31.571Z</time></trkpt><trkpt lat="42.1393136" lon="12.1373178"><ele>372.59999999999997</ele><time>2026-04-25T08:51:32.571Z</time></trkpt><trkpt lat="42.1393998" lon="12.1373208"><ele>374.4</ele><time>2026-04-25T08:51:33.571Z</time></trkpt><trkpt lat="42.1394921" lon="12.1372976"><ele>376.2</ele><time>2026-04-25T08:51:34.571Z</time></trkpt><trkpt lat="42.1395844" lon="12.137249"><ele>378.0</ele><time>2026-04-25T08:51:35.571Z</time></trkpt><trkpt lat="42.1396778" lon="12.1371985"><ele>378.0</ele><time>2026-04-25T08:51:36.571Z</time></trkpt><trkpt lat="42.1397717" lon="12.1371488"><ele>378.0</ele><time>2026-04-25T08:51:37.571Z</time></trkpt><trkpt lat="42.1398705" lon="12.1371236"><ele>378.0</ele><time>2026-04-25T08:51:38.572Z</time></trkpt><trkpt lat="42.1399622" lon="12.1370795"><ele>378.0</ele><time>2026-04-25T08:51:39.571Z</time></trkpt><trkpt lat="42.1400632" lon="12.1371053"><ele>378.0</ele><time>2026-04-25T08:51:40.572Z</time></trkpt><trkpt lat="42.1401632" lon="12.1371205"><ele>377.25</ele><time>2026-04-25T08:51:41.571Z</time></trkpt><trkpt lat="42.1402596" lon="12.1371125"><ele>376.5</ele><time>2026-04-25T08:51:42.571Z</time></trkpt><trkpt lat="42.1403766" lon="12.1371685"><ele>375.75</ele><time>2026-04-25T08:51:43.571Z</time></trkpt><trkpt lat="42.140491" lon="12.1372203"><ele>375.0</ele><time>2026-04-25T08:51:44.571Z</time></trkpt><trkpt lat="42.1406133" lon="12.1372455"><ele>375.0</ele><time>2026-04-25T08:51:45.571Z</time></trkpt><trkpt lat="42.1407463" lon="12.1372667"><ele>375.0</ele><time>2026-04-25T08:51:46.571Z</time></trkpt><trkpt lat="42.1408802" lon="12.1372863"><ele>375.0</ele><time>2026-04-25T08:51:47.572Z</time></trkpt><trkpt lat="42.1410134" lon="12.1373062"><ele>375.0</ele><time>2026-04-25T08:51:48.571Z</time></trkpt><trkpt lat="42.1411335" lon="12.1373248"><ele>375.0</ele><time>2026-04-25T08:51:49.571Z</time></trkpt><trkpt lat="42.1412445" lon="12.1373413"><ele>375.0</ele><time>2026-04-25T08:51:50.571Z</time></trkpt><trkpt lat="42.1413398" lon="12.1373643"><ele>375.0</ele><time>2026-04-25T08:51:51.572Z</time></trkpt><trkpt lat="42.1414216" lon="12.1373981"><ele>375.0</ele><time>2026-04-25T08:51:52.571Z</time></trkpt><trkpt lat="42.1414875" lon="12.1374526"><ele>375.0</ele><time>2026-04-25T08:51:53.571Z</time></trkpt><trkpt lat="42.1415386" lon="12.1375174"><ele>375.0</ele><time>2026-04-25T08:51:54.571Z</time></trkpt><trkpt lat="42.141576" lon="12.1375968"><ele>372.8</ele><time>2026-04-25T08:51:55.571Z</time></trkpt><trkpt lat="42.1415974" lon="12.1376983"><ele>370.6</ele><time>2026-04-25T08:51:56.572Z</time></trkpt><trkpt lat="42.1416075" lon="12.1378137"><ele>368.4</ele><time>2026-04-25T08:51:57.571Z</time></trkpt><trkpt lat="42.1416101" lon="12.1379448"><ele>366.2</ele><time>2026-04-25T08:51:58.571Z</time></trkpt><trkpt lat="42.1416032" lon="12.1380897"><ele>364.0</ele><time>2026-04-25T08:51:59.571Z</time></trkpt><trkpt lat="42.141591" lon="12.1382499"><ele>363.75</ele><time>2026-04-25T08:52:00.57Z</time></trkpt><trkpt lat="42.1415723" lon="12.1384397"><ele>363.5</ele><time>2026-04-25T08:52:01.571Z</time></trkpt><trkpt lat="42.141557" lon="12.1386342"><ele>363.25</ele><time>2026-04-25T08:52:02.571Z</time></trkpt><trkpt lat="42.1415441" lon="12.1388282"><ele>363.0</ele><time>2026-04-25T08:52:03.571Z</time></trkpt><trkpt lat="42.1415422" lon="12.1390024"><ele>362.25</ele><time>2026-04-25T08:52:04.571Z</time></trkpt><trkpt lat="42.1415399" lon="12.1391662"><ele>361.5</ele><time>2026-04-25T08:52:05.571Z</time></trkpt><trkpt lat="42.1415404" lon="12.1393212"><ele>360.75</ele><time>2026-04-25T08:52:06.571Z</time></trkpt><trkpt lat="42.1415436" lon="12.1394792"><ele>360.0</ele><time>2026-04-25T08:52:07.571Z</time></trkpt><trkpt lat="42.1415489" lon="12.1396274"><ele>361.4</ele><time>2026-04-25T08:52:08.572Z</time></trkpt><trkpt lat="42.1415512" lon="12.1397659"><ele>362.8</ele><time>2026-04-25T08:52:09.571Z</time></trkpt><trkpt lat="42.1415526" lon="12.1398981"><ele>364.20000000000005</ele><time>2026-04-25T08:52:10.571Z</time></trkpt><trkpt lat="42.1415529" lon="12.1400182"><ele>365.6</ele><time>2026-04-25T08:52:11.571Z</time></trkpt><trkpt lat="42.141565" lon="12.1401335"><ele>367.0</ele><time>2026-04-25T08:52:12.571Z</time></trkpt><trkpt lat="42.1415892" lon="12.1402378"><ele>367.0</ele><time>2026-04-25T08:52:13.571Z</time></trkpt><trkpt lat="42.1416205" lon="12.1403338"><ele>367.0</ele><time>2026-04-25T08:52:14.571Z</time></trkpt><trkpt lat="42.1416529" lon="12.1404279"><ele>367.0</ele><time>2026-04-25T08:52:15.572Z</time></trkpt><trkpt lat="42.1416841" lon="12.1405208"><ele>367.0</ele><time>2026-04-25T08:52:16.571Z</time></trkpt><trkpt lat="42.1417143" lon="12.1406089"><ele>367.0</ele><time>2026-04-25T08:52:17.571Z</time></trkpt><trkpt lat="42.1417369" lon="12.1406906"><ele>367.0</ele><time>2026-04-25T08:52:18.571Z</time></trkpt><trkpt lat="42.1417672" lon="12.1408174"><ele>366.8333333333333</ele><time>2026-04-25T08:52:20.571Z</time></trkpt><trkpt lat="42.141765" lon="12.1409115"><ele>366.66666666666663</ele><time>2026-04-25T08:52:22.571Z</time></trkpt><trkpt lat="42.1417292" lon="12.1409992"><ele>366.5</ele><time>2026-04-25T08:52:25.571Z</time></trkpt><trkpt lat="42.1416838" lon="12.1410666"><ele>366.3333333333333</ele><time>2026-04-25T08:52:28.571Z</time></trkpt><trkpt lat="42.1416082" lon="12.1411691"><ele>366.1666666666667</ele><time>2026-04-25T08:52:31.571Z</time></trkpt><trkpt lat="42.1415394" lon="12.1411985"><ele>366.0</ele><time>2026-04-25T08:52:33.571Z</time></trkpt><trkpt lat="42.1414628" lon="12.1411609"><ele>366.0</ele><time>2026-04-25T08:52:35.571Z</time></trkpt><trkpt lat="42.141359" lon="12.141086"><ele>366.0</ele><time>2026-04-25T08:52:37.571Z</time></trkpt><trkpt lat="42.1412964" lon="12.1410281"><ele>366.0</ele><time>2026-04-25T08:52:38.571Z</time></trkpt><trkpt lat="42.1412353" lon="12.1409617"><ele>366.0</ele><time>2026-04-25T08:52:39.571Z</time></trkpt><trkpt lat="42.1411692" lon="12.1408943"><ele>366.0</ele><time>2026-04-25T08:52:40.571Z</time></trkpt><trkpt lat="42.1411032" lon="12.140829"><ele>366.0</ele><time>2026-04-25T08:52:41.572Z</time></trkpt><trkpt lat="42.1410329" lon="12.1407653"><ele>365.8333333333333</ele><time>2026-04-25T08:52:42.571Z</time></trkpt><trkpt lat="42.1409666" lon="12.1407039"><ele>365.6666666666667</ele><time>2026-04-25T08:52:43.571Z</time></trkpt><trkpt lat="42.140904" lon="12.1406553"><ele>365.5</ele><time>2026-04-25T08:52:44.571Z</time></trkpt><trkpt lat="42.1408372" lon="12.1406122"><ele>365.33333333333337</ele><time>2026-04-25T08:52:45.571Z</time></trkpt><trkpt lat="42.1407647" lon="12.1405642"><ele>365.1666666666667</ele><time>2026-04-25T08:52:46.571Z</time></trkpt><trkpt lat="42.1406863" lon="12.1405263"><ele>365.0</ele><time>2026-04-25T08:52:47.571Z</time></trkpt><trkpt lat="42.1406005" lon="12.1404993"><ele>365.0</ele><time>2026-04-25T08:52:48.571Z</time></trkpt><trkpt lat="42.1405212" lon="12.1404732"><ele>365.0</ele><time>2026-04-25T08:52:49.57Z</time></trkpt><trkpt lat="42.1404284" lon="12.1404439"><ele>365.0</ele><time>2026-04-25T08:52:50.571Z</time></trkpt><trkpt lat="42.1403309" lon="12.1404187"><ele>365.0</ele><time>2026-04-25T08:52:51.571Z</time></trkpt><trkpt lat="42.1402305" lon="12.1403895"><ele>365.0</ele><time>2026-04-25T08:52:52.571Z</time></trkpt><trkpt lat="42.1401326" lon="12.1403598"><ele>365.0</ele><time>2026-04-25T08:52:53.571Z</time></trkpt><trkpt lat="42.1400179" lon="12.1403251"><ele>365.0</ele><time>2026-04-25T08:52:54.571Z</time></trkpt><trkpt lat="42.1399069" lon="12.140294"><ele>365.0</ele><time>2026-04-25T08:52:55.571Z</time></trkpt><trkpt lat="42.1397971" lon="12.1402611"><ele>365.0</ele><time>2026-04-25T08:52:56.571Z</time></trkpt><trkpt lat="42.1396931" lon="12.1402236"><ele>365.83333333333337</ele><time>2026-04-25T08:52:57.571Z</time></trkpt><trkpt lat="42.1396029" lon="12.1402016"><ele>366.6666666666667</ele><time>2026-04-25T08:52:58.571Z</time></trkpt><trkpt lat="42.1395062" lon="12.1401585"><ele>367.5</ele><time>2026-04-25T08:52:59.571Z</time></trkpt><trkpt lat="42.139419" lon="12.1401277"><ele>368.3333333333333</ele><time>2026-04-25T08:53:00.571Z</time></trkpt><trkpt lat="42.1393354" lon="12.1401029"><ele>369.16666666666663</ele><time>2026-04-25T08:53:01.571Z</time></trkpt><trkpt lat="42.1392572" lon="12.1400837"><ele>370.0</ele><time>2026-04-25T08:53:02.571Z</time></trkpt><trkpt lat="42.1391669" lon="12.1401002"><ele>370.0</ele><time>2026-04-25T08:53:03.571Z</time></trkpt><trkpt lat="42.1390778" lon="12.1400968"><ele>370.0</ele><time>2026-04-25T08:53:04.572Z</time></trkpt><trkpt lat="42.1389811" lon="12.1401053"><ele>370.0</ele><time>2026-04-25T08:53:05.571Z</time></trkpt><trkpt lat="42.1388933" lon="12.1401476"><ele>370.0</ele><time>2026-04-25T08:53:06.571Z</time></trkpt><trkpt lat="42.138797" lon="12.1401786"><ele>370.0</ele><time>2026-04-25T08:53:07.572Z</time></trkpt><trkpt lat="42.1386964" lon="12.1402036"><ele>368.8</ele><time>2026-04-25T08:53:08.571Z</time></trkpt><trkpt lat="42.1385949" lon="12.140242"><ele>367.6</ele><time>2026-04-25T08:53:09.571Z</time></trkpt><trkpt lat="42.1384976" lon="12.1402736"><ele>366.4</ele><time>2026-04-25T08:53:10.571Z</time></trkpt><trkpt lat="42.1384083" lon="12.1402941"><ele>365.2</ele><time>2026-04-25T08:53:11.571Z</time></trkpt><trkpt lat="42.1383089" lon="12.1403224"><ele>364.0</ele><time>2026-04-25T08:53:12.571Z</time></trkpt><trkpt lat="42.1382111" lon="12.1403541"><ele>363.2</ele><time>2026-04-25T08:53:13.571Z</time></trkpt><trkpt lat="42.1381082" lon="12.1403888"><ele>362.4</ele><time>2026-04-25T08:53:14.571Z</time></trkpt><trkpt lat="42.1380134" lon="12.1404158"><ele>361.6</ele><time>2026-04-25T08:53:15.571Z</time></trkpt><trkpt lat="42.1379136" lon="12.1404463"><ele>360.8</ele><time>2026-04-25T08:53:16.571Z</time></trkpt><trkpt lat="42.1378121" lon="12.1404757"><ele>360.0</ele><time>2026-04-25T08:53:17.571Z</time></trkpt><trkpt lat="42.1377128" lon="12.1405038"><ele>360.0</ele><time>2026-04-25T08:53:18.571Z</time></trkpt><trkpt lat="42.137617" lon="12.140535"><ele>360.0</ele><time>2026-04-25T08:53:19.571Z</time></trkpt><trkpt lat="42.1375262" lon="12.1405602"><ele>360.0</ele><time>2026-04-25T08:53:20.571Z</time></trkpt><trkpt lat="42.1374403" lon="12.1405836"><ele>360.0</ele><time>2026-04-25T08:53:21.571Z</time></trkpt><trkpt lat="42.1373582" lon="12.1406076"><ele>360.0</ele><time>2026-04-25T08:53:22.571Z</time></trkpt><trkpt lat="42.1372757" lon="12.1406324"><ele>360.0</ele><time>2026-04-25T08:53:23.571Z</time></trkpt><trkpt lat="42.1371821" lon="12.1406602"><ele>359.6666666666667</ele><time>2026-04-25T08:53:24.571Z</time></trkpt><trkpt lat="42.1370881" lon="12.1406887"><ele>359.3333333333333</ele><time>2026-04-25T08:53:25.571Z</time></trkpt><trkpt lat="42.1370018" lon="12.1407212"><ele>359.0</ele><time>2026-04-25T08:53:26.572Z</time></trkpt><trkpt lat="42.136918" lon="12.1407555"><ele>358.66666666666663</ele><time>2026-04-25T08:53:27.571Z</time></trkpt><trkpt lat="42.1368367" lon="12.1407834"><ele>358.3333333333333</ele><time>2026-04-25T08:53:28.571Z</time></trkpt><trkpt lat="42.1367565" lon="12.1408254"><ele>358.0</ele><time>2026-04-25T08:53:29.571Z</time></trkpt><trkpt lat="42.1366776" lon="12.1408756"><ele>358.0</ele><time>2026-04-25T08:53:30.571Z</time></trkpt><trkpt lat="42.1366032" lon="12.1409311"><ele>358.0</ele><time>2026-04-25T08:53:31.571Z</time></trkpt><trkpt lat="42.1365389" lon="12.1409938"><ele>358.0</ele><time>2026-04-25T08:53:32.571Z</time></trkpt><trkpt lat="42.1364782" lon="12.1410699"><ele>358.0</ele><time>2026-04-25T08:53:33.571Z</time></trkpt><trkpt lat="42.1364215" lon="12.1411587"><ele>358.0</ele><time>2026-04-25T08:53:34.571Z</time></trkpt><trkpt lat="42.1363679" lon="12.1412574"><ele>358.0</ele><time>2026-04-25T08:53:35.571Z</time></trkpt><trkpt lat="42.1363144" lon="12.1413588"><ele>357.59999999999997</ele><time>2026-04-25T08:53:36.571Z</time></trkpt><trkpt lat="42.1362592" lon="12.1414509"><ele>357.2</ele><time>2026-04-25T08:53:37.572Z</time></trkpt><trkpt lat="42.1361946" lon="12.1415436"><ele>356.8</ele><time>2026-04-25T08:53:38.571Z</time></trkpt><trkpt lat="42.1361242" lon="12.1416291"><ele>356.4</ele><time>2026-04-25T08:53:39.57Z</time></trkpt><trkpt lat="42.1360518" lon="12.141715"><ele>356.0</ele><time>2026-04-25T08:53:40.571Z</time></trkpt><trkpt lat="42.1359847" lon="12.1417986"><ele>356.0</ele><time>2026-04-25T08:53:41.571Z</time></trkpt><trkpt lat="42.1359205" lon="12.1418798"><ele>356.0</ele><time>2026-04-25T08:53:42.571Z</time></trkpt><trkpt lat="42.1358501" lon="12.1419647"><ele>356.0</ele><time>2026-04-25T08:53:43.572Z</time></trkpt><trkpt lat="42.135779" lon="12.1420467"><ele>356.0</ele><time>2026-04-25T08:53:44.571Z</time></trkpt><trkpt lat="42.1357077" lon="12.1421216"><ele>356.0</ele><time>2026-04-25T08:53:45.571Z</time></trkpt><trkpt lat="42.1356361" lon="12.1421933"><ele>355.20000000000005</ele><time>2026-04-25T08:53:46.572Z</time></trkpt><trkpt lat="42.1355537" lon="12.1422617"><ele>354.40000000000003</ele><time>2026-04-25T08:53:47.571Z</time></trkpt><trkpt lat="42.1354703" lon="12.1423265"><ele>353.6</ele><time>2026-04-25T08:53:48.571Z</time></trkpt><trkpt lat="42.1353856" lon="12.1423848"><ele>352.8</ele><time>2026-04-25T08:53:49.571Z</time></trkpt><trkpt lat="42.1352872" lon="12.1424389"><ele>352.0</ele><time>2026-04-25T08:53:50.571Z</time></trkpt><trkpt lat="42.1351889" lon="12.1424881"><ele>352.0</ele><time>2026-04-25T08:53:51.571Z</time></trkpt><trkpt lat="42.1350943" lon="12.1425309"><ele>352.0</ele><time>2026-04-25T08:53:52.571Z</time></trkpt><trkpt lat="42.1350006" lon="12.1425685"><ele>352.0</ele><time>2026-04-25T08:53:53.571Z</time></trkpt><trkpt lat="42.1349047" lon="12.1426003"><ele>352.0</ele><time>2026-04-25T08:53:54.571Z</time></trkpt><trkpt lat="42.134802" lon="12.1426317"><ele>352.0</ele><time>2026-04-25T08:53:55.571Z</time></trkpt><trkpt lat="42.1347022" lon="12.1426578"><ele>350.6</ele><time>2026-04-25T08:53:56.571Z</time></trkpt><trkpt lat="42.1346046" lon="12.1426833"><ele>349.20000000000005</ele><time>2026-04-25T08:53:57.571Z</time></trkpt><trkpt lat="42.1345073" lon="12.1427027"><ele>347.8</ele><time>2026-04-25T08:53:58.571Z</time></trkpt><trkpt lat="42.1344152" lon="12.142722"><ele>346.4</ele><time>2026-04-25T08:53:59.571Z</time></trkpt><trkpt lat="42.1343245" lon="12.1427401"><ele>345.0</ele><time>2026-04-25T08:54:00.571Z</time></trkpt><trkpt lat="42.1342241" lon="12.1427565"><ele>345.0</ele><time>2026-04-25T08:54:01.571Z</time></trkpt><trkpt lat="42.1341218" lon="12.1427665"><ele>345.0</ele><time>2026-04-25T08:54:02.571Z</time></trkpt><trkpt lat="42.1340212" lon="12.1427807"><ele>345.0</ele><time>2026-04-25T08:54:03.571Z</time></trkpt><trkpt lat="42.1339089" lon="12.1427982"><ele>345.0</ele><time>2026-04-25T08:54:04.571Z</time></trkpt><trkpt lat="42.1338002" lon="12.1428168"><ele>345.0</ele><time>2026-04-25T08:54:05.571Z</time></trkpt><trkpt lat="42.1336962" lon="12.142835"><ele>343.6</ele><time>2026-04-25T08:54:06.571Z</time></trkpt><trkpt lat="42.1335937" lon="12.1428515"><ele>342.2</ele><time>2026-04-25T08:54:07.571Z</time></trkpt><trkpt lat="42.1334849" lon="12.1428656"><ele>340.79999999999995</ele><time>2026-04-25T08:54:08.571Z</time></trkpt><trkpt lat="42.1333771" lon="12.1428811"><ele>339.4</ele><time>2026-04-25T08:54:09.571Z</time></trkpt><trkpt lat="42.1332662" lon="12.1428977"><ele>338.0</ele><time>2026-04-25T08:54:10.571Z</time></trkpt><trkpt lat="42.1331533" lon="12.1429157"><ele>336.75</ele><time>2026-04-25T08:54:11.571Z</time></trkpt><trkpt lat="42.1330367" lon="12.1429433"><ele>335.5</ele><time>2026-04-25T08:54:12.571Z</time></trkpt><trkpt lat="42.1329262" lon="12.1429725"><ele>334.25</ele><time>2026-04-25T08:54:13.571Z</time></trkpt><trkpt lat="42.1328199" lon="12.1430198"><ele>333.0</ele><time>2026-04-25T08:54:14.571Z</time></trkpt><trkpt lat="42.1327164" lon="12.1430659"><ele>333.0</ele><time>2026-04-25T08:54:15.571Z</time></trkpt><trkpt lat="42.1326153" lon="12.1431128"><ele>333.0</ele><time>2026-04-25T08:54:16.571Z</time></trkpt><trkpt lat="42.1325182" lon="12.1431591"><ele>333.0</ele><time>2026-04-25T08:54:17.571Z</time></trkpt><trkpt lat="42.1324242" lon="12.1432072"><ele>333.0</ele><time>2026-04-25T08:54:18.571Z</time></trkpt><trkpt lat="42.1323247" lon="12.1432593"><ele>333.0</ele><time>2026-04-25T08:54:19.571Z</time></trkpt><trkpt lat="42.132234" lon="12.1433067"><ele>332.2</ele><time>2026-04-25T08:54:20.571Z</time></trkpt><trkpt lat="42.1321457" lon="12.1433516"><ele>331.4</ele><time>2026-04-25T08:54:21.571Z</time></trkpt><trkpt lat="42.1320445" lon="12.1433849"><ele>330.59999999999997</ele><time>2026-04-25T08:54:22.571Z</time></trkpt><trkpt lat="42.1319511" lon="12.1434088"><ele>329.79999999999995</ele><time>2026-04-25T08:54:23.571Z</time></trkpt><trkpt lat="42.131859" lon="12.1434291"><ele>329.0</ele><time>2026-04-25T08:54:24.571Z</time></trkpt><trkpt lat="42.1317672" lon="12.143445"><ele>329.0</ele><time>2026-04-25T08:54:25.571Z</time></trkpt><trkpt lat="42.1316775" lon="12.1434632"><ele>329.0</ele><time>2026-04-25T08:54:26.571Z</time></trkpt><trkpt lat="42.1315764" lon="12.1434982"><ele>329.0</ele><time>2026-04-25T08:54:27.571Z</time></trkpt><trkpt lat="42.131479" lon="12.1435438"><ele>329.0</ele><time>2026-04-25T08:54:28.571Z</time></trkpt><trkpt lat="42.1313802" lon="12.1435952"><ele>329.0</ele><time>2026-04-25T08:54:29.571Z</time></trkpt><trkpt lat="42.1312842" lon="12.1436401"><ele>327.2</ele><time>2026-04-25T08:54:30.571Z</time></trkpt><trkpt lat="42.1311954" lon="12.1436877"><ele>325.4</ele><time>2026-04-25T08:54:31.571Z</time></trkpt><trkpt lat="42.1311092" lon="12.1437311"><ele>323.6</ele><time>2026-04-25T08:54:32.571Z</time></trkpt><trkpt lat="42.1310194" lon="12.1437845"><ele>321.8</ele><time>2026-04-25T08:54:33.571Z</time></trkpt><trkpt lat="42.1309348" lon="12.1438296"><ele>320.0</ele><time>2026-04-25T08:54:34.572Z</time></trkpt><trkpt lat="42.1308599" lon="12.1438717"><ele>320.0</ele><time>2026-04-25T08:54:35.571Z</time></trkpt><trkpt lat="42.1307923" lon="12.1439116"><ele>320.0</ele><time>2026-04-25T08:54:36.571Z</time></trkpt><trkpt lat="42.1307288" lon="12.143943"><ele>320.0</ele><time>2026-04-25T08:54:37.571Z</time></trkpt><trkpt lat="42.1306235" lon="12.1439969"><ele>320.0</ele><time>2026-04-25T08:54:39.571Z</time></trkpt><trkpt lat="42.1305249" lon="12.1440449"><ele>320.0</ele><time>2026-04-25T08:54:41.571Z</time></trkpt><trkpt lat="42.1304102" lon="12.1440937"><ele>319.6666666666667</ele><time>2026-04-25T08:54:43.571Z</time></trkpt><trkpt lat="42.1303467" lon="12.1441195"><ele>319.33333333333337</ele><time>2026-04-25T08:54:44.571Z</time></trkpt><trkpt lat="42.1302737" lon="12.1441462"><ele>319.0</ele><time>2026-04-25T08:54:45.571Z</time></trkpt><trkpt lat="42.1302087" lon="12.144172"><ele>318.6666666666667</ele><time>2026-04-25T08:54:46.571Z</time></trkpt><trkpt lat="42.1301186" lon="12.1442025"><ele>318.3333333333333</ele><time>2026-04-25T08:54:47.571Z</time></trkpt><trkpt lat="42.1300343" lon="12.1442032"><ele>318.0</ele><time>2026-04-25T08:54:48.571Z</time></trkpt><trkpt lat="42.1299478" lon="12.1442279"><ele>316.1666666666667</ele><time>2026-04-25T08:54:49.571Z</time></trkpt><trkpt lat="42.1298685" lon="12.1442421"><ele>314.3333333333333</ele><time>2026-04-25T08:54:50.571Z</time></trkpt><trkpt lat="42.129793" lon="12.144255"><ele>312.5</ele><time>2026-04-25T08:54:51.572Z</time></trkpt><trkpt lat="42.1297143" lon="12.1442591"><ele>310.66666666666663</ele><time>2026-04-25T08:54:52.571Z</time></trkpt><trkpt lat="42.1296384" lon="12.1442729"><ele>308.8333333333333</ele><time>2026-04-25T08:54:53.571Z</time></trkpt><trkpt lat="42.1295591" lon="12.1442885"><ele>307.0</ele><time>2026-04-25T08:54:54.571Z</time></trkpt><trkpt lat="42.1294703" lon="12.1443105"><ele>307.0</ele><time>2026-04-25T08:54:55.571Z</time></trkpt><trkpt lat="42.1293964" lon="12.144358"><ele>307.0</ele><time>2026-04-25T08:54:56.572Z</time></trkpt><trkpt lat="42.1293136" lon="12.1443934"><ele>307.0</ele><time>2026-04-25T08:54:57.571Z</time></trkpt><trkpt lat="42.1292396" lon="12.1444286"><ele>307.0</ele><time>2026-04-25T08:54:58.571Z</time></trkpt><trkpt lat="42.1291771" lon="12.1444617"><ele>307.0</ele><time>2026-04-25T08:54:59.571Z</time></trkpt><trkpt lat="42.1290788" lon="12.1445142"><ele>307.0</ele><time>2026-04-25T08:55:01.571Z</time></trkpt><trkpt lat="42.1289887" lon="12.1445607"><ele>306.8</ele><time>2026-04-25T08:55:03.572Z</time></trkpt><trkpt lat="42.1288917" lon="12.1446126"><ele>306.6</ele><time>2026-04-25T08:55:05.571Z</time></trkpt><trkpt lat="42.1287772" lon="12.1446764"><ele>306.40000000000003</ele><time>2026-04-25T08:55:07.571Z</time></trkpt><trkpt lat="42.1287075" lon="12.1447181"><ele>306.2</ele><time>2026-04-25T08:55:08.572Z</time></trkpt><trkpt lat="42.1286292" lon="12.1447603"><ele>306.0</ele><time>2026-04-25T08:55:09.571Z</time></trkpt><trkpt lat="42.1285439" lon="12.1448134"><ele>306.0</ele><time>2026-04-25T08:55:10.571Z</time></trkpt><trkpt lat="42.1284563" lon="12.1448542"><ele>306.0</ele><time>2026-04-25T08:55:11.571Z</time></trkpt><trkpt lat="42.1283756" lon="12.1449041"><ele>306.0</ele><time>2026-04-25T08:55:12.571Z</time></trkpt><trkpt lat="42.1282819" lon="12.1449455"><ele>306.0</ele><time>2026-04-25T08:55:13.571Z</time></trkpt><trkpt lat="42.1281973" lon="12.144985"><ele>306.0</ele><time>2026-04-25T08:55:14.571Z</time></trkpt><trkpt lat="42.128115" lon="12.1450232"><ele>304.3333333333333</ele><time>2026-04-25T08:55:15.571Z</time></trkpt><trkpt lat="42.128037" lon="12.1450662"><ele>302.6666666666667</ele><time>2026-04-25T08:55:16.571Z</time></trkpt><trkpt lat="42.1279531" lon="12.1451032"><ele>301.0</ele><time>2026-04-25T08:55:17.571Z</time></trkpt><trkpt lat="42.1278758" lon="12.1451468"><ele>299.33333333333337</ele><time>2026-04-25T08:55:18.571Z</time></trkpt><trkpt lat="42.1278007" lon="12.1451992"><ele>297.6666666666667</ele><time>2026-04-25T08:55:19.571Z</time></trkpt><trkpt lat="42.1277281" lon="12.1452677"><ele>296.0</ele><time>2026-04-25T08:55:20.571Z</time></trkpt><trkpt lat="42.1276616" lon="12.1453512"><ele>296.0</ele><time>2026-04-25T08:55:21.571Z</time></trkpt><trkpt lat="42.1275988" lon="12.1454343"><ele>296.0</ele><time>2026-04-25T08:55:22.571Z</time></trkpt><trkpt lat="42.1275244" lon="12.1455245"><ele>296.0</ele><time>2026-04-25T08:55:23.571Z</time></trkpt><trkpt lat="42.1274545" lon="12.1456105"><ele>296.0</ele><time>2026-04-25T08:55:24.571Z</time></trkpt><trkpt lat="42.1273875" lon="12.1456892"><ele>296.0</ele><time>2026-04-25T08:55:25.571Z</time></trkpt><trkpt lat="42.1273221" lon="12.1457612"><ele>293.6</ele><time>2026-04-25T08:55:26.571Z</time></trkpt><trkpt lat="42.127251" lon="12.1458142"><ele>291.20000000000005</ele><time>2026-04-25T08:55:27.571Z</time></trkpt><trkpt lat="42.1271733" lon="12.1458486"><ele>288.79999999999995</ele><time>2026-04-25T08:55:28.571Z</time></trkpt><trkpt lat="42.1270841" lon="12.145872"><ele>286.4</ele><time>2026-04-25T08:55:29.571Z</time></trkpt><trkpt lat="42.1269867" lon="12.145901"><ele>284.0</ele><time>2026-04-25T08:55:30.571Z</time></trkpt><trkpt lat="42.1268806" lon="12.1459373"><ele>284.0</ele><time>2026-04-25T08:55:31.572Z</time></trkpt><trkpt lat="42.1267584" lon="12.1459778"><ele>284.0</ele><time>2026-04-25T08:55:32.571Z</time></trkpt><trkpt lat="42.1266335" lon="12.1460148"><ele>284.0</ele><time>2026-04-25T08:55:33.571Z</time></trkpt><trkpt lat="42.1265056" lon="12.1460518"><ele>284.0</ele><time>2026-04-25T08:55:34.57Z</time></trkpt><trkpt lat="42.1263649" lon="12.1460898"><ele>287.5</ele><time>2026-04-25T08:55:35.571Z</time></trkpt><trkpt lat="42.1262339" lon="12.1461333"><ele>291.0</ele><time>2026-04-25T08:55:36.571Z</time></trkpt><trkpt lat="42.1261021" lon="12.1461949"><ele>294.5</ele><time>2026-04-25T08:55:37.571Z</time></trkpt><trkpt lat="42.1259678" lon="12.1462734"><ele>298.0</ele><time>2026-04-25T08:55:38.571Z</time></trkpt><trkpt lat="42.1258403" lon="12.1463678"><ele>299.75</ele><time>2026-04-25T08:55:39.571Z</time></trkpt><trkpt lat="42.1257163" lon="12.14647"><ele>301.5</ele><time>2026-04-25T08:55:40.57Z</time></trkpt><trkpt lat="42.1255919" lon="12.1465772"><ele>303.25</ele><time>2026-04-25T08:55:41.571Z</time></trkpt><trkpt lat="42.125476" lon="12.1466779"><ele>305.0</ele><time>2026-04-25T08:55:42.57Z</time></trkpt><trkpt lat="42.1253777" lon="12.1467588"><ele>305.0</ele><time>2026-04-25T08:55:43.569Z</time></trkpt><trkpt lat="42.1252873" lon="12.1468276"><ele>305.0</ele><time>2026-04-25T08:55:44.57Z</time></trkpt><trkpt lat="42.1251872" lon="12.1468812"><ele>305.0</ele><time>2026-04-25T08:55:45.571Z</time></trkpt><trkpt lat="42.1250816" lon="12.1469269"><ele>305.0</ele><time>2026-04-25T08:55:46.57Z</time></trkpt><trkpt lat="42.12499" lon="12.1469604"><ele>305.0</ele><time>2026-04-25T08:55:47.57Z</time></trkpt><trkpt lat="42.1249064" lon="12.146988"><ele>306.0</ele><time>2026-04-25T08:55:48.57Z</time></trkpt><trkpt lat="42.1248319" lon="12.1470022"><ele>307.0</ele><time>2026-04-25T08:55:49.57Z</time></trkpt><trkpt lat="42.1247544" lon="12.1470174"><ele>308.0</ele><time>2026-04-25T08:55:50.57Z</time></trkpt><trkpt lat="42.1246534" lon="12.1470193"><ele>309.0</ele><time>2026-04-25T08:55:51.57Z</time></trkpt><trkpt lat="42.1245526" lon="12.1470366"><ele>310.0</ele><time>2026-04-25T08:55:52.57Z</time></trkpt><trkpt lat="42.1244428" lon="12.1470465"><ele>310.0</ele><time>2026-04-25T08:55:53.57Z</time></trkpt><trkpt lat="42.124336" lon="12.1470633"><ele>310.0</ele><time>2026-04-25T08:55:54.57Z</time></trkpt><trkpt lat="42.1242397" lon="12.1470965"><ele>310.0</ele><time>2026-04-25T08:55:55.57Z</time></trkpt><trkpt lat="42.1241469" lon="12.1471466"><ele>310.0</ele><time>2026-04-25T08:55:56.57Z</time></trkpt><trkpt lat="42.1240519" lon="12.147212"><ele>310.0</ele><time>2026-04-25T08:55:57.57Z</time></trkpt><trkpt lat="42.123969" lon="12.1472811"><ele>310.0</ele><time>2026-04-25T08:55:58.57Z</time></trkpt><trkpt lat="42.1238899" lon="12.1473469"><ele>310.0</ele><time>2026-04-25T08:55:59.571Z</time></trkpt><trkpt lat="42.1238076" lon="12.1474193"><ele>310.0</ele><time>2026-04-25T08:56:00.57Z</time></trkpt><trkpt lat="42.1237285" lon="12.1474854"><ele>310.0</ele><time>2026-04-25T08:56:01.57Z</time></trkpt><trkpt lat="42.1236476" lon="12.1475567"><ele>310.0</ele><time>2026-04-25T08:56:02.57Z</time></trkpt><trkpt lat="42.1235651" lon="12.1476229"><ele>310.0</ele><time>2026-04-25T08:56:03.57Z</time></trkpt><trkpt lat="42.1234817" lon="12.1477021"><ele>310.0</ele><time>2026-04-25T08:56:04.571Z</time></trkpt><trkpt lat="42.1233881" lon="12.14779"><ele>310.0</ele><time>2026-04-25T08:56:05.57Z</time></trkpt><trkpt lat="42.1232998" lon="12.1478686"><ele>310.0</ele><time>2026-04-25T08:56:06.57Z</time></trkpt><trkpt lat="42.1232135" lon="12.1479398"><ele>310.0</ele><time>2026-04-25T08:56:07.57Z</time></trkpt><trkpt lat="42.1231187" lon="12.1480109"><ele>309.75</ele><time>2026-04-25T08:56:08.57Z</time></trkpt><trkpt lat="42.1230156" lon="12.1480748"><ele>309.5</ele><time>2026-04-25T08:56:09.57Z</time></trkpt><trkpt lat="42.1229137" lon="12.1481401"><ele>309.25</ele><time>2026-04-25T08:56:10.57Z</time></trkpt><trkpt lat="42.1228032" lon="12.1482023"><ele>309.0</ele><time>2026-04-25T08:56:11.57Z</time></trkpt><trkpt lat="42.1226867" lon="12.1482619"><ele>309.0</ele><time>2026-04-25T08:56:12.57Z</time></trkpt><trkpt lat="42.1225543" lon="12.1483333"><ele>309.0</ele><time>2026-04-25T08:56:13.57Z</time></trkpt><trkpt lat="42.1224324" lon="12.1483999"><ele>309.0</ele><time>2026-04-25T08:56:14.57Z</time></trkpt><trkpt lat="42.1223113" lon="12.1484607"><ele>309.0</ele><time>2026-04-25T08:56:15.571Z</time></trkpt><trkpt lat="42.1221813" lon="12.1485273"><ele>309.5</ele><time>2026-04-25T08:56:16.57Z</time></trkpt><trkpt lat="42.1220525" lon="12.1485968"><ele>310.0</ele><time>2026-04-25T08:56:17.57Z</time></trkpt><trkpt lat="42.1219214" lon="12.1486665"><ele>310.5</ele><time>2026-04-25T08:56:18.57Z</time></trkpt><trkpt lat="42.1217913" lon="12.1487332"><ele>311.0</ele><time>2026-04-25T08:56:19.57Z</time></trkpt><trkpt lat="42.1216713" lon="12.1488004"><ele>312.0</ele><time>2026-04-25T08:56:20.57Z</time></trkpt><trkpt lat="42.121561" lon="12.1488606"><ele>313.0</ele><time>2026-04-25T08:56:21.57Z</time></trkpt><trkpt lat="42.1214545" lon="12.1489107"><ele>314.0</ele><time>2026-04-25T08:56:22.569Z</time></trkpt><trkpt lat="42.1213487" lon="12.1489652"><ele>315.0</ele><time>2026-04-25T08:56:23.57Z</time></trkpt><trkpt lat="42.1212314" lon="12.1490347"><ele>314.5</ele><time>2026-04-25T08:56:24.57Z</time></trkpt><trkpt lat="42.1211099" lon="12.1491061"><ele>314.0</ele><time>2026-04-25T08:56:25.57Z</time></trkpt><trkpt lat="42.1209882" lon="12.1491703"><ele>313.5</ele><time>2026-04-25T08:56:26.57Z</time></trkpt><trkpt lat="42.1208714" lon="12.149228"><ele>313.0</ele><time>2026-04-25T08:56:27.57Z</time></trkpt><trkpt lat="42.1207571" lon="12.1492853"><ele>312.75</ele><time>2026-04-25T08:56:28.57Z</time></trkpt><trkpt lat="42.1206477" lon="12.1493372"><ele>312.5</ele><time>2026-04-25T08:56:29.569Z</time></trkpt><trkpt lat="42.1205418" lon="12.1493885"><ele>312.25</ele><time>2026-04-25T08:56:30.57Z</time></trkpt><trkpt lat="42.1204354" lon="12.1494463"><ele>312.0</ele><time>2026-04-25T08:56:31.57Z</time></trkpt><trkpt lat="42.1203206" lon="12.1495139"><ele>312.0</ele><time>2026-04-25T08:56:32.57Z</time></trkpt><trkpt lat="42.1202012" lon="12.1495865"><ele>312.0</ele><time>2026-04-25T08:56:33.57Z</time></trkpt><trkpt lat="42.1200853" lon="12.149654"><ele>312.0</ele><time>2026-04-25T08:56:34.57Z</time></trkpt><trkpt lat="42.1199594" lon="12.1497317"><ele>312.0</ele><time>2026-04-25T08:56:35.57Z</time></trkpt><trkpt lat="42.1198239" lon="12.1498146"><ele>308.75</ele><time>2026-04-25T08:56:36.57Z</time></trkpt><trkpt lat="42.1196869" lon="12.1498923"><ele>305.5</ele><time>2026-04-25T08:56:37.57Z</time></trkpt><trkpt lat="42.1195576" lon="12.1499574"><ele>302.25</ele><time>2026-04-25T08:56:38.57Z</time></trkpt><trkpt lat="42.1194182" lon="12.1500452"><ele>299.0</ele><time>2026-04-25T08:56:39.57Z</time></trkpt><trkpt lat="42.1192859" lon="12.1501441"><ele>299.0</ele><time>2026-04-25T08:56:40.569Z</time></trkpt><trkpt lat="42.1191547" lon="12.150236"><ele>299.0</ele><time>2026-04-25T08:56:41.57Z</time></trkpt><trkpt lat="42.1190268" lon="12.1503322"><ele>299.0</ele><time>2026-04-25T08:56:42.57Z</time></trkpt><trkpt lat="42.1189056" lon="12.1504215"><ele>299.0</ele><time>2026-04-25T08:56:43.57Z</time></trkpt><trkpt lat="42.1187935" lon="12.1505189"><ele>298.5</ele><time>2026-04-25T08:56:44.57Z</time></trkpt><trkpt lat="42.1186835" lon="12.1506158"><ele>298.0</ele><time>2026-04-25T08:56:45.57Z</time></trkpt><trkpt lat="42.1185774" lon="12.1507052"><ele>297.5</ele><time>2026-04-25T08:56:46.57Z</time></trkpt><trkpt lat="42.118475" lon="12.1507925"><ele>297.0</ele><time>2026-04-25T08:56:47.57Z</time></trkpt><trkpt lat="42.1183775" lon="12.1508765"><ele>297.0</ele><time>2026-04-25T08:56:48.57Z</time></trkpt><trkpt lat="42.1182845" lon="12.1509552"><ele>297.0</ele><time>2026-04-25T08:56:49.57Z</time></trkpt><trkpt lat="42.1181949" lon="12.1510238"><ele>297.0</ele><time>2026-04-25T08:56:50.57Z</time></trkpt><trkpt lat="42.1181115" lon="12.151077"><ele>297.0</ele><time>2026-04-25T08:56:51.57Z</time></trkpt><trkpt lat="42.1180347" lon="12.1511277"><ele>297.0</ele><time>2026-04-25T08:56:52.569Z</time></trkpt><trkpt lat="42.1179674" lon="12.1511729"><ele>297.6</ele><time>2026-04-25T08:56:53.57Z</time></trkpt><trkpt lat="42.11791" lon="12.1512136"><ele>298.2</ele><time>2026-04-25T08:56:54.57Z</time></trkpt><trkpt lat="42.1178092" lon="12.1513139"><ele>298.8</ele><time>2026-04-25T08:56:56.57Z</time></trkpt><trkpt lat="42.117719" lon="12.15141"><ele>299.4</ele><time>2026-04-25T08:56:58.57Z</time></trkpt><trkpt lat="42.1176358" lon="12.1515245"><ele>300.0</ele><time>2026-04-25T08:57:00.57Z</time></trkpt><trkpt lat="42.1176028" lon="12.1516914"><ele>298.0</ele><time>2026-04-25T08:57:02.57Z</time></trkpt><trkpt lat="42.1175862" lon="12.1517855"><ele>296.0</ele><time>2026-04-25T08:57:03.57Z</time></trkpt><trkpt lat="42.1175665" lon="12.1518846"><ele>294.0</ele><time>2026-04-25T08:57:04.569Z</time></trkpt><trkpt lat="42.1175451" lon="12.1519845"><ele>292.0</ele><time>2026-04-25T08:57:05.57Z</time></trkpt><trkpt lat="42.117522" lon="12.152097"><ele>290.0</ele><time>2026-04-25T08:57:06.57Z</time></trkpt><trkpt lat="42.1174999" lon="12.1522192"><ele>288.0</ele><time>2026-04-25T08:57:07.57Z</time></trkpt><trkpt lat="42.1174751" lon="12.1523426"><ele>287.2</ele><time>2026-04-25T08:57:08.57Z</time></trkpt><trkpt lat="42.1174473" lon="12.1524699"><ele>286.4</ele><time>2026-04-25T08:57:09.57Z</time></trkpt><trkpt lat="42.1174167" lon="12.152598"><ele>285.59999999999997</ele><time>2026-04-25T08:57:10.57Z</time></trkpt><trkpt lat="42.117389" lon="12.15273"><ele>284.8</ele><time>2026-04-25T08:57:11.57Z</time></trkpt><trkpt lat="42.1173591" lon="12.1528593"><ele>284.0</ele><time>2026-04-25T08:57:12.57Z</time></trkpt><trkpt lat="42.1173262" lon="12.1529797"><ele>284.0</ele><time>2026-04-25T08:57:13.57Z</time></trkpt><trkpt lat="42.1172947" lon="12.1531129"><ele>284.0</ele><time>2026-04-25T08:57:14.57Z</time></trkpt><trkpt lat="42.1172667" lon="12.1532385"><ele>284.0</ele><time>2026-04-25T08:57:15.57Z</time></trkpt><trkpt lat="42.1172354" lon="12.1533691"><ele>284.0</ele><time>2026-04-25T08:57:16.571Z</time></trkpt><trkpt lat="42.117207" lon="12.1534939"><ele>284.0</ele><time>2026-04-25T08:57:17.57Z</time></trkpt><trkpt lat="42.1171811" lon="12.1536087"><ele>283.1666666666667</ele><time>2026-04-25T08:57:18.569Z</time></trkpt><trkpt lat="42.117148" lon="12.153715"><ele>282.33333333333337</ele><time>2026-04-25T08:57:19.57Z</time></trkpt><trkpt lat="42.1171202" lon="12.1538153"><ele>281.5</ele><time>2026-04-25T08:57:20.57Z</time></trkpt><trkpt lat="42.1171004" lon="12.1539227"><ele>280.6666666666667</ele><time>2026-04-25T08:57:21.57Z</time></trkpt><trkpt lat="42.1170814" lon="12.1540452"><ele>279.8333333333333</ele><time>2026-04-25T08:57:22.57Z</time></trkpt><trkpt lat="42.117062" lon="12.1541721"><ele>279.0</ele><time>2026-04-25T08:57:23.57Z</time></trkpt><trkpt lat="42.117043" lon="12.1542991"><ele>276.8</ele><time>2026-04-25T08:57:24.57Z</time></trkpt><trkpt lat="42.1170219" lon="12.154426"><ele>274.59999999999997</ele><time>2026-04-25T08:57:25.571Z</time></trkpt><trkpt lat="42.1170033" lon="12.1545427"><ele>272.4</ele><time>2026-04-25T08:57:26.57Z</time></trkpt><trkpt lat="42.1169846" lon="12.1546659"><ele>270.2</ele><time>2026-04-25T08:57:27.57Z</time></trkpt><trkpt lat="42.1169577" lon="12.1547975"><ele>268.0</ele><time>2026-04-25T08:57:28.571Z</time></trkpt><trkpt lat="42.1169219" lon="12.1549399"><ele>268.0</ele><time>2026-04-25T08:57:29.57Z</time></trkpt><trkpt lat="42.1168781" lon="12.1550895"><ele>268.0</ele><time>2026-04-25T08:57:30.57Z</time></trkpt><trkpt lat="42.1168375" lon="12.1552251"><ele>268.0</ele><time>2026-04-25T08:57:31.57Z</time></trkpt><trkpt lat="42.116808" lon="12.1553389"><ele>268.0</ele><time>2026-04-25T08:57:32.57Z</time></trkpt><trkpt lat="42.1167919" lon="12.1554515"><ele>268.0</ele><time>2026-04-25T08:57:33.57Z</time></trkpt><trkpt lat="42.1167991" lon="12.1555698"><ele>268.0</ele><time>2026-04-25T08:57:34.57Z</time></trkpt><trkpt lat="42.1168247" lon="12.15568"><ele>268.0</ele><time>2026-04-25T08:57:35.57Z</time></trkpt><trkpt lat="42.1168505" lon="12.1558263"><ele>268.0</ele><time>2026-04-25T08:57:37.57Z</time></trkpt><trkpt lat="42.1168014" lon="12.1559559"><ele>268.0</ele><time>2026-04-25T08:57:39.57Z</time></trkpt><trkpt lat="42.1167456" lon="12.1560089"><ele>268.0</ele><time>2026-04-25T08:57:40.57Z</time></trkpt><trkpt lat="42.1166924" lon="12.1560564"><ele>268.0</ele><time>2026-04-25T08:57:41.57Z</time></trkpt><trkpt lat="42.116585" lon="12.1561474"><ele>271.0</ele><time>2026-04-25T08:57:43.57Z</time></trkpt><trkpt lat="42.1165165" lon="12.1561862"><ele>274.0</ele><time>2026-04-25T08:57:44.57Z</time></trkpt><trkpt lat="42.116433" lon="12.1562312"><ele>277.0</ele><time>2026-04-25T08:57:45.57Z</time></trkpt><trkpt lat="42.1163393" lon="12.1562831"><ele>280.0</ele><time>2026-04-25T08:57:46.569Z</time></trkpt><trkpt lat="42.1162455" lon="12.1563345"><ele>283.0</ele><time>2026-04-25T08:57:47.571Z</time></trkpt><trkpt lat="42.1161625" lon="12.1563846"><ele>283.0</ele><time>2026-04-25T08:57:48.57Z</time></trkpt><trkpt lat="42.1160769" lon="12.1564412"><ele>283.0</ele><time>2026-04-25T08:57:49.57Z</time></trkpt><trkpt lat="42.1159953" lon="12.1564933"><ele>283.0</ele><time>2026-04-25T08:57:50.57Z</time></trkpt><trkpt lat="42.1159147" lon="12.1565331"><ele>283.0</ele><time>2026-04-25T08:57:51.569Z</time></trkpt><trkpt lat="42.1158254" lon="12.1565636"><ele>283.0</ele><time>2026-04-25T08:57:52.57Z</time></trkpt><trkpt lat="42.1157456" lon="12.156586"><ele>283.0</ele><time>2026-04-25T08:57:53.57Z</time></trkpt><trkpt lat="42.1156746" lon="12.1566033"><ele>284.2</ele><time>2026-04-25T08:57:54.57Z</time></trkpt><trkpt lat="42.1156099" lon="12.1566185"><ele>285.4</ele><time>2026-04-25T08:57:55.57Z</time></trkpt><trkpt lat="42.1155082" lon="12.1566656"><ele>286.59999999999997</ele><time>2026-04-25T08:57:57.57Z</time></trkpt><trkpt lat="42.1154761" lon="12.1567671"><ele>287.8</ele><time>2026-04-25T08:57:59.57Z</time></trkpt><trkpt lat="42.1154676" lon="12.1569463"><ele>289.0</ele><time>2026-04-25T08:58:01.57Z</time></trkpt><trkpt lat="42.1154613" lon="12.1570528"><ele>289.0</ele><time>2026-04-25T08:58:02.57Z</time></trkpt><trkpt lat="42.1154597" lon="12.1571438"><ele>289.0</ele><time>2026-04-25T08:58:03.571Z</time></trkpt><trkpt lat="42.1154572" lon="12.1572415"><ele>289.0</ele><time>2026-04-25T08:58:04.57Z</time></trkpt><trkpt lat="42.1154451" lon="12.1573441"><ele>289.0</ele><time>2026-04-25T08:58:05.57Z</time></trkpt><trkpt lat="42.1154302" lon="12.157451"><ele>289.0</ele><time>2026-04-25T08:58:06.57Z</time></trkpt><trkpt lat="42.1154181" lon="12.1575552"><ele>289.0</ele><time>2026-04-25T08:58:07.57Z</time></trkpt><trkpt lat="42.1154029" lon="12.1576508"><ele>289.0</ele><time>2026-04-25T08:58:08.57Z</time></trkpt><trkpt lat="42.1153987" lon="12.1577537"><ele>289.16666666666663</ele><time>2026-04-25T08:58:09.57Z</time></trkpt><trkpt lat="42.1153951" lon="12.1578422"><ele>289.3333333333333</ele><time>2026-04-25T08:58:10.57Z</time></trkpt><trkpt lat="42.1153701" lon="12.1580101"><ele>289.5</ele><time>2026-04-25T08:58:12.57Z</time></trkpt><trkpt lat="42.115329" lon="12.1581684"><ele>289.6666666666667</ele><time>2026-04-25T08:58:14.57Z</time></trkpt><trkpt lat="42.1153063" lon="12.1582492"><ele>289.83333333333337</ele><time>2026-04-25T08:58:15.571Z</time></trkpt><trkpt lat="42.1152819" lon="12.1583334"><ele>290.0</ele><time>2026-04-25T08:58:16.57Z</time></trkpt><trkpt lat="42.1152621" lon="12.1584214"><ele>289.42857142857144</ele><time>2026-04-25T08:58:17.57Z</time></trkpt><trkpt lat="42.1152453" lon="12.1585098"><ele>288.8571428571429</ele><time>2026-04-25T08:58:18.57Z</time></trkpt><trkpt lat="42.1152276" lon="12.1586028"><ele>288.2857142857143</ele><time>2026-04-25T08:58:19.57Z</time></trkpt><trkpt lat="42.1152073" lon="12.1587046"><ele>287.7142857142857</ele><time>2026-04-25T08:58:20.57Z</time></trkpt><trkpt lat="42.1151907" lon="12.1588"><ele>287.1428571428571</ele><time>2026-04-25T08:58:21.571Z</time></trkpt><trkpt lat="42.1151784" lon="12.1588971"><ele>286.57142857142856</ele><time>2026-04-25T08:58:22.57Z</time></trkpt><trkpt lat="42.115157" lon="12.158988"><ele>286.0</ele><time>2026-04-25T08:58:23.57Z</time></trkpt><trkpt lat="42.1151258" lon="12.1590727"><ele>285.4285714285714</ele><time>2026-04-25T08:58:24.57Z</time></trkpt><trkpt lat="42.1151045" lon="12.159162"><ele>284.85714285714283</ele><time>2026-04-25T08:58:25.57Z</time></trkpt><trkpt lat="42.11506" lon="12.1592304"><ele>284.2857142857143</ele><time>2026-04-25T08:58:26.57Z</time></trkpt><trkpt lat="42.1150182" lon="12.1593012"><ele>283.71428571428567</ele><time>2026-04-25T08:58:27.569Z</time></trkpt><trkpt lat="42.1149717" lon="12.1593661"><ele>283.1428571428571</ele><time>2026-04-25T08:58:28.57Z</time></trkpt><trkpt lat="42.1149177" lon="12.1594293"><ele>282.57142857142856</ele><time>2026-04-25T08:58:29.57Z</time></trkpt><trkpt lat="42.1148543" lon="12.1594856"><ele>282.0</ele><time>2026-04-25T08:58:30.57Z</time></trkpt><trkpt lat="42.1147905" lon="12.1595378"><ele>282.0</ele><time>2026-04-25T08:58:31.57Z</time></trkpt><trkpt lat="42.1147238" lon="12.1595798"><ele>282.0</ele><time>2026-04-25T08:58:32.57Z</time></trkpt><trkpt lat="42.1146614" lon="12.1596184"><ele>282.0</ele><time>2026-04-25T08:58:33.57Z</time></trkpt><trkpt lat="42.1146015" lon="12.1596595"><ele>282.0</ele><time>2026-04-25T08:58:34.57Z</time></trkpt><trkpt lat="42.1145457" lon="12.1597168"><ele>282.0</ele><time>2026-04-25T08:58:35.57Z</time></trkpt><trkpt lat="42.1144845" lon="12.1597869"><ele>282.0</ele><time>2026-04-25T08:58:36.57Z</time></trkpt><trkpt lat="42.1144322" lon="12.1598546"><ele>282.0</ele><time>2026-04-25T08:58:37.57Z</time></trkpt><trkpt lat="42.1143811" lon="12.1599265"><ele>281.0</ele><time>2026-04-25T08:58:38.57Z</time></trkpt><trkpt lat="42.114337" lon="12.160005"><ele>280.0</ele><time>2026-04-25T08:58:39.57Z</time></trkpt><trkpt lat="42.1143069" lon="12.1601007"><ele>279.0</ele><time>2026-04-25T08:58:40.57Z</time></trkpt><trkpt lat="42.1142796" lon="12.1601984"><ele>278.0</ele><time>2026-04-25T08:58:41.57Z</time></trkpt><trkpt lat="42.114261" lon="12.1602919"><ele>277.0</ele><time>2026-04-25T08:58:42.57Z</time></trkpt><trkpt lat="42.1142426" lon="12.1603753"><ele>276.0</ele><time>2026-04-25T08:58:43.57Z</time></trkpt><trkpt lat="42.1142175" lon="12.1604616"><ele>275.0</ele><time>2026-04-25T08:58:44.57Z</time></trkpt><trkpt lat="42.114183" lon="12.1605567"><ele>275.0</ele><time>2026-04-25T08:58:45.57Z</time></trkpt><trkpt lat="42.1141394" lon="12.1606546"><ele>275.0</ele><time>2026-04-25T08:58:46.57Z</time></trkpt><trkpt lat="42.1140967" lon="12.1607509"><ele>275.0</ele><time>2026-04-25T08:58:47.57Z</time></trkpt><trkpt lat="42.1140596" lon="12.160843"><ele>275.0</ele><time>2026-04-25T08:58:48.57Z</time></trkpt><trkpt lat="42.114019" lon="12.1609348"><ele>275.0</ele><time>2026-04-25T08:58:49.57Z</time></trkpt><trkpt lat="42.1139773" lon="12.1610249"><ele>275.0</ele><time>2026-04-25T08:58:50.57Z</time></trkpt><trkpt lat="42.1139388" lon="12.1611129"><ele>275.1666666666667</ele><time>2026-04-25T08:58:51.57Z</time></trkpt><trkpt lat="42.1138983" lon="12.1611964"><ele>275.33333333333337</ele><time>2026-04-25T08:58:52.57Z</time></trkpt><trkpt lat="42.1138558" lon="12.161271"><ele>275.5</ele><time>2026-04-25T08:58:53.57Z</time></trkpt><trkpt lat="42.1138135" lon="12.1613544"><ele>275.6666666666667</ele><time>2026-04-25T08:58:54.57Z</time></trkpt><trkpt lat="42.1137654" lon="12.1614351"><ele>275.8333333333333</ele><time>2026-04-25T08:58:55.57Z</time></trkpt><trkpt lat="42.1137227" lon="12.1615227"><ele>276.0</ele><time>2026-04-25T08:58:56.57Z</time></trkpt><trkpt lat="42.113671" lon="12.161617"><ele>273.8</ele><time>2026-04-25T08:58:57.571Z</time></trkpt><trkpt lat="42.1136311" lon="12.1616984"><ele>271.6</ele><time>2026-04-25T08:58:58.57Z</time></trkpt><trkpt lat="42.1135818" lon="12.1618452"><ele>269.4</ele><time>2026-04-25T08:59:00.57Z</time></trkpt><trkpt lat="42.1135638" lon="12.1620212"><ele>267.2</ele><time>2026-04-25T08:59:02.57Z</time></trkpt><trkpt lat="42.1135648" lon="12.1621256"><ele>265.0</ele><time>2026-04-25T08:59:03.57Z</time></trkpt><trkpt lat="42.1135665" lon="12.1622234"><ele>265.0</ele><time>2026-04-25T08:59:04.57Z</time></trkpt><trkpt lat="42.1135583" lon="12.1623163"><ele>265.0</ele><time>2026-04-25T08:59:05.57Z</time></trkpt><trkpt lat="42.1135391" lon="12.1624177"><ele>265.0</ele><time>2026-04-25T08:59:06.57Z</time></trkpt><trkpt lat="42.1135105" lon="12.1625172"><ele>265.0</ele><time>2026-04-25T08:59:07.57Z</time></trkpt><trkpt lat="42.1134701" lon="12.1626182"><ele>265.0</ele><time>2026-04-25T08:59:08.57Z</time></trkpt><trkpt lat="42.1134276" lon="12.1627138"><ele>265.0</ele><time>2026-04-25T08:59:09.57Z</time></trkpt><trkpt lat="42.113382" lon="12.1628211"><ele>264.4</ele><time>2026-04-25T08:59:10.57Z</time></trkpt><trkpt lat="42.1133332" lon="12.1629368"><ele>263.8</ele><time>2026-04-25T08:59:11.57Z</time></trkpt><trkpt lat="42.1132925" lon="12.1630528"><ele>263.2</ele><time>2026-04-25T08:59:12.57Z</time></trkpt><trkpt lat="42.1132551" lon="12.1631552"><ele>262.6</ele><time>2026-04-25T08:59:13.57Z</time></trkpt><trkpt lat="42.1132148" lon="12.163264"><ele>262.0</ele><time>2026-04-25T08:59:14.57Z</time></trkpt><trkpt lat="42.1131755" lon="12.163364"><ele>263.66666666666663</ele><time>2026-04-25T08:59:15.57Z</time></trkpt><trkpt lat="42.1131342" lon="12.1634572"><ele>265.3333333333333</ele><time>2026-04-25T08:59:16.57Z</time></trkpt><trkpt lat="42.1130963" lon="12.163553"><ele>267.0</ele><time>2026-04-25T08:59:17.57Z</time></trkpt><trkpt lat="42.1130524" lon="12.163643"><ele>268.6666666666667</ele><time>2026-04-25T08:59:18.57Z</time></trkpt><trkpt lat="42.1129967" lon="12.1638051"><ele>270.33333333333337</ele><time>2026-04-25T08:59:20.57Z</time></trkpt><trkpt lat="42.1129677" lon="12.1638805"><ele>272.0</ele><time>2026-04-25T08:59:21.57Z</time></trkpt><trkpt lat="42.1129053" lon="12.1640004"><ele>271.2</ele><time>2026-04-25T08:59:23.571Z</time></trkpt><trkpt lat="42.1128527" lon="12.1640832"><ele>270.4</ele><time>2026-04-25T08:59:25.57Z</time></trkpt><trkpt lat="42.112797" lon="12.1641676"><ele>269.6</ele><time>2026-04-25T08:59:28.57Z</time></trkpt><trkpt lat="42.1127264" lon="12.1642726"><ele>268.8</ele><time>2026-04-25T08:59:30.57Z</time></trkpt><trkpt lat="42.11264" lon="12.1644147"><ele>268.0</ele><time>2026-04-25T08:59:32.57Z</time></trkpt><trkpt lat="42.1125696" lon="12.1645656"><ele>268.0</ele><time>2026-04-25T08:59:34.57Z</time></trkpt><trkpt lat="42.1125363" lon="12.1646478"><ele>268.0</ele><time>2026-04-25T08:59:35.57Z</time></trkpt><trkpt lat="42.1124977" lon="12.1647265"><ele>268.0</ele><time>2026-04-25T08:59:36.57Z</time></trkpt><trkpt lat="42.1124663" lon="12.1648146"><ele>268.0</ele><time>2026-04-25T08:59:37.571Z</time></trkpt><trkpt lat="42.1124383" lon="12.1649075"><ele>268.0</ele><time>2026-04-25T08:59:38.57Z</time></trkpt><trkpt lat="42.1124073" lon="12.1649997"><ele>268.0</ele><time>2026-04-25T08:59:39.57Z</time></trkpt><trkpt lat="42.1123735" lon="12.1650961"><ele>268.0</ele><time>2026-04-25T08:59:40.57Z</time></trkpt><trkpt lat="42.1123348" lon="12.1651879"><ele>268.0</ele><time>2026-04-25T08:59:41.57Z</time></trkpt><trkpt lat="42.1122855" lon="12.1652661"><ele>268.0</ele><time>2026-04-25T08:59:42.57Z</time></trkpt><trkpt lat="42.1122334" lon="12.1653583"><ele>268.0</ele><time>2026-04-25T08:59:43.57Z</time></trkpt><trkpt lat="42.1121553" lon="12.1654683"><ele>268.0</ele><time>2026-04-25T08:59:44.57Z</time></trkpt><trkpt lat="42.1120922" lon="12.165563"><ele>268.0</ele><time>2026-04-25T08:59:45.57Z</time></trkpt><trkpt lat="42.1120252" lon="12.1656553"><ele>265.8</ele><time>2026-04-25T08:59:46.569Z</time></trkpt><trkpt lat="42.1119699" lon="12.16575"><ele>263.6</ele><time>2026-04-25T08:59:47.57Z</time></trkpt><trkpt lat="42.1119022" lon="12.1658586"><ele>261.4</ele><time>2026-04-25T08:59:48.57Z</time></trkpt><trkpt lat="42.1118409" lon="12.1659646"><ele>259.2</ele><time>2026-04-25T08:59:49.57Z</time></trkpt><trkpt lat="42.1117835" lon="12.1660693"><ele>257.0</ele><time>2026-04-25T08:59:50.571Z</time></trkpt><trkpt lat="42.1117237" lon="12.1661777"><ele>257.0</ele><time>2026-04-25T08:59:51.57Z</time></trkpt><trkpt lat="42.1116702" lon="12.1662825"><ele>257.0</ele><time>2026-04-25T08:59:52.57Z</time></trkpt><trkpt lat="42.1116118" lon="12.1663819"><ele>257.0</ele><time>2026-04-25T08:59:53.569Z</time></trkpt><trkpt lat="42.1115504" lon="12.166477"><ele>257.0</ele><time>2026-04-25T08:59:54.57Z</time></trkpt><trkpt lat="42.1114921" lon="12.166572"><ele>257.0</ele><time>2026-04-25T08:59:55.57Z</time></trkpt><trkpt lat="42.1114295" lon="12.1666663"><ele>255.16666666666669</ele><time>2026-04-25T08:59:56.57Z</time></trkpt><trkpt lat="42.1113716" lon="12.1667507"><ele>253.33333333333334</ele><time>2026-04-25T08:59:57.57Z</time></trkpt><trkpt lat="42.1113179" lon="12.1668302"><ele>251.5</ele><time>2026-04-25T08:59:58.57Z</time></trkpt><trkpt lat="42.1112671" lon="12.1668981"><ele>249.66666666666669</ele><time>2026-04-25T08:59:59.57Z</time></trkpt><trkpt lat="42.1112134" lon="12.1669607"><ele>247.83333333333334</ele><time>2026-04-25T09:00:00.569Z</time></trkpt><trkpt lat="42.1111523" lon="12.1670162"><ele>246.0</ele><time>2026-04-25T09:00:01.57Z</time></trkpt><trkpt lat="42.1110875" lon="12.1670604"><ele>246.0</ele><time>2026-04-25T09:00:02.57Z</time></trkpt><trkpt lat="42.1110287" lon="12.1670963"><ele>246.0</ele><time>2026-04-25T09:00:03.57Z</time></trkpt><trkpt lat="42.1109616" lon="12.1671151"><ele>246.0</ele><time>2026-04-25T09:00:04.57Z</time></trkpt><trkpt lat="42.1108737" lon="12.167165"><ele>246.0</ele><time>2026-04-25T09:00:06.57Z</time></trkpt><trkpt lat="42.1108657" lon="12.1672724"><ele>246.0</ele><time>2026-04-25T09:00:08.57Z</time></trkpt><trkpt lat="42.1108661" lon="12.1674331"><ele>246.0</ele><time>2026-04-25T09:00:10.57Z</time></trkpt><trkpt lat="42.1108492" lon="12.1675218"><ele>245.5714285714286</ele><time>2026-04-25T09:00:11.57Z</time></trkpt><trkpt lat="42.11082" lon="12.1676057"><ele>245.14285714285717</ele><time>2026-04-25T09:00:12.571Z</time></trkpt><trkpt lat="42.1107843" lon="12.1676919"><ele>244.71428571428572</ele><time>2026-04-25T09:00:13.57Z</time></trkpt><trkpt lat="42.1107553" lon="12.1677716"><ele>244.2857142857143</ele><time>2026-04-25T09:00:14.57Z</time></trkpt><trkpt lat="42.1107394" lon="12.1678742"><ele>243.8571428571429</ele><time>2026-04-25T09:00:15.57Z</time></trkpt><trkpt lat="42.1107212" lon="12.1679819"><ele>243.42857142857142</ele><time>2026-04-25T09:00:16.57Z</time></trkpt><trkpt lat="42.1107263" lon="12.168074"><ele>243.0</ele><time>2026-04-25T09:00:17.57Z</time></trkpt><trkpt lat="42.1107169" lon="12.16816"><ele>243.8</ele><time>2026-04-25T09:00:18.57Z</time></trkpt><trkpt lat="42.110708" lon="12.1683174"><ele>244.60000000000002</ele><time>2026-04-25T09:00:20.57Z</time></trkpt><trkpt lat="42.1106933" lon="12.1684397"><ele>245.39999999999998</ele><time>2026-04-25T09:00:22.57Z</time></trkpt><trkpt lat="42.1106585" lon="12.168524"><ele>246.2</ele><time>2026-04-25T09:00:24.571Z</time></trkpt><trkpt lat="42.1105882" lon="12.1686215"><ele>247.0</ele><time>2026-04-25T09:00:26.57Z</time></trkpt><trkpt lat="42.1105148" lon="12.1686657"><ele>246.99999999999997</ele><time>2026-04-25T09:00:28.57Z</time></trkpt><trkpt lat="42.110448" lon="12.1687197"><ele>247.0</ele><time>2026-04-25T09:00:31.569Z</time></trkpt><trkpt lat="42.11043" lon="12.1688231"><ele>247.0</ele><time>2026-04-25T09:00:56.57Z</time></trkpt><trkpt lat="42.1105176" lon="12.1688247"><ele>247.0</ele><time>2026-04-25T09:00:58.57Z</time></trkpt><trkpt lat="42.1106249" lon="12.16875"><ele>246.99999999999997</ele><time>2026-04-25T09:01:00.57Z</time></trkpt><trkpt lat="42.1106858" lon="12.1686791"><ele>247.0</ele><time>2026-04-25T09:01:01.57Z</time></trkpt><trkpt lat="42.1107351" lon="12.1686002"><ele>244.85714285714286</ele><time>2026-04-25T09:01:02.57Z</time></trkpt><trkpt lat="42.1107737" lon="12.1685226"><ele>242.71428571428572</ele><time>2026-04-25T09:01:03.57Z</time></trkpt><trkpt lat="42.110811" lon="12.1684476"><ele>240.57142857142858</ele><time>2026-04-25T09:01:04.57Z</time></trkpt><trkpt lat="42.1108529" lon="12.1683718"><ele>238.42857142857144</ele><time>2026-04-25T09:01:05.57Z</time></trkpt><trkpt lat="42.1109055" lon="12.1683135"><ele>236.28571428571428</ele><time>2026-04-25T09:01:06.57Z</time></trkpt><trkpt lat="42.1109654" lon="12.1682738"><ele>234.14285714285717</ele><time>2026-04-25T09:01:07.57Z</time></trkpt><trkpt lat="42.1110363" lon="12.1682555"><ele>232.00000000000003</ele><time>2026-04-25T09:01:08.57Z</time></trkpt><trkpt lat="42.1111271" lon="12.1682617"><ele>231.99999999999997</ele><time>2026-04-25T09:01:09.57Z</time></trkpt><trkpt lat="42.11122" lon="12.1682949"><ele>232.0</ele><time>2026-04-25T09:01:10.57Z</time></trkpt><trkpt lat="42.1113028" lon="12.1683437"><ele>232.0</ele><time>2026-04-25T09:01:11.57Z</time></trkpt><trkpt lat="42.1113762" lon="12.168399"><ele>232.0</ele><time>2026-04-25T09:01:12.57Z</time></trkpt><trkpt lat="42.1114411" lon="12.1684667"><ele>231.99999999999997</ele><time>2026-04-25T09:01:13.57Z</time></trkpt><trkpt lat="42.1114951" lon="12.1685435"><ele>232.0</ele><time>2026-04-25T09:01:14.57Z</time></trkpt><trkpt lat="42.1115479" lon="12.1686353"><ele>233.6</ele><time>2026-04-25T09:01:15.57Z</time></trkpt><trkpt lat="42.1116058" lon="12.1687437"><ele>235.2</ele><time>2026-04-25T09:01:16.571Z</time></trkpt><trkpt lat="42.1116677" lon="12.1688586"><ele>236.8</ele><time>2026-04-25T09:01:17.57Z</time></trkpt><trkpt lat="42.1117366" lon="12.1689751"><ele>238.4</ele><time>2026-04-25T09:01:18.57Z</time></trkpt><trkpt lat="42.1118212" lon="12.1690918"><ele>240.0</ele><time>2026-04-25T09:01:19.57Z</time></trkpt><trkpt lat="42.1119227" lon="12.1692051"><ele>234.5</ele><time>2026-04-25T09:01:20.569Z</time></trkpt><trkpt lat="42.1120265" lon="12.1693109"><ele>229.0</ele><time>2026-04-25T09:01:21.57Z</time></trkpt><trkpt lat="42.1121391" lon="12.1694192"><ele>223.5</ele><time>2026-04-25T09:01:22.57Z</time></trkpt><trkpt lat="42.1122581" lon="12.1695305"><ele>218.0</ele><time>2026-04-25T09:01:23.57Z</time></trkpt><trkpt lat="42.1123766" lon="12.1696396"><ele>216.0</ele><time>2026-04-25T09:01:24.57Z</time></trkpt><trkpt lat="42.112495" lon="12.1697546"><ele>214.0</ele><time>2026-04-25T09:01:25.57Z</time></trkpt><trkpt lat="42.1126067" lon="12.1698656"><ele>212.0</ele><time>2026-04-25T09:01:26.57Z</time></trkpt><trkpt lat="42.1127128" lon="12.1699736"><ele>210.0</ele><time>2026-04-25T09:01:27.571Z</time></trkpt><trkpt lat="42.1128177" lon="12.1700879"><ele>210.0</ele><time>2026-04-25T09:01:28.57Z</time></trkpt><trkpt lat="42.1129192" lon="12.1702098"><ele>210.0</ele><time>2026-04-25T09:01:29.571Z</time></trkpt><trkpt lat="42.1130162" lon="12.1703394"><ele>210.0</ele><time>2026-04-25T09:01:30.57Z</time></trkpt><trkpt lat="42.1131069" lon="12.170477"><ele>210.0</ele><time>2026-04-25T09:01:31.57Z</time></trkpt><trkpt lat="42.1131953" lon="12.170619"><ele>210.5</ele><time>2026-04-25T09:01:32.57Z</time></trkpt><trkpt lat="42.1132852" lon="12.1707597"><ele>211.0</ele><time>2026-04-25T09:01:33.569Z</time></trkpt><trkpt lat="42.1133724" lon="12.1708978"><ele>211.5</ele><time>2026-04-25T09:01:34.571Z</time></trkpt><trkpt lat="42.1134567" lon="12.1710372"><ele>212.0</ele><time>2026-04-25T09:01:35.57Z</time></trkpt><trkpt lat="42.113542" lon="12.171175"><ele>212.0</ele><time>2026-04-25T09:01:36.57Z</time></trkpt><trkpt lat="42.1136299" lon="12.1713195"><ele>212.0</ele><time>2026-04-25T09:01:37.571Z</time></trkpt><trkpt lat="42.1137263" lon="12.1714794"><ele>212.0</ele><time>2026-04-25T09:01:38.57Z</time></trkpt><trkpt lat="42.1138248" lon="12.1716399"><ele>212.0</ele><time>2026-04-25T09:01:39.57Z</time></trkpt><trkpt lat="42.1139201" lon="12.1717943"><ele>213.33333333333334</ele><time>2026-04-25T09:01:40.57Z</time></trkpt><trkpt lat="42.1140171" lon="12.1719529"><ele>214.66666666666669</ele><time>2026-04-25T09:01:41.57Z</time></trkpt><trkpt lat="42.1141257" lon="12.1721292"><ele>216.0</ele><time>2026-04-25T09:01:42.57Z</time></trkpt><trkpt lat="42.1142366" lon="12.1723124"><ele>211.0</ele><time>2026-04-25T09:01:43.57Z</time></trkpt><trkpt lat="42.1143377" lon="12.1724782"><ele>206.0</ele><time>2026-04-25T09:01:44.569Z</time></trkpt><trkpt lat="42.1144369" lon="12.1726321"><ele>201.0</ele><time>2026-04-25T09:01:45.569Z</time></trkpt><trkpt lat="42.1145328" lon="12.1727705"><ele>201.0</ele><time>2026-04-25T09:01:46.569Z</time></trkpt><trkpt lat="42.1146394" lon="12.1728877"><ele>201.0</ele><time>2026-04-25T09:01:47.569Z</time></trkpt><trkpt lat="42.1147588" lon="12.1729886"><ele>201.0</ele><time>2026-04-25T09:01:48.569Z</time></trkpt><trkpt lat="42.1148979" lon="12.1730732"><ele>201.0</ele><time>2026-04-25T09:01:49.569Z</time></trkpt><trkpt lat="42.1150563" lon="12.1731397"><ele>200.0</ele><time>2026-04-25T09:01:50.569Z</time></trkpt><trkpt lat="42.1152338" lon="12.1731921"><ele>199.0</ele><time>2026-04-25T09:01:51.569Z</time></trkpt><trkpt lat="42.1154209" lon="12.1732316"><ele>198.0</ele><time>2026-04-25T09:01:52.569Z</time></trkpt><trkpt lat="42.1155937" lon="12.1732697"><ele>199.0</ele><time>2026-04-25T09:01:53.569Z</time></trkpt><trkpt lat="42.1157658" lon="12.1733089"><ele>200.0</ele><time>2026-04-25T09:01:54.569Z</time></trkpt><trkpt lat="42.115923" lon="12.173345"><ele>201.0</ele><time>2026-04-25T09:01:55.568Z</time></trkpt><trkpt lat="42.1160632" lon="12.1733817"><ele>201.0</ele><time>2026-04-25T09:01:56.569Z</time></trkpt><trkpt lat="42.1161953" lon="12.1734133"><ele>201.0</ele><time>2026-04-25T09:01:57.569Z</time></trkpt><trkpt lat="42.1163263" lon="12.1734434"><ele>201.0</ele><time>2026-04-25T09:01:58.569Z</time></trkpt><trkpt lat="42.1164474" lon="12.1734821"><ele>201.0</ele><time>2026-04-25T09:01:59.569Z</time></trkpt><trkpt lat="42.1165679" lon="12.1735137"><ele>201.5</ele><time>2026-04-25T09:02:00.569Z</time></trkpt><trkpt lat="42.1166865" lon="12.1735458"><ele>202.0</ele><time>2026-04-25T09:02:01.568Z</time></trkpt><trkpt lat="42.1168161" lon="12.1735777"><ele>202.5</ele><time>2026-04-25T09:02:02.569Z</time></trkpt><trkpt lat="42.1169472" lon="12.1736127"><ele>203.0</ele><time>2026-04-25T09:02:03.569Z</time></trkpt><trkpt lat="42.1170791" lon="12.1736536"><ele>203.0</ele><time>2026-04-25T09:02:04.569Z</time></trkpt><trkpt lat="42.117215" lon="12.1736916"><ele>203.0</ele><time>2026-04-25T09:02:05.569Z</time></trkpt><trkpt lat="42.1173401" lon="12.1737247"><ele>203.0</ele><time>2026-04-25T09:02:06.569Z</time></trkpt><trkpt lat="42.1174639" lon="12.1737566"><ele>203.0</ele><time>2026-04-25T09:02:07.569Z</time></trkpt><trkpt lat="42.117589" lon="12.1737895"><ele>203.0</ele><time>2026-04-25T09:02:08.569Z</time></trkpt><trkpt lat="42.1177186" lon="12.1738252"><ele>203.0</ele><time>2026-04-25T09:02:09.569Z</time></trkpt><trkpt lat="42.1178429" lon="12.1738623"><ele>203.0</ele><time>2026-04-25T09:02:10.569Z</time></trkpt><trkpt lat="42.1179655" lon="12.1738977"><ele>203.0</ele><time>2026-04-25T09:02:11.569Z</time></trkpt><trkpt lat="42.1180871" lon="12.173931"><ele>203.0</ele><time>2026-04-25T09:02:12.569Z</time></trkpt><trkpt lat="42.1182046" lon="12.1739634"><ele>203.0</ele><time>2026-04-25T09:02:13.569Z</time></trkpt><trkpt lat="42.1183222" lon="12.1739897"><ele>203.0</ele><time>2026-04-25T09:02:14.569Z</time></trkpt><trkpt lat="42.1184345" lon="12.1740162"><ele>203.0</ele><time>2026-04-25T09:02:15.569Z</time></trkpt><trkpt lat="42.1185372" lon="12.1740433"><ele>199.2</ele><time>2026-04-25T09:02:16.569Z</time></trkpt><trkpt lat="42.1186433" lon="12.1740718"><ele>195.4</ele><time>2026-04-25T09:02:17.569Z</time></trkpt><trkpt lat="42.1187396" lon="12.1740949"><ele>191.6</ele><time>2026-04-25T09:02:18.569Z</time></trkpt><trkpt lat="42.1188184" lon="12.1741156"><ele>187.79999999999998</ele><time>2026-04-25T09:02:19.569Z</time></trkpt><trkpt lat="42.1188911" lon="12.1741304"><ele>184.0</ele><time>2026-04-25T09:02:21.569Z</time></trkpt><trkpt lat="42.1189981" lon="12.1741557"><ele>184.0</ele><time>2026-04-25T09:02:25.569Z</time></trkpt><trkpt lat="42.1190773" lon="12.1741653"><ele>184.0</ele><time>2026-04-25T09:02:26.569Z</time></trkpt><trkpt lat="42.1191801" lon="12.1741637"><ele>184.0</ele><time>2026-04-25T09:02:27.569Z</time></trkpt><trkpt lat="42.1192947" lon="12.1741442"><ele>184.0</ele><time>2026-04-25T09:02:28.569Z</time></trkpt><trkpt lat="42.1194035" lon="12.1741109"><ele>184.0</ele><time>2026-04-25T09:02:29.569Z</time></trkpt><trkpt lat="42.1195112" lon="12.1740701"><ele>184.0</ele><time>2026-04-25T09:02:30.569Z</time></trkpt><trkpt lat="42.1196204" lon="12.1740271"><ele>184.0</ele><time>2026-04-25T09:02:31.569Z</time></trkpt><trkpt lat="42.1197216" lon="12.1739847"><ele>184.0</ele><time>2026-04-25T09:02:32.569Z</time></trkpt><trkpt lat="42.1198164" lon="12.173943"><ele>184.0</ele><time>2026-04-25T09:02:33.569Z</time></trkpt><trkpt lat="42.119898" lon="12.1739033"><ele>184.0</ele><time>2026-04-25T09:02:34.569Z</time></trkpt><trkpt lat="42.1199668" lon="12.1738691"><ele>189.0</ele><time>2026-04-25T09:02:35.569Z</time></trkpt><trkpt lat="42.1200714" lon="12.1738254"><ele>189.0</ele><time>2026-04-25T09:02:37.569Z</time></trkpt><trkpt lat="42.1201342" lon="12.1738371"><ele>189.0</ele><time>2026-04-25T09:02:40.569Z</time></trkpt><trkpt lat="42.1201388" lon="12.1739263"><ele>189.0</ele><time>2026-04-25T09:02:46.569Z</time></trkpt><trkpt lat="42.1200661" lon="12.1739481"><ele>189.0</ele><time>2026-04-25T09:02:59.569Z</time></trkpt></trkseg></trk></gpx>